<?xml version="1.0" encoding="UTF-8" standalone="no" ?><gpx xmlns="http://www.topografix.com/GPX/1/1" xmlns:gpxx="http://www.garmin.com/xmlschemas/GpxExtensions/v3" xmlns:wptx1="http://www.garmin.com/xmlschemas/WaypointExtension/v1" xmlns:gpxtpx="http://www.garmin.com/xmlschemas/TrackPointExtension/v1" creator="GuideVTT.com" version="1.1" xmlns:xsi="http://www.w3.org/2001/XMLSchema-instance" xsi:schemaLocation="http://www.topografix.com/GPX/1/1 http://www.topografix.com/GPX/1/1/gpx.xsd http://www.garmin.com/xmlschemas/GpxExtensions/v3 http://www8.garmin.com/xmlschemas/GpxExtensionsv3.xsd http://www.garmin.com/xmlschemas/WaypointExtension/v1 http://www8.garmin.com/xmlschemas/WaypointExtensionv1.xsd http://www.garmin.com/xmlschemas/TrackPointExtension/v1 http://www.garmin.com/xmlschemas/TrackPointExtensionv1.xsd">
<metadata><link href="http://www.garmin.com"><text>Garmin International</text></link><time>2013-06-22T15:13:50Z</time></metadata>
<trk><name>2023-02-21_094453.gpx</name><extensions><gpxx:TrackExtension><gpxx:DisplayColor>Cyan</gpxx:DisplayColor></gpxx:TrackExtension></extensions><trkseg>
<trkpt lat="48.496704" lon="2.634712"><ele></ele><time>2023-8-15T9:27:59Z</time></trkpt>
<trkpt lat="48.496704" lon="2.634712"><ele></ele><time>2023-8-15T9:28:2Z</time></trkpt>
<trkpt lat="48.496701" lon="2.63471"><ele></ele><time>2023-8-15T9:28:5Z</time></trkpt>
<trkpt lat="48.496702" lon="2.634709"><ele></ele><time>2023-8-15T9:28:8Z</time></trkpt>
<trkpt lat="48.496701" lon="2.634707"><ele></ele><time>2023-8-15T9:28:11Z</time></trkpt>
<trkpt lat="48.496676" lon="2.634702"><ele></ele><time>2023-8-15T9:28:14Z</time></trkpt>
<trkpt lat="48.496671" lon="2.634709"><ele></ele><time>2023-8-15T9:28:17Z</time></trkpt>
<trkpt lat="48.496664" lon="2.634706"><ele></ele><time>2023-8-15T9:28:20Z</time></trkpt>
<trkpt lat="48.496668" lon="2.634708"><ele></ele><time>2023-8-15T9:28:23Z</time></trkpt>
<trkpt lat="48.496668" lon="2.634708"><ele></ele><time>2023-8-15T9:28:26Z</time></trkpt>
<trkpt lat="48.496617" lon="2.634858"><ele></ele><time>2023-8-15T9:28:29Z</time></trkpt>
<trkpt lat="48.496518" lon="2.634978"><ele></ele><time>2023-8-15T9:28:32Z</time></trkpt>
<trkpt lat="48.496399" lon="2.635094"><ele></ele><time>2023-8-15T9:28:35Z</time></trkpt>
<trkpt lat="48.496296" lon="2.63521"><ele></ele><time>2023-8-15T9:28:38Z</time></trkpt>
<trkpt lat="48.496213" lon="2.635309"><ele></ele><time>2023-8-15T9:28:41Z</time></trkpt>
<trkpt lat="48.496139" lon="2.635407"><ele></ele><time>2023-8-15T9:28:44Z</time></trkpt>
<trkpt lat="48.496062" lon="2.635523"><ele></ele><time>2023-8-15T9:28:47Z</time></trkpt>
<trkpt lat="48.495989" lon="2.635653"><ele></ele><time>2023-8-15T9:28:50Z</time></trkpt>
<trkpt lat="48.495893" lon="2.635717"><ele></ele><time>2023-8-15T9:28:53Z</time></trkpt>
<trkpt lat="48.495795" lon="2.635796"><ele></ele><time>2023-8-15T9:28:56Z</time></trkpt>
<trkpt lat="48.495713" lon="2.635898"><ele></ele><time>2023-8-15T9:28:59Z</time></trkpt>
<trkpt lat="48.495619" lon="2.635993"><ele></ele><time>2023-8-15T9:29:2Z</time></trkpt>
<trkpt lat="48.495525" lon="2.636105"><ele></ele><time>2023-8-15T9:29:5Z</time></trkpt>
<trkpt lat="48.495452" lon="2.636267"><ele></ele><time>2023-8-15T9:29:8Z</time></trkpt>
<trkpt lat="48.495383" lon="2.636364"><ele></ele><time>2023-8-15T9:29:11Z</time></trkpt>
<trkpt lat="48.495386" lon="2.63636"><ele></ele><time>2023-8-15T9:29:14Z</time></trkpt>
<trkpt lat="48.495389" lon="2.636359"><ele></ele><time>2023-8-15T9:29:17Z</time></trkpt>
<trkpt lat="48.495398" lon="2.63636"><ele></ele><time>2023-8-15T9:29:20Z</time></trkpt>
<trkpt lat="48.495393" lon="2.63636"><ele></ele><time>2023-8-15T9:29:23Z</time></trkpt>
<trkpt lat="48.495317" lon="2.636457"><ele></ele><time>2023-8-15T9:29:26Z</time></trkpt>
<trkpt lat="48.495226" lon="2.636563"><ele></ele><time>2023-8-15T9:29:29Z</time></trkpt>
<trkpt lat="48.495135" lon="2.636687"><ele></ele><time>2023-8-15T9:29:32Z</time></trkpt>
<trkpt lat="48.495042" lon="2.636812"><ele></ele><time>2023-8-15T9:29:35Z</time></trkpt>
<trkpt lat="48.494959" lon="2.636909"><ele></ele><time>2023-8-15T9:29:38Z</time></trkpt>
<trkpt lat="48.494853" lon="2.637035"><ele></ele><time>2023-8-15T9:29:41Z</time></trkpt>
<trkpt lat="48.494775" lon="2.637151"><ele></ele><time>2023-8-15T9:29:44Z</time></trkpt>
<trkpt lat="48.494695" lon="2.637264"><ele></ele><time>2023-8-15T9:29:47Z</time></trkpt>
<trkpt lat="48.494608" lon="2.637404"><ele></ele><time>2023-8-15T9:29:50Z</time></trkpt>
<trkpt lat="48.494531" lon="2.637475"><ele></ele><time>2023-8-15T9:29:53Z</time></trkpt>
<trkpt lat="48.494442" lon="2.637568"><ele></ele><time>2023-8-15T9:29:56Z</time></trkpt>
<trkpt lat="48.494361" lon="2.637656"><ele></ele><time>2023-8-15T9:29:59Z</time></trkpt>
<trkpt lat="48.494285" lon="2.637753"><ele></ele><time>2023-8-15T9:30:2Z</time></trkpt>
<trkpt lat="48.494209" lon="2.637844"><ele></ele><time>2023-8-15T9:30:5Z</time></trkpt>
<trkpt lat="48.494108" lon="2.637933"><ele></ele><time>2023-8-15T9:30:8Z</time></trkpt>
<trkpt lat="48.494021" lon="2.638031"><ele></ele><time>2023-8-15T9:30:11Z</time></trkpt>
<trkpt lat="48.493937" lon="2.638128"><ele></ele><time>2023-8-15T9:30:14Z</time></trkpt>
<trkpt lat="48.493877" lon="2.638231"><ele></ele><time>2023-8-15T9:30:17Z</time></trkpt>
<trkpt lat="48.493794" lon="2.638357"><ele></ele><time>2023-8-15T9:30:20Z</time></trkpt>
<trkpt lat="48.493717" lon="2.638432"><ele></ele><time>2023-8-15T9:30:23Z</time></trkpt>
<trkpt lat="48.493611" lon="2.638555"><ele></ele><time>2023-8-15T9:30:26Z</time></trkpt>
<trkpt lat="48.49354" lon="2.638663"><ele></ele><time>2023-8-15T9:30:29Z</time></trkpt>
<trkpt lat="48.493451" lon="2.638799"><ele></ele><time>2023-8-15T9:30:32Z</time></trkpt>
<trkpt lat="48.493385" lon="2.638902"><ele></ele><time>2023-8-15T9:30:35Z</time></trkpt>
<trkpt lat="48.493319" lon="2.639"><ele></ele><time>2023-8-15T9:30:38Z</time></trkpt>
<trkpt lat="48.493224" lon="2.639121"><ele></ele><time>2023-8-15T9:30:41Z</time></trkpt>
<trkpt lat="48.49315" lon="2.639279"><ele></ele><time>2023-8-15T9:30:44Z</time></trkpt>
<trkpt lat="48.49308" lon="2.639395"><ele></ele><time>2023-8-15T9:30:47Z</time></trkpt>
<trkpt lat="48.492939" lon="2.63947"><ele></ele><time>2023-8-15T9:30:50Z</time></trkpt>
<trkpt lat="48.492815" lon="2.639548"><ele></ele><time>2023-8-15T9:30:53Z</time></trkpt>
<trkpt lat="48.492717" lon="2.639669"><ele></ele><time>2023-8-15T9:30:56Z</time></trkpt>
<trkpt lat="48.492625" lon="2.639782"><ele></ele><time>2023-8-15T9:30:59Z</time></trkpt>
<trkpt lat="48.492533" lon="2.639889"><ele></ele><time>2023-8-15T9:31:2Z</time></trkpt>
<trkpt lat="48.492437" lon="2.640013"><ele></ele><time>2023-8-15T9:31:5Z</time></trkpt>
<trkpt lat="48.492356" lon="2.640113"><ele></ele><time>2023-8-15T9:31:8Z</time></trkpt>
<trkpt lat="48.49228" lon="2.64024"><ele></ele><time>2023-8-15T9:31:11Z</time></trkpt>
<trkpt lat="48.492221" lon="2.640365"><ele></ele><time>2023-8-15T9:31:14Z</time></trkpt>
<trkpt lat="48.492121" lon="2.64049"><ele></ele><time>2023-8-15T9:31:17Z</time></trkpt>
<trkpt lat="48.492023" lon="2.640618"><ele></ele><time>2023-8-15T9:31:20Z</time></trkpt>
<trkpt lat="48.491947" lon="2.640709"><ele></ele><time>2023-8-15T9:31:23Z</time></trkpt>
<trkpt lat="48.491868" lon="2.640801"><ele></ele><time>2023-8-15T9:31:26Z</time></trkpt>
<trkpt lat="48.491787" lon="2.640879"><ele></ele><time>2023-8-15T9:31:29Z</time></trkpt>
<trkpt lat="48.4917" lon="2.641021"><ele></ele><time>2023-8-15T9:31:32Z</time></trkpt>
<trkpt lat="48.491621" lon="2.641112"><ele></ele><time>2023-8-15T9:31:35Z</time></trkpt>
<trkpt lat="48.491488" lon="2.641204"><ele></ele><time>2023-8-15T9:31:38Z</time></trkpt>
<trkpt lat="48.491387" lon="2.641333"><ele></ele><time>2023-8-15T9:31:41Z</time></trkpt>
<trkpt lat="48.491296" lon="2.641436"><ele></ele><time>2023-8-15T9:31:44Z</time></trkpt>
<trkpt lat="48.491213" lon="2.641526"><ele></ele><time>2023-8-15T9:31:47Z</time></trkpt>
<trkpt lat="48.491134" lon="2.641643"><ele></ele><time>2023-8-15T9:31:50Z</time></trkpt>
<trkpt lat="48.491048" lon="2.641726"><ele></ele><time>2023-8-15T9:31:53Z</time></trkpt>
<trkpt lat="48.49095" lon="2.641829"><ele></ele><time>2023-8-15T9:31:56Z</time></trkpt>
<trkpt lat="48.490845" lon="2.641977"><ele></ele><time>2023-8-15T9:31:59Z</time></trkpt>
<trkpt lat="48.490766" lon="2.642061"><ele></ele><time>2023-8-15T9:32:2Z</time></trkpt>
<trkpt lat="48.4907" lon="2.642159"><ele></ele><time>2023-8-15T9:32:5Z</time></trkpt>
<trkpt lat="48.490622" lon="2.642254"><ele></ele><time>2023-8-15T9:32:8Z</time></trkpt>
<trkpt lat="48.490531" lon="2.642333"><ele></ele><time>2023-8-15T9:32:11Z</time></trkpt>
<trkpt lat="48.490432" lon="2.642459"><ele></ele><time>2023-8-15T9:32:14Z</time></trkpt>
<trkpt lat="48.490346" lon="2.642565"><ele></ele><time>2023-8-15T9:32:17Z</time></trkpt>
<trkpt lat="48.490264" lon="2.642656"><ele></ele><time>2023-8-15T9:32:20Z</time></trkpt>
<trkpt lat="48.490175" lon="2.642759"><ele></ele><time>2023-8-15T9:32:23Z</time></trkpt>
<trkpt lat="48.490066" lon="2.642907"><ele></ele><time>2023-8-15T9:32:26Z</time></trkpt>
<trkpt lat="48.489986" lon="2.643003"><ele></ele><time>2023-8-15T9:32:29Z</time></trkpt>
<trkpt lat="48.489917" lon="2.64309"><ele></ele><time>2023-8-15T9:32:32Z</time></trkpt>
<trkpt lat="48.48983" lon="2.643222"><ele></ele><time>2023-8-15T9:32:35Z</time></trkpt>
<trkpt lat="48.489742" lon="2.643345"><ele></ele><time>2023-8-15T9:32:38Z</time></trkpt>
<trkpt lat="48.48967" lon="2.643447"><ele></ele><time>2023-8-15T9:32:41Z</time></trkpt>
<trkpt lat="48.48959" lon="2.643559"><ele></ele><time>2023-8-15T9:32:44Z</time></trkpt>
<trkpt lat="48.489522" lon="2.643711"><ele></ele><time>2023-8-15T9:32:47Z</time></trkpt>
<trkpt lat="48.489489" lon="2.643862"><ele></ele><time>2023-8-15T9:32:50Z</time></trkpt>
<trkpt lat="48.489446" lon="2.64404"><ele></ele><time>2023-8-15T9:32:53Z</time></trkpt>
<trkpt lat="48.489414" lon="2.644202"><ele></ele><time>2023-8-15T9:32:56Z</time></trkpt>
<trkpt lat="48.489407" lon="2.644341"><ele></ele><time>2023-8-15T9:32:59Z</time></trkpt>
<trkpt lat="48.489356" lon="2.644471"><ele></ele><time>2023-8-15T9:33:2Z</time></trkpt>
<trkpt lat="48.48932" lon="2.644615"><ele></ele><time>2023-8-15T9:33:5Z</time></trkpt>
<trkpt lat="48.489285" lon="2.644785"><ele></ele><time>2023-8-15T9:33:8Z</time></trkpt>
<trkpt lat="48.489242" lon="2.644945"><ele></ele><time>2023-8-15T9:33:11Z</time></trkpt>
<trkpt lat="48.489208" lon="2.64514"><ele></ele><time>2023-8-15T9:33:14Z</time></trkpt>
<trkpt lat="48.48919" lon="2.645298"><ele></ele><time>2023-8-15T9:33:17Z</time></trkpt>
<trkpt lat="48.489164" lon="2.645465"><ele></ele><time>2023-8-15T9:33:20Z</time></trkpt>
<trkpt lat="48.489127" lon="2.645632"><ele></ele><time>2023-8-15T9:33:23Z</time></trkpt>
<trkpt lat="48.489042" lon="2.645863"><ele></ele><time>2023-8-15T9:33:26Z</time></trkpt>
<trkpt lat="48.489015" lon="2.645998"><ele></ele><time>2023-8-15T9:33:29Z</time></trkpt>
<trkpt lat="48.488983" lon="2.64614"><ele></ele><time>2023-8-15T9:33:32Z</time></trkpt>
<trkpt lat="48.488934" lon="2.646302"><ele></ele><time>2023-8-15T9:33:35Z</time></trkpt>
<trkpt lat="48.48887" lon="2.646503"><ele></ele><time>2023-8-15T9:33:38Z</time></trkpt>
<trkpt lat="48.488822" lon="2.646646"><ele></ele><time>2023-8-15T9:33:41Z</time></trkpt>
<trkpt lat="48.488765" lon="2.64678"><ele></ele><time>2023-8-15T9:33:44Z</time></trkpt>
<trkpt lat="48.48865" lon="2.646969"><ele></ele><time>2023-8-15T9:33:47Z</time></trkpt>
<trkpt lat="48.488606" lon="2.6471"><ele></ele><time>2023-8-15T9:33:50Z</time></trkpt>
<trkpt lat="48.488541" lon="2.647254"><ele></ele><time>2023-8-15T9:33:53Z</time></trkpt>
<trkpt lat="48.488464" lon="2.647383"><ele></ele><time>2023-8-15T9:33:56Z</time></trkpt>
<trkpt lat="48.488375" lon="2.647529"><ele></ele><time>2023-8-15T9:33:59Z</time></trkpt>
<trkpt lat="48.488319" lon="2.64764"><ele></ele><time>2023-8-15T9:34:2Z</time></trkpt>
<trkpt lat="48.488267" lon="2.647758"><ele></ele><time>2023-8-15T9:34:5Z</time></trkpt>
<trkpt lat="48.488185" lon="2.647937"><ele></ele><time>2023-8-15T9:34:8Z</time></trkpt>
<trkpt lat="48.488097" lon="2.648084"><ele></ele><time>2023-8-15T9:34:11Z</time></trkpt>
<trkpt lat="48.488042" lon="2.648196"><ele></ele><time>2023-8-15T9:34:14Z</time></trkpt>
<trkpt lat="48.487968" lon="2.648326"><ele></ele><time>2023-8-15T9:34:17Z</time></trkpt>
<trkpt lat="48.487907" lon="2.648468"><ele></ele><time>2023-8-15T9:34:20Z</time></trkpt>
<trkpt lat="48.48783" lon="2.648622"><ele></ele><time>2023-8-15T9:34:23Z</time></trkpt>
<trkpt lat="48.487771" lon="2.648771"><ele></ele><time>2023-8-15T9:34:26Z</time></trkpt>
<trkpt lat="48.487691" lon="2.648932"><ele></ele><time>2023-8-15T9:34:29Z</time></trkpt>
<trkpt lat="48.487638" lon="2.649076"><ele></ele><time>2023-8-15T9:34:32Z</time></trkpt>
<trkpt lat="48.487569" lon="2.64922"><ele></ele><time>2023-8-15T9:34:35Z</time></trkpt>
<trkpt lat="48.487502" lon="2.649351"><ele></ele><time>2023-8-15T9:34:38Z</time></trkpt>
<trkpt lat="48.487412" lon="2.649513"><ele></ele><time>2023-8-15T9:34:41Z</time></trkpt>
<trkpt lat="48.487352" lon="2.649634"><ele></ele><time>2023-8-15T9:34:44Z</time></trkpt>
<trkpt lat="48.487289" lon="2.649769"><ele></ele><time>2023-8-15T9:34:47Z</time></trkpt>
<trkpt lat="48.487233" lon="2.649889"><ele></ele><time>2023-8-15T9:34:50Z</time></trkpt>
<trkpt lat="48.487143" lon="2.650059"><ele></ele><time>2023-8-15T9:34:53Z</time></trkpt>
<trkpt lat="48.487103" lon="2.650197"><ele></ele><time>2023-8-15T9:34:56Z</time></trkpt>
<trkpt lat="48.487045" lon="2.650327"><ele></ele><time>2023-8-15T9:34:59Z</time></trkpt>
<trkpt lat="48.486976" lon="2.65043"><ele></ele><time>2023-8-15T9:35:2Z</time></trkpt>
<trkpt lat="48.486907" lon="2.650563"><ele></ele><time>2023-8-15T9:35:5Z</time></trkpt>
<trkpt lat="48.486847" lon="2.650672"><ele></ele><time>2023-8-15T9:35:8Z</time></trkpt>
<trkpt lat="48.486777" lon="2.65083"><ele></ele><time>2023-8-15T9:35:11Z</time></trkpt>
<trkpt lat="48.486703" lon="2.650926"><ele></ele><time>2023-8-15T9:35:14Z</time></trkpt>
<trkpt lat="48.486653" lon="2.651056"><ele></ele><time>2023-8-15T9:35:17Z</time></trkpt>
<trkpt lat="48.486596" lon="2.651167"><ele></ele><time>2023-8-15T9:35:20Z</time></trkpt>
<trkpt lat="48.486511" lon="2.651322"><ele></ele><time>2023-8-15T9:35:23Z</time></trkpt>
<trkpt lat="48.486433" lon="2.651459"><ele></ele><time>2023-8-15T9:35:26Z</time></trkpt>
<trkpt lat="48.486385" lon="2.651583"><ele></ele><time>2023-8-15T9:35:29Z</time></trkpt>
<trkpt lat="48.486332" lon="2.651697"><ele></ele><time>2023-8-15T9:35:32Z</time></trkpt>
<trkpt lat="48.486277" lon="2.651805"><ele></ele><time>2023-8-15T9:35:35Z</time></trkpt>
<trkpt lat="48.486203" lon="2.651987"><ele></ele><time>2023-8-15T9:35:38Z</time></trkpt>
<trkpt lat="48.486125" lon="2.652138"><ele></ele><time>2023-8-15T9:35:41Z</time></trkpt>
<trkpt lat="48.48606" lon="2.652237"><ele></ele><time>2023-8-15T9:35:44Z</time></trkpt>
<trkpt lat="48.485967" lon="2.652397"><ele></ele><time>2023-8-15T9:35:47Z</time></trkpt>
<trkpt lat="48.485899" lon="2.652535"><ele></ele><time>2023-8-15T9:35:50Z</time></trkpt>
<trkpt lat="48.485822" lon="2.652724"><ele></ele><time>2023-8-15T9:35:53Z</time></trkpt>
<trkpt lat="48.485756" lon="2.652881"><ele></ele><time>2023-8-15T9:35:56Z</time></trkpt>
<trkpt lat="48.485695" lon="2.653007"><ele></ele><time>2023-8-15T9:35:59Z</time></trkpt>
<trkpt lat="48.48563" lon="2.65314"><ele></ele><time>2023-8-15T9:36:2Z</time></trkpt>
<trkpt lat="48.485567" lon="2.65328"><ele></ele><time>2023-8-15T9:36:5Z</time></trkpt>
<trkpt lat="48.485501" lon="2.653383"><ele></ele><time>2023-8-15T9:36:8Z</time></trkpt>
<trkpt lat="48.485436" lon="2.653588"><ele></ele><time>2023-8-15T9:36:11Z</time></trkpt>
<trkpt lat="48.485428" lon="2.653754"><ele></ele><time>2023-8-15T9:36:14Z</time></trkpt>
<trkpt lat="48.485404" lon="2.653918"><ele></ele><time>2023-8-15T9:36:17Z</time></trkpt>
<trkpt lat="48.485372" lon="2.654116"><ele></ele><time>2023-8-15T9:36:20Z</time></trkpt>
<trkpt lat="48.485354" lon="2.654297"><ele></ele><time>2023-8-15T9:36:23Z</time></trkpt>
<trkpt lat="48.485324" lon="2.654504"><ele></ele><time>2023-8-15T9:36:26Z</time></trkpt>
<trkpt lat="48.485313" lon="2.654697"><ele></ele><time>2023-8-15T9:36:29Z</time></trkpt>
<trkpt lat="48.485275" lon="2.65485"><ele></ele><time>2023-8-15T9:36:32Z</time></trkpt>
<trkpt lat="48.485252" lon="2.654991"><ele></ele><time>2023-8-15T9:36:35Z</time></trkpt>
<trkpt lat="48.485233" lon="2.655144"><ele></ele><time>2023-8-15T9:36:38Z</time></trkpt>
<trkpt lat="48.485224" lon="2.655292"><ele></ele><time>2023-8-15T9:36:41Z</time></trkpt>
<trkpt lat="48.485202" lon="2.655447"><ele></ele><time>2023-8-15T9:36:44Z</time></trkpt>
<trkpt lat="48.485184" lon="2.655583"><ele></ele><time>2023-8-15T9:36:47Z</time></trkpt>
<trkpt lat="48.485164" lon="2.655764"><ele></ele><time>2023-8-15T9:36:50Z</time></trkpt>
<trkpt lat="48.485148" lon="2.655912"><ele></ele><time>2023-8-15T9:36:53Z</time></trkpt>
<trkpt lat="48.485144" lon="2.656065"><ele></ele><time>2023-8-15T9:36:56Z</time></trkpt>
<trkpt lat="48.485113" lon="2.656245"><ele></ele><time>2023-8-15T9:36:59Z</time></trkpt>
<trkpt lat="48.485084" lon="2.656417"><ele></ele><time>2023-8-15T9:37:2Z</time></trkpt>
<trkpt lat="48.48507" lon="2.656625"><ele></ele><time>2023-8-15T9:37:5Z</time></trkpt>
<trkpt lat="48.485053" lon="2.656795"><ele></ele><time>2023-8-15T9:37:8Z</time></trkpt>
<trkpt lat="48.485021" lon="2.656973"><ele></ele><time>2023-8-15T9:37:11Z</time></trkpt>
<trkpt lat="48.485" lon="2.65712"><ele></ele><time>2023-8-15T9:37:14Z</time></trkpt>
<trkpt lat="48.48498" lon="2.657274"><ele></ele><time>2023-8-15T9:37:17Z</time></trkpt>
<trkpt lat="48.484956" lon="2.657409"><ele></ele><time>2023-8-15T9:37:20Z</time></trkpt>
<trkpt lat="48.484912" lon="2.657578"><ele></ele><time>2023-8-15T9:37:23Z</time></trkpt>
<trkpt lat="48.484892" lon="2.65772"><ele></ele><time>2023-8-15T9:37:26Z</time></trkpt>
<trkpt lat="48.48486" lon="2.657866"><ele></ele><time>2023-8-15T9:37:29Z</time></trkpt>
<trkpt lat="48.484848" lon="2.658053"><ele></ele><time>2023-8-15T9:37:32Z</time></trkpt>
<trkpt lat="48.484806" lon="2.658271"><ele></ele><time>2023-8-15T9:37:35Z</time></trkpt>
<trkpt lat="48.484768" lon="2.658496"><ele></ele><time>2023-8-15T9:37:38Z</time></trkpt>
<trkpt lat="48.484749" lon="2.658664"><ele></ele><time>2023-8-15T9:37:41Z</time></trkpt>
<trkpt lat="48.48473" lon="2.658829"><ele></ele><time>2023-8-15T9:37:44Z</time></trkpt>
<trkpt lat="48.484717" lon="2.65898"><ele></ele><time>2023-8-15T9:37:47Z</time></trkpt>
<trkpt lat="48.484687" lon="2.659153"><ele></ele><time>2023-8-15T9:37:50Z</time></trkpt>
<trkpt lat="48.484661" lon="2.659295"><ele></ele><time>2023-8-15T9:37:53Z</time></trkpt>
<trkpt lat="48.484642" lon="2.659461"><ele></ele><time>2023-8-15T9:37:56Z</time></trkpt>
<trkpt lat="48.484618" lon="2.659655"><ele></ele><time>2023-8-15T9:37:59Z</time></trkpt>
<trkpt lat="48.484596" lon="2.659837"><ele></ele><time>2023-8-15T9:38:2Z</time></trkpt>
<trkpt lat="48.484571" lon="2.660024"><ele></ele><time>2023-8-15T9:38:5Z</time></trkpt>
<trkpt lat="48.484541" lon="2.660176"><ele></ele><time>2023-8-15T9:38:8Z</time></trkpt>
<trkpt lat="48.484517" lon="2.660307"><ele></ele><time>2023-8-15T9:38:11Z</time></trkpt>
<trkpt lat="48.484463" lon="2.660495"><ele></ele><time>2023-8-15T9:38:14Z</time></trkpt>
<trkpt lat="48.484427" lon="2.660642"><ele></ele><time>2023-8-15T9:38:17Z</time></trkpt>
<trkpt lat="48.484374" lon="2.660842"><ele></ele><time>2023-8-15T9:38:20Z</time></trkpt>
<trkpt lat="48.484312" lon="2.660998"><ele></ele><time>2023-8-15T9:38:23Z</time></trkpt>
<trkpt lat="48.484285" lon="2.661137"><ele></ele><time>2023-8-15T9:38:26Z</time></trkpt>
<trkpt lat="48.484226" lon="2.661291"><ele></ele><time>2023-8-15T9:38:29Z</time></trkpt>
<trkpt lat="48.484184" lon="2.661444"><ele></ele><time>2023-8-15T9:38:32Z</time></trkpt>
<trkpt lat="48.484158" lon="2.661612"><ele></ele><time>2023-8-15T9:38:35Z</time></trkpt>
<trkpt lat="48.484152" lon="2.66176"><ele></ele><time>2023-8-15T9:38:38Z</time></trkpt>
<trkpt lat="48.48412" lon="2.661899"><ele></ele><time>2023-8-15T9:38:41Z</time></trkpt>
<trkpt lat="48.484079" lon="2.662031"><ele></ele><time>2023-8-15T9:38:44Z</time></trkpt>
<trkpt lat="48.484033" lon="2.662148"><ele></ele><time>2023-8-15T9:38:47Z</time></trkpt>
<trkpt lat="48.483986" lon="2.662294"><ele></ele><time>2023-8-15T9:38:50Z</time></trkpt>
<trkpt lat="48.483988" lon="2.662435"><ele></ele><time>2023-8-15T9:38:53Z</time></trkpt>
<trkpt lat="48.48395" lon="2.662598"><ele></ele><time>2023-8-15T9:38:56Z</time></trkpt>
<trkpt lat="48.483915" lon="2.662743"><ele></ele><time>2023-8-15T9:38:59Z</time></trkpt>
<trkpt lat="48.483899" lon="2.662879"><ele></ele><time>2023-8-15T9:39:2Z</time></trkpt>
<trkpt lat="48.483877" lon="2.663027"><ele></ele><time>2023-8-15T9:39:5Z</time></trkpt>
<trkpt lat="48.48383" lon="2.663161"><ele></ele><time>2023-8-15T9:39:8Z</time></trkpt>
<trkpt lat="48.483796" lon="2.663293"><ele></ele><time>2023-8-15T9:39:11Z</time></trkpt>
<trkpt lat="48.483771" lon="2.663428"><ele></ele><time>2023-8-15T9:39:14Z</time></trkpt>
<trkpt lat="48.48374" lon="2.663563"><ele></ele><time>2023-8-15T9:39:17Z</time></trkpt>
<trkpt lat="48.483713" lon="2.663696"><ele></ele><time>2023-8-15T9:39:20Z</time></trkpt>
<trkpt lat="48.483678" lon="2.663842"><ele></ele><time>2023-8-15T9:39:23Z</time></trkpt>
<trkpt lat="48.483645" lon="2.663988"><ele></ele><time>2023-8-15T9:39:26Z</time></trkpt>
<trkpt lat="48.483606" lon="2.664124"><ele></ele><time>2023-8-15T9:39:29Z</time></trkpt>
<trkpt lat="48.483558" lon="2.664283"><ele></ele><time>2023-8-15T9:39:32Z</time></trkpt>
<trkpt lat="48.483515" lon="2.664461"><ele></ele><time>2023-8-15T9:39:35Z</time></trkpt>
<trkpt lat="48.483487" lon="2.664646"><ele></ele><time>2023-8-15T9:39:38Z</time></trkpt>
<trkpt lat="48.483449" lon="2.664777"><ele></ele><time>2023-8-15T9:39:41Z</time></trkpt>
<trkpt lat="48.483407" lon="2.664903"><ele></ele><time>2023-8-15T9:39:44Z</time></trkpt>
<trkpt lat="48.483373" lon="2.665049"><ele></ele><time>2023-8-15T9:39:47Z</time></trkpt>
<trkpt lat="48.48328" lon="2.665095"><ele></ele><time>2023-8-15T9:39:50Z</time></trkpt>
<trkpt lat="48.483154" lon="2.66513"><ele></ele><time>2023-8-15T9:39:53Z</time></trkpt>
<trkpt lat="48.48306" lon="2.665119"><ele></ele><time>2023-8-15T9:39:56Z</time></trkpt>
<trkpt lat="48.482967" lon="2.665043"><ele></ele><time>2023-8-15T9:39:59Z</time></trkpt>
<trkpt lat="48.482853" lon="2.664967"><ele></ele><time>2023-8-15T9:40:2Z</time></trkpt>
<trkpt lat="48.48282" lon="2.664828"><ele></ele><time>2023-8-15T9:40:5Z</time></trkpt>
<trkpt lat="48.482767" lon="2.664711"><ele></ele><time>2023-8-15T9:40:8Z</time></trkpt>
<trkpt lat="48.482747" lon="2.664554"><ele></ele><time>2023-8-15T9:40:11Z</time></trkpt>
<trkpt lat="48.482703" lon="2.664328"><ele></ele><time>2023-8-15T9:40:14Z</time></trkpt>
<trkpt lat="48.482687" lon="2.664177"><ele></ele><time>2023-8-15T9:40:17Z</time></trkpt>
<trkpt lat="48.482613" lon="2.663971"><ele></ele><time>2023-8-15T9:40:20Z</time></trkpt>
<trkpt lat="48.482534" lon="2.663734"><ele></ele><time>2023-8-15T9:40:23Z</time></trkpt>
<trkpt lat="48.482454" lon="2.663487"><ele></ele><time>2023-8-15T9:40:26Z</time></trkpt>
<trkpt lat="48.482438" lon="2.663341"><ele></ele><time>2023-8-15T9:40:29Z</time></trkpt>
<trkpt lat="48.482393" lon="2.663194"><ele></ele><time>2023-8-15T9:40:32Z</time></trkpt>
<trkpt lat="48.482344" lon="2.663032"><ele></ele><time>2023-8-15T9:40:35Z</time></trkpt>
<trkpt lat="48.482322" lon="2.662869"><ele></ele><time>2023-8-15T9:40:38Z</time></trkpt>
<trkpt lat="48.482283" lon="2.662729"><ele></ele><time>2023-8-15T9:40:41Z</time></trkpt>
<trkpt lat="48.482246" lon="2.662543"><ele></ele><time>2023-8-15T9:40:44Z</time></trkpt>
<trkpt lat="48.482183" lon="2.662272"><ele></ele><time>2023-8-15T9:40:47Z</time></trkpt>
<trkpt lat="48.482116" lon="2.662122"><ele></ele><time>2023-8-15T9:40:50Z</time></trkpt>
<trkpt lat="48.482068" lon="2.66197"><ele></ele><time>2023-8-15T9:40:53Z</time></trkpt>
<trkpt lat="48.482019" lon="2.661814"><ele></ele><time>2023-8-15T9:40:56Z</time></trkpt>
<trkpt lat="48.481946" lon="2.661642"><ele></ele><time>2023-8-15T9:40:59Z</time></trkpt>
<trkpt lat="48.481873" lon="2.661484"><ele></ele><time>2023-8-15T9:41:2Z</time></trkpt>
<trkpt lat="48.481814" lon="2.6613"><ele></ele><time>2023-8-15T9:41:5Z</time></trkpt>
<trkpt lat="48.48175" lon="2.661121"><ele></ele><time>2023-8-15T9:41:8Z</time></trkpt>
<trkpt lat="48.481716" lon="2.660974"><ele></ele><time>2023-8-15T9:41:11Z</time></trkpt>
<trkpt lat="48.481688" lon="2.660807"><ele></ele><time>2023-8-15T9:41:14Z</time></trkpt>
<trkpt lat="48.481644" lon="2.660633"><ele></ele><time>2023-8-15T9:41:17Z</time></trkpt>
<trkpt lat="48.481586" lon="2.660447"><ele></ele><time>2023-8-15T9:41:20Z</time></trkpt>
<trkpt lat="48.481538" lon="2.660284"><ele></ele><time>2023-8-15T9:41:23Z</time></trkpt>
<trkpt lat="48.481451" lon="2.660107"><ele></ele><time>2023-8-15T9:41:26Z</time></trkpt>
<trkpt lat="48.481386" lon="2.659941"><ele></ele><time>2023-8-15T9:41:29Z</time></trkpt>
<trkpt lat="48.481321" lon="2.659776"><ele></ele><time>2023-8-15T9:41:32Z</time></trkpt>
<trkpt lat="48.481281" lon="2.65963"><ele></ele><time>2023-8-15T9:41:35Z</time></trkpt>
<trkpt lat="48.481226" lon="2.659457"><ele></ele><time>2023-8-15T9:41:38Z</time></trkpt>
<trkpt lat="48.481196" lon="2.659324"><ele></ele><time>2023-8-15T9:41:41Z</time></trkpt>
<trkpt lat="48.481131" lon="2.659113"><ele></ele><time>2023-8-15T9:41:44Z</time></trkpt>
<trkpt lat="48.481036" lon="2.658864"><ele></ele><time>2023-8-15T9:41:47Z</time></trkpt>
<trkpt lat="48.480995" lon="2.658728"><ele></ele><time>2023-8-15T9:41:50Z</time></trkpt>
<trkpt lat="48.480923" lon="2.658516"><ele></ele><time>2023-8-15T9:41:53Z</time></trkpt>
<trkpt lat="48.480853" lon="2.658342"><ele></ele><time>2023-8-15T9:41:56Z</time></trkpt>
<trkpt lat="48.480813" lon="2.658197"><ele></ele><time>2023-8-15T9:41:59Z</time></trkpt>
<trkpt lat="48.480777" lon="2.658036"><ele></ele><time>2023-8-15T9:42:2Z</time></trkpt>
<trkpt lat="48.480742" lon="2.657851"><ele></ele><time>2023-8-15T9:42:5Z</time></trkpt>
<trkpt lat="48.480704" lon="2.657715"><ele></ele><time>2023-8-15T9:42:8Z</time></trkpt>
<trkpt lat="48.480658" lon="2.657505"><ele></ele><time>2023-8-15T9:42:11Z</time></trkpt>
<trkpt lat="48.480589" lon="2.657381"><ele></ele><time>2023-8-15T9:42:14Z</time></trkpt>
<trkpt lat="48.480504" lon="2.657237"><ele></ele><time>2023-8-15T9:42:17Z</time></trkpt>
<trkpt lat="48.480429" lon="2.657049"><ele></ele><time>2023-8-15T9:42:20Z</time></trkpt>
<trkpt lat="48.480359" lon="2.656813"><ele></ele><time>2023-8-15T9:42:23Z</time></trkpt>
<trkpt lat="48.480291" lon="2.656641"><ele></ele><time>2023-8-15T9:42:26Z</time></trkpt>
<trkpt lat="48.480207" lon="2.656432"><ele></ele><time>2023-8-15T9:42:29Z</time></trkpt>
<trkpt lat="48.480144" lon="2.656272"><ele></ele><time>2023-8-15T9:42:32Z</time></trkpt>
<trkpt lat="48.480128" lon="2.656119"><ele></ele><time>2023-8-15T9:42:35Z</time></trkpt>
<trkpt lat="48.480089" lon="2.655986"><ele></ele><time>2023-8-15T9:42:38Z</time></trkpt>
<trkpt lat="48.480075" lon="2.655819"><ele></ele><time>2023-8-15T9:42:41Z</time></trkpt>
<trkpt lat="48.48004" lon="2.655674"><ele></ele><time>2023-8-15T9:42:44Z</time></trkpt>
<trkpt lat="48.479956" lon="2.655515"><ele></ele><time>2023-8-15T9:42:47Z</time></trkpt>
<trkpt lat="48.479895" lon="2.655341"><ele></ele><time>2023-8-15T9:42:50Z</time></trkpt>
<trkpt lat="48.479832" lon="2.655182"><ele></ele><time>2023-8-15T9:42:53Z</time></trkpt>
<trkpt lat="48.479791" lon="2.655024"><ele></ele><time>2023-8-15T9:42:56Z</time></trkpt>
<trkpt lat="48.479747" lon="2.654878"><ele></ele><time>2023-8-15T9:42:59Z</time></trkpt>
<trkpt lat="48.479675" lon="2.654711"><ele></ele><time>2023-8-15T9:43:2Z</time></trkpt>
<trkpt lat="48.479607" lon="2.654572"><ele></ele><time>2023-8-15T9:43:5Z</time></trkpt>
<trkpt lat="48.479555" lon="2.654435"><ele></ele><time>2023-8-15T9:43:8Z</time></trkpt>
<trkpt lat="48.47951" lon="2.654267"><ele></ele><time>2023-8-15T9:43:11Z</time></trkpt>
<trkpt lat="48.479477" lon="2.65412"><ele></ele><time>2023-8-15T9:43:14Z</time></trkpt>
<trkpt lat="48.479449" lon="2.653988"><ele></ele><time>2023-8-15T9:43:17Z</time></trkpt>
<trkpt lat="48.479404" lon="2.65383"><ele></ele><time>2023-8-15T9:43:20Z</time></trkpt>
<trkpt lat="48.479358" lon="2.653671"><ele></ele><time>2023-8-15T9:43:23Z</time></trkpt>
<trkpt lat="48.479295" lon="2.653477"><ele></ele><time>2023-8-15T9:43:26Z</time></trkpt>
<trkpt lat="48.479249" lon="2.653327"><ele></ele><time>2023-8-15T9:43:29Z</time></trkpt>
<trkpt lat="48.479199" lon="2.653195"><ele></ele><time>2023-8-15T9:43:32Z</time></trkpt>
<trkpt lat="48.479136" lon="2.653054"><ele></ele><time>2023-8-15T9:43:35Z</time></trkpt>
<trkpt lat="48.479058" lon="2.652883"><ele></ele><time>2023-8-15T9:43:38Z</time></trkpt>
<trkpt lat="48.478993" lon="2.652722"><ele></ele><time>2023-8-15T9:43:41Z</time></trkpt>
<trkpt lat="48.478914" lon="2.652635"><ele></ele><time>2023-8-15T9:43:44Z</time></trkpt>
<trkpt lat="48.478808" lon="2.652549"><ele></ele><time>2023-8-15T9:43:47Z</time></trkpt>
<trkpt lat="48.478675" lon="2.652479"><ele></ele><time>2023-8-15T9:43:50Z</time></trkpt>
<trkpt lat="48.478576" lon="2.652507"><ele></ele><time>2023-8-15T9:43:53Z</time></trkpt>
<trkpt lat="48.478496" lon="2.652624"><ele></ele><time>2023-8-15T9:43:56Z</time></trkpt>
<trkpt lat="48.478378" lon="2.652724"><ele></ele><time>2023-8-15T9:43:59Z</time></trkpt>
<trkpt lat="48.478285" lon="2.652806"><ele></ele><time>2023-8-15T9:44:2Z</time></trkpt>
<trkpt lat="48.478182" lon="2.652897"><ele></ele><time>2023-8-15T9:44:5Z</time></trkpt>
<trkpt lat="48.478091" lon="2.652994"><ele></ele><time>2023-8-15T9:44:8Z</time></trkpt>
<trkpt lat="48.477999" lon="2.653082"><ele></ele><time>2023-8-15T9:44:11Z</time></trkpt>
<trkpt lat="48.477901" lon="2.65316"><ele></ele><time>2023-8-15T9:44:14Z</time></trkpt>
<trkpt lat="48.477764" lon="2.653252"><ele></ele><time>2023-8-15T9:44:17Z</time></trkpt>
<trkpt lat="48.477662" lon="2.653349"><ele></ele><time>2023-8-15T9:44:20Z</time></trkpt>
<trkpt lat="48.477573" lon="2.653425"><ele></ele><time>2023-8-15T9:44:23Z</time></trkpt>
<trkpt lat="48.477491" lon="2.653505"><ele></ele><time>2023-8-15T9:44:26Z</time></trkpt>
<trkpt lat="48.477391" lon="2.653542"><ele></ele><time>2023-8-15T9:44:29Z</time></trkpt>
<trkpt lat="48.477297" lon="2.653627"><ele></ele><time>2023-8-15T9:44:32Z</time></trkpt>
<trkpt lat="48.477215" lon="2.653692"><ele></ele><time>2023-8-15T9:44:35Z</time></trkpt>
<trkpt lat="48.4771" lon="2.653794"><ele></ele><time>2023-8-15T9:44:38Z</time></trkpt>
<trkpt lat="48.476996" lon="2.653881"><ele></ele><time>2023-8-15T9:44:41Z</time></trkpt>
<trkpt lat="48.476903" lon="2.653969"><ele></ele><time>2023-8-15T9:44:44Z</time></trkpt>
<trkpt lat="48.47682" lon="2.654042"><ele></ele><time>2023-8-15T9:44:47Z</time></trkpt>
<trkpt lat="48.476722" lon="2.654129"><ele></ele><time>2023-8-15T9:44:50Z</time></trkpt>
<trkpt lat="48.476596" lon="2.654208"><ele></ele><time>2023-8-15T9:44:53Z</time></trkpt>
<trkpt lat="48.47647" lon="2.654303"><ele></ele><time>2023-8-15T9:44:56Z</time></trkpt>
<trkpt lat="48.476333" lon="2.654424"><ele></ele><time>2023-8-15T9:44:59Z</time></trkpt>
<trkpt lat="48.476247" lon="2.654491"><ele></ele><time>2023-8-15T9:45:2Z</time></trkpt>
<trkpt lat="48.476154" lon="2.654575"><ele></ele><time>2023-8-15T9:45:5Z</time></trkpt>
<trkpt lat="48.476076" lon="2.654659"><ele></ele><time>2023-8-15T9:45:8Z</time></trkpt>
<trkpt lat="48.475969" lon="2.654751"><ele></ele><time>2023-8-15T9:45:11Z</time></trkpt>
<trkpt lat="48.475869" lon="2.654839"><ele></ele><time>2023-8-15T9:45:14Z</time></trkpt>
<trkpt lat="48.475776" lon="2.654915"><ele></ele><time>2023-8-15T9:45:17Z</time></trkpt>
<trkpt lat="48.475678" lon="2.655001"><ele></ele><time>2023-8-15T9:45:20Z</time></trkpt>
<trkpt lat="48.475584" lon="2.655086"><ele></ele><time>2023-8-15T9:45:23Z</time></trkpt>
<trkpt lat="48.475467" lon="2.655183"><ele></ele><time>2023-8-15T9:45:26Z</time></trkpt>
<trkpt lat="48.475363" lon="2.655265"><ele></ele><time>2023-8-15T9:45:29Z</time></trkpt>
<trkpt lat="48.475256" lon="2.655369"><ele></ele><time>2023-8-15T9:45:32Z</time></trkpt>
<trkpt lat="48.475153" lon="2.655482"><ele></ele><time>2023-8-15T9:45:35Z</time></trkpt>
<trkpt lat="48.475054" lon="2.655581"><ele></ele><time>2023-8-15T9:45:38Z</time></trkpt>
<trkpt lat="48.474948" lon="2.655664"><ele></ele><time>2023-8-15T9:45:41Z</time></trkpt>
<trkpt lat="48.474834" lon="2.655765"><ele></ele><time>2023-8-15T9:45:44Z</time></trkpt>
<trkpt lat="48.474714" lon="2.65586"><ele></ele><time>2023-8-15T9:45:47Z</time></trkpt>
<trkpt lat="48.474612" lon="2.655933"><ele></ele><time>2023-8-15T9:45:50Z</time></trkpt>
<trkpt lat="48.474501" lon="2.656021"><ele></ele><time>2023-8-15T9:45:53Z</time></trkpt>
<trkpt lat="48.474392" lon="2.656093"><ele></ele><time>2023-8-15T9:45:56Z</time></trkpt>
<trkpt lat="48.474316" lon="2.656176"><ele></ele><time>2023-8-15T9:45:59Z</time></trkpt>
<trkpt lat="48.474192" lon="2.656284"><ele></ele><time>2023-8-15T9:46:2Z</time></trkpt>
<trkpt lat="48.474085" lon="2.656381"><ele></ele><time>2023-8-15T9:46:5Z</time></trkpt>
<trkpt lat="48.474002" lon="2.656465"><ele></ele><time>2023-8-15T9:46:8Z</time></trkpt>
<trkpt lat="48.473899" lon="2.656566"><ele></ele><time>2023-8-15T9:46:11Z</time></trkpt>
<trkpt lat="48.473802" lon="2.65664"><ele></ele><time>2023-8-15T9:46:14Z</time></trkpt>
<trkpt lat="48.473691" lon="2.656713"><ele></ele><time>2023-8-15T9:46:17Z</time></trkpt>
<trkpt lat="48.47355" lon="2.656814"><ele></ele><time>2023-8-15T9:46:20Z</time></trkpt>
<trkpt lat="48.473446" lon="2.656917"><ele></ele><time>2023-8-15T9:46:23Z</time></trkpt>
<trkpt lat="48.47333" lon="2.657009"><ele></ele><time>2023-8-15T9:46:26Z</time></trkpt>
<trkpt lat="48.473218" lon="2.657078"><ele></ele><time>2023-8-15T9:46:29Z</time></trkpt>
<trkpt lat="48.473129" lon="2.657148"><ele></ele><time>2023-8-15T9:46:32Z</time></trkpt>
<trkpt lat="48.473028" lon="2.657211"><ele></ele><time>2023-8-15T9:46:35Z</time></trkpt>
<trkpt lat="48.472941" lon="2.657316"><ele></ele><time>2023-8-15T9:46:38Z</time></trkpt>
<trkpt lat="48.472805" lon="2.657432"><ele></ele><time>2023-8-15T9:46:41Z</time></trkpt>
<trkpt lat="48.472706" lon="2.657515"><ele></ele><time>2023-8-15T9:46:44Z</time></trkpt>
<trkpt lat="48.472592" lon="2.657609"><ele></ele><time>2023-8-15T9:46:47Z</time></trkpt>
<trkpt lat="48.472482" lon="2.657691"><ele></ele><time>2023-8-15T9:46:50Z</time></trkpt>
<trkpt lat="48.472383" lon="2.657806"><ele></ele><time>2023-8-15T9:46:53Z</time></trkpt>
<trkpt lat="48.472281" lon="2.657899"><ele></ele><time>2023-8-15T9:46:56Z</time></trkpt>
<trkpt lat="48.4722" lon="2.657978"><ele></ele><time>2023-8-15T9:46:59Z</time></trkpt>
<trkpt lat="48.472112" lon="2.658051"><ele></ele><time>2023-8-15T9:47:2Z</time></trkpt>
<trkpt lat="48.471963" lon="2.658171"><ele></ele><time>2023-8-15T9:47:5Z</time></trkpt>
<trkpt lat="48.471884" lon="2.658244"><ele></ele><time>2023-8-15T9:47:8Z</time></trkpt>
<trkpt lat="48.471782" lon="2.658317"><ele></ele><time>2023-8-15T9:47:11Z</time></trkpt>
<trkpt lat="48.471686" lon="2.658398"><ele></ele><time>2023-8-15T9:47:14Z</time></trkpt>
<trkpt lat="48.47158" lon="2.658492"><ele></ele><time>2023-8-15T9:47:17Z</time></trkpt>
<trkpt lat="48.471463" lon="2.658574"><ele></ele><time>2023-8-15T9:47:20Z</time></trkpt>
<trkpt lat="48.471337" lon="2.658639"><ele></ele><time>2023-8-15T9:47:23Z</time></trkpt>
<trkpt lat="48.471239" lon="2.658717"><ele></ele><time>2023-8-15T9:47:26Z</time></trkpt>
<trkpt lat="48.471137" lon="2.658806"><ele></ele><time>2023-8-15T9:47:29Z</time></trkpt>
<trkpt lat="48.471053" lon="2.65887"><ele></ele><time>2023-8-15T9:47:32Z</time></trkpt>
<trkpt lat="48.470926" lon="2.658909"><ele></ele><time>2023-8-15T9:47:35Z</time></trkpt>
<trkpt lat="48.470828" lon="2.658887"><ele></ele><time>2023-8-15T9:47:38Z</time></trkpt>
<trkpt lat="48.470721" lon="2.658878"><ele></ele><time>2023-8-15T9:47:41Z</time></trkpt>
<trkpt lat="48.470589" lon="2.658866"><ele></ele><time>2023-8-15T9:47:44Z</time></trkpt>
<trkpt lat="48.470497" lon="2.658857"><ele></ele><time>2023-8-15T9:47:47Z</time></trkpt>
<trkpt lat="48.470366" lon="2.658845"><ele></ele><time>2023-8-15T9:47:50Z</time></trkpt>
<trkpt lat="48.470275" lon="2.658792"><ele></ele><time>2023-8-15T9:47:53Z</time></trkpt>
<trkpt lat="48.470176" lon="2.658819"><ele></ele><time>2023-8-15T9:47:56Z</time></trkpt>
<trkpt lat="48.470083" lon="2.658796"><ele></ele><time>2023-8-15T9:47:59Z</time></trkpt>
<trkpt lat="48.469938" lon="2.658791"><ele></ele><time>2023-8-15T9:48:2Z</time></trkpt>
<trkpt lat="48.469827" lon="2.658812"><ele></ele><time>2023-8-15T9:48:5Z</time></trkpt>
<trkpt lat="48.469702" lon="2.658811"><ele></ele><time>2023-8-15T9:48:8Z</time></trkpt>
<trkpt lat="48.469583" lon="2.658804"><ele></ele><time>2023-8-15T9:48:11Z</time></trkpt>
<trkpt lat="48.469464" lon="2.65878"><ele></ele><time>2023-8-15T9:48:14Z</time></trkpt>
<trkpt lat="48.469311" lon="2.658743"><ele></ele><time>2023-8-15T9:48:17Z</time></trkpt>
<trkpt lat="48.469204" lon="2.658717"><ele></ele><time>2023-8-15T9:48:20Z</time></trkpt>
<trkpt lat="48.469075" lon="2.6587"><ele></ele><time>2023-8-15T9:48:23Z</time></trkpt>
<trkpt lat="48.468945" lon="2.658677"><ele></ele><time>2023-8-15T9:48:26Z</time></trkpt>
<trkpt lat="48.468817" lon="2.658687"><ele></ele><time>2023-8-15T9:48:29Z</time></trkpt>
<trkpt lat="48.46871" lon="2.658661"><ele></ele><time>2023-8-15T9:48:32Z</time></trkpt>
<trkpt lat="48.468607" lon="2.658666"><ele></ele><time>2023-8-15T9:48:35Z</time></trkpt>
<trkpt lat="48.468512" lon="2.658666"><ele></ele><time>2023-8-15T9:48:38Z</time></trkpt>
<trkpt lat="48.468418" lon="2.658661"><ele></ele><time>2023-8-15T9:48:41Z</time></trkpt>
<trkpt lat="48.468304" lon="2.658644"><ele></ele><time>2023-8-15T9:48:44Z</time></trkpt>
<trkpt lat="48.46821" lon="2.658642"><ele></ele><time>2023-8-15T9:48:47Z</time></trkpt>
<trkpt lat="48.468057" lon="2.658636"><ele></ele><time>2023-8-15T9:48:50Z</time></trkpt>
<trkpt lat="48.467949" lon="2.658621"><ele></ele><time>2023-8-15T9:48:53Z</time></trkpt>
<trkpt lat="48.467816" lon="2.658615"><ele></ele><time>2023-8-15T9:48:56Z</time></trkpt>
<trkpt lat="48.467672" lon="2.658578"><ele></ele><time>2023-8-15T9:48:59Z</time></trkpt>
<trkpt lat="48.467575" lon="2.658556"><ele></ele><time>2023-8-15T9:49:2Z</time></trkpt>
<trkpt lat="48.467463" lon="2.658511"><ele></ele><time>2023-8-15T9:49:5Z</time></trkpt>
<trkpt lat="48.467345" lon="2.658492"><ele></ele><time>2023-8-15T9:49:8Z</time></trkpt>
<trkpt lat="48.467216" lon="2.658483"><ele></ele><time>2023-8-15T9:49:11Z</time></trkpt>
<trkpt lat="48.467115" lon="2.658492"><ele></ele><time>2023-8-15T9:49:14Z</time></trkpt>
<trkpt lat="48.467013" lon="2.658501"><ele></ele><time>2023-8-15T9:49:17Z</time></trkpt>
<trkpt lat="48.466908" lon="2.658519"><ele></ele><time>2023-8-15T9:49:20Z</time></trkpt>
<trkpt lat="48.466798" lon="2.658491"><ele></ele><time>2023-8-15T9:49:23Z</time></trkpt>
<trkpt lat="48.466712" lon="2.658445"><ele></ele><time>2023-8-15T9:49:26Z</time></trkpt>
<trkpt lat="48.466593" lon="2.658413"><ele></ele><time>2023-8-15T9:49:29Z</time></trkpt>
<trkpt lat="48.466453" lon="2.658427"><ele></ele><time>2023-8-15T9:49:32Z</time></trkpt>
<trkpt lat="48.46635" lon="2.658421"><ele></ele><time>2023-8-15T9:49:35Z</time></trkpt>
<trkpt lat="48.466235" lon="2.658408"><ele></ele><time>2023-8-15T9:49:38Z</time></trkpt>
<trkpt lat="48.466122" lon="2.658409"><ele></ele><time>2023-8-15T9:49:41Z</time></trkpt>
<trkpt lat="48.46603" lon="2.658444"><ele></ele><time>2023-8-15T9:49:44Z</time></trkpt>
<trkpt lat="48.465889" lon="2.658494"><ele></ele><time>2023-8-15T9:49:47Z</time></trkpt>
<trkpt lat="48.465781" lon="2.658546"><ele></ele><time>2023-8-15T9:49:50Z</time></trkpt>
<trkpt lat="48.465639" lon="2.658508"><ele></ele><time>2023-8-15T9:49:53Z</time></trkpt>
<trkpt lat="48.465521" lon="2.658412"><ele></ele><time>2023-8-15T9:49:56Z</time></trkpt>
<trkpt lat="48.465419" lon="2.658422"><ele></ele><time>2023-8-15T9:49:59Z</time></trkpt>
<trkpt lat="48.465327" lon="2.658441"><ele></ele><time>2023-8-15T9:50:2Z</time></trkpt>
<trkpt lat="48.465212" lon="2.658489"><ele></ele><time>2023-8-15T9:50:5Z</time></trkpt>
<trkpt lat="48.465096" lon="2.658534"><ele></ele><time>2023-8-15T9:50:8Z</time></trkpt>
<trkpt lat="48.465" lon="2.658556"><ele></ele><time>2023-8-15T9:50:11Z</time></trkpt>
<trkpt lat="48.464907" lon="2.65855"><ele></ele><time>2023-8-15T9:50:14Z</time></trkpt>
<trkpt lat="48.464802" lon="2.658531"><ele></ele><time>2023-8-15T9:50:17Z</time></trkpt>
<trkpt lat="48.464669" lon="2.658487"><ele></ele><time>2023-8-15T9:50:20Z</time></trkpt>
<trkpt lat="48.464574" lon="2.6585"><ele></ele><time>2023-8-15T9:50:23Z</time></trkpt>
<trkpt lat="48.464473" lon="2.658563"><ele></ele><time>2023-8-15T9:50:26Z</time></trkpt>
<trkpt lat="48.464376" lon="2.658632"><ele></ele><time>2023-8-15T9:50:29Z</time></trkpt>
<trkpt lat="48.464281" lon="2.658683"><ele></ele><time>2023-8-15T9:50:32Z</time></trkpt>
<trkpt lat="48.464183" lon="2.658764"><ele></ele><time>2023-8-15T9:50:35Z</time></trkpt>
<trkpt lat="48.464099" lon="2.658839"><ele></ele><time>2023-8-15T9:50:38Z</time></trkpt>
<trkpt lat="48.463999" lon="2.658939"><ele></ele><time>2023-8-15T9:50:41Z</time></trkpt>
<trkpt lat="48.463894" lon="2.659025"><ele></ele><time>2023-8-15T9:50:44Z</time></trkpt>
<trkpt lat="48.463809" lon="2.659095"><ele></ele><time>2023-8-15T9:50:47Z</time></trkpt>
<trkpt lat="48.463714" lon="2.659162"><ele></ele><time>2023-8-15T9:50:50Z</time></trkpt>
<trkpt lat="48.463627" lon="2.659226"><ele></ele><time>2023-8-15T9:50:53Z</time></trkpt>
<trkpt lat="48.463545" lon="2.659289"><ele></ele><time>2023-8-15T9:50:56Z</time></trkpt>
<trkpt lat="48.463431" lon="2.659366"><ele></ele><time>2023-8-15T9:50:59Z</time></trkpt>
<trkpt lat="48.463348" lon="2.659431"><ele></ele><time>2023-8-15T9:51:2Z</time></trkpt>
<trkpt lat="48.463244" lon="2.659519"><ele></ele><time>2023-8-15T9:51:5Z</time></trkpt>
<trkpt lat="48.463161" lon="2.659585"><ele></ele><time>2023-8-15T9:51:8Z</time></trkpt>
<trkpt lat="48.46307" lon="2.659672"><ele></ele><time>2023-8-15T9:51:11Z</time></trkpt>
<trkpt lat="48.462973" lon="2.659754"><ele></ele><time>2023-8-15T9:51:14Z</time></trkpt>
<trkpt lat="48.462873" lon="2.659817"><ele></ele><time>2023-8-15T9:51:17Z</time></trkpt>
<trkpt lat="48.462771" lon="2.65989"><ele></ele><time>2023-8-15T9:51:20Z</time></trkpt>
<trkpt lat="48.462682" lon="2.659958"><ele></ele><time>2023-8-15T9:51:23Z</time></trkpt>
<trkpt lat="48.462597" lon="2.66004"><ele></ele><time>2023-8-15T9:51:26Z</time></trkpt>
<trkpt lat="48.462511" lon="2.660132"><ele></ele><time>2023-8-15T9:51:29Z</time></trkpt>
<trkpt lat="48.46238" lon="2.660227"><ele></ele><time>2023-8-15T9:51:32Z</time></trkpt>
<trkpt lat="48.46229" lon="2.660323"><ele></ele><time>2023-8-15T9:51:35Z</time></trkpt>
<trkpt lat="48.462179" lon="2.660333"><ele></ele><time>2023-8-15T9:51:38Z</time></trkpt>
<trkpt lat="48.462086" lon="2.660359"><ele></ele><time>2023-8-15T9:51:41Z</time></trkpt>
<trkpt lat="48.461976" lon="2.660387"><ele></ele><time>2023-8-15T9:51:44Z</time></trkpt>
<trkpt lat="48.461879" lon="2.660417"><ele></ele><time>2023-8-15T9:51:47Z</time></trkpt>
<trkpt lat="48.461767" lon="2.660462"><ele></ele><time>2023-8-15T9:51:50Z</time></trkpt>
<trkpt lat="48.461677" lon="2.660503"><ele></ele><time>2023-8-15T9:51:53Z</time></trkpt>
<trkpt lat="48.461587" lon="2.660466"><ele></ele><time>2023-8-15T9:51:56Z</time></trkpt>
<trkpt lat="48.461491" lon="2.660435"><ele></ele><time>2023-8-15T9:51:59Z</time></trkpt>
<trkpt lat="48.461394" lon="2.66041"><ele></ele><time>2023-8-15T9:52:2Z</time></trkpt>
<trkpt lat="48.461281" lon="2.660395"><ele></ele><time>2023-8-15T9:52:5Z</time></trkpt>
<trkpt lat="48.461186" lon="2.660404"><ele></ele><time>2023-8-15T9:52:8Z</time></trkpt>
<trkpt lat="48.461084" lon="2.660456"><ele></ele><time>2023-8-15T9:52:11Z</time></trkpt>
<trkpt lat="48.460987" lon="2.660501"><ele></ele><time>2023-8-15T9:52:14Z</time></trkpt>
<trkpt lat="48.46088" lon="2.66054"><ele></ele><time>2023-8-15T9:52:17Z</time></trkpt>
<trkpt lat="48.460756" lon="2.660671"><ele></ele><time>2023-8-15T9:52:20Z</time></trkpt>
<trkpt lat="48.460666" lon="2.660814"><ele></ele><time>2023-8-15T9:52:23Z</time></trkpt>
<trkpt lat="48.460571" lon="2.660896"><ele></ele><time>2023-8-15T9:52:26Z</time></trkpt>
<trkpt lat="48.460506" lon="2.66099"><ele></ele><time>2023-8-15T9:52:29Z</time></trkpt>
<trkpt lat="48.460451" lon="2.661117"><ele></ele><time>2023-8-15T9:52:32Z</time></trkpt>
<trkpt lat="48.46036" lon="2.66123"><ele></ele><time>2023-8-15T9:52:35Z</time></trkpt>
<trkpt lat="48.460223" lon="2.661292"><ele></ele><time>2023-8-15T9:52:38Z</time></trkpt>
<trkpt lat="48.460123" lon="2.661368"><ele></ele><time>2023-8-15T9:52:41Z</time></trkpt>
<trkpt lat="48.460026" lon="2.661442"><ele></ele><time>2023-8-15T9:52:44Z</time></trkpt>
<trkpt lat="48.459927" lon="2.66143"><ele></ele><time>2023-8-15T9:52:47Z</time></trkpt>
<trkpt lat="48.459828" lon="2.661421"><ele></ele><time>2023-8-15T9:52:50Z</time></trkpt>
<trkpt lat="48.459722" lon="2.66147"><ele></ele><time>2023-8-15T9:52:53Z</time></trkpt>
<trkpt lat="48.459683" lon="2.661608"><ele></ele><time>2023-8-15T9:52:56Z</time></trkpt>
<trkpt lat="48.459669" lon="2.661744"><ele></ele><time>2023-8-15T9:52:59Z</time></trkpt>
<trkpt lat="48.459642" lon="2.661898"><ele></ele><time>2023-8-15T9:53:2Z</time></trkpt>
<trkpt lat="48.459625" lon="2.662081"><ele></ele><time>2023-8-15T9:53:5Z</time></trkpt>
<trkpt lat="48.459645" lon="2.662256"><ele></ele><time>2023-8-15T9:53:8Z</time></trkpt>
<trkpt lat="48.459638" lon="2.662407"><ele></ele><time>2023-8-15T9:53:11Z</time></trkpt>
<trkpt lat="48.459638" lon="2.662555"><ele></ele><time>2023-8-15T9:53:14Z</time></trkpt>
<trkpt lat="48.459589" lon="2.66273"><ele></ele><time>2023-8-15T9:53:17Z</time></trkpt>
<trkpt lat="48.459536" lon="2.662868"><ele></ele><time>2023-8-15T9:53:20Z</time></trkpt>
<trkpt lat="48.459495" lon="2.662992"><ele></ele><time>2023-8-15T9:53:23Z</time></trkpt>
<trkpt lat="48.459444" lon="2.663147"><ele></ele><time>2023-8-15T9:53:26Z</time></trkpt>
<trkpt lat="48.459416" lon="2.663277"><ele></ele><time>2023-8-15T9:53:29Z</time></trkpt>
<trkpt lat="48.459387" lon="2.663415"><ele></ele><time>2023-8-15T9:53:32Z</time></trkpt>
<trkpt lat="48.459346" lon="2.663538"><ele></ele><time>2023-8-15T9:53:35Z</time></trkpt>
<trkpt lat="48.459286" lon="2.663708"><ele></ele><time>2023-8-15T9:53:38Z</time></trkpt>
<trkpt lat="48.459265" lon="2.663879"><ele></ele><time>2023-8-15T9:53:41Z</time></trkpt>
<trkpt lat="48.459206" lon="2.664044"><ele></ele><time>2023-8-15T9:53:44Z</time></trkpt>
<trkpt lat="48.459157" lon="2.664159"><ele></ele><time>2023-8-15T9:53:47Z</time></trkpt>
<trkpt lat="48.459099" lon="2.664314"><ele></ele><time>2023-8-15T9:53:50Z</time></trkpt>
<trkpt lat="48.459041" lon="2.664494"><ele></ele><time>2023-8-15T9:53:53Z</time></trkpt>
<trkpt lat="48.458978" lon="2.664632"><ele></ele><time>2023-8-15T9:53:56Z</time></trkpt>
<trkpt lat="48.458943" lon="2.664762"><ele></ele><time>2023-8-15T9:53:59Z</time></trkpt>
<trkpt lat="48.458883" lon="2.664893"><ele></ele><time>2023-8-15T9:54:2Z</time></trkpt>
<trkpt lat="48.458848" lon="2.665031"><ele></ele><time>2023-8-15T9:54:5Z</time></trkpt>
<trkpt lat="48.458808" lon="2.665153"><ele></ele><time>2023-8-15T9:54:8Z</time></trkpt>
<trkpt lat="48.458772" lon="2.665279"><ele></ele><time>2023-8-15T9:54:11Z</time></trkpt>
<trkpt lat="48.458729" lon="2.665435"><ele></ele><time>2023-8-15T9:54:14Z</time></trkpt>
<trkpt lat="48.458659" lon="2.665601"><ele></ele><time>2023-8-15T9:54:17Z</time></trkpt>
<trkpt lat="48.458611" lon="2.665762"><ele></ele><time>2023-8-15T9:54:20Z</time></trkpt>
<trkpt lat="48.458573" lon="2.665899"><ele></ele><time>2023-8-15T9:54:23Z</time></trkpt>
<trkpt lat="48.458537" lon="2.666027"><ele></ele><time>2023-8-15T9:54:26Z</time></trkpt>
<trkpt lat="48.458508" lon="2.666166"><ele></ele><time>2023-8-15T9:54:29Z</time></trkpt>
<trkpt lat="48.458465" lon="2.666337"><ele></ele><time>2023-8-15T9:54:32Z</time></trkpt>
<trkpt lat="48.458434" lon="2.66647"><ele></ele><time>2023-8-15T9:54:35Z</time></trkpt>
<trkpt lat="48.458398" lon="2.666597"><ele></ele><time>2023-8-15T9:54:38Z</time></trkpt>
<trkpt lat="48.458341" lon="2.666708"><ele></ele><time>2023-8-15T9:54:41Z</time></trkpt>
<trkpt lat="48.458296" lon="2.666872"><ele></ele><time>2023-8-15T9:54:44Z</time></trkpt>
<trkpt lat="48.458223" lon="2.66705"><ele></ele><time>2023-8-15T9:54:47Z</time></trkpt>
<trkpt lat="48.458181" lon="2.667173"><ele></ele><time>2023-8-15T9:54:50Z</time></trkpt>
<trkpt lat="48.458114" lon="2.667311"><ele></ele><time>2023-8-15T9:54:53Z</time></trkpt>
<trkpt lat="48.458071" lon="2.66744"><ele></ele><time>2023-8-15T9:54:56Z</time></trkpt>
<trkpt lat="48.458004" lon="2.667614"><ele></ele><time>2023-8-15T9:54:59Z</time></trkpt>
<trkpt lat="48.457959" lon="2.667733"><ele></ele><time>2023-8-15T9:55:2Z</time></trkpt>
<trkpt lat="48.4579" lon="2.667871"><ele></ele><time>2023-8-15T9:55:5Z</time></trkpt>
<trkpt lat="48.457856" lon="2.668074"><ele></ele><time>2023-8-15T9:55:8Z</time></trkpt>
<trkpt lat="48.457807" lon="2.66826"><ele></ele><time>2023-8-15T9:55:11Z</time></trkpt>
<trkpt lat="48.457758" lon="2.668449"><ele></ele><time>2023-8-15T9:55:14Z</time></trkpt>
<trkpt lat="48.457713" lon="2.66864"><ele></ele><time>2023-8-15T9:55:17Z</time></trkpt>
<trkpt lat="48.457649" lon="2.668794"><ele></ele><time>2023-8-15T9:55:20Z</time></trkpt>
<trkpt lat="48.45761" lon="2.668928"><ele></ele><time>2023-8-15T9:55:23Z</time></trkpt>
<trkpt lat="48.457537" lon="2.669131"><ele></ele><time>2023-8-15T9:55:26Z</time></trkpt>
<trkpt lat="48.457488" lon="2.669273"><ele></ele><time>2023-8-15T9:55:29Z</time></trkpt>
<trkpt lat="48.457432" lon="2.669436"><ele></ele><time>2023-8-15T9:55:32Z</time></trkpt>
<trkpt lat="48.457375" lon="2.669601"><ele></ele><time>2023-8-15T9:55:35Z</time></trkpt>
<trkpt lat="48.457295" lon="2.669713"><ele></ele><time>2023-8-15T9:55:38Z</time></trkpt>
<trkpt lat="48.457202" lon="2.669711"><ele></ele><time>2023-8-15T9:55:41Z</time></trkpt>
<trkpt lat="48.457107" lon="2.669745"><ele></ele><time>2023-8-15T9:55:44Z</time></trkpt>
<trkpt lat="48.457013" lon="2.669718"><ele></ele><time>2023-8-15T9:55:47Z</time></trkpt>
<trkpt lat="48.456939" lon="2.669586"><ele></ele><time>2023-8-15T9:55:50Z</time></trkpt>
<trkpt lat="48.456864" lon="2.669467"><ele></ele><time>2023-8-15T9:55:53Z</time></trkpt>
<trkpt lat="48.4568" lon="2.669341"><ele></ele><time>2023-8-15T9:55:56Z</time></trkpt>
<trkpt lat="48.456729" lon="2.669144"><ele></ele><time>2023-8-15T9:55:59Z</time></trkpt>
<trkpt lat="48.456668" lon="2.668989"><ele></ele><time>2023-8-15T9:56:2Z</time></trkpt>
<trkpt lat="48.456645" lon="2.668838"><ele></ele><time>2023-8-15T9:56:5Z</time></trkpt>
<trkpt lat="48.456596" lon="2.668677"><ele></ele><time>2023-8-15T9:56:8Z</time></trkpt>
<trkpt lat="48.456553" lon="2.668543"><ele></ele><time>2023-8-15T9:56:11Z</time></trkpt>
<trkpt lat="48.45649" lon="2.668367"><ele></ele><time>2023-8-15T9:56:14Z</time></trkpt>
<trkpt lat="48.456459" lon="2.668219"><ele></ele><time>2023-8-15T9:56:17Z</time></trkpt>
<trkpt lat="48.456405" lon="2.66809"><ele></ele><time>2023-8-15T9:56:20Z</time></trkpt>
<trkpt lat="48.456362" lon="2.667953"><ele></ele><time>2023-8-15T9:56:23Z</time></trkpt>
<trkpt lat="48.456297" lon="2.66783"><ele></ele><time>2023-8-15T9:56:26Z</time></trkpt>
<trkpt lat="48.456229" lon="2.667715"><ele></ele><time>2023-8-15T9:56:29Z</time></trkpt>
<trkpt lat="48.456175" lon="2.667578"><ele></ele><time>2023-8-15T9:56:32Z</time></trkpt>
<trkpt lat="48.456103" lon="2.667414"><ele></ele><time>2023-8-15T9:56:35Z</time></trkpt>
<trkpt lat="48.456035" lon="2.667303"><ele></ele><time>2023-8-15T9:56:38Z</time></trkpt>
<trkpt lat="48.455956" lon="2.667186"><ele></ele><time>2023-8-15T9:56:41Z</time></trkpt>
<trkpt lat="48.455892" lon="2.66708"><ele></ele><time>2023-8-15T9:56:44Z</time></trkpt>
<trkpt lat="48.455829" lon="2.66697"><ele></ele><time>2023-8-15T9:56:47Z</time></trkpt>
<trkpt lat="48.455766" lon="2.666851"><ele></ele><time>2023-8-15T9:56:50Z</time></trkpt>
<trkpt lat="48.455688" lon="2.666782"><ele></ele><time>2023-8-15T9:56:53Z</time></trkpt>
<trkpt lat="48.455603" lon="2.666696"><ele></ele><time>2023-8-15T9:56:56Z</time></trkpt>
<trkpt lat="48.455514" lon="2.66661"><ele></ele><time>2023-8-15T9:56:59Z</time></trkpt>
<trkpt lat="48.455409" lon="2.666589"><ele></ele><time>2023-8-15T9:57:2Z</time></trkpt>
<trkpt lat="48.455312" lon="2.666547"><ele></ele><time>2023-8-15T9:57:5Z</time></trkpt>
<trkpt lat="48.455209" lon="2.666457"><ele></ele><time>2023-8-15T9:57:8Z</time></trkpt>
<trkpt lat="48.455124" lon="2.666383"><ele></ele><time>2023-8-15T9:57:11Z</time></trkpt>
<trkpt lat="48.455066" lon="2.66624"><ele></ele><time>2023-8-15T9:57:14Z</time></trkpt>
<trkpt lat="48.45503" lon="2.666087"><ele></ele><time>2023-8-15T9:57:17Z</time></trkpt>
<trkpt lat="48.455025" lon="2.665951"><ele></ele><time>2023-8-15T9:57:20Z</time></trkpt>
<trkpt lat="48.455003" lon="2.665817"><ele></ele><time>2023-8-15T9:57:23Z</time></trkpt>
<trkpt lat="48.454968" lon="2.665668"><ele></ele><time>2023-8-15T9:57:26Z</time></trkpt>
<trkpt lat="48.454972" lon="2.665526"><ele></ele><time>2023-8-15T9:57:29Z</time></trkpt>
<trkpt lat="48.454912" lon="2.665418"><ele></ele><time>2023-8-15T9:57:32Z</time></trkpt>
<trkpt lat="48.454826" lon="2.665285"><ele></ele><time>2023-8-15T9:57:35Z</time></trkpt>
<trkpt lat="48.454776" lon="2.665164"><ele></ele><time>2023-8-15T9:57:38Z</time></trkpt>
<trkpt lat="48.454718" lon="2.665043"><ele></ele><time>2023-8-15T9:57:41Z</time></trkpt>
<trkpt lat="48.454681" lon="2.664913"><ele></ele><time>2023-8-15T9:57:44Z</time></trkpt>
<trkpt lat="48.45463" lon="2.664797"><ele></ele><time>2023-8-15T9:57:47Z</time></trkpt>
<trkpt lat="48.454553" lon="2.664678"><ele></ele><time>2023-8-15T9:57:50Z</time></trkpt>
<trkpt lat="48.454512" lon="2.66455"><ele></ele><time>2023-8-15T9:57:53Z</time></trkpt>
<trkpt lat="48.454459" lon="2.664431"><ele></ele><time>2023-8-15T9:57:56Z</time></trkpt>
<trkpt lat="48.454395" lon="2.664321"><ele></ele><time>2023-8-15T9:57:59Z</time></trkpt>
<trkpt lat="48.454335" lon="2.6642"><ele></ele><time>2023-8-15T9:58:2Z</time></trkpt>
<trkpt lat="48.454289" lon="2.664046"><ele></ele><time>2023-8-15T9:58:5Z</time></trkpt>
<trkpt lat="48.454251" lon="2.663923"><ele></ele><time>2023-8-15T9:58:8Z</time></trkpt>
<trkpt lat="48.454213" lon="2.663799"><ele></ele><time>2023-8-15T9:58:11Z</time></trkpt>
<trkpt lat="48.454201" lon="2.663654"><ele></ele><time>2023-8-15T9:58:14Z</time></trkpt>
<trkpt lat="48.454164" lon="2.663519"><ele></ele><time>2023-8-15T9:58:17Z</time></trkpt>
<trkpt lat="48.454131" lon="2.663383"><ele></ele><time>2023-8-15T9:58:20Z</time></trkpt>
<trkpt lat="48.454088" lon="2.663259"><ele></ele><time>2023-8-15T9:58:23Z</time></trkpt>
<trkpt lat="48.454057" lon="2.663111"><ele></ele><time>2023-8-15T9:58:26Z</time></trkpt>
<trkpt lat="48.454038" lon="2.662954"><ele></ele><time>2023-8-15T9:58:29Z</time></trkpt>
<trkpt lat="48.45399" lon="2.662838"><ele></ele><time>2023-8-15T9:58:32Z</time></trkpt>
<trkpt lat="48.453939" lon="2.662709"><ele></ele><time>2023-8-15T9:58:35Z</time></trkpt>
<trkpt lat="48.453876" lon="2.66259"><ele></ele><time>2023-8-15T9:58:38Z</time></trkpt>
<trkpt lat="48.45381" lon="2.662493"><ele></ele><time>2023-8-15T9:58:41Z</time></trkpt>
<trkpt lat="48.453743" lon="2.662386"><ele></ele><time>2023-8-15T9:58:44Z</time></trkpt>
<trkpt lat="48.453652" lon="2.662325"><ele></ele><time>2023-8-15T9:58:47Z</time></trkpt>
<trkpt lat="48.453654" lon="2.662168"><ele></ele><time>2023-8-15T9:58:50Z</time></trkpt>
<trkpt lat="48.453736" lon="2.662073"><ele></ele><time>2023-8-15T9:58:53Z</time></trkpt>
<trkpt lat="48.453819" lon="2.662014"><ele></ele><time>2023-8-15T9:58:56Z</time></trkpt>
<trkpt lat="48.453933" lon="2.662063"><ele></ele><time>2023-8-15T9:58:59Z</time></trkpt>
<trkpt lat="48.454006" lon="2.66216"><ele></ele><time>2023-8-15T9:59:2Z</time></trkpt>
<trkpt lat="48.45407" lon="2.662277"><ele></ele><time>2023-8-15T9:59:5Z</time></trkpt>
<trkpt lat="48.454122" lon="2.662433"><ele></ele><time>2023-8-15T9:59:8Z</time></trkpt>
<trkpt lat="48.454148" lon="2.662611"><ele></ele><time>2023-8-15T9:59:11Z</time></trkpt>
<trkpt lat="48.454192" lon="2.662743"><ele></ele><time>2023-8-15T9:59:14Z</time></trkpt>
<trkpt lat="48.454253" lon="2.662889"><ele></ele><time>2023-8-15T9:59:17Z</time></trkpt>
<trkpt lat="48.454309" lon="2.663026"><ele></ele><time>2023-8-15T9:59:20Z</time></trkpt>
<trkpt lat="48.45437" lon="2.663183"><ele></ele><time>2023-8-15T9:59:23Z</time></trkpt>
<trkpt lat="48.454426" lon="2.663322"><ele></ele><time>2023-8-15T9:59:26Z</time></trkpt>
<trkpt lat="48.454483" lon="2.663429"><ele></ele><time>2023-8-15T9:59:29Z</time></trkpt>
<trkpt lat="48.454552" lon="2.663566"><ele></ele><time>2023-8-15T9:59:32Z</time></trkpt>
<trkpt lat="48.454642" lon="2.663747"><ele></ele><time>2023-8-15T9:59:35Z</time></trkpt>
<trkpt lat="48.454716" lon="2.663873"><ele></ele><time>2023-8-15T9:59:38Z</time></trkpt>
<trkpt lat="48.45477" lon="2.663985"><ele></ele><time>2023-8-15T9:59:41Z</time></trkpt>
<trkpt lat="48.454809" lon="2.664112"><ele></ele><time>2023-8-15T9:59:44Z</time></trkpt>
<trkpt lat="48.45486" lon="2.664225"><ele></ele><time>2023-8-15T9:59:47Z</time></trkpt>
<trkpt lat="48.454923" lon="2.664356"><ele></ele><time>2023-8-15T9:59:50Z</time></trkpt>
<trkpt lat="48.454963" lon="2.664481"><ele></ele><time>2023-8-15T9:59:53Z</time></trkpt>
<trkpt lat="48.455029" lon="2.664598"><ele></ele><time>2023-8-15T9:59:56Z</time></trkpt>
<trkpt lat="48.455078" lon="2.664745"><ele></ele><time>2023-8-15T9:59:59Z</time></trkpt>
<trkpt lat="48.455139" lon="2.664879"><ele></ele><time>2023-8-15T10:0:2Z</time></trkpt>
<trkpt lat="48.4552" lon="2.665009"><ele></ele><time>2023-8-15T10:0:5Z</time></trkpt>
<trkpt lat="48.455285" lon="2.665151"><ele></ele><time>2023-8-15T10:0:8Z</time></trkpt>
<trkpt lat="48.455345" lon="2.665303"><ele></ele><time>2023-8-15T10:0:11Z</time></trkpt>
<trkpt lat="48.455444" lon="2.665432"><ele></ele><time>2023-8-15T10:0:14Z</time></trkpt>
<trkpt lat="48.45554" lon="2.665537"><ele></ele><time>2023-8-15T10:0:17Z</time></trkpt>
<trkpt lat="48.455641" lon="2.665647"><ele></ele><time>2023-8-15T10:0:20Z</time></trkpt>
<trkpt lat="48.455777" lon="2.665778"><ele></ele><time>2023-8-15T10:0:23Z</time></trkpt>
<trkpt lat="48.455859" lon="2.665863"><ele></ele><time>2023-8-15T10:0:26Z</time></trkpt>
<trkpt lat="48.455973" lon="2.665949"><ele></ele><time>2023-8-15T10:0:29Z</time></trkpt>
<trkpt lat="48.456079" lon="2.666034"><ele></ele><time>2023-8-15T10:0:32Z</time></trkpt>
<trkpt lat="48.456169" lon="2.666118"><ele></ele><time>2023-8-15T10:0:35Z</time></trkpt>
<trkpt lat="48.456259" lon="2.666241"><ele></ele><time>2023-8-15T10:0:38Z</time></trkpt>
<trkpt lat="48.456359" lon="2.666376"><ele></ele><time>2023-8-15T10:0:41Z</time></trkpt>
<trkpt lat="48.45644" lon="2.666529"><ele></ele><time>2023-8-15T10:0:44Z</time></trkpt>
<trkpt lat="48.45653" lon="2.66667"><ele></ele><time>2023-8-15T10:0:47Z</time></trkpt>
<trkpt lat="48.456609" lon="2.666752"><ele></ele><time>2023-8-15T10:0:50Z</time></trkpt>
<trkpt lat="48.456676" lon="2.666846"><ele></ele><time>2023-8-15T10:0:53Z</time></trkpt>
<trkpt lat="48.456757" lon="2.666986"><ele></ele><time>2023-8-15T10:0:56Z</time></trkpt>
<trkpt lat="48.456851" lon="2.667089"><ele></ele><time>2023-8-15T10:0:59Z</time></trkpt>
<trkpt lat="48.456934" lon="2.667176"><ele></ele><time>2023-8-15T10:1:2Z</time></trkpt>
<trkpt lat="48.457029" lon="2.66722"><ele></ele><time>2023-8-15T10:1:5Z</time></trkpt>
<trkpt lat="48.457089" lon="2.667375"><ele></ele><time>2023-8-15T10:1:8Z</time></trkpt>
<trkpt lat="48.457103" lon="2.667541"><ele></ele><time>2023-8-15T10:1:11Z</time></trkpt>
<trkpt lat="48.457101" lon="2.667687"><ele></ele><time>2023-8-15T10:1:14Z</time></trkpt>
<trkpt lat="48.457058" lon="2.667833"><ele></ele><time>2023-8-15T10:1:17Z</time></trkpt>
<trkpt lat="48.457046" lon="2.667859"><ele></ele><time>2023-8-15T10:1:20Z</time></trkpt>
<trkpt lat="48.457044" lon="2.667862"><ele></ele><time>2023-8-15T10:1:23Z</time></trkpt>
<trkpt lat="48.457044" lon="2.667863"><ele></ele><time>2023-8-15T10:1:26Z</time></trkpt>
<trkpt lat="48.457042" lon="2.667864"><ele></ele><time>2023-8-15T10:1:29Z</time></trkpt>
<trkpt lat="48.4571" lon="2.667742"><ele></ele><time>2023-8-15T10:1:32Z</time></trkpt>
<trkpt lat="48.457126" lon="2.667737"><ele></ele><time>2023-8-15T10:1:35Z</time></trkpt>
<trkpt lat="48.457128" lon="2.667734"><ele></ele><time>2023-8-15T10:1:38Z</time></trkpt>
<trkpt lat="48.457128" lon="2.667735"><ele></ele><time>2023-8-15T10:1:41Z</time></trkpt>
<trkpt lat="48.457126" lon="2.667736"><ele></ele><time>2023-8-15T10:1:44Z</time></trkpt>
<trkpt lat="48.457127" lon="2.667736"><ele></ele><time>2023-8-15T10:1:47Z</time></trkpt>
<trkpt lat="48.457129" lon="2.667731"><ele></ele><time>2023-8-15T10:1:50Z</time></trkpt>
<trkpt lat="48.457182" lon="2.667663"><ele></ele><time>2023-8-15T10:1:53Z</time></trkpt>
<trkpt lat="48.457181" lon="2.667659"><ele></ele><time>2023-8-15T10:1:56Z</time></trkpt>
<trkpt lat="48.457175" lon="2.667648"><ele></ele><time>2023-8-15T10:1:59Z</time></trkpt>
<trkpt lat="48.457176" lon="2.667644"><ele></ele><time>2023-8-15T10:2:2Z</time></trkpt>
<trkpt lat="48.45719" lon="2.667611"><ele></ele><time>2023-8-15T10:2:5Z</time></trkpt>
<trkpt lat="48.45719" lon="2.667609"><ele></ele><time>2023-8-15T10:2:8Z</time></trkpt>
<trkpt lat="48.457266" lon="2.667523"><ele></ele><time>2023-8-15T10:2:11Z</time></trkpt>
<trkpt lat="48.457346" lon="2.667382"><ele></ele><time>2023-8-15T10:2:14Z</time></trkpt>
<trkpt lat="48.457389" lon="2.667252"><ele></ele><time>2023-8-15T10:2:17Z</time></trkpt>
<trkpt lat="48.457427" lon="2.667126"><ele></ele><time>2023-8-15T10:2:20Z</time></trkpt>
<trkpt lat="48.457482" lon="2.666996"><ele></ele><time>2023-8-15T10:2:23Z</time></trkpt>
<trkpt lat="48.457515" lon="2.666829"><ele></ele><time>2023-8-15T10:2:26Z</time></trkpt>
<trkpt lat="48.457502" lon="2.666678"><ele></ele><time>2023-8-15T10:2:29Z</time></trkpt>
<trkpt lat="48.457497" lon="2.666495"><ele></ele><time>2023-8-15T10:2:32Z</time></trkpt>
<trkpt lat="48.457517" lon="2.66632"><ele></ele><time>2023-8-15T10:2:35Z</time></trkpt>
<trkpt lat="48.457531" lon="2.666178"><ele></ele><time>2023-8-15T10:2:38Z</time></trkpt>
<trkpt lat="48.457555" lon="2.665999"><ele></ele><time>2023-8-15T10:2:41Z</time></trkpt>
<trkpt lat="48.457537" lon="2.665861"><ele></ele><time>2023-8-15T10:2:44Z</time></trkpt>
<trkpt lat="48.457524" lon="2.665701"><ele></ele><time>2023-8-15T10:2:47Z</time></trkpt>
<trkpt lat="48.45745" lon="2.665615"><ele></ele><time>2023-8-15T10:2:50Z</time></trkpt>
<trkpt lat="48.457445" lon="2.665608"><ele></ele><time>2023-8-15T10:2:53Z</time></trkpt>
<trkpt lat="48.457444" lon="2.665605"><ele></ele><time>2023-8-15T10:2:56Z</time></trkpt>
<trkpt lat="48.457442" lon="2.665603"><ele></ele><time>2023-8-15T10:2:59Z</time></trkpt>
<trkpt lat="48.457438" lon="2.665599"><ele></ele><time>2023-8-15T10:3:2Z</time></trkpt>
<trkpt lat="48.45737" lon="2.665488"><ele></ele><time>2023-8-15T10:3:5Z</time></trkpt>
<trkpt lat="48.457322" lon="2.665335"><ele></ele><time>2023-8-15T10:3:8Z</time></trkpt>
<trkpt lat="48.457275" lon="2.665167"><ele></ele><time>2023-8-15T10:3:11Z</time></trkpt>
<trkpt lat="48.457228" lon="2.665022"><ele></ele><time>2023-8-15T10:3:14Z</time></trkpt>
<trkpt lat="48.457212" lon="2.664871"><ele></ele><time>2023-8-15T10:3:17Z</time></trkpt>
<trkpt lat="48.457207" lon="2.664728"><ele></ele><time>2023-8-15T10:3:20Z</time></trkpt>
<trkpt lat="48.457175" lon="2.664572"><ele></ele><time>2023-8-15T10:3:23Z</time></trkpt>
<trkpt lat="48.457177" lon="2.6644"><ele></ele><time>2023-8-15T10:3:26Z</time></trkpt>
<trkpt lat="48.457172" lon="2.66423"><ele></ele><time>2023-8-15T10:3:29Z</time></trkpt>
<trkpt lat="48.457163" lon="2.664055"><ele></ele><time>2023-8-15T10:3:32Z</time></trkpt>
<trkpt lat="48.45715" lon="2.663906"><ele></ele><time>2023-8-15T10:3:35Z</time></trkpt>
<trkpt lat="48.457116" lon="2.663758"><ele></ele><time>2023-8-15T10:3:38Z</time></trkpt>
<trkpt lat="48.457077" lon="2.663594"><ele></ele><time>2023-8-15T10:3:41Z</time></trkpt>
<trkpt lat="48.45707" lon="2.663442"><ele></ele><time>2023-8-15T10:3:44Z</time></trkpt>
<trkpt lat="48.457035" lon="2.663295"><ele></ele><time>2023-8-15T10:3:47Z</time></trkpt>
<trkpt lat="48.457012" lon="2.66311"><ele></ele><time>2023-8-15T10:3:50Z</time></trkpt>
<trkpt lat="48.456988" lon="2.662909"><ele></ele><time>2023-8-15T10:3:53Z</time></trkpt>
<trkpt lat="48.45697" lon="2.662747"><ele></ele><time>2023-8-15T10:3:56Z</time></trkpt>
<trkpt lat="48.45692" lon="2.662581"><ele></ele><time>2023-8-15T10:3:59Z</time></trkpt>
<trkpt lat="48.456859" lon="2.662454"><ele></ele><time>2023-8-15T10:4:2Z</time></trkpt>
<trkpt lat="48.45681" lon="2.662302"><ele></ele><time>2023-8-15T10:4:5Z</time></trkpt>
<trkpt lat="48.456794" lon="2.662168"><ele></ele><time>2023-8-15T10:4:8Z</time></trkpt>
<trkpt lat="48.456734" lon="2.662011"><ele></ele><time>2023-8-15T10:4:11Z</time></trkpt>
<trkpt lat="48.456682" lon="2.661823"><ele></ele><time>2023-8-15T10:4:14Z</time></trkpt>
<trkpt lat="48.456649" lon="2.661674"><ele></ele><time>2023-8-15T10:4:17Z</time></trkpt>
<trkpt lat="48.456598" lon="2.661555"><ele></ele><time>2023-8-15T10:4:20Z</time></trkpt>
<trkpt lat="48.456578" lon="2.661399"><ele></ele><time>2023-8-15T10:4:23Z</time></trkpt>
<trkpt lat="48.456555" lon="2.66123"><ele></ele><time>2023-8-15T10:4:26Z</time></trkpt>
<trkpt lat="48.456531" lon="2.661064"><ele></ele><time>2023-8-15T10:4:29Z</time></trkpt>
<trkpt lat="48.456487" lon="2.660929"><ele></ele><time>2023-8-15T10:4:32Z</time></trkpt>
<trkpt lat="48.456502" lon="2.660761"><ele></ele><time>2023-8-15T10:4:35Z</time></trkpt>
<trkpt lat="48.456531" lon="2.660604"><ele></ele><time>2023-8-15T10:4:38Z</time></trkpt>
<trkpt lat="48.456575" lon="2.660474"><ele></ele><time>2023-8-15T10:4:41Z</time></trkpt>
<trkpt lat="48.456608" lon="2.660344"><ele></ele><time>2023-8-15T10:4:44Z</time></trkpt>
<trkpt lat="48.456679" lon="2.660204"><ele></ele><time>2023-8-15T10:4:47Z</time></trkpt>
<trkpt lat="48.456767" lon="2.660095"><ele></ele><time>2023-8-15T10:4:50Z</time></trkpt>
<trkpt lat="48.45684" lon="2.659987"><ele></ele><time>2023-8-15T10:4:53Z</time></trkpt>
<trkpt lat="48.456916" lon="2.659877"><ele></ele><time>2023-8-15T10:4:56Z</time></trkpt>
<trkpt lat="48.45698" lon="2.659753"><ele></ele><time>2023-8-15T10:4:59Z</time></trkpt>
<trkpt lat="48.457029" lon="2.659588"><ele></ele><time>2023-8-15T10:5:2Z</time></trkpt>
<trkpt lat="48.457021" lon="2.65945"><ele></ele><time>2023-8-15T10:5:5Z</time></trkpt>
<trkpt lat="48.456963" lon="2.659337"><ele></ele><time>2023-8-15T10:5:8Z</time></trkpt>
<trkpt lat="48.45693" lon="2.659196"><ele></ele><time>2023-8-15T10:5:11Z</time></trkpt>
<trkpt lat="48.456891" lon="2.659019"><ele></ele><time>2023-8-15T10:5:14Z</time></trkpt>
<trkpt lat="48.45685" lon="2.658897"><ele></ele><time>2023-8-15T10:5:17Z</time></trkpt>
<trkpt lat="48.456824" lon="2.658756"><ele></ele><time>2023-8-15T10:5:20Z</time></trkpt>
<trkpt lat="48.456868" lon="2.658593"><ele></ele><time>2023-8-15T10:5:23Z</time></trkpt>
<trkpt lat="48.456925" lon="2.658426"><ele></ele><time>2023-8-15T10:5:26Z</time></trkpt>
<trkpt lat="48.456996" lon="2.658341"><ele></ele><time>2023-8-15T10:5:29Z</time></trkpt>
<trkpt lat="48.457023" lon="2.658286"><ele></ele><time>2023-8-15T10:5:32Z</time></trkpt>
<trkpt lat="48.457023" lon="2.658283"><ele></ele><time>2023-8-15T10:5:35Z</time></trkpt>
<trkpt lat="48.457111" lon="2.658198"><ele></ele><time>2023-8-15T10:5:38Z</time></trkpt>
<trkpt lat="48.45719" lon="2.658124"><ele></ele><time>2023-8-15T10:5:41Z</time></trkpt>
<trkpt lat="48.45725" lon="2.658014"><ele></ele><time>2023-8-15T10:5:44Z</time></trkpt>
<trkpt lat="48.457356" lon="2.657985"><ele></ele><time>2023-8-15T10:5:47Z</time></trkpt>
<trkpt lat="48.457439" lon="2.657935"><ele></ele><time>2023-8-15T10:5:50Z</time></trkpt>
<trkpt lat="48.457556" lon="2.657915"><ele></ele><time>2023-8-15T10:5:53Z</time></trkpt>
<trkpt lat="48.457665" lon="2.657927"><ele></ele><time>2023-8-15T10:5:56Z</time></trkpt>
<trkpt lat="48.457772" lon="2.657957"><ele></ele><time>2023-8-15T10:5:59Z</time></trkpt>
<trkpt lat="48.457864" lon="2.657965"><ele></ele><time>2023-8-15T10:6:2Z</time></trkpt>
<trkpt lat="48.457962" lon="2.657886"><ele></ele><time>2023-8-15T10:6:5Z</time></trkpt>
<trkpt lat="48.458066" lon="2.657831"><ele></ele><time>2023-8-15T10:6:8Z</time></trkpt>
<trkpt lat="48.458121" lon="2.657951"><ele></ele><time>2023-8-15T10:6:11Z</time></trkpt>
<trkpt lat="48.458198" lon="2.658081"><ele></ele><time>2023-8-15T10:6:14Z</time></trkpt>
<trkpt lat="48.458277" lon="2.658146"><ele></ele><time>2023-8-15T10:6:17Z</time></trkpt>
<trkpt lat="48.458383" lon="2.658181"><ele></ele><time>2023-8-15T10:6:20Z</time></trkpt>
<trkpt lat="48.458461" lon="2.658112"><ele></ele><time>2023-8-15T10:6:23Z</time></trkpt>
<trkpt lat="48.458522" lon="2.657988"><ele></ele><time>2023-8-15T10:6:26Z</time></trkpt>
<trkpt lat="48.458585" lon="2.657884"><ele></ele><time>2023-8-15T10:6:29Z</time></trkpt>
<trkpt lat="48.458631" lon="2.657747"><ele></ele><time>2023-8-15T10:6:32Z</time></trkpt>
<trkpt lat="48.458675" lon="2.657572"><ele></ele><time>2023-8-15T10:6:35Z</time></trkpt>
<trkpt lat="48.458718" lon="2.657438"><ele></ele><time>2023-8-15T10:6:38Z</time></trkpt>
<trkpt lat="48.458763" lon="2.657292"><ele></ele><time>2023-8-15T10:6:41Z</time></trkpt>
<trkpt lat="48.458809" lon="2.657174"><ele></ele><time>2023-8-15T10:6:44Z</time></trkpt>
<trkpt lat="48.45887" lon="2.657027"><ele></ele><time>2023-8-15T10:6:47Z</time></trkpt>
<trkpt lat="48.458949" lon="2.656909"><ele></ele><time>2023-8-15T10:6:50Z</time></trkpt>
<trkpt lat="48.459029" lon="2.656814"><ele></ele><time>2023-8-15T10:6:53Z</time></trkpt>
<trkpt lat="48.459103" lon="2.656661"><ele></ele><time>2023-8-15T10:6:56Z</time></trkpt>
<trkpt lat="48.459188" lon="2.656503"><ele></ele><time>2023-8-15T10:6:59Z</time></trkpt>
<trkpt lat="48.459213" lon="2.656371"><ele></ele><time>2023-8-15T10:7:2Z</time></trkpt>
<trkpt lat="48.459253" lon="2.656228"><ele></ele><time>2023-8-15T10:7:5Z</time></trkpt>
<trkpt lat="48.459297" lon="2.656097"><ele></ele><time>2023-8-15T10:7:8Z</time></trkpt>
<trkpt lat="48.459326" lon="2.655931"><ele></ele><time>2023-8-15T10:7:11Z</time></trkpt>
<trkpt lat="48.459353" lon="2.6558"><ele></ele><time>2023-8-15T10:7:14Z</time></trkpt>
<trkpt lat="48.459374" lon="2.655647"><ele></ele><time>2023-8-15T10:7:17Z</time></trkpt>
<trkpt lat="48.459408" lon="2.65552"><ele></ele><time>2023-8-15T10:7:20Z</time></trkpt>
<trkpt lat="48.459458" lon="2.655385"><ele></ele><time>2023-8-15T10:7:23Z</time></trkpt>
<trkpt lat="48.459516" lon="2.655209"><ele></ele><time>2023-8-15T10:7:26Z</time></trkpt>
<trkpt lat="48.459564" lon="2.655075"><ele></ele><time>2023-8-15T10:7:29Z</time></trkpt>
<trkpt lat="48.459612" lon="2.654907"><ele></ele><time>2023-8-15T10:7:32Z</time></trkpt>
<trkpt lat="48.459641" lon="2.654729"><ele></ele><time>2023-8-15T10:7:35Z</time></trkpt>
<trkpt lat="48.459682" lon="2.65458"><ele></ele><time>2023-8-15T10:7:38Z</time></trkpt>
<trkpt lat="48.459687" lon="2.654435"><ele></ele><time>2023-8-15T10:7:41Z</time></trkpt>
<trkpt lat="48.459706" lon="2.654255"><ele></ele><time>2023-8-15T10:7:44Z</time></trkpt>
<trkpt lat="48.459697" lon="2.65411"><ele></ele><time>2023-8-15T10:7:47Z</time></trkpt>
<trkpt lat="48.459666" lon="2.65397"><ele></ele><time>2023-8-15T10:7:50Z</time></trkpt>
<trkpt lat="48.459615" lon="2.653837"><ele></ele><time>2023-8-15T10:7:53Z</time></trkpt>
<trkpt lat="48.459558" lon="2.653706"><ele></ele><time>2023-8-15T10:7:56Z</time></trkpt>
<trkpt lat="48.459469" lon="2.653595"><ele></ele><time>2023-8-15T10:7:59Z</time></trkpt>
<trkpt lat="48.45939" lon="2.65352"><ele></ele><time>2023-8-15T10:8:2Z</time></trkpt>
<trkpt lat="48.459281" lon="2.653431"><ele></ele><time>2023-8-15T10:8:5Z</time></trkpt>
<trkpt lat="48.45919" lon="2.653373"><ele></ele><time>2023-8-15T10:8:8Z</time></trkpt>
<trkpt lat="48.459081" lon="2.653353"><ele></ele><time>2023-8-15T10:8:11Z</time></trkpt>
<trkpt lat="48.458964" lon="2.653374"><ele></ele><time>2023-8-15T10:8:14Z</time></trkpt>
<trkpt lat="48.458824" lon="2.653394"><ele></ele><time>2023-8-15T10:8:17Z</time></trkpt>
<trkpt lat="48.458701" lon="2.65342"><ele></ele><time>2023-8-15T10:8:20Z</time></trkpt>
<trkpt lat="48.45859" lon="2.653434"><ele></ele><time>2023-8-15T10:8:23Z</time></trkpt>
<trkpt lat="48.458485" lon="2.653434"><ele></ele><time>2023-8-15T10:8:26Z</time></trkpt>
<trkpt lat="48.458379" lon="2.653442"><ele></ele><time>2023-8-15T10:8:29Z</time></trkpt>
<trkpt lat="48.458287" lon="2.653463"><ele></ele><time>2023-8-15T10:8:32Z</time></trkpt>
<trkpt lat="48.458172" lon="2.653445"><ele></ele><time>2023-8-15T10:8:35Z</time></trkpt>
<trkpt lat="48.458073" lon="2.653394"><ele></ele><time>2023-8-15T10:8:38Z</time></trkpt>
<trkpt lat="48.457974" lon="2.653326"><ele></ele><time>2023-8-15T10:8:41Z</time></trkpt>
<trkpt lat="48.457877" lon="2.653235"><ele></ele><time>2023-8-15T10:8:44Z</time></trkpt>
<trkpt lat="48.457808" lon="2.653125"><ele></ele><time>2023-8-15T10:8:47Z</time></trkpt>
<trkpt lat="48.457748" lon="2.652979"><ele></ele><time>2023-8-15T10:8:50Z</time></trkpt>
<trkpt lat="48.457678" lon="2.652884"><ele></ele><time>2023-8-15T10:8:53Z</time></trkpt>
<trkpt lat="48.457596" lon="2.652756"><ele></ele><time>2023-8-15T10:8:56Z</time></trkpt>
<trkpt lat="48.457584" lon="2.65261"><ele></ele><time>2023-8-15T10:8:59Z</time></trkpt>
<trkpt lat="48.457605" lon="2.65246"><ele></ele><time>2023-8-15T10:9:2Z</time></trkpt>
<trkpt lat="48.45765" lon="2.652273"><ele></ele><time>2023-8-15T10:9:5Z</time></trkpt>
<trkpt lat="48.457741" lon="2.652034"><ele></ele><time>2023-8-15T10:9:8Z</time></trkpt>
<trkpt lat="48.457822" lon="2.651833"><ele></ele><time>2023-8-15T10:9:11Z</time></trkpt>
<trkpt lat="48.45791" lon="2.651741"><ele></ele><time>2023-8-15T10:9:14Z</time></trkpt>
<trkpt lat="48.458007" lon="2.651638"><ele></ele><time>2023-8-15T10:9:17Z</time></trkpt>
<trkpt lat="48.458127" lon="2.651543"><ele></ele><time>2023-8-15T10:9:20Z</time></trkpt>
<trkpt lat="48.458229" lon="2.651481"><ele></ele><time>2023-8-15T10:9:23Z</time></trkpt>
<trkpt lat="48.458333" lon="2.651425"><ele></ele><time>2023-8-15T10:9:26Z</time></trkpt>
<trkpt lat="48.458481" lon="2.651342"><ele></ele><time>2023-8-15T10:9:29Z</time></trkpt>
<trkpt lat="48.458571" lon="2.651249"><ele></ele><time>2023-8-15T10:9:32Z</time></trkpt>
<trkpt lat="48.458646" lon="2.651127"><ele></ele><time>2023-8-15T10:9:35Z</time></trkpt>
<trkpt lat="48.458674" lon="2.650962"><ele></ele><time>2023-8-15T10:9:38Z</time></trkpt>
<trkpt lat="48.458644" lon="2.650793"><ele></ele><time>2023-8-15T10:9:41Z</time></trkpt>
<trkpt lat="48.458628" lon="2.650585"><ele></ele><time>2023-8-15T10:9:44Z</time></trkpt>
<trkpt lat="48.458561" lon="2.650435"><ele></ele><time>2023-8-15T10:9:47Z</time></trkpt>
<trkpt lat="48.458497" lon="2.650255"><ele></ele><time>2023-8-15T10:9:50Z</time></trkpt>
<trkpt lat="48.458424" lon="2.650079"><ele></ele><time>2023-8-15T10:9:53Z</time></trkpt>
<trkpt lat="48.458348" lon="2.649916"><ele></ele><time>2023-8-15T10:9:56Z</time></trkpt>
<trkpt lat="48.458283" lon="2.649775"><ele></ele><time>2023-8-15T10:9:59Z</time></trkpt>
<trkpt lat="48.458207" lon="2.649652"><ele></ele><time>2023-8-15T10:10:2Z</time></trkpt>
<trkpt lat="48.458143" lon="2.649548"><ele></ele><time>2023-8-15T10:10:5Z</time></trkpt>
<trkpt lat="48.458093" lon="2.649417"><ele></ele><time>2023-8-15T10:10:8Z</time></trkpt>
<trkpt lat="48.458062" lon="2.649286"><ele></ele><time>2023-8-15T10:10:11Z</time></trkpt>
<trkpt lat="48.458044" lon="2.649127"><ele></ele><time>2023-8-15T10:10:14Z</time></trkpt>
<trkpt lat="48.458039" lon="2.648952"><ele></ele><time>2023-8-15T10:10:17Z</time></trkpt>
<trkpt lat="48.45808" lon="2.648817"><ele></ele><time>2023-8-15T10:10:20Z</time></trkpt>
<trkpt lat="48.458135" lon="2.648695"><ele></ele><time>2023-8-15T10:10:23Z</time></trkpt>
<trkpt lat="48.458248" lon="2.648538"><ele></ele><time>2023-8-15T10:10:26Z</time></trkpt>
<trkpt lat="48.458369" lon="2.648455"><ele></ele><time>2023-8-15T10:10:29Z</time></trkpt>
<trkpt lat="48.458484" lon="2.648366"><ele></ele><time>2023-8-15T10:10:32Z</time></trkpt>
<trkpt lat="48.458569" lon="2.648319"><ele></ele><time>2023-8-15T10:10:35Z</time></trkpt>
<trkpt lat="48.458734" lon="2.648213"><ele></ele><time>2023-8-15T10:10:38Z</time></trkpt>
<trkpt lat="48.458818" lon="2.648161"><ele></ele><time>2023-8-15T10:10:41Z</time></trkpt>
<trkpt lat="48.458957" lon="2.648123"><ele></ele><time>2023-8-15T10:10:44Z</time></trkpt>
<trkpt lat="48.45906" lon="2.648112"><ele></ele><time>2023-8-15T10:10:47Z</time></trkpt>
<trkpt lat="48.459189" lon="2.648021"><ele></ele><time>2023-8-15T10:10:50Z</time></trkpt>
<trkpt lat="48.459309" lon="2.647935"><ele></ele><time>2023-8-15T10:10:53Z</time></trkpt>
<trkpt lat="48.459406" lon="2.647811"><ele></ele><time>2023-8-15T10:10:56Z</time></trkpt>
<trkpt lat="48.459459" lon="2.647678"><ele></ele><time>2023-8-15T10:10:59Z</time></trkpt>
<trkpt lat="48.459485" lon="2.647539"><ele></ele><time>2023-8-15T10:11:2Z</time></trkpt>
<trkpt lat="48.459516" lon="2.647287"><ele></ele><time>2023-8-15T10:11:5Z</time></trkpt>
<trkpt lat="48.459547" lon="2.647125"><ele></ele><time>2023-8-15T10:11:8Z</time></trkpt>
<trkpt lat="48.459542" lon="2.646971"><ele></ele><time>2023-8-15T10:11:11Z</time></trkpt>
<trkpt lat="48.459515" lon="2.646807"><ele></ele><time>2023-8-15T10:11:14Z</time></trkpt>
<trkpt lat="48.459503" lon="2.64666"><ele></ele><time>2023-8-15T10:11:17Z</time></trkpt>
<trkpt lat="48.459504" lon="2.646513"><ele></ele><time>2023-8-15T10:11:20Z</time></trkpt>
<trkpt lat="48.459506" lon="2.646342"><ele></ele><time>2023-8-15T10:11:23Z</time></trkpt>
<trkpt lat="48.459481" lon="2.646139"><ele></ele><time>2023-8-15T10:11:26Z</time></trkpt>
<trkpt lat="48.459417" lon="2.645951"><ele></ele><time>2023-8-15T10:11:29Z</time></trkpt>
<trkpt lat="48.459329" lon="2.64579"><ele></ele><time>2023-8-15T10:11:32Z</time></trkpt>
<trkpt lat="48.459263" lon="2.645685"><ele></ele><time>2023-8-15T10:11:35Z</time></trkpt>
<trkpt lat="48.459188" lon="2.645547"><ele></ele><time>2023-8-15T10:11:38Z</time></trkpt>
<trkpt lat="48.459124" lon="2.645284"><ele></ele><time>2023-8-15T10:11:41Z</time></trkpt>
<trkpt lat="48.459092" lon="2.645126"><ele></ele><time>2023-8-15T10:11:44Z</time></trkpt>
<trkpt lat="48.459059" lon="2.644971"><ele></ele><time>2023-8-15T10:11:47Z</time></trkpt>
<trkpt lat="48.45904" lon="2.644835"><ele></ele><time>2023-8-15T10:11:50Z</time></trkpt>
<trkpt lat="48.459023" lon="2.644652"><ele></ele><time>2023-8-15T10:11:53Z</time></trkpt>
<trkpt lat="48.459006" lon="2.644509"><ele></ele><time>2023-8-15T10:11:56Z</time></trkpt>
<trkpt lat="48.45902" lon="2.644264"><ele></ele><time>2023-8-15T10:11:59Z</time></trkpt>
<trkpt lat="48.459038" lon="2.644068"><ele></ele><time>2023-8-15T10:12:2Z</time></trkpt>
<trkpt lat="48.459037" lon="2.643906"><ele></ele><time>2023-8-15T10:12:5Z</time></trkpt>
<trkpt lat="48.459094" lon="2.643717"><ele></ele><time>2023-8-15T10:12:8Z</time></trkpt>
<trkpt lat="48.459147" lon="2.643523"><ele></ele><time>2023-8-15T10:12:11Z</time></trkpt>
<trkpt lat="48.459211" lon="2.643358"><ele></ele><time>2023-8-15T10:12:14Z</time></trkpt>
<trkpt lat="48.459273" lon="2.643195"><ele></ele><time>2023-8-15T10:12:17Z</time></trkpt>
<trkpt lat="48.459321" lon="2.643075"><ele></ele><time>2023-8-15T10:12:20Z</time></trkpt>
<trkpt lat="48.459349" lon="2.642943"><ele></ele><time>2023-8-15T10:12:23Z</time></trkpt>
<trkpt lat="48.459392" lon="2.642798"><ele></ele><time>2023-8-15T10:12:26Z</time></trkpt>
<trkpt lat="48.45941" lon="2.642629"><ele></ele><time>2023-8-15T10:12:29Z</time></trkpt>
<trkpt lat="48.45939" lon="2.642475"><ele></ele><time>2023-8-15T10:12:32Z</time></trkpt>
<trkpt lat="48.459367" lon="2.642308"><ele></ele><time>2023-8-15T10:12:35Z</time></trkpt>
<trkpt lat="48.459366" lon="2.642149"><ele></ele><time>2023-8-15T10:12:38Z</time></trkpt>
<trkpt lat="48.459398" lon="2.641926"><ele></ele><time>2023-8-15T10:12:41Z</time></trkpt>
<trkpt lat="48.459436" lon="2.641803"><ele></ele><time>2023-8-15T10:12:44Z</time></trkpt>
<trkpt lat="48.459499" lon="2.641605"><ele></ele><time>2023-8-15T10:12:47Z</time></trkpt>
<trkpt lat="48.459485" lon="2.641423"><ele></ele><time>2023-8-15T10:12:50Z</time></trkpt>
<trkpt lat="48.45942" lon="2.641289"><ele></ele><time>2023-8-15T10:12:53Z</time></trkpt>
<trkpt lat="48.459332" lon="2.641218"><ele></ele><time>2023-8-15T10:12:56Z</time></trkpt>
<trkpt lat="48.459232" lon="2.641207"><ele></ele><time>2023-8-15T10:12:59Z</time></trkpt>
<trkpt lat="48.459132" lon="2.641204"><ele></ele><time>2023-8-15T10:13:2Z</time></trkpt>
<trkpt lat="48.459029" lon="2.641199"><ele></ele><time>2023-8-15T10:13:5Z</time></trkpt>
<trkpt lat="48.458933" lon="2.641184"><ele></ele><time>2023-8-15T10:13:8Z</time></trkpt>
<trkpt lat="48.458832" lon="2.641165"><ele></ele><time>2023-8-15T10:13:11Z</time></trkpt>
<trkpt lat="48.458733" lon="2.641147"><ele></ele><time>2023-8-15T10:13:14Z</time></trkpt>
<trkpt lat="48.458615" lon="2.641136"><ele></ele><time>2023-8-15T10:13:17Z</time></trkpt>
<trkpt lat="48.458486" lon="2.641126"><ele></ele><time>2023-8-15T10:13:20Z</time></trkpt>
<trkpt lat="48.458367" lon="2.641149"><ele></ele><time>2023-8-15T10:13:23Z</time></trkpt>
<trkpt lat="48.45827" lon="2.64115"><ele></ele><time>2023-8-15T10:13:26Z</time></trkpt>
<trkpt lat="48.45817" lon="2.641145"><ele></ele><time>2023-8-15T10:13:29Z</time></trkpt>
<trkpt lat="48.458067" lon="2.64114"><ele></ele><time>2023-8-15T10:13:32Z</time></trkpt>
<trkpt lat="48.457975" lon="2.641018"><ele></ele><time>2023-8-15T10:13:35Z</time></trkpt>
<trkpt lat="48.45791" lon="2.640906"><ele></ele><time>2023-8-15T10:13:38Z</time></trkpt>
<trkpt lat="48.457841" lon="2.640754"><ele></ele><time>2023-8-15T10:13:41Z</time></trkpt>
<trkpt lat="48.457783" lon="2.6406"><ele></ele><time>2023-8-15T10:13:44Z</time></trkpt>
<trkpt lat="48.457734" lon="2.640466"><ele></ele><time>2023-8-15T10:13:47Z</time></trkpt>
<trkpt lat="48.457685" lon="2.640339"><ele></ele><time>2023-8-15T10:13:50Z</time></trkpt>
<trkpt lat="48.457628" lon="2.640189"><ele></ele><time>2023-8-15T10:13:53Z</time></trkpt>
<trkpt lat="48.457574" lon="2.640007"><ele></ele><time>2023-8-15T10:13:56Z</time></trkpt>
<trkpt lat="48.457558" lon="2.639865"><ele></ele><time>2023-8-15T10:13:59Z</time></trkpt>
<trkpt lat="48.457568" lon="2.639702"><ele></ele><time>2023-8-15T10:14:2Z</time></trkpt>
<trkpt lat="48.45758" lon="2.639536"><ele></ele><time>2023-8-15T10:14:5Z</time></trkpt>
<trkpt lat="48.457602" lon="2.63936"><ele></ele><time>2023-8-15T10:14:8Z</time></trkpt>
<trkpt lat="48.457621" lon="2.639208"><ele></ele><time>2023-8-15T10:14:11Z</time></trkpt>
<trkpt lat="48.457612" lon="2.639067"><ele></ele><time>2023-8-15T10:14:14Z</time></trkpt>
<trkpt lat="48.45764" lon="2.638866"><ele></ele><time>2023-8-15T10:14:17Z</time></trkpt>
<trkpt lat="48.457679" lon="2.638681"><ele></ele><time>2023-8-15T10:14:20Z</time></trkpt>
<trkpt lat="48.457658" lon="2.638512"><ele></ele><time>2023-8-15T10:14:23Z</time></trkpt>
<trkpt lat="48.457607" lon="2.638394"><ele></ele><time>2023-8-15T10:14:26Z</time></trkpt>
<trkpt lat="48.457498" lon="2.638311"><ele></ele><time>2023-8-15T10:14:29Z</time></trkpt>
<trkpt lat="48.457393" lon="2.638328"><ele></ele><time>2023-8-15T10:14:32Z</time></trkpt>
<trkpt lat="48.4573" lon="2.638456"><ele></ele><time>2023-8-15T10:14:35Z</time></trkpt>
<trkpt lat="48.457257" lon="2.638608"><ele></ele><time>2023-8-15T10:14:38Z</time></trkpt>
<trkpt lat="48.457221" lon="2.638737"><ele></ele><time>2023-8-15T10:14:41Z</time></trkpt>
<trkpt lat="48.457162" lon="2.638941"><ele></ele><time>2023-8-15T10:14:44Z</time></trkpt>
<trkpt lat="48.457103" lon="2.639048"><ele></ele><time>2023-8-15T10:14:47Z</time></trkpt>
<trkpt lat="48.457017" lon="2.639114"><ele></ele><time>2023-8-15T10:14:50Z</time></trkpt>
<trkpt lat="48.456916" lon="2.639176"><ele></ele><time>2023-8-15T10:14:53Z</time></trkpt>
<trkpt lat="48.456813" lon="2.639261"><ele></ele><time>2023-8-15T10:14:56Z</time></trkpt>
<trkpt lat="48.456691" lon="2.6393"><ele></ele><time>2023-8-15T10:14:59Z</time></trkpt>
<trkpt lat="48.456575" lon="2.639319"><ele></ele><time>2023-8-15T10:15:2Z</time></trkpt>
<trkpt lat="48.45648" lon="2.639311"><ele></ele><time>2023-8-15T10:15:5Z</time></trkpt>
<trkpt lat="48.456341" lon="2.63923"><ele></ele><time>2023-8-15T10:15:8Z</time></trkpt>
<trkpt lat="48.456259" lon="2.63909"><ele></ele><time>2023-8-15T10:15:11Z</time></trkpt>
<trkpt lat="48.456199" lon="2.638919"><ele></ele><time>2023-8-15T10:15:14Z</time></trkpt>
<trkpt lat="48.456148" lon="2.638794"><ele></ele><time>2023-8-15T10:15:17Z</time></trkpt>
<trkpt lat="48.45607" lon="2.638651"><ele></ele><time>2023-8-15T10:15:20Z</time></trkpt>
<trkpt lat="48.455944" lon="2.63865"><ele></ele><time>2023-8-15T10:15:23Z</time></trkpt>
<trkpt lat="48.455819" lon="2.638715"><ele></ele><time>2023-8-15T10:15:26Z</time></trkpt>
<trkpt lat="48.4557" lon="2.638755"><ele></ele><time>2023-8-15T10:15:29Z</time></trkpt>
<trkpt lat="48.455604" lon="2.638716"><ele></ele><time>2023-8-15T10:15:32Z</time></trkpt>
<trkpt lat="48.455516" lon="2.638642"><ele></ele><time>2023-8-15T10:15:35Z</time></trkpt>
<trkpt lat="48.455435" lon="2.638549"><ele></ele><time>2023-8-15T10:15:38Z</time></trkpt>
<trkpt lat="48.455326" lon="2.6385"><ele></ele><time>2023-8-15T10:15:41Z</time></trkpt>
<trkpt lat="48.455187" lon="2.63851"><ele></ele><time>2023-8-15T10:15:44Z</time></trkpt>
<trkpt lat="48.455072" lon="2.638525"><ele></ele><time>2023-8-15T10:15:47Z</time></trkpt>
<trkpt lat="48.454936" lon="2.63849"><ele></ele><time>2023-8-15T10:15:50Z</time></trkpt>
<trkpt lat="48.454842" lon="2.638416"><ele></ele><time>2023-8-15T10:15:53Z</time></trkpt>
<trkpt lat="48.45476" lon="2.638273"><ele></ele><time>2023-8-15T10:15:56Z</time></trkpt>
<trkpt lat="48.45466" lon="2.638095"><ele></ele><time>2023-8-15T10:15:59Z</time></trkpt>
<trkpt lat="48.45459" lon="2.637968"><ele></ele><time>2023-8-15T10:16:2Z</time></trkpt>
<trkpt lat="48.454516" lon="2.637857"><ele></ele><time>2023-8-15T10:16:5Z</time></trkpt>
<trkpt lat="48.454442" lon="2.637772"><ele></ele><time>2023-8-15T10:16:8Z</time></trkpt>
<trkpt lat="48.454359" lon="2.637622"><ele></ele><time>2023-8-15T10:16:11Z</time></trkpt>
<trkpt lat="48.454318" lon="2.637415"><ele></ele><time>2023-8-15T10:16:14Z</time></trkpt>
<trkpt lat="48.454301" lon="2.63728"><ele></ele><time>2023-8-15T10:16:17Z</time></trkpt>
<trkpt lat="48.454296" lon="2.637074"><ele></ele><time>2023-8-15T10:16:20Z</time></trkpt>
<trkpt lat="48.454285" lon="2.63685"><ele></ele><time>2023-8-15T10:16:23Z</time></trkpt>
<trkpt lat="48.454243" lon="2.636669"><ele></ele><time>2023-8-15T10:16:26Z</time></trkpt>
<trkpt lat="48.454181" lon="2.636557"><ele></ele><time>2023-8-15T10:16:29Z</time></trkpt>
<trkpt lat="48.454105" lon="2.636472"><ele></ele><time>2023-8-15T10:16:32Z</time></trkpt>
<trkpt lat="48.45401" lon="2.636361"><ele></ele><time>2023-8-15T10:16:35Z</time></trkpt>
<trkpt lat="48.45391" lon="2.636289"><ele></ele><time>2023-8-15T10:16:38Z</time></trkpt>
<trkpt lat="48.453796" lon="2.636276"><ele></ele><time>2023-8-15T10:16:41Z</time></trkpt>
<trkpt lat="48.453677" lon="2.636299"><ele></ele><time>2023-8-15T10:16:44Z</time></trkpt>
<trkpt lat="48.453547" lon="2.636377"><ele></ele><time>2023-8-15T10:16:47Z</time></trkpt>
<trkpt lat="48.453426" lon="2.636453"><ele></ele><time>2023-8-15T10:16:50Z</time></trkpt>
<trkpt lat="48.453324" lon="2.636519"><ele></ele><time>2023-8-15T10:16:53Z</time></trkpt>
<trkpt lat="48.453238" lon="2.636571"><ele></ele><time>2023-8-15T10:16:56Z</time></trkpt>
<trkpt lat="48.453121" lon="2.636634"><ele></ele><time>2023-8-15T10:16:59Z</time></trkpt>
<trkpt lat="48.453014" lon="2.636647"><ele></ele><time>2023-8-15T10:17:2Z</time></trkpt>
<trkpt lat="48.452914" lon="2.636595"><ele></ele><time>2023-8-15T10:17:5Z</time></trkpt>
<trkpt lat="48.452832" lon="2.636494"><ele></ele><time>2023-8-15T10:17:8Z</time></trkpt>
<trkpt lat="48.452754" lon="2.636348"><ele></ele><time>2023-8-15T10:17:11Z</time></trkpt>
<trkpt lat="48.452682" lon="2.636213"><ele></ele><time>2023-8-15T10:17:14Z</time></trkpt>
<trkpt lat="48.452624" lon="2.636095"><ele></ele><time>2023-8-15T10:17:17Z</time></trkpt>
<trkpt lat="48.452524" lon="2.636019"><ele></ele><time>2023-8-15T10:17:20Z</time></trkpt>
<trkpt lat="48.452405" lon="2.636012"><ele></ele><time>2023-8-15T10:17:23Z</time></trkpt>
<trkpt lat="48.45229" lon="2.636048"><ele></ele><time>2023-8-15T10:17:26Z</time></trkpt>
<trkpt lat="48.452173" lon="2.636056"><ele></ele><time>2023-8-15T10:17:29Z</time></trkpt>
<trkpt lat="48.452072" lon="2.636028"><ele></ele><time>2023-8-15T10:17:32Z</time></trkpt>
<trkpt lat="48.451996" lon="2.63594"><ele></ele><time>2023-8-15T10:17:35Z</time></trkpt>
<trkpt lat="48.451945" lon="2.635809"><ele></ele><time>2023-8-15T10:17:38Z</time></trkpt>
<trkpt lat="48.45193" lon="2.635636"><ele></ele><time>2023-8-15T10:17:41Z</time></trkpt>
<trkpt lat="48.451931" lon="2.635394"><ele></ele><time>2023-8-15T10:17:44Z</time></trkpt>
<trkpt lat="48.451935" lon="2.635232"><ele></ele><time>2023-8-15T10:17:47Z</time></trkpt>
<trkpt lat="48.451931" lon="2.635069"><ele></ele><time>2023-8-15T10:17:50Z</time></trkpt>
<trkpt lat="48.451939" lon="2.634926"><ele></ele><time>2023-8-15T10:17:53Z</time></trkpt>
<trkpt lat="48.451968" lon="2.63475"><ele></ele><time>2023-8-15T10:17:56Z</time></trkpt>
<trkpt lat="48.452001" lon="2.634608"><ele></ele><time>2023-8-15T10:17:59Z</time></trkpt>
<trkpt lat="48.452019" lon="2.634413"><ele></ele><time>2023-8-15T10:18:2Z</time></trkpt>
<trkpt lat="48.45202" lon="2.63423"><ele></ele><time>2023-8-15T10:18:5Z</time></trkpt>
<trkpt lat="48.452009" lon="2.634085"><ele></ele><time>2023-8-15T10:18:8Z</time></trkpt>
<trkpt lat="48.452005" lon="2.633945"><ele></ele><time>2023-8-15T10:18:11Z</time></trkpt>
<trkpt lat="48.452035" lon="2.633803"><ele></ele><time>2023-8-15T10:18:14Z</time></trkpt>
<trkpt lat="48.452078" lon="2.63368"><ele></ele><time>2023-8-15T10:18:17Z</time></trkpt>
<trkpt lat="48.452114" lon="2.63361"><ele></ele><time>2023-8-15T10:18:20Z</time></trkpt>
<trkpt lat="48.452115" lon="2.633614"><ele></ele><time>2023-8-15T10:18:23Z</time></trkpt>
<trkpt lat="48.452116" lon="2.633615"><ele></ele><time>2023-8-15T10:18:26Z</time></trkpt>
<trkpt lat="48.452117" lon="2.633615"><ele></ele><time>2023-8-15T10:18:29Z</time></trkpt>
<trkpt lat="48.452118" lon="2.633616"><ele></ele><time>2023-8-15T10:18:32Z</time></trkpt>
<trkpt lat="48.452118" lon="2.63361"><ele></ele><time>2023-8-15T10:18:35Z</time></trkpt>
<trkpt lat="48.452118" lon="2.633609"><ele></ele><time>2023-8-15T10:18:38Z</time></trkpt>
<trkpt lat="48.452114" lon="2.633606"><ele></ele><time>2023-8-15T10:18:41Z</time></trkpt>
<trkpt lat="48.452114" lon="2.633605"><ele></ele><time>2023-8-15T10:18:44Z</time></trkpt>
<trkpt lat="48.452114" lon="2.633608"><ele></ele><time>2023-8-15T10:18:47Z</time></trkpt>
<trkpt lat="48.452114" lon="2.63361"><ele></ele><time>2023-8-15T10:18:50Z</time></trkpt>
<trkpt lat="48.452112" lon="2.633608"><ele></ele><time>2023-8-15T10:18:53Z</time></trkpt>
<trkpt lat="48.452103" lon="2.633605"><ele></ele><time>2023-8-15T10:18:56Z</time></trkpt>
<trkpt lat="48.452101" lon="2.633603"><ele></ele><time>2023-8-15T10:18:59Z</time></trkpt>
<trkpt lat="48.452096" lon="2.633605"><ele></ele><time>2023-8-15T10:19:2Z</time></trkpt>
<trkpt lat="48.452092" lon="2.633603"><ele></ele><time>2023-8-15T10:19:5Z</time></trkpt>
<trkpt lat="48.452099" lon="2.633643"><ele></ele><time>2023-8-15T10:19:8Z</time></trkpt>
<trkpt lat="48.452104" lon="2.633646"><ele></ele><time>2023-8-15T10:19:11Z</time></trkpt>
<trkpt lat="48.452115" lon="2.633647"><ele></ele><time>2023-8-15T10:19:14Z</time></trkpt>
<trkpt lat="48.452116" lon="2.633647"><ele></ele><time>2023-8-15T10:19:17Z</time></trkpt>
<trkpt lat="48.452127" lon="2.633643"><ele></ele><time>2023-8-15T10:19:20Z</time></trkpt>
<trkpt lat="48.45213" lon="2.633645"><ele></ele><time>2023-8-15T10:19:23Z</time></trkpt>
<trkpt lat="48.452135" lon="2.633654"><ele></ele><time>2023-8-15T10:19:26Z</time></trkpt>
<trkpt lat="48.452136" lon="2.633656"><ele></ele><time>2023-8-15T10:19:29Z</time></trkpt>
<trkpt lat="48.452131" lon="2.633672"><ele></ele><time>2023-8-15T10:19:32Z</time></trkpt>
<trkpt lat="48.452131" lon="2.633674"><ele></ele><time>2023-8-15T10:19:35Z</time></trkpt>
<trkpt lat="48.452071" lon="2.633784"><ele></ele><time>2023-8-15T10:19:38Z</time></trkpt>
<trkpt lat="48.452038" lon="2.633926"><ele></ele><time>2023-8-15T10:19:41Z</time></trkpt>
<trkpt lat="48.452019" lon="2.634085"><ele></ele><time>2023-8-15T10:19:44Z</time></trkpt>
<trkpt lat="48.452023" lon="2.634256"><ele></ele><time>2023-8-15T10:19:47Z</time></trkpt>
<trkpt lat="48.452037" lon="2.634436"><ele></ele><time>2023-8-15T10:19:50Z</time></trkpt>
<trkpt lat="48.452035" lon="2.634632"><ele></ele><time>2023-8-15T10:19:53Z</time></trkpt>
<trkpt lat="48.452027" lon="2.634849"><ele></ele><time>2023-8-15T10:19:56Z</time></trkpt>
<trkpt lat="48.452003" lon="2.635029"><ele></ele><time>2023-8-15T10:19:59Z</time></trkpt>
<trkpt lat="48.45195" lon="2.63519"><ele></ele><time>2023-8-15T10:20:2Z</time></trkpt>
<trkpt lat="48.451872" lon="2.635309"><ele></ele><time>2023-8-15T10:20:5Z</time></trkpt>
<trkpt lat="48.451791" lon="2.635418"><ele></ele><time>2023-8-15T10:20:8Z</time></trkpt>
<trkpt lat="48.451717" lon="2.63553"><ele></ele><time>2023-8-15T10:20:11Z</time></trkpt>
<trkpt lat="48.451694" lon="2.635691"><ele></ele><time>2023-8-15T10:20:14Z</time></trkpt>
<trkpt lat="48.451731" lon="2.635829"><ele></ele><time>2023-8-15T10:20:17Z</time></trkpt>
<trkpt lat="48.451777" lon="2.636012"><ele></ele><time>2023-8-15T10:20:20Z</time></trkpt>
<trkpt lat="48.451775" lon="2.636186"><ele></ele><time>2023-8-15T10:20:23Z</time></trkpt>
<trkpt lat="48.451684" lon="2.636317"><ele></ele><time>2023-8-15T10:20:26Z</time></trkpt>
<trkpt lat="48.451583" lon="2.636377"><ele></ele><time>2023-8-15T10:20:29Z</time></trkpt>
<trkpt lat="48.451492" lon="2.636406"><ele></ele><time>2023-8-15T10:20:32Z</time></trkpt>
<trkpt lat="48.451397" lon="2.636478"><ele></ele><time>2023-8-15T10:20:35Z</time></trkpt>
<trkpt lat="48.451313" lon="2.636571"><ele></ele><time>2023-8-15T10:20:38Z</time></trkpt>
<trkpt lat="48.451249" lon="2.636712"><ele></ele><time>2023-8-15T10:20:41Z</time></trkpt>
<trkpt lat="48.451205" lon="2.636898"><ele></ele><time>2023-8-15T10:20:44Z</time></trkpt>
<trkpt lat="48.451126" lon="2.637039"><ele></ele><time>2023-8-15T10:20:47Z</time></trkpt>
<trkpt lat="48.451058" lon="2.637148"><ele></ele><time>2023-8-15T10:20:50Z</time></trkpt>
<trkpt lat="48.450999" lon="2.637293"><ele></ele><time>2023-8-15T10:20:53Z</time></trkpt>
<trkpt lat="48.450955" lon="2.63742"><ele></ele><time>2023-8-15T10:20:56Z</time></trkpt>
<trkpt lat="48.45092" lon="2.637561"><ele></ele><time>2023-8-15T10:20:59Z</time></trkpt>
<trkpt lat="48.45088" lon="2.637715"><ele></ele><time>2023-8-15T10:21:2Z</time></trkpt>
<trkpt lat="48.450844" lon="2.637843"><ele></ele><time>2023-8-15T10:21:5Z</time></trkpt>
<trkpt lat="48.45084" lon="2.638005"><ele></ele><time>2023-8-15T10:21:8Z</time></trkpt>
<trkpt lat="48.450841" lon="2.638144"><ele></ele><time>2023-8-15T10:21:11Z</time></trkpt>
<trkpt lat="48.450834" lon="2.638332"><ele></ele><time>2023-8-15T10:21:14Z</time></trkpt>
<trkpt lat="48.450848" lon="2.638478"><ele></ele><time>2023-8-15T10:21:17Z</time></trkpt>
<trkpt lat="48.450875" lon="2.63866"><ele></ele><time>2023-8-15T10:21:20Z</time></trkpt>
<trkpt lat="48.450882" lon="2.638815"><ele></ele><time>2023-8-15T10:21:23Z</time></trkpt>
<trkpt lat="48.450896" lon="2.639041"><ele></ele><time>2023-8-15T10:21:26Z</time></trkpt>
<trkpt lat="48.450907" lon="2.639202"><ele></ele><time>2023-8-15T10:21:29Z</time></trkpt>
<trkpt lat="48.450925" lon="2.639359"><ele></ele><time>2023-8-15T10:21:32Z</time></trkpt>
<trkpt lat="48.45093" lon="2.639502"><ele></ele><time>2023-8-15T10:21:35Z</time></trkpt>
<trkpt lat="48.450949" lon="2.639655"><ele></ele><time>2023-8-15T10:21:38Z</time></trkpt>
<trkpt lat="48.451015" lon="2.639812"><ele></ele><time>2023-8-15T10:21:41Z</time></trkpt>
<trkpt lat="48.451065" lon="2.639941"><ele></ele><time>2023-8-15T10:21:44Z</time></trkpt>
<trkpt lat="48.451071" lon="2.640164"><ele></ele><time>2023-8-15T10:21:47Z</time></trkpt>
<trkpt lat="48.450995" lon="2.640375"><ele></ele><time>2023-8-15T10:21:50Z</time></trkpt>
<trkpt lat="48.450927" lon="2.640544"><ele></ele><time>2023-8-15T10:21:53Z</time></trkpt>
<trkpt lat="48.450889" lon="2.640696"><ele></ele><time>2023-8-15T10:21:56Z</time></trkpt>
<trkpt lat="48.450861" lon="2.640828"><ele></ele><time>2023-8-15T10:21:59Z</time></trkpt>
<trkpt lat="48.450814" lon="2.64095"><ele></ele><time>2023-8-15T10:22:2Z</time></trkpt>
<trkpt lat="48.450739" lon="2.641047"><ele></ele><time>2023-8-15T10:22:5Z</time></trkpt>
<trkpt lat="48.450664" lon="2.641155"><ele></ele><time>2023-8-15T10:22:8Z</time></trkpt>
<trkpt lat="48.450584" lon="2.64126"><ele></ele><time>2023-8-15T10:22:11Z</time></trkpt>
<trkpt lat="48.450493" lon="2.641381"><ele></ele><time>2023-8-15T10:22:14Z</time></trkpt>
<trkpt lat="48.45039" lon="2.641514"><ele></ele><time>2023-8-15T10:22:17Z</time></trkpt>
<trkpt lat="48.450315" lon="2.641607"><ele></ele><time>2023-8-15T10:22:20Z</time></trkpt>
<trkpt lat="48.450244" lon="2.641708"><ele></ele><time>2023-8-15T10:22:23Z</time></trkpt>
<trkpt lat="48.450158" lon="2.641828"><ele></ele><time>2023-8-15T10:22:26Z</time></trkpt>
<trkpt lat="48.450067" lon="2.64196"><ele></ele><time>2023-8-15T10:22:29Z</time></trkpt>
<trkpt lat="48.449994" lon="2.642053"><ele></ele><time>2023-8-15T10:22:32Z</time></trkpt>
<trkpt lat="48.449929" lon="2.642162"><ele></ele><time>2023-8-15T10:22:35Z</time></trkpt>
<trkpt lat="48.449878" lon="2.64228"><ele></ele><time>2023-8-15T10:22:38Z</time></trkpt>
<trkpt lat="48.449769" lon="2.64246"><ele></ele><time>2023-8-15T10:22:41Z</time></trkpt>
<trkpt lat="48.449681" lon="2.642568"><ele></ele><time>2023-8-15T10:22:44Z</time></trkpt>
<trkpt lat="48.449604" lon="2.642663"><ele></ele><time>2023-8-15T10:22:47Z</time></trkpt>
<trkpt lat="48.449534" lon="2.64277"><ele></ele><time>2023-8-15T10:22:50Z</time></trkpt>
<trkpt lat="48.449451" lon="2.642873"><ele></ele><time>2023-8-15T10:22:53Z</time></trkpt>
<trkpt lat="48.449394" lon="2.64298"><ele></ele><time>2023-8-15T10:22:56Z</time></trkpt>
<trkpt lat="48.449345" lon="2.64311"><ele></ele><time>2023-8-15T10:22:59Z</time></trkpt>
<trkpt lat="48.449334" lon="2.643265"><ele></ele><time>2023-8-15T10:23:2Z</time></trkpt>
<trkpt lat="48.449338" lon="2.643405"><ele></ele><time>2023-8-15T10:23:5Z</time></trkpt>
<trkpt lat="48.449374" lon="2.643534"><ele></ele><time>2023-8-15T10:23:8Z</time></trkpt>
<trkpt lat="48.449448" lon="2.643671"><ele></ele><time>2023-8-15T10:23:11Z</time></trkpt>
<trkpt lat="48.449516" lon="2.643787"><ele></ele><time>2023-8-15T10:23:14Z</time></trkpt>
<trkpt lat="48.449611" lon="2.643946"><ele></ele><time>2023-8-15T10:23:17Z</time></trkpt>
<trkpt lat="48.449656" lon="2.644117"><ele></ele><time>2023-8-15T10:23:20Z</time></trkpt>
<trkpt lat="48.449649" lon="2.64429"><ele></ele><time>2023-8-15T10:23:23Z</time></trkpt>
<trkpt lat="48.449599" lon="2.644482"><ele></ele><time>2023-8-15T10:23:26Z</time></trkpt>
<trkpt lat="48.449563" lon="2.644671"><ele></ele><time>2023-8-15T10:23:29Z</time></trkpt>
<trkpt lat="48.449554" lon="2.64483"><ele></ele><time>2023-8-15T10:23:32Z</time></trkpt>
<trkpt lat="48.449571" lon="2.644965"><ele></ele><time>2023-8-15T10:23:35Z</time></trkpt>
<trkpt lat="48.449603" lon="2.645123"><ele></ele><time>2023-8-15T10:23:38Z</time></trkpt>
<trkpt lat="48.449621" lon="2.645259"><ele></ele><time>2023-8-15T10:23:41Z</time></trkpt>
<trkpt lat="48.449649" lon="2.645421"><ele></ele><time>2023-8-15T10:23:44Z</time></trkpt>
<trkpt lat="48.449655" lon="2.64564"><ele></ele><time>2023-8-15T10:23:47Z</time></trkpt>
<trkpt lat="48.449642" lon="2.645828"><ele></ele><time>2023-8-15T10:23:50Z</time></trkpt>
<trkpt lat="48.449627" lon="2.646032"><ele></ele><time>2023-8-15T10:23:53Z</time></trkpt>
<trkpt lat="48.449613" lon="2.646191"><ele></ele><time>2023-8-15T10:23:56Z</time></trkpt>
<trkpt lat="48.44961" lon="2.646347"><ele></ele><time>2023-8-15T10:23:59Z</time></trkpt>
<trkpt lat="48.449615" lon="2.64655"><ele></ele><time>2023-8-15T10:24:2Z</time></trkpt>
<trkpt lat="48.449617" lon="2.646724"><ele></ele><time>2023-8-15T10:24:5Z</time></trkpt>
<trkpt lat="48.449625" lon="2.646891"><ele></ele><time>2023-8-15T10:24:8Z</time></trkpt>
<trkpt lat="48.449594" lon="2.64702"><ele></ele><time>2023-8-15T10:24:11Z</time></trkpt>
<trkpt lat="48.449512" lon="2.64712"><ele></ele><time>2023-8-15T10:24:14Z</time></trkpt>
<trkpt lat="48.449409" lon="2.647125"><ele></ele><time>2023-8-15T10:24:17Z</time></trkpt>
<trkpt lat="48.449296" lon="2.647138"><ele></ele><time>2023-8-15T10:24:20Z</time></trkpt>
<trkpt lat="48.449174" lon="2.647202"><ele></ele><time>2023-8-15T10:24:23Z</time></trkpt>
<trkpt lat="48.449088" lon="2.647296"><ele></ele><time>2023-8-15T10:24:26Z</time></trkpt>
<trkpt lat="48.449027" lon="2.647451"><ele></ele><time>2023-8-15T10:24:29Z</time></trkpt>
<trkpt lat="48.448967" lon="2.647622"><ele></ele><time>2023-8-15T10:24:32Z</time></trkpt>
<trkpt lat="48.448893" lon="2.647812"><ele></ele><time>2023-8-15T10:24:35Z</time></trkpt>
<trkpt lat="48.448835" lon="2.647978"><ele></ele><time>2023-8-15T10:24:38Z</time></trkpt>
<trkpt lat="48.448806" lon="2.648118"><ele></ele><time>2023-8-15T10:24:41Z</time></trkpt>
<trkpt lat="48.448766" lon="2.648259"><ele></ele><time>2023-8-15T10:24:44Z</time></trkpt>
<trkpt lat="48.44869" lon="2.648381"><ele></ele><time>2023-8-15T10:24:47Z</time></trkpt>
<trkpt lat="48.448618" lon="2.648501"><ele></ele><time>2023-8-15T10:24:50Z</time></trkpt>
<trkpt lat="48.448556" lon="2.648672"><ele></ele><time>2023-8-15T10:24:53Z</time></trkpt>
<trkpt lat="48.448467" lon="2.648909"><ele></ele><time>2023-8-15T10:24:56Z</time></trkpt>
<trkpt lat="48.448421" lon="2.649074"><ele></ele><time>2023-8-15T10:24:59Z</time></trkpt>
<trkpt lat="48.448355" lon="2.649257"><ele></ele><time>2023-8-15T10:25:2Z</time></trkpt>
<trkpt lat="48.448291" lon="2.649411"><ele></ele><time>2023-8-15T10:25:5Z</time></trkpt>
<trkpt lat="48.448229" lon="2.649601"><ele></ele><time>2023-8-15T10:25:8Z</time></trkpt>
<trkpt lat="48.448187" lon="2.649749"><ele></ele><time>2023-8-15T10:25:11Z</time></trkpt>
<trkpt lat="48.448129" lon="2.649879"><ele></ele><time>2023-8-15T10:25:14Z</time></trkpt>
<trkpt lat="48.448076" lon="2.650103"><ele></ele><time>2023-8-15T10:25:17Z</time></trkpt>
<trkpt lat="48.448" lon="2.650293"><ele></ele><time>2023-8-15T10:25:20Z</time></trkpt>
<trkpt lat="48.447928" lon="2.65048"><ele></ele><time>2023-8-15T10:25:23Z</time></trkpt>
<trkpt lat="48.44789" lon="2.650626"><ele></ele><time>2023-8-15T10:25:26Z</time></trkpt>
<trkpt lat="48.44784" lon="2.650794"><ele></ele><time>2023-8-15T10:25:29Z</time></trkpt>
<trkpt lat="48.447824" lon="2.650934"><ele></ele><time>2023-8-15T10:25:32Z</time></trkpt>
<trkpt lat="48.44785" lon="2.651094"><ele></ele><time>2023-8-15T10:25:35Z</time></trkpt>
<trkpt lat="48.447918" lon="2.65126"><ele></ele><time>2023-8-15T10:25:38Z</time></trkpt>
<trkpt lat="48.447986" lon="2.651434"><ele></ele><time>2023-8-15T10:25:41Z</time></trkpt>
<trkpt lat="48.448037" lon="2.651578"><ele></ele><time>2023-8-15T10:25:44Z</time></trkpt>
<trkpt lat="48.448068" lon="2.651745"><ele></ele><time>2023-8-15T10:25:47Z</time></trkpt>
<trkpt lat="48.448122" lon="2.651877"><ele></ele><time>2023-8-15T10:25:50Z</time></trkpt>
<trkpt lat="48.448175" lon="2.652022"><ele></ele><time>2023-8-15T10:25:53Z</time></trkpt>
<trkpt lat="48.448229" lon="2.652188"><ele></ele><time>2023-8-15T10:25:56Z</time></trkpt>
<trkpt lat="48.448305" lon="2.652428"><ele></ele><time>2023-8-15T10:25:59Z</time></trkpt>
<trkpt lat="48.448357" lon="2.652586"><ele></ele><time>2023-8-15T10:26:2Z</time></trkpt>
<trkpt lat="48.448423" lon="2.652694"><ele></ele><time>2023-8-15T10:26:5Z</time></trkpt>
<trkpt lat="48.448533" lon="2.652796"><ele></ele><time>2023-8-15T10:26:8Z</time></trkpt>
<trkpt lat="48.448614" lon="2.652887"><ele></ele><time>2023-8-15T10:26:11Z</time></trkpt>
<trkpt lat="48.448692" lon="2.652995"><ele></ele><time>2023-8-15T10:26:14Z</time></trkpt>
<trkpt lat="48.448786" lon="2.65312"><ele></ele><time>2023-8-15T10:26:17Z</time></trkpt>
<trkpt lat="48.448876" lon="2.65323"><ele></ele><time>2023-8-15T10:26:20Z</time></trkpt>
<trkpt lat="48.448917" lon="2.653354"><ele></ele><time>2023-8-15T10:26:23Z</time></trkpt>
<trkpt lat="48.448978" lon="2.653466"><ele></ele><time>2023-8-15T10:26:26Z</time></trkpt>
<trkpt lat="48.449023" lon="2.653589"><ele></ele><time>2023-8-15T10:26:29Z</time></trkpt>
<trkpt lat="48.449037" lon="2.653747"><ele></ele><time>2023-8-15T10:26:32Z</time></trkpt>
<trkpt lat="48.449069" lon="2.65389"><ele></ele><time>2023-8-15T10:26:35Z</time></trkpt>
<trkpt lat="48.449054" lon="2.654057"><ele></ele><time>2023-8-15T10:26:38Z</time></trkpt>
<trkpt lat="48.449022" lon="2.654214"><ele></ele><time>2023-8-15T10:26:41Z</time></trkpt>
<trkpt lat="48.448999" lon="2.654357"><ele></ele><time>2023-8-15T10:26:44Z</time></trkpt>
<trkpt lat="48.448961" lon="2.654494"><ele></ele><time>2023-8-15T10:26:47Z</time></trkpt>
<trkpt lat="48.448909" lon="2.654638"><ele></ele><time>2023-8-15T10:26:50Z</time></trkpt>
<trkpt lat="48.448886" lon="2.654791"><ele></ele><time>2023-8-15T10:26:53Z</time></trkpt>
<trkpt lat="48.448875" lon="2.654933"><ele></ele><time>2023-8-15T10:26:56Z</time></trkpt>
<trkpt lat="48.448832" lon="2.655092"><ele></ele><time>2023-8-15T10:26:59Z</time></trkpt>
<trkpt lat="48.448782" lon="2.65522"><ele></ele><time>2023-8-15T10:27:2Z</time></trkpt>
<trkpt lat="48.448756" lon="2.655384"><ele></ele><time>2023-8-15T10:27:5Z</time></trkpt>
<trkpt lat="48.448727" lon="2.655514"><ele></ele><time>2023-8-15T10:27:8Z</time></trkpt>
<trkpt lat="48.44867" lon="2.655634"><ele></ele><time>2023-8-15T10:27:11Z</time></trkpt>
<trkpt lat="48.448627" lon="2.655775"><ele></ele><time>2023-8-15T10:27:14Z</time></trkpt>
<trkpt lat="48.44857" lon="2.655938"><ele></ele><time>2023-8-15T10:27:17Z</time></trkpt>
<trkpt lat="48.44853" lon="2.656061"><ele></ele><time>2023-8-15T10:27:20Z</time></trkpt>
<trkpt lat="48.448489" lon="2.656196"><ele></ele><time>2023-8-15T10:27:23Z</time></trkpt>
<trkpt lat="48.448443" lon="2.656398"><ele></ele><time>2023-8-15T10:27:26Z</time></trkpt>
<trkpt lat="48.448413" lon="2.656554"><ele></ele><time>2023-8-15T10:27:29Z</time></trkpt>
<trkpt lat="48.448362" lon="2.656699"><ele></ele><time>2023-8-15T10:27:32Z</time></trkpt>
<trkpt lat="48.448315" lon="2.656816"><ele></ele><time>2023-8-15T10:27:35Z</time></trkpt>
<trkpt lat="48.44827" lon="2.656982"><ele></ele><time>2023-8-15T10:27:38Z</time></trkpt>
<trkpt lat="48.448221" lon="2.657172"><ele></ele><time>2023-8-15T10:27:41Z</time></trkpt>
<trkpt lat="48.448167" lon="2.657364"><ele></ele><time>2023-8-15T10:27:44Z</time></trkpt>
<trkpt lat="48.448132" lon="2.657492"><ele></ele><time>2023-8-15T10:27:47Z</time></trkpt>
<trkpt lat="48.448108" lon="2.657639"><ele></ele><time>2023-8-15T10:27:50Z</time></trkpt>
<trkpt lat="48.44806" lon="2.657803"><ele></ele><time>2023-8-15T10:27:53Z</time></trkpt>
<trkpt lat="48.448001" lon="2.657977"><ele></ele><time>2023-8-15T10:27:56Z</time></trkpt>
<trkpt lat="48.447971" lon="2.658142"><ele></ele><time>2023-8-15T10:27:59Z</time></trkpt>
<trkpt lat="48.447933" lon="2.658316"><ele></ele><time>2023-8-15T10:28:2Z</time></trkpt>
<trkpt lat="48.447884" lon="2.658473"><ele></ele><time>2023-8-15T10:28:5Z</time></trkpt>
<trkpt lat="48.447832" lon="2.658654"><ele></ele><time>2023-8-15T10:28:8Z</time></trkpt>
<trkpt lat="48.447798" lon="2.65882"><ele></ele><time>2023-8-15T10:28:11Z</time></trkpt>
<trkpt lat="48.447748" lon="2.659023"><ele></ele><time>2023-8-15T10:28:14Z</time></trkpt>
<trkpt lat="48.44769" lon="2.659167"><ele></ele><time>2023-8-15T10:28:17Z</time></trkpt>
<trkpt lat="48.447642" lon="2.659311"><ele></ele><time>2023-8-15T10:28:20Z</time></trkpt>
<trkpt lat="48.447578" lon="2.659518"><ele></ele><time>2023-8-15T10:28:23Z</time></trkpt>
<trkpt lat="48.447528" lon="2.659663"><ele></ele><time>2023-8-15T10:28:26Z</time></trkpt>
<trkpt lat="48.447495" lon="2.659802"><ele></ele><time>2023-8-15T10:28:29Z</time></trkpt>
<trkpt lat="48.447431" lon="2.659988"><ele></ele><time>2023-8-15T10:28:32Z</time></trkpt>
<trkpt lat="48.447389" lon="2.660171"><ele></ele><time>2023-8-15T10:28:35Z</time></trkpt>
<trkpt lat="48.447345" lon="2.660319"><ele></ele><time>2023-8-15T10:28:38Z</time></trkpt>
<trkpt lat="48.447279" lon="2.660467"><ele></ele><time>2023-8-15T10:28:41Z</time></trkpt>
<trkpt lat="48.447188" lon="2.66052"><ele></ele><time>2023-8-15T10:28:44Z</time></trkpt>
<trkpt lat="48.447085" lon="2.660573"><ele></ele><time>2023-8-15T10:28:47Z</time></trkpt>
<trkpt lat="48.446964" lon="2.660636"><ele></ele><time>2023-8-15T10:28:50Z</time></trkpt>
<trkpt lat="48.446878" lon="2.660698"><ele></ele><time>2023-8-15T10:28:53Z</time></trkpt>
<trkpt lat="48.446797" lon="2.660764"><ele></ele><time>2023-8-15T10:28:56Z</time></trkpt>
<trkpt lat="48.446701" lon="2.660832"><ele></ele><time>2023-8-15T10:28:59Z</time></trkpt>
<trkpt lat="48.446598" lon="2.660915"><ele></ele><time>2023-8-15T10:29:2Z</time></trkpt>
<trkpt lat="48.446493" lon="2.660957"><ele></ele><time>2023-8-15T10:29:5Z</time></trkpt>
<trkpt lat="48.446386" lon="2.660993"><ele></ele><time>2023-8-15T10:29:8Z</time></trkpt>
<trkpt lat="48.446238" lon="2.661072"><ele></ele><time>2023-8-15T10:29:11Z</time></trkpt>
<trkpt lat="48.446149" lon="2.661109"><ele></ele><time>2023-8-15T10:29:14Z</time></trkpt>
<trkpt lat="48.446044" lon="2.661165"><ele></ele><time>2023-8-15T10:29:17Z</time></trkpt>
<trkpt lat="48.445928" lon="2.661264"><ele></ele><time>2023-8-15T10:29:20Z</time></trkpt>
<trkpt lat="48.445821" lon="2.661327"><ele></ele><time>2023-8-15T10:29:23Z</time></trkpt>
<trkpt lat="48.445722" lon="2.661381"><ele></ele><time>2023-8-15T10:29:26Z</time></trkpt>
<trkpt lat="48.445636" lon="2.661434"><ele></ele><time>2023-8-15T10:29:29Z</time></trkpt>
<trkpt lat="48.445539" lon="2.661504"><ele></ele><time>2023-8-15T10:29:32Z</time></trkpt>
<trkpt lat="48.445436" lon="2.661577"><ele></ele><time>2023-8-15T10:29:35Z</time></trkpt>
<trkpt lat="48.445334" lon="2.661655"><ele></ele><time>2023-8-15T10:29:38Z</time></trkpt>
<trkpt lat="48.44524" lon="2.661725"><ele></ele><time>2023-8-15T10:29:41Z</time></trkpt>
<trkpt lat="48.445136" lon="2.661775"><ele></ele><time>2023-8-15T10:29:44Z</time></trkpt>
<trkpt lat="48.445049" lon="2.661809"><ele></ele><time>2023-8-15T10:29:47Z</time></trkpt>
<trkpt lat="48.444938" lon="2.661853"><ele></ele><time>2023-8-15T10:29:50Z</time></trkpt>
<trkpt lat="48.44482" lon="2.661924"><ele></ele><time>2023-8-15T10:29:53Z</time></trkpt>
<trkpt lat="48.444741" lon="2.662005"><ele></ele><time>2023-8-15T10:29:56Z</time></trkpt>
<trkpt lat="48.444645" lon="2.662114"><ele></ele><time>2023-8-15T10:29:59Z</time></trkpt>
<trkpt lat="48.444585" lon="2.662276"><ele></ele><time>2023-8-15T10:30:2Z</time></trkpt>
<trkpt lat="48.444516" lon="2.662401"><ele></ele><time>2023-8-15T10:30:5Z</time></trkpt>
<trkpt lat="48.44445" lon="2.66253"><ele></ele><time>2023-8-15T10:30:8Z</time></trkpt>
<trkpt lat="48.444354" lon="2.662694"><ele></ele><time>2023-8-15T10:30:11Z</time></trkpt>
<trkpt lat="48.444291" lon="2.662808"><ele></ele><time>2023-8-15T10:30:14Z</time></trkpt>
<trkpt lat="48.44422" lon="2.662933"><ele></ele><time>2023-8-15T10:30:17Z</time></trkpt>
<trkpt lat="48.444158" lon="2.663077"><ele></ele><time>2023-8-15T10:30:20Z</time></trkpt>
<trkpt lat="48.444115" lon="2.663197"><ele></ele><time>2023-8-15T10:30:23Z</time></trkpt>
<trkpt lat="48.444081" lon="2.663335"><ele></ele><time>2023-8-15T10:30:26Z</time></trkpt>
<trkpt lat="48.444042" lon="2.663461"><ele></ele><time>2023-8-15T10:30:29Z</time></trkpt>
<trkpt lat="48.44403" lon="2.663602"><ele></ele><time>2023-8-15T10:30:32Z</time></trkpt>
<trkpt lat="48.444017" lon="2.66361"><ele></ele><time>2023-8-15T10:30:35Z</time></trkpt>
<trkpt lat="48.444012" lon="2.663609"><ele></ele><time>2023-8-15T10:30:38Z</time></trkpt>
<trkpt lat="48.443963" lon="2.663595"><ele></ele><time>2023-8-15T10:30:41Z</time></trkpt>
<trkpt lat="48.443962" lon="2.663595"><ele></ele><time>2023-8-15T10:30:44Z</time></trkpt>
<trkpt lat="48.443959" lon="2.663601"><ele></ele><time>2023-8-15T10:30:47Z</time></trkpt>
<trkpt lat="48.44396" lon="2.663602"><ele></ele><time>2023-8-15T10:30:50Z</time></trkpt>
<trkpt lat="48.444022" lon="2.663615"><ele></ele><time>2023-8-15T10:30:53Z</time></trkpt>
<trkpt lat="48.444023" lon="2.663613"><ele></ele><time>2023-8-15T10:30:56Z</time></trkpt>
<trkpt lat="48.444021" lon="2.663593"><ele></ele><time>2023-8-15T10:30:59Z</time></trkpt>
<trkpt lat="48.444022" lon="2.66359"><ele></ele><time>2023-8-15T10:31:2Z</time></trkpt>
<trkpt lat="48.444027" lon="2.663577"><ele></ele><time>2023-8-15T10:31:5Z</time></trkpt>
<trkpt lat="48.444026" lon="2.663581"><ele></ele><time>2023-8-15T10:31:8Z</time></trkpt>
<trkpt lat="48.443995" lon="2.663727"><ele></ele><time>2023-8-15T10:31:11Z</time></trkpt>
<trkpt lat="48.443996" lon="2.663885"><ele></ele><time>2023-8-15T10:31:14Z</time></trkpt>
<trkpt lat="48.444073" lon="2.663979"><ele></ele><time>2023-8-15T10:31:17Z</time></trkpt>
<trkpt lat="48.444167" lon="2.664011"><ele></ele><time>2023-8-15T10:31:20Z</time></trkpt>
<trkpt lat="48.444263" lon="2.663996"><ele></ele><time>2023-8-15T10:31:23Z</time></trkpt>
<trkpt lat="48.444321" lon="2.663878"><ele></ele><time>2023-8-15T10:31:26Z</time></trkpt>
<trkpt lat="48.444387" lon="2.663749"><ele></ele><time>2023-8-15T10:31:29Z</time></trkpt>
<trkpt lat="48.444423" lon="2.663617"><ele></ele><time>2023-8-15T10:31:32Z</time></trkpt>
<trkpt lat="48.444452" lon="2.663483"><ele></ele><time>2023-8-15T10:31:35Z</time></trkpt>
<trkpt lat="48.444512" lon="2.663355"><ele></ele><time>2023-8-15T10:31:38Z</time></trkpt>
<trkpt lat="48.444574" lon="2.663208"><ele></ele><time>2023-8-15T10:31:41Z</time></trkpt>
<trkpt lat="48.444653" lon="2.663063"><ele></ele><time>2023-8-15T10:31:44Z</time></trkpt>
<trkpt lat="48.444724" lon="2.662911"><ele></ele><time>2023-8-15T10:31:47Z</time></trkpt>
<trkpt lat="48.444788" lon="2.662766"><ele></ele><time>2023-8-15T10:31:50Z</time></trkpt>
<trkpt lat="48.444847" lon="2.662598"><ele></ele><time>2023-8-15T10:31:53Z</time></trkpt>
<trkpt lat="48.444913" lon="2.662436"><ele></ele><time>2023-8-15T10:31:56Z</time></trkpt>
<trkpt lat="48.444972" lon="2.662266"><ele></ele><time>2023-8-15T10:31:59Z</time></trkpt>
<trkpt lat="48.445041" lon="2.662129"><ele></ele><time>2023-8-15T10:32:2Z</time></trkpt>
<trkpt lat="48.445116" lon="2.661956"><ele></ele><time>2023-8-15T10:32:5Z</time></trkpt>
<trkpt lat="48.445163" lon="2.661826"><ele></ele><time>2023-8-15T10:32:8Z</time></trkpt>
<trkpt lat="48.445209" lon="2.661709"><ele></ele><time>2023-8-15T10:32:11Z</time></trkpt>
<trkpt lat="48.445291" lon="2.661528"><ele></ele><time>2023-8-15T10:32:14Z</time></trkpt>
<trkpt lat="48.445336" lon="2.661402"><ele></ele><time>2023-8-15T10:32:17Z</time></trkpt>
<trkpt lat="48.445404" lon="2.661214"><ele></ele><time>2023-8-15T10:32:20Z</time></trkpt>
<trkpt lat="48.445465" lon="2.661039"><ele></ele><time>2023-8-15T10:32:23Z</time></trkpt>
<trkpt lat="48.44551" lon="2.660919"><ele></ele><time>2023-8-15T10:32:26Z</time></trkpt>
<trkpt lat="48.445587" lon="2.660763"><ele></ele><time>2023-8-15T10:32:29Z</time></trkpt>
<trkpt lat="48.445655" lon="2.660603"><ele></ele><time>2023-8-15T10:32:32Z</time></trkpt>
<trkpt lat="48.445709" lon="2.660485"><ele></ele><time>2023-8-15T10:32:35Z</time></trkpt>
<trkpt lat="48.445756" lon="2.660358"><ele></ele><time>2023-8-15T10:32:38Z</time></trkpt>
<trkpt lat="48.445804" lon="2.660231"><ele></ele><time>2023-8-15T10:32:41Z</time></trkpt>
<trkpt lat="48.445871" lon="2.660097"><ele></ele><time>2023-8-15T10:32:44Z</time></trkpt>
<trkpt lat="48.445927" lon="2.659961"><ele></ele><time>2023-8-15T10:32:47Z</time></trkpt>
<trkpt lat="48.445965" lon="2.659829"><ele></ele><time>2023-8-15T10:32:50Z</time></trkpt>
<trkpt lat="48.446024" lon="2.659711"><ele></ele><time>2023-8-15T10:32:53Z</time></trkpt>
<trkpt lat="48.44612" lon="2.659547"><ele></ele><time>2023-8-15T10:32:56Z</time></trkpt>
<trkpt lat="48.446186" lon="2.659436"><ele></ele><time>2023-8-15T10:32:59Z</time></trkpt>
<trkpt lat="48.446256" lon="2.659316"><ele></ele><time>2023-8-15T10:33:2Z</time></trkpt>
<trkpt lat="48.446294" lon="2.659171"><ele></ele><time>2023-8-15T10:33:5Z</time></trkpt>
<trkpt lat="48.446356" lon="2.659054"><ele></ele><time>2023-8-15T10:33:8Z</time></trkpt>
<trkpt lat="48.44641" lon="2.658928"><ele></ele><time>2023-8-15T10:33:11Z</time></trkpt>
<trkpt lat="48.44648" lon="2.658769"><ele></ele><time>2023-8-15T10:33:14Z</time></trkpt>
<trkpt lat="48.446538" lon="2.658592"><ele></ele><time>2023-8-15T10:33:17Z</time></trkpt>
<trkpt lat="48.446591" lon="2.658464"><ele></ele><time>2023-8-15T10:33:20Z</time></trkpt>
<trkpt lat="48.446641" lon="2.658342"><ele></ele><time>2023-8-15T10:33:23Z</time></trkpt>
<trkpt lat="48.44669" lon="2.658121"><ele></ele><time>2023-8-15T10:33:26Z</time></trkpt>
<trkpt lat="48.44672" lon="2.657943"><ele></ele><time>2023-8-15T10:33:29Z</time></trkpt>
<trkpt lat="48.446755" lon="2.657741"><ele></ele><time>2023-8-15T10:33:32Z</time></trkpt>
<trkpt lat="48.446789" lon="2.657563"><ele></ele><time>2023-8-15T10:33:35Z</time></trkpt>
<trkpt lat="48.446818" lon="2.657373"><ele></ele><time>2023-8-15T10:33:38Z</time></trkpt>
<trkpt lat="48.446819" lon="2.657189"><ele></ele><time>2023-8-15T10:33:41Z</time></trkpt>
<trkpt lat="48.446847" lon="2.657034"><ele></ele><time>2023-8-15T10:33:44Z</time></trkpt>
<trkpt lat="48.446899" lon="2.656887"><ele></ele><time>2023-8-15T10:33:47Z</time></trkpt>
<trkpt lat="48.446928" lon="2.656727"><ele></ele><time>2023-8-15T10:33:50Z</time></trkpt>
<trkpt lat="48.446949" lon="2.656575"><ele></ele><time>2023-8-15T10:33:53Z</time></trkpt>
<trkpt lat="48.446985" lon="2.656449"><ele></ele><time>2023-8-15T10:33:56Z</time></trkpt>
<trkpt lat="48.447015" lon="2.65632"><ele></ele><time>2023-8-15T10:33:59Z</time></trkpt>
<trkpt lat="48.447054" lon="2.656141"><ele></ele><time>2023-8-15T10:34:2Z</time></trkpt>
<trkpt lat="48.447085" lon="2.655957"><ele></ele><time>2023-8-15T10:34:5Z</time></trkpt>
<trkpt lat="48.447111" lon="2.655785"><ele></ele><time>2023-8-15T10:34:8Z</time></trkpt>
<trkpt lat="48.447138" lon="2.65565"><ele></ele><time>2023-8-15T10:34:11Z</time></trkpt>
<trkpt lat="48.447157" lon="2.655503"><ele></ele><time>2023-8-15T10:34:14Z</time></trkpt>
<trkpt lat="48.447182" lon="2.655326"><ele></ele><time>2023-8-15T10:34:17Z</time></trkpt>
<trkpt lat="48.447237" lon="2.655165"><ele></ele><time>2023-8-15T10:34:20Z</time></trkpt>
<trkpt lat="48.447265" lon="2.65502"><ele></ele><time>2023-8-15T10:34:23Z</time></trkpt>
<trkpt lat="48.447293" lon="2.654839"><ele></ele><time>2023-8-15T10:34:26Z</time></trkpt>
<trkpt lat="48.447311" lon="2.65468"><ele></ele><time>2023-8-15T10:34:29Z</time></trkpt>
<trkpt lat="48.447346" lon="2.654525"><ele></ele><time>2023-8-15T10:34:32Z</time></trkpt>
<trkpt lat="48.447349" lon="2.654377"><ele></ele><time>2023-8-15T10:34:35Z</time></trkpt>
<trkpt lat="48.447273" lon="2.654283"><ele></ele><time>2023-8-15T10:34:38Z</time></trkpt>
<trkpt lat="48.447184" lon="2.654229"><ele></ele><time>2023-8-15T10:34:41Z</time></trkpt>
<trkpt lat="48.44707" lon="2.65412"><ele></ele><time>2023-8-15T10:34:44Z</time></trkpt>
<trkpt lat="48.446971" lon="2.654019"><ele></ele><time>2023-8-15T10:34:47Z</time></trkpt>
<trkpt lat="48.446897" lon="2.653914"><ele></ele><time>2023-8-15T10:34:50Z</time></trkpt>
<trkpt lat="48.446786" lon="2.653798"><ele></ele><time>2023-8-15T10:34:53Z</time></trkpt>
<trkpt lat="48.446682" lon="2.653693"><ele></ele><time>2023-8-15T10:34:56Z</time></trkpt>
<trkpt lat="48.446581" lon="2.653575"><ele></ele><time>2023-8-15T10:34:59Z</time></trkpt>
<trkpt lat="48.446498" lon="2.653479"><ele></ele><time>2023-8-15T10:35:2Z</time></trkpt>
<trkpt lat="48.446408" lon="2.653419"><ele></ele><time>2023-8-15T10:35:5Z</time></trkpt>
<trkpt lat="48.446298" lon="2.653388"><ele></ele><time>2023-8-15T10:35:8Z</time></trkpt>
<trkpt lat="48.446223" lon="2.653312"><ele></ele><time>2023-8-15T10:35:11Z</time></trkpt>
<trkpt lat="48.446125" lon="2.653227"><ele></ele><time>2023-8-15T10:35:14Z</time></trkpt>
<trkpt lat="48.446047" lon="2.653129"><ele></ele><time>2023-8-15T10:35:17Z</time></trkpt>
<trkpt lat="48.445936" lon="2.653087"><ele></ele><time>2023-8-15T10:35:20Z</time></trkpt>
<trkpt lat="48.445843" lon="2.653032"><ele></ele><time>2023-8-15T10:35:23Z</time></trkpt>
<trkpt lat="48.445807" lon="2.652983"><ele></ele><time>2023-8-15T10:35:26Z</time></trkpt>
<trkpt lat="48.445804" lon="2.652985"><ele></ele><time>2023-8-15T10:35:29Z</time></trkpt>
<trkpt lat="48.445712" lon="2.653018"><ele></ele><time>2023-8-15T10:35:32Z</time></trkpt>
<trkpt lat="48.445633" lon="2.653087"><ele></ele><time>2023-8-15T10:35:35Z</time></trkpt>
<trkpt lat="48.445545" lon="2.653059"><ele></ele><time>2023-8-15T10:35:38Z</time></trkpt>
<trkpt lat="48.445431" lon="2.652996"><ele></ele><time>2023-8-15T10:35:41Z</time></trkpt>
<trkpt lat="48.445317" lon="2.653008"><ele></ele><time>2023-8-15T10:35:44Z</time></trkpt>
<trkpt lat="48.445204" lon="2.653004"><ele></ele><time>2023-8-15T10:35:47Z</time></trkpt>
<trkpt lat="48.445112" lon="2.653019"><ele></ele><time>2023-8-15T10:35:50Z</time></trkpt>
<trkpt lat="48.445005" lon="2.653061"><ele></ele><time>2023-8-15T10:35:53Z</time></trkpt>
<trkpt lat="48.444905" lon="2.653032"><ele></ele><time>2023-8-15T10:35:56Z</time></trkpt>
<trkpt lat="48.444822" lon="2.652936"><ele></ele><time>2023-8-15T10:35:59Z</time></trkpt>
<trkpt lat="48.444745" lon="2.652851"><ele></ele><time>2023-8-15T10:36:2Z</time></trkpt>
<trkpt lat="48.44467" lon="2.652739"><ele></ele><time>2023-8-15T10:36:5Z</time></trkpt>
<trkpt lat="48.444595" lon="2.652621"><ele></ele><time>2023-8-15T10:36:8Z</time></trkpt>
<trkpt lat="48.444509" lon="2.652492"><ele></ele><time>2023-8-15T10:36:11Z</time></trkpt>
<trkpt lat="48.444433" lon="2.652411"><ele></ele><time>2023-8-15T10:36:14Z</time></trkpt>
<trkpt lat="48.444367" lon="2.652312"><ele></ele><time>2023-8-15T10:36:17Z</time></trkpt>
<trkpt lat="48.444266" lon="2.652323"><ele></ele><time>2023-8-15T10:36:20Z</time></trkpt>
<trkpt lat="48.444174" lon="2.652312"><ele></ele><time>2023-8-15T10:36:23Z</time></trkpt>
<trkpt lat="48.444169" lon="2.652157"><ele></ele><time>2023-8-15T10:36:26Z</time></trkpt>
<trkpt lat="48.444108" lon="2.652015"><ele></ele><time>2023-8-15T10:36:29Z</time></trkpt>
<trkpt lat="48.444024" lon="2.65193"><ele></ele><time>2023-8-15T10:36:32Z</time></trkpt>
<trkpt lat="48.443934" lon="2.651884"><ele></ele><time>2023-8-15T10:36:35Z</time></trkpt>
<trkpt lat="48.443835" lon="2.651839"><ele></ele><time>2023-8-15T10:36:38Z</time></trkpt>
<trkpt lat="48.44376" lon="2.651929"><ele></ele><time>2023-8-15T10:36:41Z</time></trkpt>
<trkpt lat="48.443717" lon="2.652076"><ele></ele><time>2023-8-15T10:36:44Z</time></trkpt>
<trkpt lat="48.44371" lon="2.65223"><ele></ele><time>2023-8-15T10:36:47Z</time></trkpt>
<trkpt lat="48.443669" lon="2.65236"><ele></ele><time>2023-8-15T10:36:50Z</time></trkpt>
<trkpt lat="48.443635" lon="2.652513"><ele></ele><time>2023-8-15T10:36:53Z</time></trkpt>
<trkpt lat="48.443596" lon="2.652653"><ele></ele><time>2023-8-15T10:36:56Z</time></trkpt>
<trkpt lat="48.443538" lon="2.652858"><ele></ele><time>2023-8-15T10:36:59Z</time></trkpt>
<trkpt lat="48.443511" lon="2.653019"><ele></ele><time>2023-8-15T10:37:2Z</time></trkpt>
<trkpt lat="48.443476" lon="2.653166"><ele></ele><time>2023-8-15T10:37:5Z</time></trkpt>
<trkpt lat="48.44346" lon="2.653318"><ele></ele><time>2023-8-15T10:37:8Z</time></trkpt>
<trkpt lat="48.44343" lon="2.653482"><ele></ele><time>2023-8-15T10:37:11Z</time></trkpt>
<trkpt lat="48.443377" lon="2.653658"><ele></ele><time>2023-8-15T10:37:14Z</time></trkpt>
<trkpt lat="48.443407" lon="2.653789"><ele></ele><time>2023-8-15T10:37:17Z</time></trkpt>
<trkpt lat="48.443399" lon="2.653937"><ele></ele><time>2023-8-15T10:37:20Z</time></trkpt>
<trkpt lat="48.443368" lon="2.654099"><ele></ele><time>2023-8-15T10:37:23Z</time></trkpt>
<trkpt lat="48.443358" lon="2.654245"><ele></ele><time>2023-8-15T10:37:26Z</time></trkpt>
<trkpt lat="48.443362" lon="2.654399"><ele></ele><time>2023-8-15T10:37:29Z</time></trkpt>
<trkpt lat="48.443365" lon="2.654552"><ele></ele><time>2023-8-15T10:37:32Z</time></trkpt>
<trkpt lat="48.443346" lon="2.654691"><ele></ele><time>2023-8-15T10:37:35Z</time></trkpt>
<trkpt lat="48.443309" lon="2.654837"><ele></ele><time>2023-8-15T10:37:38Z</time></trkpt>
<trkpt lat="48.443268" lon="2.654999"><ele></ele><time>2023-8-15T10:37:41Z</time></trkpt>
<trkpt lat="48.44327" lon="2.655149"><ele></ele><time>2023-8-15T10:37:44Z</time></trkpt>
<trkpt lat="48.443243" lon="2.655291"><ele></ele><time>2023-8-15T10:37:47Z</time></trkpt>
<trkpt lat="48.443193" lon="2.655449"><ele></ele><time>2023-8-15T10:37:50Z</time></trkpt>
<trkpt lat="48.443155" lon="2.655621"><ele></ele><time>2023-8-15T10:37:53Z</time></trkpt>
<trkpt lat="48.443122" lon="2.655748"><ele></ele><time>2023-8-15T10:37:56Z</time></trkpt>
<trkpt lat="48.443068" lon="2.655879"><ele></ele><time>2023-8-15T10:37:59Z</time></trkpt>
<trkpt lat="48.443011" lon="2.655995"><ele></ele><time>2023-8-15T10:38:2Z</time></trkpt>
<trkpt lat="48.442968" lon="2.656131"><ele></ele><time>2023-8-15T10:38:5Z</time></trkpt>
<trkpt lat="48.442943" lon="2.656305"><ele></ele><time>2023-8-15T10:38:8Z</time></trkpt>
<trkpt lat="48.442926" lon="2.656453"><ele></ele><time>2023-8-15T10:38:11Z</time></trkpt>
<trkpt lat="48.442894" lon="2.656599"><ele></ele><time>2023-8-15T10:38:14Z</time></trkpt>
<trkpt lat="48.442851" lon="2.656741"><ele></ele><time>2023-8-15T10:38:17Z</time></trkpt>
<trkpt lat="48.442817" lon="2.656881"><ele></ele><time>2023-8-15T10:38:20Z</time></trkpt>
<trkpt lat="48.442773" lon="2.657072"><ele></ele><time>2023-8-15T10:38:23Z</time></trkpt>
<trkpt lat="48.442722" lon="2.657206"><ele></ele><time>2023-8-15T10:38:26Z</time></trkpt>
<trkpt lat="48.442662" lon="2.657403"><ele></ele><time>2023-8-15T10:38:29Z</time></trkpt>
<trkpt lat="48.442616" lon="2.657574"><ele></ele><time>2023-8-15T10:38:32Z</time></trkpt>
<trkpt lat="48.442588" lon="2.657715"><ele></ele><time>2023-8-15T10:38:35Z</time></trkpt>
<trkpt lat="48.442544" lon="2.65785"><ele></ele><time>2023-8-15T10:38:38Z</time></trkpt>
<trkpt lat="48.44251" lon="2.657976"><ele></ele><time>2023-8-15T10:38:41Z</time></trkpt>
<trkpt lat="48.442474" lon="2.658101"><ele></ele><time>2023-8-15T10:38:44Z</time></trkpt>
<trkpt lat="48.442438" lon="2.658255"><ele></ele><time>2023-8-15T10:38:47Z</time></trkpt>
<trkpt lat="48.442431" lon="2.658401"><ele></ele><time>2023-8-15T10:38:50Z</time></trkpt>
<trkpt lat="48.442403" lon="2.65855"><ele></ele><time>2023-8-15T10:38:53Z</time></trkpt>
<trkpt lat="48.442364" lon="2.658698"><ele></ele><time>2023-8-15T10:38:56Z</time></trkpt>
<trkpt lat="48.442325" lon="2.658837"><ele></ele><time>2023-8-15T10:38:59Z</time></trkpt>
<trkpt lat="48.442279" lon="2.658966"><ele></ele><time>2023-8-15T10:39:2Z</time></trkpt>
<trkpt lat="48.442234" lon="2.659118"><ele></ele><time>2023-8-15T10:39:5Z</time></trkpt>
<trkpt lat="48.442193" lon="2.65928"><ele></ele><time>2023-8-15T10:39:8Z</time></trkpt>
<trkpt lat="48.44215" lon="2.659414"><ele></ele><time>2023-8-15T10:39:11Z</time></trkpt>
<trkpt lat="48.442127" lon="2.659585"><ele></ele><time>2023-8-15T10:39:14Z</time></trkpt>
<trkpt lat="48.442133" lon="2.659721"><ele></ele><time>2023-8-15T10:39:17Z</time></trkpt>
<trkpt lat="48.442116" lon="2.659882"><ele></ele><time>2023-8-15T10:39:20Z</time></trkpt>
<trkpt lat="48.442077" lon="2.660037"><ele></ele><time>2023-8-15T10:39:23Z</time></trkpt>
<trkpt lat="48.442054" lon="2.660199"><ele></ele><time>2023-8-15T10:39:26Z</time></trkpt>
<trkpt lat="48.442063" lon="2.660348"><ele></ele><time>2023-8-15T10:39:29Z</time></trkpt>
<trkpt lat="48.442065" lon="2.660525"><ele></ele><time>2023-8-15T10:39:32Z</time></trkpt>
<trkpt lat="48.44204" lon="2.660674"><ele></ele><time>2023-8-15T10:39:35Z</time></trkpt>
<trkpt lat="48.442005" lon="2.660803"><ele></ele><time>2023-8-15T10:39:38Z</time></trkpt>
<trkpt lat="48.44196" lon="2.660925"><ele></ele><time>2023-8-15T10:39:41Z</time></trkpt>
<trkpt lat="48.441949" lon="2.661084"><ele></ele><time>2023-8-15T10:39:44Z</time></trkpt>
<trkpt lat="48.441951" lon="2.661241"><ele></ele><time>2023-8-15T10:39:47Z</time></trkpt>
<trkpt lat="48.44196" lon="2.661398"><ele></ele><time>2023-8-15T10:39:50Z</time></trkpt>
<trkpt lat="48.441945" lon="2.66155"><ele></ele><time>2023-8-15T10:39:53Z</time></trkpt>
<trkpt lat="48.441927" lon="2.661738"><ele></ele><time>2023-8-15T10:39:56Z</time></trkpt>
<trkpt lat="48.441914" lon="2.661874"><ele></ele><time>2023-8-15T10:39:59Z</time></trkpt>
<trkpt lat="48.441881" lon="2.662026"><ele></ele><time>2023-8-15T10:40:2Z</time></trkpt>
<trkpt lat="48.441894" lon="2.662184"><ele></ele><time>2023-8-15T10:40:5Z</time></trkpt>
<trkpt lat="48.441894" lon="2.66232"><ele></ele><time>2023-8-15T10:40:8Z</time></trkpt>
<trkpt lat="48.441844" lon="2.662456"><ele></ele><time>2023-8-15T10:40:11Z</time></trkpt>
<trkpt lat="48.44183" lon="2.662597"><ele></ele><time>2023-8-15T10:40:14Z</time></trkpt>
<trkpt lat="48.441862" lon="2.662744"><ele></ele><time>2023-8-15T10:40:17Z</time></trkpt>
<trkpt lat="48.441839" lon="2.662948"><ele></ele><time>2023-8-15T10:40:20Z</time></trkpt>
<trkpt lat="48.441812" lon="2.663104"><ele></ele><time>2023-8-15T10:40:23Z</time></trkpt>
<trkpt lat="48.441797" lon="2.663266"><ele></ele><time>2023-8-15T10:40:26Z</time></trkpt>
<trkpt lat="48.441769" lon="2.663413"><ele></ele><time>2023-8-15T10:40:29Z</time></trkpt>
<trkpt lat="48.441744" lon="2.663545"><ele></ele><time>2023-8-15T10:40:32Z</time></trkpt>
<trkpt lat="48.441748" lon="2.663692"><ele></ele><time>2023-8-15T10:40:35Z</time></trkpt>
<trkpt lat="48.441698" lon="2.663813"><ele></ele><time>2023-8-15T10:40:38Z</time></trkpt>
<trkpt lat="48.441678" lon="2.663954"><ele></ele><time>2023-8-15T10:40:41Z</time></trkpt>
<trkpt lat="48.441678" lon="2.664091"><ele></ele><time>2023-8-15T10:40:44Z</time></trkpt>
<trkpt lat="48.441666" lon="2.664251"><ele></ele><time>2023-8-15T10:40:47Z</time></trkpt>
<trkpt lat="48.441663" lon="2.664406"><ele></ele><time>2023-8-15T10:40:50Z</time></trkpt>
<trkpt lat="48.441628" lon="2.664542"><ele></ele><time>2023-8-15T10:40:53Z</time></trkpt>
<trkpt lat="48.441601" lon="2.664679"><ele></ele><time>2023-8-15T10:40:56Z</time></trkpt>
<trkpt lat="48.441622" lon="2.664832"><ele></ele><time>2023-8-15T10:40:59Z</time></trkpt>
<trkpt lat="48.441623" lon="2.664975"><ele></ele><time>2023-8-15T10:41:2Z</time></trkpt>
<trkpt lat="48.441589" lon="2.665139"><ele></ele><time>2023-8-15T10:41:5Z</time></trkpt>
<trkpt lat="48.441578" lon="2.665276"><ele></ele><time>2023-8-15T10:41:8Z</time></trkpt>
<trkpt lat="48.441562" lon="2.665413"><ele></ele><time>2023-8-15T10:41:11Z</time></trkpt>
<trkpt lat="48.441554" lon="2.665575"><ele></ele><time>2023-8-15T10:41:14Z</time></trkpt>
<trkpt lat="48.441591" lon="2.665713"><ele></ele><time>2023-8-15T10:41:17Z</time></trkpt>
<trkpt lat="48.441589" lon="2.665856"><ele></ele><time>2023-8-15T10:41:20Z</time></trkpt>
<trkpt lat="48.441571" lon="2.665993"><ele></ele><time>2023-8-15T10:41:23Z</time></trkpt>
<trkpt lat="48.441572" lon="2.66613"><ele></ele><time>2023-8-15T10:41:26Z</time></trkpt>
<trkpt lat="48.441586" lon="2.666277"><ele></ele><time>2023-8-15T10:41:29Z</time></trkpt>
<trkpt lat="48.44157" lon="2.666423"><ele></ele><time>2023-8-15T10:41:32Z</time></trkpt>
<trkpt lat="48.441558" lon="2.666573"><ele></ele><time>2023-8-15T10:41:35Z</time></trkpt>
<trkpt lat="48.441569" lon="2.666718"><ele></ele><time>2023-8-15T10:41:38Z</time></trkpt>
<trkpt lat="48.441589" lon="2.666866"><ele></ele><time>2023-8-15T10:41:41Z</time></trkpt>
<trkpt lat="48.441589" lon="2.667029"><ele></ele><time>2023-8-15T10:41:44Z</time></trkpt>
<trkpt lat="48.441586" lon="2.667195"><ele></ele><time>2023-8-15T10:41:47Z</time></trkpt>
<trkpt lat="48.441583" lon="2.667371"><ele></ele><time>2023-8-15T10:41:50Z</time></trkpt>
<trkpt lat="48.4416" lon="2.667509"><ele></ele><time>2023-8-15T10:41:53Z</time></trkpt>
<trkpt lat="48.441601" lon="2.667646"><ele></ele><time>2023-8-15T10:41:56Z</time></trkpt>
<trkpt lat="48.441585" lon="2.667826"><ele></ele><time>2023-8-15T10:41:59Z</time></trkpt>
<trkpt lat="48.441614" lon="2.667985"><ele></ele><time>2023-8-15T10:42:2Z</time></trkpt>
<trkpt lat="48.441618" lon="2.668125"><ele></ele><time>2023-8-15T10:42:5Z</time></trkpt>
<trkpt lat="48.441594" lon="2.668262"><ele></ele><time>2023-8-15T10:42:8Z</time></trkpt>
<trkpt lat="48.441579" lon="2.668406"><ele></ele><time>2023-8-15T10:42:11Z</time></trkpt>
<trkpt lat="48.441586" lon="2.668543"><ele></ele><time>2023-8-15T10:42:14Z</time></trkpt>
<trkpt lat="48.441642" lon="2.668666"><ele></ele><time>2023-8-15T10:42:17Z</time></trkpt>
<trkpt lat="48.441736" lon="2.668729"><ele></ele><time>2023-8-15T10:42:20Z</time></trkpt>
<trkpt lat="48.441833" lon="2.668791"><ele></ele><time>2023-8-15T10:42:23Z</time></trkpt>
<trkpt lat="48.44192" lon="2.66885"><ele></ele><time>2023-8-15T10:42:26Z</time></trkpt>
<trkpt lat="48.442014" lon="2.668889"><ele></ele><time>2023-8-15T10:42:29Z</time></trkpt>
<trkpt lat="48.442123" lon="2.668924"><ele></ele><time>2023-8-15T10:42:32Z</time></trkpt>
<trkpt lat="48.442248" lon="2.668952"><ele></ele><time>2023-8-15T10:42:35Z</time></trkpt>
<trkpt lat="48.44235" lon="2.668987"><ele></ele><time>2023-8-15T10:42:38Z</time></trkpt>
<trkpt lat="48.442455" lon="2.669016"><ele></ele><time>2023-8-15T10:42:41Z</time></trkpt>
<trkpt lat="48.442577" lon="2.669026"><ele></ele><time>2023-8-15T10:42:44Z</time></trkpt>
<trkpt lat="48.442669" lon="2.669044"><ele></ele><time>2023-8-15T10:42:47Z</time></trkpt>
<trkpt lat="48.442822" lon="2.669055"><ele></ele><time>2023-8-15T10:42:50Z</time></trkpt>
<trkpt lat="48.44292" lon="2.669062"><ele></ele><time>2023-8-15T10:42:53Z</time></trkpt>
<trkpt lat="48.443052" lon="2.669062"><ele></ele><time>2023-8-15T10:42:56Z</time></trkpt>
<trkpt lat="48.443176" lon="2.669119"><ele></ele><time>2023-8-15T10:42:59Z</time></trkpt>
<trkpt lat="48.443297" lon="2.66917"><ele></ele><time>2023-8-15T10:43:2Z</time></trkpt>
<trkpt lat="48.443424" lon="2.669209"><ele></ele><time>2023-8-15T10:43:5Z</time></trkpt>
<trkpt lat="48.443527" lon="2.66923"><ele></ele><time>2023-8-15T10:43:8Z</time></trkpt>
<trkpt lat="48.44362" lon="2.669247"><ele></ele><time>2023-8-15T10:43:11Z</time></trkpt>
<trkpt lat="48.443709" lon="2.669342"><ele></ele><time>2023-8-15T10:43:14Z</time></trkpt>
<trkpt lat="48.44377" lon="2.669461"><ele></ele><time>2023-8-15T10:43:17Z</time></trkpt>
<trkpt lat="48.443804" lon="2.669591"><ele></ele><time>2023-8-15T10:43:20Z</time></trkpt>
<trkpt lat="48.443778" lon="2.669749"><ele></ele><time>2023-8-15T10:43:23Z</time></trkpt>
<trkpt lat="48.443684" lon="2.669774"><ele></ele><time>2023-8-15T10:43:26Z</time></trkpt>
<trkpt lat="48.443597" lon="2.669692"><ele></ele><time>2023-8-15T10:43:29Z</time></trkpt>
<trkpt lat="48.443498" lon="2.669599"><ele></ele><time>2023-8-15T10:43:32Z</time></trkpt>
<trkpt lat="48.443396" lon="2.669561"><ele></ele><time>2023-8-15T10:43:35Z</time></trkpt>
<trkpt lat="48.443274" lon="2.669533"><ele></ele><time>2023-8-15T10:43:38Z</time></trkpt>
<trkpt lat="48.443178" lon="2.669495"><ele></ele><time>2023-8-15T10:43:41Z</time></trkpt>
<trkpt lat="48.443087" lon="2.66943"><ele></ele><time>2023-8-15T10:43:44Z</time></trkpt>
<trkpt lat="48.442977" lon="2.669357"><ele></ele><time>2023-8-15T10:43:47Z</time></trkpt>
<trkpt lat="48.44287" lon="2.669364"><ele></ele><time>2023-8-15T10:43:50Z</time></trkpt>
<trkpt lat="48.442755" lon="2.669406"><ele></ele><time>2023-8-15T10:43:53Z</time></trkpt>
<trkpt lat="48.44266" lon="2.669423"><ele></ele><time>2023-8-15T10:43:56Z</time></trkpt>
<trkpt lat="48.442566" lon="2.669441"><ele></ele><time>2023-8-15T10:43:59Z</time></trkpt>
<trkpt lat="48.442456" lon="2.669411"><ele></ele><time>2023-8-15T10:44:2Z</time></trkpt>
<trkpt lat="48.442314" lon="2.669358"><ele></ele><time>2023-8-15T10:44:5Z</time></trkpt>
<trkpt lat="48.442221" lon="2.66931"><ele></ele><time>2023-8-15T10:44:8Z</time></trkpt>
<trkpt lat="48.44213" lon="2.669335"><ele></ele><time>2023-8-15T10:44:11Z</time></trkpt>
<trkpt lat="48.442042" lon="2.669305"><ele></ele><time>2023-8-15T10:44:14Z</time></trkpt>
<trkpt lat="48.441959" lon="2.669233"><ele></ele><time>2023-8-15T10:44:17Z</time></trkpt>
<trkpt lat="48.441889" lon="2.669141"><ele></ele><time>2023-8-15T10:44:20Z</time></trkpt>
<trkpt lat="48.441758" lon="2.669054"><ele></ele><time>2023-8-15T10:44:23Z</time></trkpt>
<trkpt lat="48.441672" lon="2.669005"><ele></ele><time>2023-8-15T10:44:26Z</time></trkpt>
<trkpt lat="48.441565" lon="2.668934"><ele></ele><time>2023-8-15T10:44:29Z</time></trkpt>
<trkpt lat="48.44147" lon="2.668868"><ele></ele><time>2023-8-15T10:44:32Z</time></trkpt>
<trkpt lat="48.441374" lon="2.668788"><ele></ele><time>2023-8-15T10:44:35Z</time></trkpt>
<trkpt lat="48.441281" lon="2.668711"><ele></ele><time>2023-8-15T10:44:38Z</time></trkpt>
<trkpt lat="48.441181" lon="2.668647"><ele></ele><time>2023-8-15T10:44:41Z</time></trkpt>
<trkpt lat="48.44107" lon="2.668594"><ele></ele><time>2023-8-15T10:44:44Z</time></trkpt>
<trkpt lat="48.440979" lon="2.668551"><ele></ele><time>2023-8-15T10:44:47Z</time></trkpt>
<trkpt lat="48.440854" lon="2.668488"><ele></ele><time>2023-8-15T10:44:50Z</time></trkpt>
<trkpt lat="48.440753" lon="2.66842"><ele></ele><time>2023-8-15T10:44:53Z</time></trkpt>
<trkpt lat="48.440651" lon="2.668362"><ele></ele><time>2023-8-15T10:44:56Z</time></trkpt>
<trkpt lat="48.44056" lon="2.668318"><ele></ele><time>2023-8-15T10:44:59Z</time></trkpt>
<trkpt lat="48.440467" lon="2.668276"><ele></ele><time>2023-8-15T10:45:2Z</time></trkpt>
<trkpt lat="48.440352" lon="2.668217"><ele></ele><time>2023-8-15T10:45:5Z</time></trkpt>
<trkpt lat="48.440244" lon="2.668173"><ele></ele><time>2023-8-15T10:45:8Z</time></trkpt>
<trkpt lat="48.440138" lon="2.668103"><ele></ele><time>2023-8-15T10:45:11Z</time></trkpt>
<trkpt lat="48.440017" lon="2.668052"><ele></ele><time>2023-8-15T10:45:14Z</time></trkpt>
<trkpt lat="48.439928" lon="2.668003"><ele></ele><time>2023-8-15T10:45:17Z</time></trkpt>
<trkpt lat="48.439843" lon="2.667954"><ele></ele><time>2023-8-15T10:45:20Z</time></trkpt>
<trkpt lat="48.439741" lon="2.667907"><ele></ele><time>2023-8-15T10:45:23Z</time></trkpt>
<trkpt lat="48.439649" lon="2.667857"><ele></ele><time>2023-8-15T10:45:26Z</time></trkpt>
<trkpt lat="48.439516" lon="2.667899"><ele></ele><time>2023-8-15T10:45:29Z</time></trkpt>
<trkpt lat="48.439422" lon="2.667943"><ele></ele><time>2023-8-15T10:45:32Z</time></trkpt>
<trkpt lat="48.439291" lon="2.667927"><ele></ele><time>2023-8-15T10:45:35Z</time></trkpt>
<trkpt lat="48.43915" lon="2.667929"><ele></ele><time>2023-8-15T10:45:38Z</time></trkpt>
<trkpt lat="48.439047" lon="2.667899"><ele></ele><time>2023-8-15T10:45:41Z</time></trkpt>
<trkpt lat="48.438927" lon="2.667849"><ele></ele><time>2023-8-15T10:45:44Z</time></trkpt>
<trkpt lat="48.438832" lon="2.667855"><ele></ele><time>2023-8-15T10:45:47Z</time></trkpt>
<trkpt lat="48.438728" lon="2.667851"><ele></ele><time>2023-8-15T10:45:50Z</time></trkpt>
<trkpt lat="48.438635" lon="2.667817"><ele></ele><time>2023-8-15T10:45:53Z</time></trkpt>
<trkpt lat="48.438519" lon="2.66775"><ele></ele><time>2023-8-15T10:45:56Z</time></trkpt>
<trkpt lat="48.438431" lon="2.667722"><ele></ele><time>2023-8-15T10:45:59Z</time></trkpt>
<trkpt lat="48.438311" lon="2.667635"><ele></ele><time>2023-8-15T10:46:2Z</time></trkpt>
<trkpt lat="48.438202" lon="2.667544"><ele></ele><time>2023-8-15T10:46:5Z</time></trkpt>
<trkpt lat="48.438113" lon="2.667516"><ele></ele><time>2023-8-15T10:46:8Z</time></trkpt>
<trkpt lat="48.437965" lon="2.667455"><ele></ele><time>2023-8-15T10:46:11Z</time></trkpt>
<trkpt lat="48.437863" lon="2.667391"><ele></ele><time>2023-8-15T10:46:14Z</time></trkpt>
<trkpt lat="48.437768" lon="2.667352"><ele></ele><time>2023-8-15T10:46:17Z</time></trkpt>
<trkpt lat="48.437655" lon="2.66731"><ele></ele><time>2023-8-15T10:46:20Z</time></trkpt>
<trkpt lat="48.437538" lon="2.667283"><ele></ele><time>2023-8-15T10:46:23Z</time></trkpt>
<trkpt lat="48.43744" lon="2.667245"><ele></ele><time>2023-8-15T10:46:26Z</time></trkpt>
<trkpt lat="48.437335" lon="2.667201"><ele></ele><time>2023-8-15T10:46:29Z</time></trkpt>
<trkpt lat="48.437232" lon="2.667153"><ele></ele><time>2023-8-15T10:46:32Z</time></trkpt>
<trkpt lat="48.43714" lon="2.667122"><ele></ele><time>2023-8-15T10:46:35Z</time></trkpt>
<trkpt lat="48.43702" lon="2.667111"><ele></ele><time>2023-8-15T10:46:38Z</time></trkpt>
<trkpt lat="48.436927" lon="2.667105"><ele></ele><time>2023-8-15T10:46:41Z</time></trkpt>
<trkpt lat="48.436824" lon="2.667131"><ele></ele><time>2023-8-15T10:46:44Z</time></trkpt>
<trkpt lat="48.436713" lon="2.667161"><ele></ele><time>2023-8-15T10:46:47Z</time></trkpt>
<trkpt lat="48.436603" lon="2.667169"><ele></ele><time>2023-8-15T10:46:50Z</time></trkpt>
<trkpt lat="48.436502" lon="2.667199"><ele></ele><time>2023-8-15T10:46:53Z</time></trkpt>
<trkpt lat="48.436395" lon="2.667181"><ele></ele><time>2023-8-15T10:46:56Z</time></trkpt>
<trkpt lat="48.436281" lon="2.667192"><ele></ele><time>2023-8-15T10:46:59Z</time></trkpt>
<trkpt lat="48.436199" lon="2.667169"><ele></ele><time>2023-8-15T10:47:2Z</time></trkpt>
<trkpt lat="48.4362" lon="2.667172"><ele></ele><time>2023-8-15T10:47:5Z</time></trkpt>
<trkpt lat="48.436204" lon="2.667202"><ele></ele><time>2023-8-15T10:47:8Z</time></trkpt>
<trkpt lat="48.436197" lon="2.667203"><ele></ele><time>2023-8-15T10:47:11Z</time></trkpt>
<trkpt lat="48.436123" lon="2.667115"><ele></ele><time>2023-8-15T10:47:14Z</time></trkpt>
<trkpt lat="48.436056" lon="2.667024"><ele></ele><time>2023-8-15T10:47:17Z</time></trkpt>
<trkpt lat="48.435966" lon="2.667022"><ele></ele><time>2023-8-15T10:47:20Z</time></trkpt>
<trkpt lat="48.435898" lon="2.666918"><ele></ele><time>2023-8-15T10:47:23Z</time></trkpt>
<trkpt lat="48.435823" lon="2.666821"><ele></ele><time>2023-8-15T10:47:26Z</time></trkpt>
<trkpt lat="48.435735" lon="2.666779"><ele></ele><time>2023-8-15T10:47:29Z</time></trkpt>
<trkpt lat="48.435648" lon="2.666743"><ele></ele><time>2023-8-15T10:47:32Z</time></trkpt>
<trkpt lat="48.435569" lon="2.666667"><ele></ele><time>2023-8-15T10:47:35Z</time></trkpt>
<trkpt lat="48.435543" lon="2.666659"><ele></ele><time>2023-8-15T10:47:38Z</time></trkpt>
<trkpt lat="48.435543" lon="2.666661"><ele></ele><time>2023-8-15T10:47:41Z</time></trkpt>
<trkpt lat="48.435481" lon="2.666561"><ele></ele><time>2023-8-15T10:47:44Z</time></trkpt>
<trkpt lat="48.435416" lon="2.666455"><ele></ele><time>2023-8-15T10:47:47Z</time></trkpt>
<trkpt lat="48.435324" lon="2.666437"><ele></ele><time>2023-8-15T10:47:50Z</time></trkpt>
<trkpt lat="48.435235" lon="2.666421"><ele></ele><time>2023-8-15T10:47:53Z</time></trkpt>
<trkpt lat="48.435122" lon="2.666419"><ele></ele><time>2023-8-15T10:47:56Z</time></trkpt>
<trkpt lat="48.434998" lon="2.6664"><ele></ele><time>2023-8-15T10:47:59Z</time></trkpt>
<trkpt lat="48.434897" lon="2.666368"><ele></ele><time>2023-8-15T10:48:2Z</time></trkpt>
<trkpt lat="48.4348" lon="2.666357"><ele></ele><time>2023-8-15T10:48:5Z</time></trkpt>
<trkpt lat="48.434706" lon="2.66632"><ele></ele><time>2023-8-15T10:48:8Z</time></trkpt>
<trkpt lat="48.434596" lon="2.666321"><ele></ele><time>2023-8-15T10:48:11Z</time></trkpt>
<trkpt lat="48.434484" lon="2.666304"><ele></ele><time>2023-8-15T10:48:14Z</time></trkpt>
<trkpt lat="48.43439" lon="2.666303"><ele></ele><time>2023-8-15T10:48:17Z</time></trkpt>
<trkpt lat="48.434288" lon="2.666221"><ele></ele><time>2023-8-15T10:48:20Z</time></trkpt>
<trkpt lat="48.4342" lon="2.666193"><ele></ele><time>2023-8-15T10:48:23Z</time></trkpt>
<trkpt lat="48.434062" lon="2.666187"><ele></ele><time>2023-8-15T10:48:26Z</time></trkpt>
<trkpt lat="48.433967" lon="2.666165"><ele></ele><time>2023-8-15T10:48:29Z</time></trkpt>
<trkpt lat="48.433851" lon="2.666142"><ele></ele><time>2023-8-15T10:48:32Z</time></trkpt>
<trkpt lat="48.433778" lon="2.666044"><ele></ele><time>2023-8-15T10:48:35Z</time></trkpt>
<trkpt lat="48.433665" lon="2.665949"><ele></ele><time>2023-8-15T10:48:38Z</time></trkpt>
<trkpt lat="48.433586" lon="2.665869"><ele></ele><time>2023-8-15T10:48:41Z</time></trkpt>
<trkpt lat="48.433488" lon="2.665842"><ele></ele><time>2023-8-15T10:48:44Z</time></trkpt>
<trkpt lat="48.433464" lon="2.665984"><ele></ele><time>2023-8-15T10:48:47Z</time></trkpt>
<trkpt lat="48.433372" lon="2.666036"><ele></ele><time>2023-8-15T10:48:50Z</time></trkpt>
<trkpt lat="48.433258" lon="2.666016"><ele></ele><time>2023-8-15T10:48:53Z</time></trkpt>
<trkpt lat="48.433126" lon="2.665949"><ele></ele><time>2023-8-15T10:48:56Z</time></trkpt>
<trkpt lat="48.433026" lon="2.66588"><ele></ele><time>2023-8-15T10:48:59Z</time></trkpt>
<trkpt lat="48.432897" lon="2.665819"><ele></ele><time>2023-8-15T10:49:2Z</time></trkpt>
<trkpt lat="48.432804" lon="2.665811"><ele></ele><time>2023-8-15T10:49:5Z</time></trkpt>
<trkpt lat="48.432668" lon="2.665847"><ele></ele><time>2023-8-15T10:49:8Z</time></trkpt>
<trkpt lat="48.432558" lon="2.665814"><ele></ele><time>2023-8-15T10:49:11Z</time></trkpt>
<trkpt lat="48.432452" lon="2.665792"><ele></ele><time>2023-8-15T10:49:14Z</time></trkpt>
<trkpt lat="48.432351" lon="2.665776"><ele></ele><time>2023-8-15T10:49:17Z</time></trkpt>
<trkpt lat="48.432236" lon="2.665717"><ele></ele><time>2023-8-15T10:49:20Z</time></trkpt>
<trkpt lat="48.432138" lon="2.665723"><ele></ele><time>2023-8-15T10:49:23Z</time></trkpt>
<trkpt lat="48.432033" lon="2.66572"><ele></ele><time>2023-8-15T10:49:26Z</time></trkpt>
<trkpt lat="48.431935" lon="2.665706"><ele></ele><time>2023-8-15T10:49:29Z</time></trkpt>
<trkpt lat="48.431813" lon="2.665687"><ele></ele><time>2023-8-15T10:49:32Z</time></trkpt>
<trkpt lat="48.431715" lon="2.665682"><ele></ele><time>2023-8-15T10:49:35Z</time></trkpt>
<trkpt lat="48.431621" lon="2.665634"><ele></ele><time>2023-8-15T10:49:38Z</time></trkpt>
<trkpt lat="48.431528" lon="2.665675"><ele></ele><time>2023-8-15T10:49:41Z</time></trkpt>
<trkpt lat="48.431407" lon="2.66561"><ele></ele><time>2023-8-15T10:49:44Z</time></trkpt>
<trkpt lat="48.431309" lon="2.665612"><ele></ele><time>2023-8-15T10:49:47Z</time></trkpt>
<trkpt lat="48.431218" lon="2.665571"><ele></ele><time>2023-8-15T10:49:50Z</time></trkpt>
<trkpt lat="48.43114" lon="2.665461"><ele></ele><time>2023-8-15T10:49:53Z</time></trkpt>
<trkpt lat="48.431034" lon="2.665587"><ele></ele><time>2023-8-15T10:49:56Z</time></trkpt>
<trkpt lat="48.430918" lon="2.665602"><ele></ele><time>2023-8-15T10:49:59Z</time></trkpt>
<trkpt lat="48.430835" lon="2.665688"><ele></ele><time>2023-8-15T10:50:2Z</time></trkpt>
<trkpt lat="48.430741" lon="2.665819"><ele></ele><time>2023-8-15T10:50:5Z</time></trkpt>
<trkpt lat="48.430651" lon="2.665918"><ele></ele><time>2023-8-15T10:50:8Z</time></trkpt>
<trkpt lat="48.430583" lon="2.66605"><ele></ele><time>2023-8-15T10:50:11Z</time></trkpt>
<trkpt lat="48.43049" lon="2.666164"><ele></ele><time>2023-8-15T10:50:14Z</time></trkpt>
<trkpt lat="48.430399" lon="2.666297"><ele></ele><time>2023-8-15T10:50:17Z</time></trkpt>
<trkpt lat="48.43033" lon="2.666443"><ele></ele><time>2023-8-15T10:50:20Z</time></trkpt>
<trkpt lat="48.430276" lon="2.666567"><ele></ele><time>2023-8-15T10:50:23Z</time></trkpt>
<trkpt lat="48.430198" lon="2.666663"><ele></ele><time>2023-8-15T10:50:26Z</time></trkpt>
<trkpt lat="48.430119" lon="2.666745"><ele></ele><time>2023-8-15T10:50:29Z</time></trkpt>
<trkpt lat="48.43006" lon="2.666894"><ele></ele><time>2023-8-15T10:50:32Z</time></trkpt>
<trkpt lat="48.43003" lon="2.667023"><ele></ele><time>2023-8-15T10:50:35Z</time></trkpt>
<trkpt lat="48.430036" lon="2.667189"><ele></ele><time>2023-8-15T10:50:38Z</time></trkpt>
<trkpt lat="48.430023" lon="2.667325"><ele></ele><time>2023-8-15T10:50:41Z</time></trkpt>
<trkpt lat="48.430027" lon="2.667462"><ele></ele><time>2023-8-15T10:50:44Z</time></trkpt>
<trkpt lat="48.430094" lon="2.667559"><ele></ele><time>2023-8-15T10:50:47Z</time></trkpt>
<trkpt lat="48.43006" lon="2.667698"><ele></ele><time>2023-8-15T10:50:50Z</time></trkpt>
<trkpt lat="48.429982" lon="2.667783"><ele></ele><time>2023-8-15T10:50:53Z</time></trkpt>
<trkpt lat="48.429958" lon="2.667925"><ele></ele><time>2023-8-15T10:50:56Z</time></trkpt>
<trkpt lat="48.429942" lon="2.668074"><ele></ele><time>2023-8-15T10:50:59Z</time></trkpt>
<trkpt lat="48.42985" lon="2.668068"><ele></ele><time>2023-8-15T10:51:2Z</time></trkpt>
<trkpt lat="48.429803" lon="2.667932"><ele></ele><time>2023-8-15T10:51:5Z</time></trkpt>
<trkpt lat="48.429711" lon="2.667876"><ele></ele><time>2023-8-15T10:51:8Z</time></trkpt>
<trkpt lat="48.429691" lon="2.667918"><ele></ele><time>2023-8-15T10:51:11Z</time></trkpt>
<trkpt lat="48.429689" lon="2.667915"><ele></ele><time>2023-8-15T10:51:14Z</time></trkpt>
<trkpt lat="48.429661" lon="2.667923"><ele></ele><time>2023-8-15T10:51:17Z</time></trkpt>
<trkpt lat="48.429654" lon="2.667917"><ele></ele><time>2023-8-15T10:51:20Z</time></trkpt>
<trkpt lat="48.429567" lon="2.667857"><ele></ele><time>2023-8-15T10:51:23Z</time></trkpt>
<trkpt lat="48.429493" lon="2.667774"><ele></ele><time>2023-8-15T10:51:26Z</time></trkpt>
<trkpt lat="48.429419" lon="2.667678"><ele></ele><time>2023-8-15T10:51:29Z</time></trkpt>
<trkpt lat="48.429326" lon="2.66773"><ele></ele><time>2023-8-15T10:51:32Z</time></trkpt>
<trkpt lat="48.429261" lon="2.667623"><ele></ele><time>2023-8-15T10:51:35Z</time></trkpt>
<trkpt lat="48.429173" lon="2.667541"><ele></ele><time>2023-8-15T10:51:38Z</time></trkpt>
<trkpt lat="48.429072" lon="2.66744"><ele></ele><time>2023-8-15T10:51:41Z</time></trkpt>
<trkpt lat="48.429053" lon="2.667282"><ele></ele><time>2023-8-15T10:51:44Z</time></trkpt>
<trkpt lat="48.429032" lon="2.667111"><ele></ele><time>2023-8-15T10:51:47Z</time></trkpt>
<trkpt lat="48.428951" lon="2.666978"><ele></ele><time>2023-8-15T10:51:50Z</time></trkpt>
<trkpt lat="48.428879" lon="2.666895"><ele></ele><time>2023-8-15T10:51:53Z</time></trkpt>
<trkpt lat="48.428806" lon="2.666785"><ele></ele><time>2023-8-15T10:51:56Z</time></trkpt>
<trkpt lat="48.428754" lon="2.666649"><ele></ele><time>2023-8-15T10:51:59Z</time></trkpt>
<trkpt lat="48.428659" lon="2.666551"><ele></ele><time>2023-8-15T10:52:2Z</time></trkpt>
<trkpt lat="48.428556" lon="2.66652"><ele></ele><time>2023-8-15T10:52:5Z</time></trkpt>
<trkpt lat="48.42843" lon="2.666513"><ele></ele><time>2023-8-15T10:52:8Z</time></trkpt>
<trkpt lat="48.428329" lon="2.666526"><ele></ele><time>2023-8-15T10:52:11Z</time></trkpt>
<trkpt lat="48.428241" lon="2.666576"><ele></ele><time>2023-8-15T10:52:14Z</time></trkpt>
<trkpt lat="48.428195" lon="2.666593"><ele></ele><time>2023-8-15T10:52:17Z</time></trkpt>
<trkpt lat="48.428194" lon="2.666593"><ele></ele><time>2023-8-15T10:52:20Z</time></trkpt>
<trkpt lat="48.428169" lon="2.666629"><ele></ele><time>2023-8-15T10:52:23Z</time></trkpt>
<trkpt lat="48.428167" lon="2.66663"><ele></ele><time>2023-8-15T10:52:26Z</time></trkpt>
<trkpt lat="48.428075" lon="2.666615"><ele></ele><time>2023-8-15T10:52:29Z</time></trkpt>
<trkpt lat="48.427972" lon="2.666639"><ele></ele><time>2023-8-15T10:52:32Z</time></trkpt>
<trkpt lat="48.427884" lon="2.666686"><ele></ele><time>2023-8-15T10:52:35Z</time></trkpt>
<trkpt lat="48.427777" lon="2.66676"><ele></ele><time>2023-8-15T10:52:38Z</time></trkpt>
<trkpt lat="48.427697" lon="2.66683"><ele></ele><time>2023-8-15T10:52:41Z</time></trkpt>
<trkpt lat="48.427587" lon="2.666888"><ele></ele><time>2023-8-15T10:52:44Z</time></trkpt>
<trkpt lat="48.42749" lon="2.666944"><ele></ele><time>2023-8-15T10:52:47Z</time></trkpt>
<trkpt lat="48.427321" lon="2.667061"><ele></ele><time>2023-8-15T10:52:50Z</time></trkpt>
<trkpt lat="48.427233" lon="2.667112"><ele></ele><time>2023-8-15T10:52:53Z</time></trkpt>
<trkpt lat="48.427128" lon="2.667181"><ele></ele><time>2023-8-15T10:52:56Z</time></trkpt>
<trkpt lat="48.427008" lon="2.66726"><ele></ele><time>2023-8-15T10:52:59Z</time></trkpt>
<trkpt lat="48.42692" lon="2.667316"><ele></ele><time>2023-8-15T10:53:2Z</time></trkpt>
<trkpt lat="48.426834" lon="2.667361"><ele></ele><time>2023-8-15T10:53:5Z</time></trkpt>
<trkpt lat="48.426747" lon="2.667399"><ele></ele><time>2023-8-15T10:53:8Z</time></trkpt>
<trkpt lat="48.426651" lon="2.667464"><ele></ele><time>2023-8-15T10:53:11Z</time></trkpt>
<trkpt lat="48.426558" lon="2.667541"><ele></ele><time>2023-8-15T10:53:14Z</time></trkpt>
<trkpt lat="48.426471" lon="2.667577"><ele></ele><time>2023-8-15T10:53:17Z</time></trkpt>
<trkpt lat="48.426358" lon="2.667644"><ele></ele><time>2023-8-15T10:53:20Z</time></trkpt>
<trkpt lat="48.42625" lon="2.667696"><ele></ele><time>2023-8-15T10:53:23Z</time></trkpt>
<trkpt lat="48.426132" lon="2.667751"><ele></ele><time>2023-8-15T10:53:26Z</time></trkpt>
<trkpt lat="48.426039" lon="2.667819"><ele></ele><time>2023-8-15T10:53:29Z</time></trkpt>
<trkpt lat="48.425933" lon="2.667886"><ele></ele><time>2023-8-15T10:53:32Z</time></trkpt>
<trkpt lat="48.425825" lon="2.667964"><ele></ele><time>2023-8-15T10:53:35Z</time></trkpt>
<trkpt lat="48.425739" lon="2.668049"><ele></ele><time>2023-8-15T10:53:38Z</time></trkpt>
<trkpt lat="48.425637" lon="2.668103"><ele></ele><time>2023-8-15T10:53:41Z</time></trkpt>
<trkpt lat="48.425518" lon="2.668189"><ele></ele><time>2023-8-15T10:53:44Z</time></trkpt>
<trkpt lat="48.42543" lon="2.668229"><ele></ele><time>2023-8-15T10:53:47Z</time></trkpt>
<trkpt lat="48.425341" lon="2.668305"><ele></ele><time>2023-8-15T10:53:50Z</time></trkpt>
<trkpt lat="48.425231" lon="2.668388"><ele></ele><time>2023-8-15T10:53:53Z</time></trkpt>
<trkpt lat="48.425126" lon="2.668453"><ele></ele><time>2023-8-15T10:53:56Z</time></trkpt>
<trkpt lat="48.425042" lon="2.668502"><ele></ele><time>2023-8-15T10:53:59Z</time></trkpt>
<trkpt lat="48.424958" lon="2.668561"><ele></ele><time>2023-8-15T10:54:2Z</time></trkpt>
<trkpt lat="48.424822" lon="2.668648"><ele></ele><time>2023-8-15T10:54:5Z</time></trkpt>
<trkpt lat="48.424719" lon="2.668712"><ele></ele><time>2023-8-15T10:54:8Z</time></trkpt>
<trkpt lat="48.424632" lon="2.668776"><ele></ele><time>2023-8-15T10:54:11Z</time></trkpt>
<trkpt lat="48.424532" lon="2.668849"><ele></ele><time>2023-8-15T10:54:14Z</time></trkpt>
<trkpt lat="48.424412" lon="2.668936"><ele></ele><time>2023-8-15T10:54:17Z</time></trkpt>
<trkpt lat="48.424302" lon="2.669013"><ele></ele><time>2023-8-15T10:54:20Z</time></trkpt>
<trkpt lat="48.424154" lon="2.66908"><ele></ele><time>2023-8-15T10:54:23Z</time></trkpt>
<trkpt lat="48.42406" lon="2.66915"><ele></ele><time>2023-8-15T10:54:26Z</time></trkpt>
<trkpt lat="48.423952" lon="2.669219"><ele></ele><time>2023-8-15T10:54:29Z</time></trkpt>
<trkpt lat="48.423828" lon="2.669303"><ele></ele><time>2023-8-15T10:54:32Z</time></trkpt>
<trkpt lat="48.423728" lon="2.669378"><ele></ele><time>2023-8-15T10:54:35Z</time></trkpt>
<trkpt lat="48.423637" lon="2.669445"><ele></ele><time>2023-8-15T10:54:38Z</time></trkpt>
<trkpt lat="48.423522" lon="2.669524"><ele></ele><time>2023-8-15T10:54:41Z</time></trkpt>
<trkpt lat="48.423428" lon="2.669595"><ele></ele><time>2023-8-15T10:54:44Z</time></trkpt>
<trkpt lat="48.42334" lon="2.669672"><ele></ele><time>2023-8-15T10:54:47Z</time></trkpt>
<trkpt lat="48.423175" lon="2.669821"><ele></ele><time>2023-8-15T10:54:50Z</time></trkpt>
<trkpt lat="48.423072" lon="2.669881"><ele></ele><time>2023-8-15T10:54:53Z</time></trkpt>
<trkpt lat="48.42298" lon="2.669957"><ele></ele><time>2023-8-15T10:54:56Z</time></trkpt>
<trkpt lat="48.422817" lon="2.670085"><ele></ele><time>2023-8-15T10:54:59Z</time></trkpt>
<trkpt lat="48.422706" lon="2.670195"><ele></ele><time>2023-8-15T10:55:2Z</time></trkpt>
<trkpt lat="48.422599" lon="2.670271"><ele></ele><time>2023-8-15T10:55:5Z</time></trkpt>
<trkpt lat="48.42249" lon="2.670359"><ele></ele><time>2023-8-15T10:55:8Z</time></trkpt>
<trkpt lat="48.422334" lon="2.670454"><ele></ele><time>2023-8-15T10:55:11Z</time></trkpt>
<trkpt lat="48.422217" lon="2.670546"><ele></ele><time>2023-8-15T10:55:14Z</time></trkpt>
<trkpt lat="48.422132" lon="2.670616"><ele></ele><time>2023-8-15T10:55:17Z</time></trkpt>
<trkpt lat="48.422063" lon="2.670709"><ele></ele><time>2023-8-15T10:55:20Z</time></trkpt>
<trkpt lat="48.421958" lon="2.670766"><ele></ele><time>2023-8-15T10:55:23Z</time></trkpt>
<trkpt lat="48.421882" lon="2.67088"><ele></ele><time>2023-8-15T10:55:26Z</time></trkpt>
<trkpt lat="48.421787" lon="2.670948"><ele></ele><time>2023-8-15T10:55:29Z</time></trkpt>
<trkpt lat="48.421699" lon="2.671006"><ele></ele><time>2023-8-15T10:55:32Z</time></trkpt>
<trkpt lat="48.421613" lon="2.6711"><ele></ele><time>2023-8-15T10:55:35Z</time></trkpt>
<trkpt lat="48.421524" lon="2.671135"><ele></ele><time>2023-8-15T10:55:38Z</time></trkpt>
<trkpt lat="48.421404" lon="2.67125"><ele></ele><time>2023-8-15T10:55:41Z</time></trkpt>
<trkpt lat="48.42132" lon="2.671321"><ele></ele><time>2023-8-15T10:55:44Z</time></trkpt>
<trkpt lat="48.421242" lon="2.671397"><ele></ele><time>2023-8-15T10:55:47Z</time></trkpt>
<trkpt lat="48.421143" lon="2.671486"><ele></ele><time>2023-8-15T10:55:50Z</time></trkpt>
<trkpt lat="48.421054" lon="2.671555"><ele></ele><time>2023-8-15T10:55:53Z</time></trkpt>
<trkpt lat="48.420952" lon="2.671628"><ele></ele><time>2023-8-15T10:55:56Z</time></trkpt>
<trkpt lat="48.420868" lon="2.671688"><ele></ele><time>2023-8-15T10:55:59Z</time></trkpt>
<trkpt lat="48.420782" lon="2.671777"><ele></ele><time>2023-8-15T10:56:2Z</time></trkpt>
<trkpt lat="48.420691" lon="2.67185"><ele></ele><time>2023-8-15T10:56:5Z</time></trkpt>
<trkpt lat="48.420604" lon="2.671906"><ele></ele><time>2023-8-15T10:56:8Z</time></trkpt>
<trkpt lat="48.42052" lon="2.671965"><ele></ele><time>2023-8-15T10:56:11Z</time></trkpt>
<trkpt lat="48.420406" lon="2.672021"><ele></ele><time>2023-8-15T10:56:14Z</time></trkpt>
<trkpt lat="48.420309" lon="2.672112"><ele></ele><time>2023-8-15T10:56:17Z</time></trkpt>
<trkpt lat="48.420232" lon="2.672192"><ele></ele><time>2023-8-15T10:56:20Z</time></trkpt>
<trkpt lat="48.42013" lon="2.672281"><ele></ele><time>2023-8-15T10:56:23Z</time></trkpt>
<trkpt lat="48.420045" lon="2.67236"><ele></ele><time>2023-8-15T10:56:26Z</time></trkpt>
<trkpt lat="48.419937" lon="2.672478"><ele></ele><time>2023-8-15T10:56:29Z</time></trkpt>
<trkpt lat="48.419834" lon="2.672563"><ele></ele><time>2023-8-15T10:56:32Z</time></trkpt>
<trkpt lat="48.41974" lon="2.672624"><ele></ele><time>2023-8-15T10:56:35Z</time></trkpt>
<trkpt lat="48.419678" lon="2.672728"><ele></ele><time>2023-8-15T10:56:38Z</time></trkpt>
<trkpt lat="48.419581" lon="2.672742"><ele></ele><time>2023-8-15T10:56:41Z</time></trkpt>
<trkpt lat="48.419494" lon="2.67281"><ele></ele><time>2023-8-15T10:56:44Z</time></trkpt>
<trkpt lat="48.419391" lon="2.672893"><ele></ele><time>2023-8-15T10:56:47Z</time></trkpt>
<trkpt lat="48.419291" lon="2.672974"><ele></ele><time>2023-8-15T10:56:50Z</time></trkpt>
<trkpt lat="48.419193" lon="2.673022"><ele></ele><time>2023-8-15T10:56:53Z</time></trkpt>
<trkpt lat="48.41909" lon="2.673053"><ele></ele><time>2023-8-15T10:56:56Z</time></trkpt>
<trkpt lat="48.418988" lon="2.673083"><ele></ele><time>2023-8-15T10:56:59Z</time></trkpt>
<trkpt lat="48.418909" lon="2.673149"><ele></ele><time>2023-8-15T10:57:2Z</time></trkpt>
<trkpt lat="48.418831" lon="2.673231"><ele></ele><time>2023-8-15T10:57:5Z</time></trkpt>
<trkpt lat="48.41871" lon="2.673286"><ele></ele><time>2023-8-15T10:57:8Z</time></trkpt>
<trkpt lat="48.418593" lon="2.673363"><ele></ele><time>2023-8-15T10:57:11Z</time></trkpt>
<trkpt lat="48.418492" lon="2.673403"><ele></ele><time>2023-8-15T10:57:14Z</time></trkpt>
<trkpt lat="48.418392" lon="2.673472"><ele></ele><time>2023-8-15T10:57:17Z</time></trkpt>
<trkpt lat="48.418321" lon="2.673648"><ele></ele><time>2023-8-15T10:57:20Z</time></trkpt>
<trkpt lat="48.418243" lon="2.673777"><ele></ele><time>2023-8-15T10:57:23Z</time></trkpt>
<trkpt lat="48.41815" lon="2.673843"><ele></ele><time>2023-8-15T10:57:26Z</time></trkpt>
<trkpt lat="48.418073" lon="2.673913"><ele></ele><time>2023-8-15T10:57:29Z</time></trkpt>
<trkpt lat="48.418039" lon="2.674044"><ele></ele><time>2023-8-15T10:57:32Z</time></trkpt>
<trkpt lat="48.417987" lon="2.674161"><ele></ele><time>2023-8-15T10:57:35Z</time></trkpt>
<trkpt lat="48.417945" lon="2.674289"><ele></ele><time>2023-8-15T10:57:38Z</time></trkpt>
<trkpt lat="48.417877" lon="2.674382"><ele></ele><time>2023-8-15T10:57:41Z</time></trkpt>
<trkpt lat="48.417888" lon="2.674366"><ele></ele><time>2023-8-15T10:57:44Z</time></trkpt>
<trkpt lat="48.41789" lon="2.674363"><ele></ele><time>2023-8-15T10:57:47Z</time></trkpt>
<trkpt lat="48.41789" lon="2.674362"><ele></ele><time>2023-8-15T10:57:50Z</time></trkpt>
<trkpt lat="48.417893" lon="2.674353"><ele></ele><time>2023-8-15T10:57:53Z</time></trkpt>
<trkpt lat="48.41792" lon="2.674188"><ele></ele><time>2023-8-15T10:57:56Z</time></trkpt>
<trkpt lat="48.417961" lon="2.674062"><ele></ele><time>2023-8-15T10:57:59Z</time></trkpt>
<trkpt lat="48.418012" lon="2.673884"><ele></ele><time>2023-8-15T10:58:2Z</time></trkpt>
<trkpt lat="48.418063" lon="2.673733"><ele></ele><time>2023-8-15T10:58:5Z</time></trkpt>
<trkpt lat="48.418152" lon="2.67357"><ele></ele><time>2023-8-15T10:58:8Z</time></trkpt>
<trkpt lat="48.418173" lon="2.673432"><ele></ele><time>2023-8-15T10:58:11Z</time></trkpt>
<trkpt lat="48.418137" lon="2.673253"><ele></ele><time>2023-8-15T10:58:14Z</time></trkpt>
<trkpt lat="48.418112" lon="2.673104"><ele></ele><time>2023-8-15T10:58:17Z</time></trkpt>
<trkpt lat="48.418087" lon="2.672959"><ele></ele><time>2023-8-15T10:58:20Z</time></trkpt>
<trkpt lat="48.418073" lon="2.672786"><ele></ele><time>2023-8-15T10:58:23Z</time></trkpt>
<trkpt lat="48.418057" lon="2.672637"><ele></ele><time>2023-8-15T10:58:26Z</time></trkpt>
<trkpt lat="48.418041" lon="2.67249"><ele></ele><time>2023-8-15T10:58:29Z</time></trkpt>
<trkpt lat="48.418035" lon="2.672309"><ele></ele><time>2023-8-15T10:58:32Z</time></trkpt>
<trkpt lat="48.418024" lon="2.672171"><ele></ele><time>2023-8-15T10:58:35Z</time></trkpt>
<trkpt lat="48.417982" lon="2.67195"><ele></ele><time>2023-8-15T10:58:38Z</time></trkpt>
<trkpt lat="48.417937" lon="2.671767"><ele></ele><time>2023-8-15T10:58:41Z</time></trkpt>
<trkpt lat="48.417924" lon="2.6716"><ele></ele><time>2023-8-15T10:58:44Z</time></trkpt>
<trkpt lat="48.41792" lon="2.671431"><ele></ele><time>2023-8-15T10:58:47Z</time></trkpt>
<trkpt lat="48.417911" lon="2.671284"><ele></ele><time>2023-8-15T10:58:50Z</time></trkpt>
<trkpt lat="48.417911" lon="2.671109"><ele></ele><time>2023-8-15T10:58:53Z</time></trkpt>
<trkpt lat="48.417884" lon="2.670913"><ele></ele><time>2023-8-15T10:58:56Z</time></trkpt>
<trkpt lat="48.41787" lon="2.670738"><ele></ele><time>2023-8-15T10:58:59Z</time></trkpt>
<trkpt lat="48.417836" lon="2.670532"><ele></ele><time>2023-8-15T10:59:2Z</time></trkpt>
<trkpt lat="48.417811" lon="2.670344"><ele></ele><time>2023-8-15T10:59:5Z</time></trkpt>
<trkpt lat="48.417801" lon="2.670169"><ele></ele><time>2023-8-15T10:59:8Z</time></trkpt>
<trkpt lat="48.417776" lon="2.66998"><ele></ele><time>2023-8-15T10:59:11Z</time></trkpt>
<trkpt lat="48.417738" lon="2.669773"><ele></ele><time>2023-8-15T10:59:14Z</time></trkpt>
<trkpt lat="48.417666" lon="2.669552"><ele></ele><time>2023-8-15T10:59:17Z</time></trkpt>
<trkpt lat="48.417658" lon="2.669414"><ele></ele><time>2023-8-15T10:59:20Z</time></trkpt>
<trkpt lat="48.417641" lon="2.669277"><ele></ele><time>2023-8-15T10:59:23Z</time></trkpt>
<trkpt lat="48.417616" lon="2.669141"><ele></ele><time>2023-8-15T10:59:26Z</time></trkpt>
<trkpt lat="48.4176" lon="2.668994"><ele></ele><time>2023-8-15T10:59:29Z</time></trkpt>
<trkpt lat="48.417571" lon="2.668847"><ele></ele><time>2023-8-15T10:59:32Z</time></trkpt>
<trkpt lat="48.417538" lon="2.668702"><ele></ele><time>2023-8-15T10:59:35Z</time></trkpt>
<trkpt lat="48.41752" lon="2.668534"><ele></ele><time>2023-8-15T10:59:38Z</time></trkpt>
<trkpt lat="48.417513" lon="2.668371"><ele></ele><time>2023-8-15T10:59:41Z</time></trkpt>
<trkpt lat="48.417504" lon="2.668231"><ele></ele><time>2023-8-15T10:59:44Z</time></trkpt>
<trkpt lat="48.417491" lon="2.667999"><ele></ele><time>2023-8-15T10:59:47Z</time></trkpt>
<trkpt lat="48.417448" lon="2.667818"><ele></ele><time>2023-8-15T10:59:50Z</time></trkpt>
<trkpt lat="48.417403" lon="2.667685"><ele></ele><time>2023-8-15T10:59:53Z</time></trkpt>
<trkpt lat="48.417335" lon="2.667589"><ele></ele><time>2023-8-15T10:59:56Z</time></trkpt>
<trkpt lat="48.417293" lon="2.667469"><ele></ele><time>2023-8-15T10:59:59Z</time></trkpt>
<trkpt lat="48.41727" lon="2.667325"><ele></ele><time>2023-8-15T11:0:2Z</time></trkpt>
<trkpt lat="48.417259" lon="2.667185"><ele></ele><time>2023-8-15T11:0:5Z</time></trkpt>
<trkpt lat="48.417236" lon="2.66705"><ele></ele><time>2023-8-15T11:0:8Z</time></trkpt>
<trkpt lat="48.417187" lon="2.666906"><ele></ele><time>2023-8-15T11:0:11Z</time></trkpt>
<trkpt lat="48.417138" lon="2.666763"><ele></ele><time>2023-8-15T11:0:14Z</time></trkpt>
<trkpt lat="48.417111" lon="2.666632"><ele></ele><time>2023-8-15T11:0:17Z</time></trkpt>
<trkpt lat="48.417076" lon="2.666486"><ele></ele><time>2023-8-15T11:0:20Z</time></trkpt>
<trkpt lat="48.417007" lon="2.66636"><ele></ele><time>2023-8-15T11:0:23Z</time></trkpt>
<trkpt lat="48.416969" lon="2.666226"><ele></ele><time>2023-8-15T11:0:26Z</time></trkpt>
<trkpt lat="48.416937" lon="2.666072"><ele></ele><time>2023-8-15T11:0:29Z</time></trkpt>
<trkpt lat="48.416908" lon="2.665909"><ele></ele><time>2023-8-15T11:0:32Z</time></trkpt>
<trkpt lat="48.416869" lon="2.665761"><ele></ele><time>2023-8-15T11:0:35Z</time></trkpt>
<trkpt lat="48.416821" lon="2.665545"><ele></ele><time>2023-8-15T11:0:38Z</time></trkpt>
<trkpt lat="48.416795" lon="2.665397"><ele></ele><time>2023-8-15T11:0:41Z</time></trkpt>
<trkpt lat="48.416756" lon="2.665214"><ele></ele><time>2023-8-15T11:0:44Z</time></trkpt>
<trkpt lat="48.416707" lon="2.665063"><ele></ele><time>2023-8-15T11:0:47Z</time></trkpt>
<trkpt lat="48.416669" lon="2.664927"><ele></ele><time>2023-8-15T11:0:50Z</time></trkpt>
<trkpt lat="48.416602" lon="2.664754"><ele></ele><time>2023-8-15T11:0:53Z</time></trkpt>
<trkpt lat="48.416549" lon="2.664627"><ele></ele><time>2023-8-15T11:0:56Z</time></trkpt>
<trkpt lat="48.416487" lon="2.664499"><ele></ele><time>2023-8-15T11:0:59Z</time></trkpt>
<trkpt lat="48.41644" lon="2.664343"><ele></ele><time>2023-8-15T11:1:2Z</time></trkpt>
<trkpt lat="48.416363" lon="2.664243"><ele></ele><time>2023-8-15T11:1:5Z</time></trkpt>
<trkpt lat="48.416286" lon="2.664092"><ele></ele><time>2023-8-15T11:1:8Z</time></trkpt>
<trkpt lat="48.416182" lon="2.66396"><ele></ele><time>2023-8-15T11:1:11Z</time></trkpt>
<trkpt lat="48.416127" lon="2.66384"><ele></ele><time>2023-8-15T11:1:14Z</time></trkpt>
<trkpt lat="48.416054" lon="2.663744"><ele></ele><time>2023-8-15T11:1:17Z</time></trkpt>
<trkpt lat="48.415991" lon="2.663644"><ele></ele><time>2023-8-15T11:1:20Z</time></trkpt>
<trkpt lat="48.415951" lon="2.663516"><ele></ele><time>2023-8-15T11:1:23Z</time></trkpt>
<trkpt lat="48.41586" lon="2.663375"><ele></ele><time>2023-8-15T11:1:26Z</time></trkpt>
<trkpt lat="48.415774" lon="2.663294"><ele></ele><time>2023-8-15T11:1:29Z</time></trkpt>
<trkpt lat="48.415682" lon="2.663173"><ele></ele><time>2023-8-15T11:1:32Z</time></trkpt>
<trkpt lat="48.415622" lon="2.663052"><ele></ele><time>2023-8-15T11:1:35Z</time></trkpt>
<trkpt lat="48.415551" lon="2.662957"><ele></ele><time>2023-8-15T11:1:38Z</time></trkpt>
<trkpt lat="48.415457" lon="2.662816"><ele></ele><time>2023-8-15T11:1:41Z</time></trkpt>
<trkpt lat="48.415397" lon="2.662694"><ele></ele><time>2023-8-15T11:1:44Z</time></trkpt>
<trkpt lat="48.415327" lon="2.66257"><ele></ele><time>2023-8-15T11:1:47Z</time></trkpt>
<trkpt lat="48.415256" lon="2.662459"><ele></ele><time>2023-8-15T11:1:50Z</time></trkpt>
<trkpt lat="48.415176" lon="2.662337"><ele></ele><time>2023-8-15T11:1:53Z</time></trkpt>
<trkpt lat="48.415114" lon="2.662222"><ele></ele><time>2023-8-15T11:1:56Z</time></trkpt>
<trkpt lat="48.415048" lon="2.66206"><ele></ele><time>2023-8-15T11:1:59Z</time></trkpt>
<trkpt lat="48.414967" lon="2.661899"><ele></ele><time>2023-8-15T11:2:2Z</time></trkpt>
<trkpt lat="48.414891" lon="2.661779"><ele></ele><time>2023-8-15T11:2:5Z</time></trkpt>
<trkpt lat="48.414819" lon="2.66161"><ele></ele><time>2023-8-15T11:2:8Z</time></trkpt>
<trkpt lat="48.414749" lon="2.661483"><ele></ele><time>2023-8-15T11:2:11Z</time></trkpt>
<trkpt lat="48.414696" lon="2.661362"><ele></ele><time>2023-8-15T11:2:14Z</time></trkpt>
<trkpt lat="48.414594" lon="2.661239"><ele></ele><time>2023-8-15T11:2:17Z</time></trkpt>
<trkpt lat="48.414496" lon="2.661109"><ele></ele><time>2023-8-15T11:2:20Z</time></trkpt>
<trkpt lat="48.41443" lon="2.66095"><ele></ele><time>2023-8-15T11:2:23Z</time></trkpt>
<trkpt lat="48.414363" lon="2.660835"><ele></ele><time>2023-8-15T11:2:26Z</time></trkpt>
<trkpt lat="48.414255" lon="2.660712"><ele></ele><time>2023-8-15T11:2:29Z</time></trkpt>
<trkpt lat="48.414174" lon="2.660614"><ele></ele><time>2023-8-15T11:2:32Z</time></trkpt>
<trkpt lat="48.414115" lon="2.660477"><ele></ele><time>2023-8-15T11:2:35Z</time></trkpt>
<trkpt lat="48.414049" lon="2.660333"><ele></ele><time>2023-8-15T11:2:38Z</time></trkpt>
<trkpt lat="48.413987" lon="2.660176"><ele></ele><time>2023-8-15T11:2:41Z</time></trkpt>
<trkpt lat="48.413909" lon="2.660057"><ele></ele><time>2023-8-15T11:2:44Z</time></trkpt>
<trkpt lat="48.413826" lon="2.659963"><ele></ele><time>2023-8-15T11:2:47Z</time></trkpt>
<trkpt lat="48.413728" lon="2.659844"><ele></ele><time>2023-8-15T11:2:50Z</time></trkpt>
<trkpt lat="48.413656" lon="2.659742"><ele></ele><time>2023-8-15T11:2:53Z</time></trkpt>
<trkpt lat="48.413573" lon="2.659557"><ele></ele><time>2023-8-15T11:2:56Z</time></trkpt>
<trkpt lat="48.413504" lon="2.65946"><ele></ele><time>2023-8-15T11:2:59Z</time></trkpt>
<trkpt lat="48.413419" lon="2.659317"><ele></ele><time>2023-8-15T11:3:2Z</time></trkpt>
<trkpt lat="48.413342" lon="2.659161"><ele></ele><time>2023-8-15T11:3:5Z</time></trkpt>
<trkpt lat="48.413274" lon="2.659014"><ele></ele><time>2023-8-15T11:3:8Z</time></trkpt>
<trkpt lat="48.413217" lon="2.658891"><ele></ele><time>2023-8-15T11:3:11Z</time></trkpt>
<trkpt lat="48.413146" lon="2.658791"><ele></ele><time>2023-8-15T11:3:14Z</time></trkpt>
<trkpt lat="48.413056" lon="2.658657"><ele></ele><time>2023-8-15T11:3:17Z</time></trkpt>
<trkpt lat="48.412985" lon="2.658542"><ele></ele><time>2023-8-15T11:3:20Z</time></trkpt>
<trkpt lat="48.412903" lon="2.658412"><ele></ele><time>2023-8-15T11:3:23Z</time></trkpt>
<trkpt lat="48.412828" lon="2.658298"><ele></ele><time>2023-8-15T11:3:26Z</time></trkpt>
<trkpt lat="48.412753" lon="2.658186"><ele></ele><time>2023-8-15T11:3:29Z</time></trkpt>
<trkpt lat="48.412669" lon="2.658043"><ele></ele><time>2023-8-15T11:3:32Z</time></trkpt>
<trkpt lat="48.412598" lon="2.657916"><ele></ele><time>2023-8-15T11:3:35Z</time></trkpt>
<trkpt lat="48.412509" lon="2.65781"><ele></ele><time>2023-8-15T11:3:38Z</time></trkpt>
<trkpt lat="48.412405" lon="2.657631"><ele></ele><time>2023-8-15T11:3:41Z</time></trkpt>
<trkpt lat="48.412314" lon="2.657492"><ele></ele><time>2023-8-15T11:3:44Z</time></trkpt>
<trkpt lat="48.412218" lon="2.657323"><ele></ele><time>2023-8-15T11:3:47Z</time></trkpt>
<trkpt lat="48.412166" lon="2.657206"><ele></ele><time>2023-8-15T11:3:50Z</time></trkpt>
<trkpt lat="48.412106" lon="2.657081"><ele></ele><time>2023-8-15T11:3:53Z</time></trkpt>
<trkpt lat="48.412034" lon="2.656987"><ele></ele><time>2023-8-15T11:3:56Z</time></trkpt>
<trkpt lat="48.411969" lon="2.656871"><ele></ele><time>2023-8-15T11:3:59Z</time></trkpt>
<trkpt lat="48.411888" lon="2.656801"><ele></ele><time>2023-8-15T11:4:2Z</time></trkpt>
<trkpt lat="48.411852" lon="2.656629"><ele></ele><time>2023-8-15T11:4:5Z</time></trkpt>
<trkpt lat="48.411756" lon="2.656676"><ele></ele><time>2023-8-15T11:4:8Z</time></trkpt>
<trkpt lat="48.411757" lon="2.656687"><ele></ele><time>2023-8-15T11:4:11Z</time></trkpt>
<trkpt lat="48.411748" lon="2.656688"><ele></ele><time>2023-8-15T11:4:14Z</time></trkpt>
<trkpt lat="48.41167" lon="2.656815"><ele></ele><time>2023-8-15T11:4:17Z</time></trkpt>
<trkpt lat="48.411609" lon="2.656964"><ele></ele><time>2023-8-15T11:4:20Z</time></trkpt>
<trkpt lat="48.411576" lon="2.657093"><ele></ele><time>2023-8-15T11:4:23Z</time></trkpt>
<trkpt lat="48.411498" lon="2.657213"><ele></ele><time>2023-8-15T11:4:26Z</time></trkpt>
<trkpt lat="48.411433" lon="2.657373"><ele></ele><time>2023-8-15T11:4:29Z</time></trkpt>
<trkpt lat="48.411377" lon="2.657494"><ele></ele><time>2023-8-15T11:4:32Z</time></trkpt>
<trkpt lat="48.411318" lon="2.657606"><ele></ele><time>2023-8-15T11:4:35Z</time></trkpt>
<trkpt lat="48.411254" lon="2.657733"><ele></ele><time>2023-8-15T11:4:38Z</time></trkpt>
<trkpt lat="48.411194" lon="2.657847"><ele></ele><time>2023-8-15T11:4:41Z</time></trkpt>
<trkpt lat="48.411127" lon="2.657975"><ele></ele><time>2023-8-15T11:4:44Z</time></trkpt>
<trkpt lat="48.411049" lon="2.658108"><ele></ele><time>2023-8-15T11:4:47Z</time></trkpt>
<trkpt lat="48.410971" lon="2.658238"><ele></ele><time>2023-8-15T11:4:50Z</time></trkpt>
<trkpt lat="48.410901" lon="2.658373"><ele></ele><time>2023-8-15T11:4:53Z</time></trkpt>
<trkpt lat="48.410844" lon="2.658484"><ele></ele><time>2023-8-15T11:4:56Z</time></trkpt>
<trkpt lat="48.410753" lon="2.658626"><ele></ele><time>2023-8-15T11:4:59Z</time></trkpt>
<trkpt lat="48.4107" lon="2.658745"><ele></ele><time>2023-8-15T11:5:2Z</time></trkpt>
<trkpt lat="48.410647" lon="2.658892"><ele></ele><time>2023-8-15T11:5:5Z</time></trkpt>
<trkpt lat="48.410575" lon="2.659059"><ele></ele><time>2023-8-15T11:5:8Z</time></trkpt>
<trkpt lat="48.410513" lon="2.659176"><ele></ele><time>2023-8-15T11:5:11Z</time></trkpt>
<trkpt lat="48.41045" lon="2.659312"><ele></ele><time>2023-8-15T11:5:14Z</time></trkpt>
<trkpt lat="48.410384" lon="2.659417"><ele></ele><time>2023-8-15T11:5:17Z</time></trkpt>
<trkpt lat="48.410305" lon="2.659541"><ele></ele><time>2023-8-15T11:5:20Z</time></trkpt>
<trkpt lat="48.410244" lon="2.659652"><ele></ele><time>2023-8-15T11:5:23Z</time></trkpt>
<trkpt lat="48.410198" lon="2.659769"><ele></ele><time>2023-8-15T11:5:26Z</time></trkpt>
<trkpt lat="48.410123" lon="2.659936"><ele></ele><time>2023-8-15T11:5:29Z</time></trkpt>
<trkpt lat="48.410051" lon="2.660083"><ele></ele><time>2023-8-15T11:5:32Z</time></trkpt>
<trkpt lat="48.409974" lon="2.660187"><ele></ele><time>2023-8-15T11:5:35Z</time></trkpt>
<trkpt lat="48.409927" lon="2.660305"><ele></ele><time>2023-8-15T11:5:38Z</time></trkpt>
<trkpt lat="48.409859" lon="2.660475"><ele></ele><time>2023-8-15T11:5:41Z</time></trkpt>
<trkpt lat="48.409791" lon="2.660585"><ele></ele><time>2023-8-15T11:5:44Z</time></trkpt>
<trkpt lat="48.409731" lon="2.660711"><ele></ele><time>2023-8-15T11:5:47Z</time></trkpt>
<trkpt lat="48.40966" lon="2.660818"><ele></ele><time>2023-8-15T11:5:50Z</time></trkpt>
<trkpt lat="48.409605" lon="2.660932"><ele></ele><time>2023-8-15T11:5:53Z</time></trkpt>
<trkpt lat="48.409516" lon="2.66107"><ele></ele><time>2023-8-15T11:5:56Z</time></trkpt>
<trkpt lat="48.409451" lon="2.661229"><ele></ele><time>2023-8-15T11:5:59Z</time></trkpt>
<trkpt lat="48.409407" lon="2.661373"><ele></ele><time>2023-8-15T11:6:2Z</time></trkpt>
<trkpt lat="48.409328" lon="2.661509"><ele></ele><time>2023-8-15T11:6:5Z</time></trkpt>
<trkpt lat="48.409253" lon="2.661613"><ele></ele><time>2023-8-15T11:6:8Z</time></trkpt>
<trkpt lat="48.409173" lon="2.661739"><ele></ele><time>2023-8-15T11:6:11Z</time></trkpt>
<trkpt lat="48.409106" lon="2.661838"><ele></ele><time>2023-8-15T11:6:14Z</time></trkpt>
<trkpt lat="48.409063" lon="2.661989"><ele></ele><time>2023-8-15T11:6:17Z</time></trkpt>
<trkpt lat="48.408986" lon="2.662112"><ele></ele><time>2023-8-15T11:6:20Z</time></trkpt>
<trkpt lat="48.408926" lon="2.662233"><ele></ele><time>2023-8-15T11:6:23Z</time></trkpt>
<trkpt lat="48.408869" lon="2.662363"><ele></ele><time>2023-8-15T11:6:26Z</time></trkpt>
<trkpt lat="48.408842" lon="2.662499"><ele></ele><time>2023-8-15T11:6:29Z</time></trkpt>
<trkpt lat="48.408754" lon="2.662628"><ele></ele><time>2023-8-15T11:6:32Z</time></trkpt>
<trkpt lat="48.408681" lon="2.662768"><ele></ele><time>2023-8-15T11:6:35Z</time></trkpt>
<trkpt lat="48.40862" lon="2.662919"><ele></ele><time>2023-8-15T11:6:38Z</time></trkpt>
<trkpt lat="48.408542" lon="2.663072"><ele></ele><time>2023-8-15T11:6:41Z</time></trkpt>
<trkpt lat="48.408455" lon="2.66322"><ele></ele><time>2023-8-15T11:6:44Z</time></trkpt>
<trkpt lat="48.408374" lon="2.663341"><ele></ele><time>2023-8-15T11:6:47Z</time></trkpt>
<trkpt lat="48.408317" lon="2.663476"><ele></ele><time>2023-8-15T11:6:50Z</time></trkpt>
<trkpt lat="48.408266" lon="2.6636"><ele></ele><time>2023-8-15T11:6:53Z</time></trkpt>
<trkpt lat="48.408197" lon="2.663699"><ele></ele><time>2023-8-15T11:6:56Z</time></trkpt>
<trkpt lat="48.40815" lon="2.663846"><ele></ele><time>2023-8-15T11:6:59Z</time></trkpt>
<trkpt lat="48.408065" lon="2.663967"><ele></ele><time>2023-8-15T11:7:2Z</time></trkpt>
<trkpt lat="48.408027" lon="2.664073"><ele></ele><time>2023-8-15T11:7:5Z</time></trkpt>
<trkpt lat="48.408029" lon="2.664069"><ele></ele><time>2023-8-15T11:7:8Z</time></trkpt>
<trkpt lat="48.408033" lon="2.664058"><ele></ele><time>2023-8-15T11:7:11Z</time></trkpt>
<trkpt lat="48.408035" lon="2.664058"><ele></ele><time>2023-8-15T11:7:14Z</time></trkpt>
<trkpt lat="48.40805" lon="2.664121"><ele></ele><time>2023-8-15T11:7:17Z</time></trkpt>
<trkpt lat="48.408051" lon="2.664119"><ele></ele><time>2023-8-15T11:7:20Z</time></trkpt>
<trkpt lat="48.408066" lon="2.66398"><ele></ele><time>2023-8-15T11:7:23Z</time></trkpt>
<trkpt lat="48.408067" lon="2.663978"><ele></ele><time>2023-8-15T11:7:26Z</time></trkpt>
<trkpt lat="48.408068" lon="2.663974"><ele></ele><time>2023-8-15T11:7:29Z</time></trkpt>
<trkpt lat="48.40806" lon="2.663838"><ele></ele><time>2023-8-15T11:7:32Z</time></trkpt>
<trkpt lat="48.408012" lon="2.663708"><ele></ele><time>2023-8-15T11:7:35Z</time></trkpt>
<trkpt lat="48.407982" lon="2.663574"><ele></ele><time>2023-8-15T11:7:38Z</time></trkpt>
<trkpt lat="48.408015" lon="2.663443"><ele></ele><time>2023-8-15T11:7:41Z</time></trkpt>
<trkpt lat="48.40802" lon="2.663294"><ele></ele><time>2023-8-15T11:7:44Z</time></trkpt>
<trkpt lat="48.408012" lon="2.663148"><ele></ele><time>2023-8-15T11:7:47Z</time></trkpt>
<trkpt lat="48.408028" lon="2.663013"><ele></ele><time>2023-8-15T11:7:50Z</time></trkpt>
<trkpt lat="48.408046" lon="2.662803"><ele></ele><time>2023-8-15T11:7:53Z</time></trkpt>
<trkpt lat="48.408028" lon="2.662646"><ele></ele><time>2023-8-15T11:7:56Z</time></trkpt>
<trkpt lat="48.408002" lon="2.662516"><ele></ele><time>2023-8-15T11:7:59Z</time></trkpt>
<trkpt lat="48.407991" lon="2.66238"><ele></ele><time>2023-8-15T11:8:2Z</time></trkpt>
<trkpt lat="48.407956" lon="2.662191"><ele></ele><time>2023-8-15T11:8:5Z</time></trkpt>
<trkpt lat="48.407928" lon="2.662056"><ele></ele><time>2023-8-15T11:8:8Z</time></trkpt>
<trkpt lat="48.407887" lon="2.661913"><ele></ele><time>2023-8-15T11:8:11Z</time></trkpt>
<trkpt lat="48.407846" lon="2.661787"><ele></ele><time>2023-8-15T11:8:14Z</time></trkpt>
<trkpt lat="48.407793" lon="2.661644"><ele></ele><time>2023-8-15T11:8:17Z</time></trkpt>
<trkpt lat="48.407748" lon="2.661507"><ele></ele><time>2023-8-15T11:8:20Z</time></trkpt>
<trkpt lat="48.407723" lon="2.661368"><ele></ele><time>2023-8-15T11:8:23Z</time></trkpt>
<trkpt lat="48.407697" lon="2.661184"><ele></ele><time>2023-8-15T11:8:26Z</time></trkpt>
<trkpt lat="48.407687" lon="2.661018"><ele></ele><time>2023-8-15T11:8:29Z</time></trkpt>
<trkpt lat="48.407681" lon="2.660851"><ele></ele><time>2023-8-15T11:8:32Z</time></trkpt>
<trkpt lat="48.407655" lon="2.660693"><ele></ele><time>2023-8-15T11:8:35Z</time></trkpt>
<trkpt lat="48.407623" lon="2.660557"><ele></ele><time>2023-8-15T11:8:38Z</time></trkpt>
<trkpt lat="48.407594" lon="2.66041"><ele></ele><time>2023-8-15T11:8:41Z</time></trkpt>
<trkpt lat="48.407597" lon="2.660227"><ele></ele><time>2023-8-15T11:8:44Z</time></trkpt>
<trkpt lat="48.40755" lon="2.660105"><ele></ele><time>2023-8-15T11:8:47Z</time></trkpt>
<trkpt lat="48.407523" lon="2.65997"><ele></ele><time>2023-8-15T11:8:50Z</time></trkpt>
<trkpt lat="48.407507" lon="2.659798"><ele></ele><time>2023-8-15T11:8:53Z</time></trkpt>
<trkpt lat="48.40756" lon="2.659655"><ele></ele><time>2023-8-15T11:8:56Z</time></trkpt>
<trkpt lat="48.407579" lon="2.659469"><ele></ele><time>2023-8-15T11:8:59Z</time></trkpt>
<trkpt lat="48.407575" lon="2.659287"><ele></ele><time>2023-8-15T11:9:2Z</time></trkpt>
<trkpt lat="48.40757" lon="2.65908"><ele></ele><time>2023-8-15T11:9:5Z</time></trkpt>
<trkpt lat="48.407589" lon="2.658937"><ele></ele><time>2023-8-15T11:9:8Z</time></trkpt>
<trkpt lat="48.40762" lon="2.658788"><ele></ele><time>2023-8-15T11:9:11Z</time></trkpt>
<trkpt lat="48.407636" lon="2.658645"><ele></ele><time>2023-8-15T11:9:14Z</time></trkpt>
<trkpt lat="48.407668" lon="2.658488"><ele></ele><time>2023-8-15T11:9:17Z</time></trkpt>
<trkpt lat="48.407739" lon="2.658343"><ele></ele><time>2023-8-15T11:9:20Z</time></trkpt>
<trkpt lat="48.407786" lon="2.65814"><ele></ele><time>2023-8-15T11:9:23Z</time></trkpt>
<trkpt lat="48.407792" lon="2.657974"><ele></ele><time>2023-8-15T11:9:26Z</time></trkpt>
<trkpt lat="48.407813" lon="2.657834"><ele></ele><time>2023-8-15T11:9:29Z</time></trkpt>
<trkpt lat="48.407829" lon="2.657687"><ele></ele><time>2023-8-15T11:9:32Z</time></trkpt>
<trkpt lat="48.407829" lon="2.657542"><ele></ele><time>2023-8-15T11:9:35Z</time></trkpt>
<trkpt lat="48.407813" lon="2.657358"><ele></ele><time>2023-8-15T11:9:38Z</time></trkpt>
<trkpt lat="48.40783" lon="2.657194"><ele></ele><time>2023-8-15T11:9:41Z</time></trkpt>
<trkpt lat="48.407892" lon="2.657031"><ele></ele><time>2023-8-15T11:9:44Z</time></trkpt>
<trkpt lat="48.407929" lon="2.656862"><ele></ele><time>2023-8-15T11:9:47Z</time></trkpt>
<trkpt lat="48.407948" lon="2.656701"><ele></ele><time>2023-8-15T11:9:50Z</time></trkpt>
<trkpt lat="48.407975" lon="2.656569"><ele></ele><time>2023-8-15T11:9:53Z</time></trkpt>
<trkpt lat="48.407942" lon="2.656427"><ele></ele><time>2023-8-15T11:9:56Z</time></trkpt>
<trkpt lat="48.407921" lon="2.656244"><ele></ele><time>2023-8-15T11:9:59Z</time></trkpt>
<trkpt lat="48.407924" lon="2.656106"><ele></ele><time>2023-8-15T11:10:2Z</time></trkpt>
<trkpt lat="48.407891" lon="2.655896"><ele></ele><time>2023-8-15T11:10:5Z</time></trkpt>
<trkpt lat="48.407883" lon="2.655737"><ele></ele><time>2023-8-15T11:10:8Z</time></trkpt>
<trkpt lat="48.407818" lon="2.655575"><ele></ele><time>2023-8-15T11:10:11Z</time></trkpt>
<trkpt lat="48.407746" lon="2.655461"><ele></ele><time>2023-8-15T11:10:14Z</time></trkpt>
<trkpt lat="48.407686" lon="2.655352"><ele></ele><time>2023-8-15T11:10:17Z</time></trkpt>
<trkpt lat="48.407627" lon="2.655247"><ele></ele><time>2023-8-15T11:10:20Z</time></trkpt>
<trkpt lat="48.40758" lon="2.655104"><ele></ele><time>2023-8-15T11:10:23Z</time></trkpt>
<trkpt lat="48.407573" lon="2.654922"><ele></ele><time>2023-8-15T11:10:26Z</time></trkpt>
<trkpt lat="48.407604" lon="2.65474"><ele></ele><time>2023-8-15T11:10:29Z</time></trkpt>
<trkpt lat="48.407686" lon="2.654603"><ele></ele><time>2023-8-15T11:10:32Z</time></trkpt>
<trkpt lat="48.407763" lon="2.654419"><ele></ele><time>2023-8-15T11:10:35Z</time></trkpt>
<trkpt lat="48.407773" lon="2.654258"><ele></ele><time>2023-8-15T11:10:38Z</time></trkpt>
<trkpt lat="48.407813" lon="2.654062"><ele></ele><time>2023-8-15T11:10:41Z</time></trkpt>
<trkpt lat="48.4078" lon="2.653926"><ele></ele><time>2023-8-15T11:10:44Z</time></trkpt>
<trkpt lat="48.407784" lon="2.653781"><ele></ele><time>2023-8-15T11:10:47Z</time></trkpt>
<trkpt lat="48.407747" lon="2.653608"><ele></ele><time>2023-8-15T11:10:50Z</time></trkpt>
<trkpt lat="48.407761" lon="2.653471"><ele></ele><time>2023-8-15T11:10:53Z</time></trkpt>
<trkpt lat="48.407786" lon="2.653336"><ele></ele><time>2023-8-15T11:10:56Z</time></trkpt>
<trkpt lat="48.407815" lon="2.653139"><ele></ele><time>2023-8-15T11:10:59Z</time></trkpt>
<trkpt lat="48.407796" lon="2.652939"><ele></ele><time>2023-8-15T11:11:2Z</time></trkpt>
<trkpt lat="48.407774" lon="2.652757"><ele></ele><time>2023-8-15T11:11:5Z</time></trkpt>
<trkpt lat="48.407806" lon="2.652621"><ele></ele><time>2023-8-15T11:11:8Z</time></trkpt>
<trkpt lat="48.407841" lon="2.652484"><ele></ele><time>2023-8-15T11:11:11Z</time></trkpt>
<trkpt lat="48.40788" lon="2.652347"><ele></ele><time>2023-8-15T11:11:14Z</time></trkpt>
<trkpt lat="48.407905" lon="2.652164"><ele></ele><time>2023-8-15T11:11:17Z</time></trkpt>
<trkpt lat="48.40786" lon="2.651948"><ele></ele><time>2023-8-15T11:11:20Z</time></trkpt>
<trkpt lat="48.407827" lon="2.651819"><ele></ele><time>2023-8-15T11:11:23Z</time></trkpt>
<trkpt lat="48.407883" lon="2.651669"><ele></ele><time>2023-8-15T11:11:26Z</time></trkpt>
<trkpt lat="48.40788" lon="2.651508"><ele></ele><time>2023-8-15T11:11:29Z</time></trkpt>
<trkpt lat="48.407868" lon="2.65136"><ele></ele><time>2023-8-15T11:11:32Z</time></trkpt>
<trkpt lat="48.407772" lon="2.651217"><ele></ele><time>2023-8-15T11:11:35Z</time></trkpt>
<trkpt lat="48.407653" lon="2.651098"><ele></ele><time>2023-8-15T11:11:38Z</time></trkpt>
<trkpt lat="48.407566" lon="2.651005"><ele></ele><time>2023-8-15T11:11:41Z</time></trkpt>
<trkpt lat="48.407456" lon="2.650892"><ele></ele><time>2023-8-15T11:11:44Z</time></trkpt>
<trkpt lat="48.407373" lon="2.650785"><ele></ele><time>2023-8-15T11:11:47Z</time></trkpt>
<trkpt lat="48.407299" lon="2.650683"><ele></ele><time>2023-8-15T11:11:50Z</time></trkpt>
<trkpt lat="48.40721" lon="2.650587"><ele></ele><time>2023-8-15T11:11:53Z</time></trkpt>
<trkpt lat="48.407149" lon="2.650485"><ele></ele><time>2023-8-15T11:11:56Z</time></trkpt>
<trkpt lat="48.407133" lon="2.650319"><ele></ele><time>2023-8-15T11:11:59Z</time></trkpt>
<trkpt lat="48.407055" lon="2.650185"><ele></ele><time>2023-8-15T11:12:2Z</time></trkpt>
<trkpt lat="48.40697" lon="2.650091"><ele></ele><time>2023-8-15T11:12:5Z</time></trkpt>
<trkpt lat="48.40689" lon="2.649913"><ele></ele><time>2023-8-15T11:12:8Z</time></trkpt>
<trkpt lat="48.406837" lon="2.649794"><ele></ele><time>2023-8-15T11:12:11Z</time></trkpt>
<trkpt lat="48.406788" lon="2.64966"><ele></ele><time>2023-8-15T11:12:14Z</time></trkpt>
<trkpt lat="48.406685" lon="2.64953"><ele></ele><time>2023-8-15T11:12:17Z</time></trkpt>
<trkpt lat="48.406626" lon="2.649419"><ele></ele><time>2023-8-15T11:12:20Z</time></trkpt>
<trkpt lat="48.406616" lon="2.649278"><ele></ele><time>2023-8-15T11:12:23Z</time></trkpt>
<trkpt lat="48.406618" lon="2.649114"><ele></ele><time>2023-8-15T11:12:26Z</time></trkpt>
<trkpt lat="48.406565" lon="2.648994"><ele></ele><time>2023-8-15T11:12:29Z</time></trkpt>
<trkpt lat="48.40659" lon="2.648844"><ele></ele><time>2023-8-15T11:12:32Z</time></trkpt>
<trkpt lat="48.406552" lon="2.648672"><ele></ele><time>2023-8-15T11:12:35Z</time></trkpt>
<trkpt lat="48.40651" lon="2.648533"><ele></ele><time>2023-8-15T11:12:38Z</time></trkpt>
<trkpt lat="48.406468" lon="2.648405"><ele></ele><time>2023-8-15T11:12:41Z</time></trkpt>
<trkpt lat="48.406421" lon="2.648283"><ele></ele><time>2023-8-15T11:12:44Z</time></trkpt>
<trkpt lat="48.406353" lon="2.648164"><ele></ele><time>2023-8-15T11:12:47Z</time></trkpt>
<trkpt lat="48.406217" lon="2.648118"><ele></ele><time>2023-8-15T11:12:50Z</time></trkpt>
<trkpt lat="48.406119" lon="2.648101"><ele></ele><time>2023-8-15T11:12:53Z</time></trkpt>
<trkpt lat="48.406003" lon="2.648021"><ele></ele><time>2023-8-15T11:12:56Z</time></trkpt>
<trkpt lat="48.405883" lon="2.64798"><ele></ele><time>2023-8-15T11:12:59Z</time></trkpt>
<trkpt lat="48.405775" lon="2.647926"><ele></ele><time>2023-8-15T11:13:2Z</time></trkpt>
<trkpt lat="48.405671" lon="2.647888"><ele></ele><time>2023-8-15T11:13:5Z</time></trkpt>
<trkpt lat="48.405556" lon="2.647864"><ele></ele><time>2023-8-15T11:13:8Z</time></trkpt>
<trkpt lat="48.405444" lon="2.647806"><ele></ele><time>2023-8-15T11:13:11Z</time></trkpt>
<trkpt lat="48.405342" lon="2.647776"><ele></ele><time>2023-8-15T11:13:14Z</time></trkpt>
<trkpt lat="48.405243" lon="2.647739"><ele></ele><time>2023-8-15T11:13:17Z</time></trkpt>
<trkpt lat="48.40512" lon="2.647751"><ele></ele><time>2023-8-15T11:13:20Z</time></trkpt>
<trkpt lat="48.405041" lon="2.647678"><ele></ele><time>2023-8-15T11:13:23Z</time></trkpt>
<trkpt lat="48.404951" lon="2.647659"><ele></ele><time>2023-8-15T11:13:26Z</time></trkpt>
<trkpt lat="48.404858" lon="2.647594"><ele></ele><time>2023-8-15T11:13:29Z</time></trkpt>
<trkpt lat="48.404762" lon="2.64756"><ele></ele><time>2023-8-15T11:13:32Z</time></trkpt>
<trkpt lat="48.404671" lon="2.647514"><ele></ele><time>2023-8-15T11:13:35Z</time></trkpt>
<trkpt lat="48.404581" lon="2.647432"><ele></ele><time>2023-8-15T11:13:38Z</time></trkpt>
<trkpt lat="48.404517" lon="2.647333"><ele></ele><time>2023-8-15T11:13:41Z</time></trkpt>
<trkpt lat="48.404446" lon="2.647276"><ele></ele><time>2023-8-15T11:13:44Z</time></trkpt>
<trkpt lat="48.404444" lon="2.647279"><ele></ele><time>2023-8-15T11:13:47Z</time></trkpt>
<trkpt lat="48.40442" lon="2.647286"><ele></ele><time>2023-8-15T11:13:50Z</time></trkpt>
<trkpt lat="48.404418" lon="2.647282"><ele></ele><time>2023-8-15T11:13:53Z</time></trkpt>
<trkpt lat="48.404351" lon="2.64718"><ele></ele><time>2023-8-15T11:13:56Z</time></trkpt>
<trkpt lat="48.404289" lon="2.647097"><ele></ele><time>2023-8-15T11:13:59Z</time></trkpt>
<trkpt lat="48.404292" lon="2.647099"><ele></ele><time>2023-8-15T11:14:2Z</time></trkpt>
<trkpt lat="48.4043" lon="2.647244"><ele></ele><time>2023-8-15T11:14:5Z</time></trkpt>
<trkpt lat="48.404246" lon="2.647354"><ele></ele><time>2023-8-15T11:14:8Z</time></trkpt>
<trkpt lat="48.404188" lon="2.647462"><ele></ele><time>2023-8-15T11:14:11Z</time></trkpt>
<trkpt lat="48.404113" lon="2.647623"><ele></ele><time>2023-8-15T11:14:14Z</time></trkpt>
<trkpt lat="48.404053" lon="2.647725"><ele></ele><time>2023-8-15T11:14:17Z</time></trkpt>
<trkpt lat="48.403967" lon="2.647837"><ele></ele><time>2023-8-15T11:14:20Z</time></trkpt>
<trkpt lat="48.404003" lon="2.648008"><ele></ele><time>2023-8-15T11:14:23Z</time></trkpt>
<trkpt lat="48.40407" lon="2.6481"><ele></ele><time>2023-8-15T11:14:26Z</time></trkpt>
<trkpt lat="48.404145" lon="2.648196"><ele></ele><time>2023-8-15T11:14:29Z</time></trkpt>
<trkpt lat="48.404242" lon="2.648319"><ele></ele><time>2023-8-15T11:14:32Z</time></trkpt>
<trkpt lat="48.404307" lon="2.648519"><ele></ele><time>2023-8-15T11:14:35Z</time></trkpt>
<trkpt lat="48.404266" lon="2.648663"><ele></ele><time>2023-8-15T11:14:38Z</time></trkpt>
<trkpt lat="48.404217" lon="2.648788"><ele></ele><time>2023-8-15T11:14:41Z</time></trkpt>
<trkpt lat="48.404253" lon="2.648938"><ele></ele><time>2023-8-15T11:14:44Z</time></trkpt>
<trkpt lat="48.40435" lon="2.649024"><ele></ele><time>2023-8-15T11:14:47Z</time></trkpt>
<trkpt lat="48.404391" lon="2.64901"><ele></ele><time>2023-8-15T11:14:50Z</time></trkpt>
<trkpt lat="48.404392" lon="2.649011"><ele></ele><time>2023-8-15T11:14:53Z</time></trkpt>
<trkpt lat="48.404443" lon="2.649022"><ele></ele><time>2023-8-15T11:14:56Z</time></trkpt>
<trkpt lat="48.404445" lon="2.649022"><ele></ele><time>2023-8-15T11:14:59Z</time></trkpt>
<trkpt lat="48.404525" lon="2.649106"><ele></ele><time>2023-8-15T11:15:2Z</time></trkpt>
<trkpt lat="48.404583" lon="2.649222"><ele></ele><time>2023-8-15T11:15:5Z</time></trkpt>
<trkpt lat="48.404672" lon="2.649245"><ele></ele><time>2023-8-15T11:15:8Z</time></trkpt>
<trkpt lat="48.404768" lon="2.649285"><ele></ele><time>2023-8-15T11:15:11Z</time></trkpt>
<trkpt lat="48.404884" lon="2.649404"><ele></ele><time>2023-8-15T11:15:14Z</time></trkpt>
<trkpt lat="48.40496" lon="2.649495"><ele></ele><time>2023-8-15T11:15:17Z</time></trkpt>
<trkpt lat="48.405039" lon="2.649567"><ele></ele><time>2023-8-15T11:15:20Z</time></trkpt>
<trkpt lat="48.405126" lon="2.649647"><ele></ele><time>2023-8-15T11:15:23Z</time></trkpt>
<trkpt lat="48.40522" lon="2.649691"><ele></ele><time>2023-8-15T11:15:26Z</time></trkpt>
<trkpt lat="48.405252" lon="2.649697"><ele></ele><time>2023-8-15T11:15:29Z</time></trkpt>
<trkpt lat="48.405254" lon="2.649698"><ele></ele><time>2023-8-15T11:15:32Z</time></trkpt>
<trkpt lat="48.405262" lon="2.649706"><ele></ele><time>2023-8-15T11:15:35Z</time></trkpt>
<trkpt lat="48.405264" lon="2.649706"><ele></ele><time>2023-8-15T11:15:38Z</time></trkpt>
<trkpt lat="48.405305" lon="2.649836"><ele></ele><time>2023-8-15T11:15:41Z</time></trkpt>
<trkpt lat="48.405323" lon="2.649969"><ele></ele><time>2023-8-15T11:15:44Z</time></trkpt>
<trkpt lat="48.405278" lon="2.650089"><ele></ele><time>2023-8-15T11:15:47Z</time></trkpt>
<trkpt lat="48.405148" lon="2.650155"><ele></ele><time>2023-8-15T11:15:50Z</time></trkpt>
<trkpt lat="48.405047" lon="2.650317"><ele></ele><time>2023-8-15T11:15:53Z</time></trkpt>
<trkpt lat="48.404992" lon="2.650438"><ele></ele><time>2023-8-15T11:15:56Z</time></trkpt>
<trkpt lat="48.404925" lon="2.650556"><ele></ele><time>2023-8-15T11:15:59Z</time></trkpt>
<trkpt lat="48.404835" lon="2.650671"><ele></ele><time>2023-8-15T11:16:2Z</time></trkpt>
<trkpt lat="48.404751" lon="2.650741"><ele></ele><time>2023-8-15T11:16:5Z</time></trkpt>
<trkpt lat="48.404667" lon="2.650792"><ele></ele><time>2023-8-15T11:16:8Z</time></trkpt>
<trkpt lat="48.404706" lon="2.650967"><ele></ele><time>2023-8-15T11:16:11Z</time></trkpt>
<trkpt lat="48.404739" lon="2.651105"><ele></ele><time>2023-8-15T11:16:14Z</time></trkpt>
<trkpt lat="48.404683" lon="2.651238"><ele></ele><time>2023-8-15T11:16:17Z</time></trkpt>
<trkpt lat="48.404591" lon="2.651265"><ele></ele><time>2023-8-15T11:16:20Z</time></trkpt>
<trkpt lat="48.404475" lon="2.651255"><ele></ele><time>2023-8-15T11:16:23Z</time></trkpt>
<trkpt lat="48.404366" lon="2.651283"><ele></ele><time>2023-8-15T11:16:26Z</time></trkpt>
<trkpt lat="48.404311" lon="2.651446"><ele></ele><time>2023-8-15T11:16:29Z</time></trkpt>
<trkpt lat="48.404263" lon="2.651628"><ele></ele><time>2023-8-15T11:16:32Z</time></trkpt>
<trkpt lat="48.404247" lon="2.651803"><ele></ele><time>2023-8-15T11:16:35Z</time></trkpt>
<trkpt lat="48.404274" lon="2.652039"><ele></ele><time>2023-8-15T11:16:38Z</time></trkpt>
<trkpt lat="48.404259" lon="2.652286"><ele></ele><time>2023-8-15T11:16:41Z</time></trkpt>
<trkpt lat="48.404225" lon="2.652427"><ele></ele><time>2023-8-15T11:16:44Z</time></trkpt>
<trkpt lat="48.404209" lon="2.65258"><ele></ele><time>2023-8-15T11:16:47Z</time></trkpt>
<trkpt lat="48.404211" lon="2.652741"><ele></ele><time>2023-8-15T11:16:50Z</time></trkpt>
<trkpt lat="48.404202" lon="2.652895"><ele></ele><time>2023-8-15T11:16:53Z</time></trkpt>
<trkpt lat="48.404174" lon="2.653053"><ele></ele><time>2023-8-15T11:16:56Z</time></trkpt>
<trkpt lat="48.404149" lon="2.65325"><ele></ele><time>2023-8-15T11:16:59Z</time></trkpt>
<trkpt lat="48.404139" lon="2.653491"><ele></ele><time>2023-8-15T11:17:2Z</time></trkpt>
<trkpt lat="48.404126" lon="2.653634"><ele></ele><time>2023-8-15T11:17:5Z</time></trkpt>
<trkpt lat="48.404092" lon="2.653777"><ele></ele><time>2023-8-15T11:17:8Z</time></trkpt>
<trkpt lat="48.404012" lon="2.653924"><ele></ele><time>2023-8-15T11:17:11Z</time></trkpt>
<trkpt lat="48.40399" lon="2.654093"><ele></ele><time>2023-8-15T11:17:14Z</time></trkpt>
<trkpt lat="48.40398" lon="2.654284"><ele></ele><time>2023-8-15T11:17:17Z</time></trkpt>
<trkpt lat="48.403947" lon="2.654467"><ele></ele><time>2023-8-15T11:17:20Z</time></trkpt>
<trkpt lat="48.403924" lon="2.654628"><ele></ele><time>2023-8-15T11:17:23Z</time></trkpt>
<trkpt lat="48.403919" lon="2.654831"><ele></ele><time>2023-8-15T11:17:26Z</time></trkpt>
<trkpt lat="48.403895" lon="2.655003"><ele></ele><time>2023-8-15T11:17:29Z</time></trkpt>
<trkpt lat="48.403886" lon="2.655155"><ele></ele><time>2023-8-15T11:17:32Z</time></trkpt>
<trkpt lat="48.403869" lon="2.655363"><ele></ele><time>2023-8-15T11:17:35Z</time></trkpt>
<trkpt lat="48.40387" lon="2.655534"><ele></ele><time>2023-8-15T11:17:38Z</time></trkpt>
<trkpt lat="48.403909" lon="2.655664"><ele></ele><time>2023-8-15T11:17:41Z</time></trkpt>
<trkpt lat="48.403914" lon="2.6558"><ele></ele><time>2023-8-15T11:17:44Z</time></trkpt>
<trkpt lat="48.403935" lon="2.655938"><ele></ele><time>2023-8-15T11:17:47Z</time></trkpt>
<trkpt lat="48.403989" lon="2.656081"><ele></ele><time>2023-8-15T11:17:50Z</time></trkpt>
<trkpt lat="48.404055" lon="2.656239"><ele></ele><time>2023-8-15T11:17:53Z</time></trkpt>
<trkpt lat="48.404102" lon="2.656378"><ele></ele><time>2023-8-15T11:17:56Z</time></trkpt>
<trkpt lat="48.404185" lon="2.656513"><ele></ele><time>2023-8-15T11:17:59Z</time></trkpt>
<trkpt lat="48.404247" lon="2.656619"><ele></ele><time>2023-8-15T11:18:2Z</time></trkpt>
<trkpt lat="48.404311" lon="2.656741"><ele></ele><time>2023-8-15T11:18:5Z</time></trkpt>
<trkpt lat="48.404383" lon="2.656844"><ele></ele><time>2023-8-15T11:18:8Z</time></trkpt>
<trkpt lat="48.404449" lon="2.656937"><ele></ele><time>2023-8-15T11:18:11Z</time></trkpt>
<trkpt lat="48.404503" lon="2.657048"><ele></ele><time>2023-8-15T11:18:14Z</time></trkpt>
<trkpt lat="48.404554" lon="2.657176"><ele></ele><time>2023-8-15T11:18:17Z</time></trkpt>
<trkpt lat="48.40462" lon="2.657279"><ele></ele><time>2023-8-15T11:18:20Z</time></trkpt>
<trkpt lat="48.404713" lon="2.657395"><ele></ele><time>2023-8-15T11:18:23Z</time></trkpt>
<trkpt lat="48.404806" lon="2.657449"><ele></ele><time>2023-8-15T11:18:26Z</time></trkpt>
<trkpt lat="48.404894" lon="2.657518"><ele></ele><time>2023-8-15T11:18:29Z</time></trkpt>
<trkpt lat="48.404977" lon="2.657579"><ele></ele><time>2023-8-15T11:18:32Z</time></trkpt>
<trkpt lat="48.405076" lon="2.657647"><ele></ele><time>2023-8-15T11:18:35Z</time></trkpt>
<trkpt lat="48.40516" lon="2.657723"><ele></ele><time>2023-8-15T11:18:38Z</time></trkpt>
<trkpt lat="48.405224" lon="2.657822"><ele></ele><time>2023-8-15T11:18:41Z</time></trkpt>
<trkpt lat="48.405315" lon="2.657924"><ele></ele><time>2023-8-15T11:18:44Z</time></trkpt>
<trkpt lat="48.405381" lon="2.658016"><ele></ele><time>2023-8-15T11:18:47Z</time></trkpt>
<trkpt lat="48.405453" lon="2.658123"><ele></ele><time>2023-8-15T11:18:50Z</time></trkpt>
<trkpt lat="48.405533" lon="2.658202"><ele></ele><time>2023-8-15T11:18:53Z</time></trkpt>
<trkpt lat="48.405607" lon="2.65831"><ele></ele><time>2023-8-15T11:18:56Z</time></trkpt>
<trkpt lat="48.405652" lon="2.658438"><ele></ele><time>2023-8-15T11:18:59Z</time></trkpt>
<trkpt lat="48.405669" lon="2.658597"><ele></ele><time>2023-8-15T11:19:2Z</time></trkpt>
<trkpt lat="48.405645" lon="2.658728"><ele></ele><time>2023-8-15T11:19:5Z</time></trkpt>
<trkpt lat="48.405664" lon="2.658895"><ele></ele><time>2023-8-15T11:19:8Z</time></trkpt>
<trkpt lat="48.405691" lon="2.659054"><ele></ele><time>2023-8-15T11:19:11Z</time></trkpt>
<trkpt lat="48.405677" lon="2.6592"><ele></ele><time>2023-8-15T11:19:14Z</time></trkpt>
<trkpt lat="48.405671" lon="2.659348"><ele></ele><time>2023-8-15T11:19:17Z</time></trkpt>
<trkpt lat="48.405703" lon="2.65952"><ele></ele><time>2023-8-15T11:19:20Z</time></trkpt>
<trkpt lat="48.405732" lon="2.65967"><ele></ele><time>2023-8-15T11:19:23Z</time></trkpt>
<trkpt lat="48.405686" lon="2.659802"><ele></ele><time>2023-8-15T11:19:26Z</time></trkpt>
<trkpt lat="48.405624" lon="2.659922"><ele></ele><time>2023-8-15T11:19:29Z</time></trkpt>
<trkpt lat="48.405553" lon="2.660086"><ele></ele><time>2023-8-15T11:19:32Z</time></trkpt>
<trkpt lat="48.405502" lon="2.660233"><ele></ele><time>2023-8-15T11:19:35Z</time></trkpt>
<trkpt lat="48.405463" lon="2.660375"><ele></ele><time>2023-8-15T11:19:38Z</time></trkpt>
<trkpt lat="48.405439" lon="2.66054"><ele></ele><time>2023-8-15T11:19:41Z</time></trkpt>
<trkpt lat="48.405405" lon="2.660712"><ele></ele><time>2023-8-15T11:19:44Z</time></trkpt>
<trkpt lat="48.405402" lon="2.660904"><ele></ele><time>2023-8-15T11:19:47Z</time></trkpt>
<trkpt lat="48.405392" lon="2.661041"><ele></ele><time>2023-8-15T11:19:50Z</time></trkpt>
<trkpt lat="48.405425" lon="2.661173"><ele></ele><time>2023-8-15T11:19:53Z</time></trkpt>
<trkpt lat="48.405482" lon="2.661321"><ele></ele><time>2023-8-15T11:19:56Z</time></trkpt>
<trkpt lat="48.405554" lon="2.661426"><ele></ele><time>2023-8-15T11:19:59Z</time></trkpt>
<trkpt lat="48.405598" lon="2.661572"><ele></ele><time>2023-8-15T11:20:2Z</time></trkpt>
<trkpt lat="48.405586" lon="2.661713"><ele></ele><time>2023-8-15T11:20:5Z</time></trkpt>
<trkpt lat="48.405629" lon="2.661834"><ele></ele><time>2023-8-15T11:20:8Z</time></trkpt>
<trkpt lat="48.405692" lon="2.661945"><ele></ele><time>2023-8-15T11:20:11Z</time></trkpt>
<trkpt lat="48.405728" lon="2.662087"><ele></ele><time>2023-8-15T11:20:14Z</time></trkpt>
<trkpt lat="48.405744" lon="2.66228"><ele></ele><time>2023-8-15T11:20:17Z</time></trkpt>
<trkpt lat="48.405769" lon="2.662426"><ele></ele><time>2023-8-15T11:20:20Z</time></trkpt>
<trkpt lat="48.405813" lon="2.662582"><ele></ele><time>2023-8-15T11:20:23Z</time></trkpt>
<trkpt lat="48.405841" lon="2.662733"><ele></ele><time>2023-8-15T11:20:26Z</time></trkpt>
<trkpt lat="48.405854" lon="2.662897"><ele></ele><time>2023-8-15T11:20:29Z</time></trkpt>
<trkpt lat="48.405848" lon="2.663038"><ele></ele><time>2023-8-15T11:20:32Z</time></trkpt>
<trkpt lat="48.405846" lon="2.663186"><ele></ele><time>2023-8-15T11:20:35Z</time></trkpt>
<trkpt lat="48.40583" lon="2.66335"><ele></ele><time>2023-8-15T11:20:38Z</time></trkpt>
<trkpt lat="48.405791" lon="2.663487"><ele></ele><time>2023-8-15T11:20:41Z</time></trkpt>
<trkpt lat="48.405805" lon="2.663648"><ele></ele><time>2023-8-15T11:20:44Z</time></trkpt>
<trkpt lat="48.405792" lon="2.663796"><ele></ele><time>2023-8-15T11:20:47Z</time></trkpt>
<trkpt lat="48.40579" lon="2.663965"><ele></ele><time>2023-8-15T11:20:50Z</time></trkpt>
<trkpt lat="48.405729" lon="2.66408"><ele></ele><time>2023-8-15T11:20:53Z</time></trkpt>
<trkpt lat="48.405612" lon="2.664186"><ele></ele><time>2023-8-15T11:20:56Z</time></trkpt>
<trkpt lat="48.405492" lon="2.664284"><ele></ele><time>2023-8-15T11:20:59Z</time></trkpt>
<trkpt lat="48.405415" lon="2.664442"><ele></ele><time>2023-8-15T11:21:2Z</time></trkpt>
<trkpt lat="48.405339" lon="2.664665"><ele></ele><time>2023-8-15T11:21:5Z</time></trkpt>
<trkpt lat="48.405261" lon="2.664843"><ele></ele><time>2023-8-15T11:21:8Z</time></trkpt>
<trkpt lat="48.405237" lon="2.664998"><ele></ele><time>2023-8-15T11:21:11Z</time></trkpt>
<trkpt lat="48.405226" lon="2.665175"><ele></ele><time>2023-8-15T11:21:14Z</time></trkpt>
<trkpt lat="48.405231" lon="2.665341"><ele></ele><time>2023-8-15T11:21:17Z</time></trkpt>
<trkpt lat="48.405203" lon="2.665491"><ele></ele><time>2023-8-15T11:21:20Z</time></trkpt>
<trkpt lat="48.405145" lon="2.665706"><ele></ele><time>2023-8-15T11:21:23Z</time></trkpt>
<trkpt lat="48.405117" lon="2.665889"><ele></ele><time>2023-8-15T11:21:26Z</time></trkpt>
<trkpt lat="48.405138" lon="2.666064"><ele></ele><time>2023-8-15T11:21:29Z</time></trkpt>
<trkpt lat="48.405084" lon="2.666234"><ele></ele><time>2023-8-15T11:21:32Z</time></trkpt>
<trkpt lat="48.405071" lon="2.666393"><ele></ele><time>2023-8-15T11:21:35Z</time></trkpt>
<trkpt lat="48.40507" lon="2.666597"><ele></ele><time>2023-8-15T11:21:38Z</time></trkpt>
<trkpt lat="48.405053" lon="2.666737"><ele></ele><time>2023-8-15T11:21:41Z</time></trkpt>
<trkpt lat="48.405012" lon="2.666909"><ele></ele><time>2023-8-15T11:21:44Z</time></trkpt>
<trkpt lat="48.404936" lon="2.667045"><ele></ele><time>2023-8-15T11:21:47Z</time></trkpt>
<trkpt lat="48.404884" lon="2.667178"><ele></ele><time>2023-8-15T11:21:50Z</time></trkpt>
<trkpt lat="48.404885" lon="2.667326"><ele></ele><time>2023-8-15T11:21:53Z</time></trkpt>
<trkpt lat="48.404862" lon="2.6675"><ele></ele><time>2023-8-15T11:21:56Z</time></trkpt>
<trkpt lat="48.404815" lon="2.667672"><ele></ele><time>2023-8-15T11:21:59Z</time></trkpt>
<trkpt lat="48.404855" lon="2.667828"><ele></ele><time>2023-8-15T11:22:2Z</time></trkpt>
<trkpt lat="48.404833" lon="2.667975"><ele></ele><time>2023-8-15T11:22:5Z</time></trkpt>
<trkpt lat="48.404843" lon="2.668018"><ele></ele><time>2023-8-15T11:22:8Z</time></trkpt>
<trkpt lat="48.404844" lon="2.668021"><ele></ele><time>2023-8-15T11:22:11Z</time></trkpt>
<trkpt lat="48.404844" lon="2.668022"><ele></ele><time>2023-8-15T11:22:14Z</time></trkpt>
<trkpt lat="48.404845" lon="2.668026"><ele></ele><time>2023-8-15T11:22:17Z</time></trkpt>
<trkpt lat="48.404846" lon="2.668031"><ele></ele><time>2023-8-15T11:22:20Z</time></trkpt>
<trkpt lat="48.404847" lon="2.668034"><ele></ele><time>2023-8-15T11:22:23Z</time></trkpt>
<trkpt lat="48.404848" lon="2.668042"><ele></ele><time>2023-8-15T11:22:26Z</time></trkpt>
<trkpt lat="48.404849" lon="2.668044"><ele></ele><time>2023-8-15T11:22:29Z</time></trkpt>
<trkpt lat="48.404897" lon="2.668124"><ele></ele><time>2023-8-15T11:22:32Z</time></trkpt>
<trkpt lat="48.404898" lon="2.668127"><ele></ele><time>2023-8-15T11:22:35Z</time></trkpt>
<trkpt lat="48.404891" lon="2.668146"><ele></ele><time>2023-8-15T11:22:38Z</time></trkpt>
<trkpt lat="48.404896" lon="2.668145"><ele></ele><time>2023-8-15T11:22:41Z</time></trkpt>
<trkpt lat="48.404901" lon="2.668144"><ele></ele><time>2023-8-15T11:22:44Z</time></trkpt>
<trkpt lat="48.404899" lon="2.668146"><ele></ele><time>2023-8-15T11:22:47Z</time></trkpt>
<trkpt lat="48.404885" lon="2.668116"><ele></ele><time>2023-8-15T11:22:50Z</time></trkpt>
<trkpt lat="48.404885" lon="2.668114"><ele></ele><time>2023-8-15T11:22:53Z</time></trkpt>
<trkpt lat="48.404823" lon="2.668215"><ele></ele><time>2023-8-15T11:22:56Z</time></trkpt>
<trkpt lat="48.404751" lon="2.668345"><ele></ele><time>2023-8-15T11:22:59Z</time></trkpt>
<trkpt lat="48.40466" lon="2.668472"><ele></ele><time>2023-8-15T11:23:2Z</time></trkpt>
<trkpt lat="48.40459" lon="2.668651"><ele></ele><time>2023-8-15T11:23:5Z</time></trkpt>
<trkpt lat="48.404523" lon="2.66884"><ele></ele><time>2023-8-15T11:23:8Z</time></trkpt>
<trkpt lat="48.404479" lon="2.668974"><ele></ele><time>2023-8-15T11:23:11Z</time></trkpt>
<trkpt lat="48.404436" lon="2.66911"><ele></ele><time>2023-8-15T11:23:14Z</time></trkpt>
<trkpt lat="48.404382" lon="2.669248"><ele></ele><time>2023-8-15T11:23:17Z</time></trkpt>
<trkpt lat="48.40433" lon="2.669381"><ele></ele><time>2023-8-15T11:23:20Z</time></trkpt>
<trkpt lat="48.404281" lon="2.669504"><ele></ele><time>2023-8-15T11:23:23Z</time></trkpt>
<trkpt lat="48.404229" lon="2.66963"><ele></ele><time>2023-8-15T11:23:26Z</time></trkpt>
<trkpt lat="48.404184" lon="2.669757"><ele></ele><time>2023-8-15T11:23:29Z</time></trkpt>
<trkpt lat="48.404132" lon="2.669883"><ele></ele><time>2023-8-15T11:23:32Z</time></trkpt>
<trkpt lat="48.404066" lon="2.670005"><ele></ele><time>2023-8-15T11:23:35Z</time></trkpt>
<trkpt lat="48.404011" lon="2.67013"><ele></ele><time>2023-8-15T11:23:38Z</time></trkpt>
<trkpt lat="48.403962" lon="2.670265"><ele></ele><time>2023-8-15T11:23:41Z</time></trkpt>
<trkpt lat="48.403907" lon="2.670385"><ele></ele><time>2023-8-15T11:23:44Z</time></trkpt>
<trkpt lat="48.403895" lon="2.670551"><ele></ele><time>2023-8-15T11:23:47Z</time></trkpt>
<trkpt lat="48.40389" lon="2.67069"><ele></ele><time>2023-8-15T11:23:50Z</time></trkpt>
<trkpt lat="48.403825" lon="2.670843"><ele></ele><time>2023-8-15T11:23:53Z</time></trkpt>
<trkpt lat="48.403743" lon="2.671002"><ele></ele><time>2023-8-15T11:23:56Z</time></trkpt>
<trkpt lat="48.403676" lon="2.67114"><ele></ele><time>2023-8-15T11:23:59Z</time></trkpt>
<trkpt lat="48.403615" lon="2.671244"><ele></ele><time>2023-8-15T11:24:2Z</time></trkpt>
<trkpt lat="48.403553" lon="2.671383"><ele></ele><time>2023-8-15T11:24:5Z</time></trkpt>
<trkpt lat="48.403486" lon="2.671512"><ele></ele><time>2023-8-15T11:24:8Z</time></trkpt>
<trkpt lat="48.403426" lon="2.671639"><ele></ele><time>2023-8-15T11:24:11Z</time></trkpt>
<trkpt lat="48.403358" lon="2.6718"><ele></ele><time>2023-8-15T11:24:14Z</time></trkpt>
<trkpt lat="48.403295" lon="2.671907"><ele></ele><time>2023-8-15T11:24:17Z</time></trkpt>
<trkpt lat="48.403237" lon="2.67209"><ele></ele><time>2023-8-15T11:24:20Z</time></trkpt>
<trkpt lat="48.403177" lon="2.672197"><ele></ele><time>2023-8-15T11:24:23Z</time></trkpt>
<trkpt lat="48.40313" lon="2.672318"><ele></ele><time>2023-8-15T11:24:26Z</time></trkpt>
<trkpt lat="48.403078" lon="2.672442"><ele></ele><time>2023-8-15T11:24:29Z</time></trkpt>
<trkpt lat="48.403017" lon="2.672593"><ele></ele><time>2023-8-15T11:24:32Z</time></trkpt>
<trkpt lat="48.402954" lon="2.672752"><ele></ele><time>2023-8-15T11:24:35Z</time></trkpt>
<trkpt lat="48.402902" lon="2.672893"><ele></ele><time>2023-8-15T11:24:38Z</time></trkpt>
<trkpt lat="48.402863" lon="2.673018"><ele></ele><time>2023-8-15T11:24:41Z</time></trkpt>
<trkpt lat="48.402917" lon="2.673138"><ele></ele><time>2023-8-15T11:24:44Z</time></trkpt>
<trkpt lat="48.402995" lon="2.673257"><ele></ele><time>2023-8-15T11:24:47Z</time></trkpt>
<trkpt lat="48.403067" lon="2.673341"><ele></ele><time>2023-8-15T11:24:50Z</time></trkpt>
<trkpt lat="48.403143" lon="2.673435"><ele></ele><time>2023-8-15T11:24:53Z</time></trkpt>
<trkpt lat="48.403202" lon="2.673562"><ele></ele><time>2023-8-15T11:24:56Z</time></trkpt>
<trkpt lat="48.403252" lon="2.673711"><ele></ele><time>2023-8-15T11:24:59Z</time></trkpt>
<trkpt lat="48.403324" lon="2.673828"><ele></ele><time>2023-8-15T11:25:2Z</time></trkpt>
<trkpt lat="48.403396" lon="2.673928"><ele></ele><time>2023-8-15T11:25:5Z</time></trkpt>
<trkpt lat="48.403482" lon="2.674011"><ele></ele><time>2023-8-15T11:25:8Z</time></trkpt>
<trkpt lat="48.403603" lon="2.67404"><ele></ele><time>2023-8-15T11:25:11Z</time></trkpt>
<trkpt lat="48.403706" lon="2.674029"><ele></ele><time>2023-8-15T11:25:14Z</time></trkpt>
<trkpt lat="48.403815" lon="2.674064"><ele></ele><time>2023-8-15T11:25:17Z</time></trkpt>
<trkpt lat="48.403897" lon="2.674201"><ele></ele><time>2023-8-15T11:25:20Z</time></trkpt>
<trkpt lat="48.403947" lon="2.674385"><ele></ele><time>2023-8-15T11:25:23Z</time></trkpt>
<trkpt lat="48.40401" lon="2.67453"><ele></ele><time>2023-8-15T11:25:26Z</time></trkpt>
<trkpt lat="48.404095" lon="2.674665"><ele></ele><time>2023-8-15T11:25:29Z</time></trkpt>
<trkpt lat="48.404177" lon="2.674767"><ele></ele><time>2023-8-15T11:25:32Z</time></trkpt>
<trkpt lat="48.404249" lon="2.674853"><ele></ele><time>2023-8-15T11:25:35Z</time></trkpt>
<trkpt lat="48.404331" lon="2.674953"><ele></ele><time>2023-8-15T11:25:38Z</time></trkpt>
<trkpt lat="48.404383" lon="2.675128"><ele></ele><time>2023-8-15T11:25:41Z</time></trkpt>
<trkpt lat="48.404386" lon="2.675301"><ele></ele><time>2023-8-15T11:25:44Z</time></trkpt>
<trkpt lat="48.404408" lon="2.675452"><ele></ele><time>2023-8-15T11:25:47Z</time></trkpt>
<trkpt lat="48.404473" lon="2.675589"><ele></ele><time>2023-8-15T11:25:50Z</time></trkpt>
<trkpt lat="48.404556" lon="2.675657"><ele></ele><time>2023-8-15T11:25:53Z</time></trkpt>
<trkpt lat="48.404639" lon="2.675733"><ele></ele><time>2023-8-15T11:25:56Z</time></trkpt>
<trkpt lat="48.404715" lon="2.675863"><ele></ele><time>2023-8-15T11:25:59Z</time></trkpt>
<trkpt lat="48.404778" lon="2.675997"><ele></ele><time>2023-8-15T11:26:2Z</time></trkpt>
<trkpt lat="48.404855" lon="2.67612"><ele></ele><time>2023-8-15T11:26:5Z</time></trkpt>
<trkpt lat="48.404939" lon="2.676258"><ele></ele><time>2023-8-15T11:26:8Z</time></trkpt>
<trkpt lat="48.404987" lon="2.676391"><ele></ele><time>2023-8-15T11:26:11Z</time></trkpt>
<trkpt lat="48.405038" lon="2.676517"><ele></ele><time>2023-8-15T11:26:14Z</time></trkpt>
<trkpt lat="48.405072" lon="2.676683"><ele></ele><time>2023-8-15T11:26:17Z</time></trkpt>
<trkpt lat="48.40517" lon="2.676722"><ele></ele><time>2023-8-15T11:26:20Z</time></trkpt>
<trkpt lat="48.405278" lon="2.676747"><ele></ele><time>2023-8-15T11:26:23Z</time></trkpt>
<trkpt lat="48.405369" lon="2.676785"><ele></ele><time>2023-8-15T11:26:26Z</time></trkpt>
<trkpt lat="48.40537" lon="2.676785"><ele></ele><time>2023-8-15T11:26:29Z</time></trkpt>
<trkpt lat="48.405379" lon="2.676788"><ele></ele><time>2023-8-15T11:26:32Z</time></trkpt>
<trkpt lat="48.405468" lon="2.67672"><ele></ele><time>2023-8-15T11:26:35Z</time></trkpt>
<trkpt lat="48.405544" lon="2.676708"><ele></ele><time>2023-8-15T11:26:38Z</time></trkpt>
<trkpt lat="48.405545" lon="2.676706"><ele></ele><time>2023-8-15T11:26:41Z</time></trkpt>
<trkpt lat="48.405546" lon="2.676707"><ele></ele><time>2023-8-15T11:26:44Z</time></trkpt>
<trkpt lat="48.405548" lon="2.676707"><ele></ele><time>2023-8-15T11:26:47Z</time></trkpt>
<trkpt lat="48.405582" lon="2.676713"><ele></ele><time>2023-8-15T11:26:50Z</time></trkpt>
<trkpt lat="48.405584" lon="2.676713"><ele></ele><time>2023-8-15T11:26:53Z</time></trkpt>
<trkpt lat="48.405657" lon="2.676851"><ele></ele><time>2023-8-15T11:26:56Z</time></trkpt>
<trkpt lat="48.405715" lon="2.676959"><ele></ele><time>2023-8-15T11:26:59Z</time></trkpt>
<trkpt lat="48.405788" lon="2.677058"><ele></ele><time>2023-8-15T11:27:2Z</time></trkpt>
<trkpt lat="48.405885" lon="2.677139"><ele></ele><time>2023-8-15T11:27:5Z</time></trkpt>
<trkpt lat="48.405983" lon="2.677208"><ele></ele><time>2023-8-15T11:27:8Z</time></trkpt>
<trkpt lat="48.406079" lon="2.677271"><ele></ele><time>2023-8-15T11:27:11Z</time></trkpt>
<trkpt lat="48.40618" lon="2.677341"><ele></ele><time>2023-8-15T11:27:14Z</time></trkpt>
<trkpt lat="48.406274" lon="2.677422"><ele></ele><time>2023-8-15T11:27:17Z</time></trkpt>
<trkpt lat="48.406373" lon="2.677488"><ele></ele><time>2023-8-15T11:27:20Z</time></trkpt>
<trkpt lat="48.406499" lon="2.677569"><ele></ele><time>2023-8-15T11:27:23Z</time></trkpt>
<trkpt lat="48.406612" lon="2.677681"><ele></ele><time>2023-8-15T11:27:26Z</time></trkpt>
<trkpt lat="48.406716" lon="2.677735"><ele></ele><time>2023-8-15T11:27:29Z</time></trkpt>
<trkpt lat="48.406812" lon="2.677804"><ele></ele><time>2023-8-15T11:27:32Z</time></trkpt>
<trkpt lat="48.406911" lon="2.677904"><ele></ele><time>2023-8-15T11:27:35Z</time></trkpt>
<trkpt lat="48.407002" lon="2.677974"><ele></ele><time>2023-8-15T11:27:38Z</time></trkpt>
<trkpt lat="48.407094" lon="2.678045"><ele></ele><time>2023-8-15T11:27:41Z</time></trkpt>
<trkpt lat="48.407199" lon="2.678137"><ele></ele><time>2023-8-15T11:27:44Z</time></trkpt>
<trkpt lat="48.407305" lon="2.678211"><ele></ele><time>2023-8-15T11:27:47Z</time></trkpt>
<trkpt lat="48.40739" lon="2.678282"><ele></ele><time>2023-8-15T11:27:50Z</time></trkpt>
<trkpt lat="48.407454" lon="2.678421"><ele></ele><time>2023-8-15T11:27:53Z</time></trkpt>
<trkpt lat="48.407491" lon="2.678548"><ele></ele><time>2023-8-15T11:27:56Z</time></trkpt>
<trkpt lat="48.407544" lon="2.678669"><ele></ele><time>2023-8-15T11:27:59Z</time></trkpt>
<trkpt lat="48.407612" lon="2.67877"><ele></ele><time>2023-8-15T11:28:2Z</time></trkpt>
<trkpt lat="48.407678" lon="2.67898"><ele></ele><time>2023-8-15T11:28:5Z</time></trkpt>
<trkpt lat="48.407757" lon="2.679121"><ele></ele><time>2023-8-15T11:28:8Z</time></trkpt>
<trkpt lat="48.407827" lon="2.679259"><ele></ele><time>2023-8-15T11:28:11Z</time></trkpt>
<trkpt lat="48.407897" lon="2.679396"><ele></ele><time>2023-8-15T11:28:14Z</time></trkpt>
<trkpt lat="48.407962" lon="2.679578"><ele></ele><time>2023-8-15T11:28:17Z</time></trkpt>
<trkpt lat="48.408018" lon="2.679706"><ele></ele><time>2023-8-15T11:28:20Z</time></trkpt>
<trkpt lat="48.408075" lon="2.679817"><ele></ele><time>2023-8-15T11:28:23Z</time></trkpt>
<trkpt lat="48.408151" lon="2.679931"><ele></ele><time>2023-8-15T11:28:26Z</time></trkpt>
<trkpt lat="48.408216" lon="2.680077"><ele></ele><time>2023-8-15T11:28:29Z</time></trkpt>
<trkpt lat="48.408273" lon="2.680217"><ele></ele><time>2023-8-15T11:28:32Z</time></trkpt>
<trkpt lat="48.408311" lon="2.680348"><ele></ele><time>2023-8-15T11:28:35Z</time></trkpt>
<trkpt lat="48.408374" lon="2.680478"><ele></ele><time>2023-8-15T11:28:38Z</time></trkpt>
<trkpt lat="48.408464" lon="2.680606"><ele></ele><time>2023-8-15T11:28:41Z</time></trkpt>
<trkpt lat="48.408566" lon="2.680731"><ele></ele><time>2023-8-15T11:28:44Z</time></trkpt>
<trkpt lat="48.408632" lon="2.680835"><ele></ele><time>2023-8-15T11:28:47Z</time></trkpt>
<trkpt lat="48.408712" lon="2.680973"><ele></ele><time>2023-8-15T11:28:50Z</time></trkpt>
<trkpt lat="48.40878" lon="2.681098"><ele></ele><time>2023-8-15T11:28:53Z</time></trkpt>
<trkpt lat="48.408842" lon="2.681238"><ele></ele><time>2023-8-15T11:28:56Z</time></trkpt>
<trkpt lat="48.4089" lon="2.681401"><ele></ele><time>2023-8-15T11:28:59Z</time></trkpt>
<trkpt lat="48.408941" lon="2.681543"><ele></ele><time>2023-8-15T11:29:2Z</time></trkpt>
<trkpt lat="48.408944" lon="2.681709"><ele></ele><time>2023-8-15T11:29:5Z</time></trkpt>
<trkpt lat="48.408941" lon="2.681851"><ele></ele><time>2023-8-15T11:29:8Z</time></trkpt>
<trkpt lat="48.408963" lon="2.681983"><ele></ele><time>2023-8-15T11:29:11Z</time></trkpt>
<trkpt lat="48.408975" lon="2.681991"><ele></ele><time>2023-8-15T11:29:14Z</time></trkpt>
<trkpt lat="48.408977" lon="2.68199"><ele></ele><time>2023-8-15T11:29:17Z</time></trkpt>
<trkpt lat="48.408979" lon="2.681962"><ele></ele><time>2023-8-15T11:29:20Z</time></trkpt>
<trkpt lat="48.408979" lon="2.681963"><ele></ele><time>2023-8-15T11:29:23Z</time></trkpt>
<trkpt lat="48.408983" lon="2.681959"><ele></ele><time>2023-8-15T11:29:26Z</time></trkpt>
<trkpt lat="48.408981" lon="2.681964"><ele></ele><time>2023-8-15T11:29:29Z</time></trkpt>
<trkpt lat="48.408946" lon="2.682104"><ele></ele><time>2023-8-15T11:29:32Z</time></trkpt>
<trkpt lat="48.408945" lon="2.682306"><ele></ele><time>2023-8-15T11:29:35Z</time></trkpt>
<trkpt lat="48.408945" lon="2.682528"><ele></ele><time>2023-8-15T11:29:38Z</time></trkpt>
<trkpt lat="48.408908" lon="2.682683"><ele></ele><time>2023-8-15T11:29:41Z</time></trkpt>
<trkpt lat="48.408913" lon="2.682679"><ele></ele><time>2023-8-15T11:29:44Z</time></trkpt>
<trkpt lat="48.408911" lon="2.682681"><ele></ele><time>2023-8-15T11:29:47Z</time></trkpt>
<trkpt lat="48.408907" lon="2.682685"><ele></ele><time>2023-8-15T11:29:50Z</time></trkpt>
<trkpt lat="48.408905" lon="2.682687"><ele></ele><time>2023-8-15T11:29:53Z</time></trkpt>
<trkpt lat="48.408906" lon="2.682686"><ele></ele><time>2023-8-15T11:29:56Z</time></trkpt>
<trkpt lat="48.408905" lon="2.682681"><ele></ele><time>2023-8-15T11:29:59Z</time></trkpt>
<trkpt lat="48.408878" lon="2.682669"><ele></ele><time>2023-8-15T11:30:2Z</time></trkpt>
<trkpt lat="48.408877" lon="2.682675"><ele></ele><time>2023-8-15T11:30:5Z</time></trkpt>
<trkpt lat="48.408888" lon="2.682704"><ele></ele><time>2023-8-15T11:30:8Z</time></trkpt>
<trkpt lat="48.408886" lon="2.682706"><ele></ele><time>2023-8-15T11:30:11Z</time></trkpt>
<trkpt lat="48.408883" lon="2.682664"><ele></ele><time>2023-8-15T11:30:14Z</time></trkpt>
<trkpt lat="48.408884" lon="2.682665"><ele></ele><time>2023-8-15T11:30:17Z</time></trkpt>
<trkpt lat="48.408886" lon="2.682667"><ele></ele><time>2023-8-15T11:30:20Z</time></trkpt>
<trkpt lat="48.408888" lon="2.682661"><ele></ele><time>2023-8-15T11:30:23Z</time></trkpt>
<trkpt lat="48.408917" lon="2.682485"><ele></ele><time>2023-8-15T11:30:26Z</time></trkpt>
<trkpt lat="48.408927" lon="2.682344"><ele></ele><time>2023-8-15T11:30:29Z</time></trkpt>
<trkpt lat="48.40893" lon="2.682168"><ele></ele><time>2023-8-15T11:30:32Z</time></trkpt>
<trkpt lat="48.408952" lon="2.681992"><ele></ele><time>2023-8-15T11:30:35Z</time></trkpt>
<trkpt lat="48.409047" lon="2.681911"><ele></ele><time>2023-8-15T11:30:38Z</time></trkpt>
<trkpt lat="48.40914" lon="2.681872"><ele></ele><time>2023-8-15T11:30:41Z</time></trkpt>
<trkpt lat="48.409272" lon="2.681913"><ele></ele><time>2023-8-15T11:30:44Z</time></trkpt>
<trkpt lat="48.409347" lon="2.682004"><ele></ele><time>2023-8-15T11:30:47Z</time></trkpt>
<trkpt lat="48.409427" lon="2.681872"><ele></ele><time>2023-8-15T11:30:50Z</time></trkpt>
<trkpt lat="48.409484" lon="2.681744"><ele></ele><time>2023-8-15T11:30:53Z</time></trkpt>
<trkpt lat="48.409592" lon="2.681765"><ele></ele><time>2023-8-15T11:30:56Z</time></trkpt>
<trkpt lat="48.4097" lon="2.681753"><ele></ele><time>2023-8-15T11:30:59Z</time></trkpt>
<trkpt lat="48.409798" lon="2.681728"><ele></ele><time>2023-8-15T11:31:2Z</time></trkpt>
<trkpt lat="48.409887" lon="2.68169"><ele></ele><time>2023-8-15T11:31:5Z</time></trkpt>
<trkpt lat="48.409985" lon="2.681645"><ele></ele><time>2023-8-15T11:31:8Z</time></trkpt>
<trkpt lat="48.410092" lon="2.681624"><ele></ele><time>2023-8-15T11:31:11Z</time></trkpt>
<trkpt lat="48.410192" lon="2.681596"><ele></ele><time>2023-8-15T11:31:14Z</time></trkpt>
<trkpt lat="48.410284" lon="2.681562"><ele></ele><time>2023-8-15T11:31:17Z</time></trkpt>
<trkpt lat="48.410395" lon="2.681516"><ele></ele><time>2023-8-15T11:31:20Z</time></trkpt>
<trkpt lat="48.410501" lon="2.681445"><ele></ele><time>2023-8-15T11:31:23Z</time></trkpt>
<trkpt lat="48.41057" lon="2.681355"><ele></ele><time>2023-8-15T11:31:26Z</time></trkpt>
<trkpt lat="48.410658" lon="2.681218"><ele></ele><time>2023-8-15T11:31:29Z</time></trkpt>
<trkpt lat="48.410725" lon="2.681102"><ele></ele><time>2023-8-15T11:31:32Z</time></trkpt>
<trkpt lat="48.410765" lon="2.680962"><ele></ele><time>2023-8-15T11:31:35Z</time></trkpt>
<trkpt lat="48.410853" lon="2.680882"><ele></ele><time>2023-8-15T11:31:38Z</time></trkpt>
<trkpt lat="48.410936" lon="2.680754"><ele></ele><time>2023-8-15T11:31:41Z</time></trkpt>
<trkpt lat="48.411019" lon="2.680677"><ele></ele><time>2023-8-15T11:31:44Z</time></trkpt>
<trkpt lat="48.411109" lon="2.680622"><ele></ele><time>2023-8-15T11:31:47Z</time></trkpt>
<trkpt lat="48.411199" lon="2.680564"><ele></ele><time>2023-8-15T11:31:50Z</time></trkpt>
<trkpt lat="48.411286" lon="2.680465"><ele></ele><time>2023-8-15T11:31:53Z</time></trkpt>
<trkpt lat="48.411384" lon="2.680412"><ele></ele><time>2023-8-15T11:31:56Z</time></trkpt>
<trkpt lat="48.411469" lon="2.680323"><ele></ele><time>2023-8-15T11:31:59Z</time></trkpt>
<trkpt lat="48.411543" lon="2.680236"><ele></ele><time>2023-8-15T11:32:2Z</time></trkpt>
<trkpt lat="48.411617" lon="2.680154"><ele></ele><time>2023-8-15T11:32:5Z</time></trkpt>
<trkpt lat="48.411698" lon="2.680091"><ele></ele><time>2023-8-15T11:32:8Z</time></trkpt>
<trkpt lat="48.411776" lon="2.680007"><ele></ele><time>2023-8-15T11:32:11Z</time></trkpt>
<trkpt lat="48.411871" lon="2.67992"><ele></ele><time>2023-8-15T11:32:14Z</time></trkpt>
<trkpt lat="48.411951" lon="2.67983"><ele></ele><time>2023-8-15T11:32:17Z</time></trkpt>
<trkpt lat="48.412039" lon="2.67978"><ele></ele><time>2023-8-15T11:32:20Z</time></trkpt>
<trkpt lat="48.412127" lon="2.679687"><ele></ele><time>2023-8-15T11:32:23Z</time></trkpt>
<trkpt lat="48.412214" lon="2.679636"><ele></ele><time>2023-8-15T11:32:26Z</time></trkpt>
<trkpt lat="48.412263" lon="2.679513"><ele></ele><time>2023-8-15T11:32:29Z</time></trkpt>
<trkpt lat="48.412292" lon="2.679377"><ele></ele><time>2023-8-15T11:32:32Z</time></trkpt>
<trkpt lat="48.412293" lon="2.679205"><ele></ele><time>2023-8-15T11:32:35Z</time></trkpt>
<trkpt lat="48.412294" lon="2.679014"><ele></ele><time>2023-8-15T11:32:38Z</time></trkpt>
<trkpt lat="48.412276" lon="2.678831"><ele></ele><time>2023-8-15T11:32:41Z</time></trkpt>
<trkpt lat="48.412278" lon="2.67866"><ele></ele><time>2023-8-15T11:32:44Z</time></trkpt>
<trkpt lat="48.412314" lon="2.678513"><ele></ele><time>2023-8-15T11:32:47Z</time></trkpt>
<trkpt lat="48.412351" lon="2.678347"><ele></ele><time>2023-8-15T11:32:50Z</time></trkpt>
<trkpt lat="48.412353" lon="2.6782"><ele></ele><time>2023-8-15T11:32:53Z</time></trkpt>
<trkpt lat="48.412371" lon="2.678061"><ele></ele><time>2023-8-15T11:32:56Z</time></trkpt>
<trkpt lat="48.412419" lon="2.67794"><ele></ele><time>2023-8-15T11:32:59Z</time></trkpt>
<trkpt lat="48.412477" lon="2.677827"><ele></ele><time>2023-8-15T11:33:2Z</time></trkpt>
<trkpt lat="48.412542" lon="2.677686"><ele></ele><time>2023-8-15T11:33:5Z</time></trkpt>
<trkpt lat="48.412586" lon="2.67755"><ele></ele><time>2023-8-15T11:33:8Z</time></trkpt>
<trkpt lat="48.412652" lon="2.677401"><ele></ele><time>2023-8-15T11:33:11Z</time></trkpt>
<trkpt lat="48.412697" lon="2.677273"><ele></ele><time>2023-8-15T11:33:14Z</time></trkpt>
<trkpt lat="48.412751" lon="2.677085"><ele></ele><time>2023-8-15T11:33:17Z</time></trkpt>
<trkpt lat="48.412758" lon="2.676899"><ele></ele><time>2023-8-15T11:33:20Z</time></trkpt>
<trkpt lat="48.412811" lon="2.676781"><ele></ele><time>2023-8-15T11:33:23Z</time></trkpt>
<trkpt lat="48.412859" lon="2.676596"><ele></ele><time>2023-8-15T11:33:26Z</time></trkpt>
<trkpt lat="48.412916" lon="2.67649"><ele></ele><time>2023-8-15T11:33:29Z</time></trkpt>
<trkpt lat="48.41299" lon="2.676377"><ele></ele><time>2023-8-15T11:33:32Z</time></trkpt>
<trkpt lat="48.412994" lon="2.676237"><ele></ele><time>2023-8-15T11:33:35Z</time></trkpt>
<trkpt lat="48.413028" lon="2.67611"><ele></ele><time>2023-8-15T11:33:38Z</time></trkpt>
<trkpt lat="48.413071" lon="2.675985"><ele></ele><time>2023-8-15T11:33:41Z</time></trkpt>
<trkpt lat="48.41313" lon="2.675866"><ele></ele><time>2023-8-15T11:33:44Z</time></trkpt>
<trkpt lat="48.413205" lon="2.675765"><ele></ele><time>2023-8-15T11:33:47Z</time></trkpt>
<trkpt lat="48.413264" lon="2.675645"><ele></ele><time>2023-8-15T11:33:50Z</time></trkpt>
<trkpt lat="48.41335" lon="2.675542"><ele></ele><time>2023-8-15T11:33:53Z</time></trkpt>
<trkpt lat="48.413427" lon="2.675454"><ele></ele><time>2023-8-15T11:33:56Z</time></trkpt>
<trkpt lat="48.413509" lon="2.675313"><ele></ele><time>2023-8-15T11:33:59Z</time></trkpt>
<trkpt lat="48.413538" lon="2.675184"><ele></ele><time>2023-8-15T11:34:2Z</time></trkpt>
<trkpt lat="48.413621" lon="2.675054"><ele></ele><time>2023-8-15T11:34:5Z</time></trkpt>
<trkpt lat="48.413688" lon="2.674946"><ele></ele><time>2023-8-15T11:34:8Z</time></trkpt>
<trkpt lat="48.413772" lon="2.674803"><ele></ele><time>2023-8-15T11:34:11Z</time></trkpt>
<trkpt lat="48.413846" lon="2.674694"><ele></ele><time>2023-8-15T11:34:14Z</time></trkpt>
<trkpt lat="48.413911" lon="2.674586"><ele></ele><time>2023-8-15T11:34:17Z</time></trkpt>
<trkpt lat="48.413978" lon="2.674479"><ele></ele><time>2023-8-15T11:34:20Z</time></trkpt>
<trkpt lat="48.414053" lon="2.674385"><ele></ele><time>2023-8-15T11:34:23Z</time></trkpt>
<trkpt lat="48.414111" lon="2.674271"><ele></ele><time>2023-8-15T11:34:26Z</time></trkpt>
<trkpt lat="48.414188" lon="2.674162"><ele></ele><time>2023-8-15T11:34:29Z</time></trkpt>
<trkpt lat="48.414287" lon="2.674029"><ele></ele><time>2023-8-15T11:34:32Z</time></trkpt>
<trkpt lat="48.414365" lon="2.673924"><ele></ele><time>2023-8-15T11:34:35Z</time></trkpt>
<trkpt lat="48.41444" lon="2.673808"><ele></ele><time>2023-8-15T11:34:38Z</time></trkpt>
<trkpt lat="48.414521" lon="2.673729"><ele></ele><time>2023-8-15T11:34:41Z</time></trkpt>
<trkpt lat="48.414602" lon="2.673659"><ele></ele><time>2023-8-15T11:34:44Z</time></trkpt>
<trkpt lat="48.414689" lon="2.673609"><ele></ele><time>2023-8-15T11:34:47Z</time></trkpt>
<trkpt lat="48.414776" lon="2.673554"><ele></ele><time>2023-8-15T11:34:50Z</time></trkpt>
<trkpt lat="48.414875" lon="2.673583"><ele></ele><time>2023-8-15T11:34:53Z</time></trkpt>
<trkpt lat="48.41498" lon="2.673603"><ele></ele><time>2023-8-15T11:34:56Z</time></trkpt>
<trkpt lat="48.415073" lon="2.673579"><ele></ele><time>2023-8-15T11:34:59Z</time></trkpt>
<trkpt lat="48.415166" lon="2.673579"><ele></ele><time>2023-8-15T11:35:2Z</time></trkpt>
<trkpt lat="48.415263" lon="2.673615"><ele></ele><time>2023-8-15T11:35:5Z</time></trkpt>
<trkpt lat="48.415365" lon="2.673643"><ele></ele><time>2023-8-15T11:35:8Z</time></trkpt>
<trkpt lat="48.415464" lon="2.673654"><ele></ele><time>2023-8-15T11:35:11Z</time></trkpt>
<trkpt lat="48.415557" lon="2.673651"><ele></ele><time>2023-8-15T11:35:14Z</time></trkpt>
<trkpt lat="48.415653" lon="2.673664"><ele></ele><time>2023-8-15T11:35:17Z</time></trkpt>
<trkpt lat="48.415751" lon="2.673661"><ele></ele><time>2023-8-15T11:35:20Z</time></trkpt>
<trkpt lat="48.415844" lon="2.673672"><ele></ele><time>2023-8-15T11:35:23Z</time></trkpt>
<trkpt lat="48.415938" lon="2.673645"><ele></ele><time>2023-8-15T11:35:26Z</time></trkpt>
<trkpt lat="48.416028" lon="2.673644"><ele></ele><time>2023-8-15T11:35:29Z</time></trkpt>
<trkpt lat="48.416114" lon="2.67369"><ele></ele><time>2023-8-15T11:35:32Z</time></trkpt>
<trkpt lat="48.416205" lon="2.67369"><ele></ele><time>2023-8-15T11:35:35Z</time></trkpt>
<trkpt lat="48.416296" lon="2.673681"><ele></ele><time>2023-8-15T11:35:38Z</time></trkpt>
<trkpt lat="48.416386" lon="2.673672"><ele></ele><time>2023-8-15T11:35:41Z</time></trkpt>
<trkpt lat="48.416492" lon="2.673663"><ele></ele><time>2023-8-15T11:35:44Z</time></trkpt>
<trkpt lat="48.416589" lon="2.673632"><ele></ele><time>2023-8-15T11:35:47Z</time></trkpt>
<trkpt lat="48.41668" lon="2.673604"><ele></ele><time>2023-8-15T11:35:50Z</time></trkpt>
<trkpt lat="48.416774" lon="2.673579"><ele></ele><time>2023-8-15T11:35:53Z</time></trkpt>
<trkpt lat="48.416865" lon="2.673535"><ele></ele><time>2023-8-15T11:35:56Z</time></trkpt>
<trkpt lat="48.416987" lon="2.673481"><ele></ele><time>2023-8-15T11:35:59Z</time></trkpt>
<trkpt lat="48.417076" lon="2.67343"><ele></ele><time>2023-8-15T11:36:2Z</time></trkpt>
<trkpt lat="48.417183" lon="2.673393"><ele></ele><time>2023-8-15T11:36:5Z</time></trkpt>
<trkpt lat="48.417284" lon="2.673351"><ele></ele><time>2023-8-15T11:36:8Z</time></trkpt>
<trkpt lat="48.417389" lon="2.673325"><ele></ele><time>2023-8-15T11:36:11Z</time></trkpt>
<trkpt lat="48.417494" lon="2.673343"><ele></ele><time>2023-8-15T11:36:14Z</time></trkpt>
<trkpt lat="48.417617" lon="2.673352"><ele></ele><time>2023-8-15T11:36:17Z</time></trkpt>
<trkpt lat="48.417707" lon="2.673325"><ele></ele><time>2023-8-15T11:36:20Z</time></trkpt>
<trkpt lat="48.417832" lon="2.673302"><ele></ele><time>2023-8-15T11:36:23Z</time></trkpt>
<trkpt lat="48.417953" lon="2.673297"><ele></ele><time>2023-8-15T11:36:26Z</time></trkpt>
<trkpt lat="48.418066" lon="2.673277"><ele></ele><time>2023-8-15T11:36:29Z</time></trkpt>
<trkpt lat="48.418148" lon="2.67337"><ele></ele><time>2023-8-15T11:36:32Z</time></trkpt>
<trkpt lat="48.41824" lon="2.673527"><ele></ele><time>2023-8-15T11:36:35Z</time></trkpt>
<trkpt lat="48.418158" lon="2.673684"><ele></ele><time>2023-8-15T11:36:38Z</time></trkpt>
<trkpt lat="48.418103" lon="2.673792"><ele></ele><time>2023-8-15T11:36:41Z</time></trkpt>
<trkpt lat="48.418023" lon="2.673893"><ele></ele><time>2023-8-15T11:36:44Z</time></trkpt>
<trkpt lat="48.417997" lon="2.674027"><ele></ele><time>2023-8-15T11:36:47Z</time></trkpt>
<trkpt lat="48.417968" lon="2.674169"><ele></ele><time>2023-8-15T11:36:50Z</time></trkpt>
<trkpt lat="48.417939" lon="2.674304"><ele></ele><time>2023-8-15T11:36:53Z</time></trkpt>
<trkpt lat="48.41791" lon="2.674455"><ele></ele><time>2023-8-15T11:36:56Z</time></trkpt>
<trkpt lat="48.417854" lon="2.674591"><ele></ele><time>2023-8-15T11:36:59Z</time></trkpt>
<trkpt lat="48.417853" lon="2.674657"><ele></ele><time>2023-8-15T11:37:2Z</time></trkpt>
<trkpt lat="48.417857" lon="2.674655"><ele></ele><time>2023-8-15T11:37:5Z</time></trkpt>
<trkpt lat="48.417915" lon="2.674537"><ele></ele><time>2023-8-15T11:37:8Z</time></trkpt>
<trkpt lat="48.417934" lon="2.674349"><ele></ele><time>2023-8-15T11:37:11Z</time></trkpt>
<trkpt lat="48.418003" lon="2.674201"><ele></ele><time>2023-8-15T11:37:14Z</time></trkpt>
<trkpt lat="48.418084" lon="2.674078"><ele></ele><time>2023-8-15T11:37:17Z</time></trkpt>
<trkpt lat="48.418156" lon="2.673961"><ele></ele><time>2023-8-15T11:37:20Z</time></trkpt>
<trkpt lat="48.418252" lon="2.673862"><ele></ele><time>2023-8-15T11:37:23Z</time></trkpt>
<trkpt lat="48.418337" lon="2.673772"><ele></ele><time>2023-8-15T11:37:26Z</time></trkpt>
<trkpt lat="48.418421" lon="2.673671"><ele></ele><time>2023-8-15T11:37:29Z</time></trkpt>
<trkpt lat="48.418469" lon="2.673493"><ele></ele><time>2023-8-15T11:37:32Z</time></trkpt>
<trkpt lat="48.418562" lon="2.673345"><ele></ele><time>2023-8-15T11:37:35Z</time></trkpt>
<trkpt lat="48.418648" lon="2.673299"><ele></ele><time>2023-8-15T11:37:38Z</time></trkpt>
<trkpt lat="48.418733" lon="2.673253"><ele></ele><time>2023-8-15T11:37:41Z</time></trkpt>
<trkpt lat="48.418863" lon="2.673179"><ele></ele><time>2023-8-15T11:37:44Z</time></trkpt>
<trkpt lat="48.419001" lon="2.673108"><ele></ele><time>2023-8-15T11:37:47Z</time></trkpt>
<trkpt lat="48.4191" lon="2.673071"><ele></ele><time>2023-8-15T11:37:50Z</time></trkpt>
<trkpt lat="48.419213" lon="2.673006"><ele></ele><time>2023-8-15T11:37:53Z</time></trkpt>
<trkpt lat="48.419309" lon="2.672998"><ele></ele><time>2023-8-15T11:37:56Z</time></trkpt>
<trkpt lat="48.419389" lon="2.672922"><ele></ele><time>2023-8-15T11:37:59Z</time></trkpt>
<trkpt lat="48.419481" lon="2.672858"><ele></ele><time>2023-8-15T11:38:2Z</time></trkpt>
<trkpt lat="48.419568" lon="2.672801"><ele></ele><time>2023-8-15T11:38:5Z</time></trkpt>
<trkpt lat="48.419637" lon="2.672696"><ele></ele><time>2023-8-15T11:38:8Z</time></trkpt>
<trkpt lat="48.419721" lon="2.672614"><ele></ele><time>2023-8-15T11:38:11Z</time></trkpt>
<trkpt lat="48.419841" lon="2.672572"><ele></ele><time>2023-8-15T11:38:14Z</time></trkpt>
<trkpt lat="48.419938" lon="2.6725"><ele></ele><time>2023-8-15T11:38:17Z</time></trkpt>
<trkpt lat="48.420025" lon="2.672416"><ele></ele><time>2023-8-15T11:38:20Z</time></trkpt>
<trkpt lat="48.420123" lon="2.672344"><ele></ele><time>2023-8-15T11:38:23Z</time></trkpt>
<trkpt lat="48.420221" lon="2.672286"><ele></ele><time>2023-8-15T11:38:26Z</time></trkpt>
<trkpt lat="48.420313" lon="2.672212"><ele></ele><time>2023-8-15T11:38:29Z</time></trkpt>
<trkpt lat="48.420405" lon="2.672138"><ele></ele><time>2023-8-15T11:38:32Z</time></trkpt>
<trkpt lat="48.420497" lon="2.672037"><ele></ele><time>2023-8-15T11:38:35Z</time></trkpt>
<trkpt lat="48.420592" lon="2.671968"><ele></ele><time>2023-8-15T11:38:38Z</time></trkpt>
<trkpt lat="48.420683" lon="2.67189"><ele></ele><time>2023-8-15T11:38:41Z</time></trkpt>
<trkpt lat="48.420762" lon="2.67179"><ele></ele><time>2023-8-15T11:38:44Z</time></trkpt>
<trkpt lat="48.420854" lon="2.671723"><ele></ele><time>2023-8-15T11:38:47Z</time></trkpt>
<trkpt lat="48.420951" lon="2.671664"><ele></ele><time>2023-8-15T11:38:50Z</time></trkpt>
<trkpt lat="48.421048" lon="2.671589"><ele></ele><time>2023-8-15T11:38:53Z</time></trkpt>
<trkpt lat="48.421164" lon="2.671475"><ele></ele><time>2023-8-15T11:38:56Z</time></trkpt>
<trkpt lat="48.421283" lon="2.671366"><ele></ele><time>2023-8-15T11:38:59Z</time></trkpt>
<trkpt lat="48.421366" lon="2.671303"><ele></ele><time>2023-8-15T11:39:2Z</time></trkpt>
<trkpt lat="48.421468" lon="2.67121"><ele></ele><time>2023-8-15T11:39:5Z</time></trkpt>
<trkpt lat="48.421548" lon="2.671132"><ele></ele><time>2023-8-15T11:39:8Z</time></trkpt>
<trkpt lat="48.421629" lon="2.671059"><ele></ele><time>2023-8-15T11:39:11Z</time></trkpt>
<trkpt lat="48.421748" lon="2.670928"><ele></ele><time>2023-8-15T11:39:14Z</time></trkpt>
<trkpt lat="48.42185" lon="2.670851"><ele></ele><time>2023-8-15T11:39:17Z</time></trkpt>
<trkpt lat="48.421938" lon="2.670779"><ele></ele><time>2023-8-15T11:39:20Z</time></trkpt>
<trkpt lat="48.422022" lon="2.670725"><ele></ele><time>2023-8-15T11:39:23Z</time></trkpt>
<trkpt lat="48.422114" lon="2.670658"><ele></ele><time>2023-8-15T11:39:26Z</time></trkpt>
<trkpt lat="48.422194" lon="2.670593"><ele></ele><time>2023-8-15T11:39:29Z</time></trkpt>
<trkpt lat="48.422289" lon="2.670511"><ele></ele><time>2023-8-15T11:39:32Z</time></trkpt>
<trkpt lat="48.422379" lon="2.670419"><ele></ele><time>2023-8-15T11:39:35Z</time></trkpt>
<trkpt lat="48.422489" lon="2.670333"><ele></ele><time>2023-8-15T11:39:38Z</time></trkpt>
<trkpt lat="48.422576" lon="2.670272"><ele></ele><time>2023-8-15T11:39:41Z</time></trkpt>
<trkpt lat="48.422676" lon="2.670185"><ele></ele><time>2023-8-15T11:39:44Z</time></trkpt>
<trkpt lat="48.422759" lon="2.670127"><ele></ele><time>2023-8-15T11:39:47Z</time></trkpt>
<trkpt lat="48.422891" lon="2.670047"><ele></ele><time>2023-8-15T11:39:50Z</time></trkpt>
<trkpt lat="48.422991" lon="2.669941"><ele></ele><time>2023-8-15T11:39:53Z</time></trkpt>
<trkpt lat="48.423091" lon="2.669826"><ele></ele><time>2023-8-15T11:39:56Z</time></trkpt>
<trkpt lat="48.423172" lon="2.669759"><ele></ele><time>2023-8-15T11:39:59Z</time></trkpt>
<trkpt lat="48.423306" lon="2.669661"><ele></ele><time>2023-8-15T11:40:2Z</time></trkpt>
<trkpt lat="48.423411" lon="2.66959"><ele></ele><time>2023-8-15T11:40:5Z</time></trkpt>
<trkpt lat="48.423507" lon="2.669532"><ele></ele><time>2023-8-15T11:40:8Z</time></trkpt>
<trkpt lat="48.4236" lon="2.669474"><ele></ele><time>2023-8-15T11:40:11Z</time></trkpt>
<trkpt lat="48.423695" lon="2.669401"><ele></ele><time>2023-8-15T11:40:14Z</time></trkpt>
<trkpt lat="48.423778" lon="2.669322"><ele></ele><time>2023-8-15T11:40:17Z</time></trkpt>
<trkpt lat="48.423888" lon="2.669234"><ele></ele><time>2023-8-15T11:40:20Z</time></trkpt>
<trkpt lat="48.424025" lon="2.669159"><ele></ele><time>2023-8-15T11:40:23Z</time></trkpt>
<trkpt lat="48.424116" lon="2.669095"><ele></ele><time>2023-8-15T11:40:26Z</time></trkpt>
<trkpt lat="48.424219" lon="2.66903"><ele></ele><time>2023-8-15T11:40:29Z</time></trkpt>
<trkpt lat="48.42433" lon="2.668976"><ele></ele><time>2023-8-15T11:40:32Z</time></trkpt>
<trkpt lat="48.424429" lon="2.66894"><ele></ele><time>2023-8-15T11:40:35Z</time></trkpt>
<trkpt lat="48.424528" lon="2.66886"><ele></ele><time>2023-8-15T11:40:38Z</time></trkpt>
<trkpt lat="48.424631" lon="2.668802"><ele></ele><time>2023-8-15T11:40:41Z</time></trkpt>
<trkpt lat="48.424722" lon="2.668732"><ele></ele><time>2023-8-15T11:40:44Z</time></trkpt>
<trkpt lat="48.424819" lon="2.668671"><ele></ele><time>2023-8-15T11:40:47Z</time></trkpt>
<trkpt lat="48.424914" lon="2.668601"><ele></ele><time>2023-8-15T11:40:50Z</time></trkpt>
<trkpt lat="48.425027" lon="2.668533"><ele></ele><time>2023-8-15T11:40:53Z</time></trkpt>
<trkpt lat="48.425119" lon="2.668458"><ele></ele><time>2023-8-15T11:40:56Z</time></trkpt>
<trkpt lat="48.425201" lon="2.668399"><ele></ele><time>2023-8-15T11:40:59Z</time></trkpt>
<trkpt lat="48.425297" lon="2.668352"><ele></ele><time>2023-8-15T11:41:2Z</time></trkpt>
<trkpt lat="48.425415" lon="2.668272"><ele></ele><time>2023-8-15T11:41:5Z</time></trkpt>
<trkpt lat="48.425513" lon="2.668184"><ele></ele><time>2023-8-15T11:41:8Z</time></trkpt>
<trkpt lat="48.425608" lon="2.668111"><ele></ele><time>2023-8-15T11:41:11Z</time></trkpt>
<trkpt lat="48.425711" lon="2.668058"><ele></ele><time>2023-8-15T11:41:14Z</time></trkpt>
<trkpt lat="48.425854" lon="2.667946"><ele></ele><time>2023-8-15T11:41:17Z</time></trkpt>
<trkpt lat="48.426004" lon="2.667828"><ele></ele><time>2023-8-15T11:41:20Z</time></trkpt>
<trkpt lat="48.426157" lon="2.667771"><ele></ele><time>2023-8-15T11:41:23Z</time></trkpt>
<trkpt lat="48.426277" lon="2.667726"><ele></ele><time>2023-8-15T11:41:26Z</time></trkpt>
<trkpt lat="48.426396" lon="2.667633"><ele></ele><time>2023-8-15T11:41:29Z</time></trkpt>
<trkpt lat="48.426537" lon="2.667561"><ele></ele><time>2023-8-15T11:41:32Z</time></trkpt>
<trkpt lat="48.426626" lon="2.667509"><ele></ele><time>2023-8-15T11:41:35Z</time></trkpt>
<trkpt lat="48.426717" lon="2.667423"><ele></ele><time>2023-8-15T11:41:38Z</time></trkpt>
<trkpt lat="48.426837" lon="2.667341"><ele></ele><time>2023-8-15T11:41:41Z</time></trkpt>
<trkpt lat="48.426916" lon="2.667272"><ele></ele><time>2023-8-15T11:41:44Z</time></trkpt>
<trkpt lat="48.427035" lon="2.667238"><ele></ele><time>2023-8-15T11:41:47Z</time></trkpt>
<trkpt lat="48.427117" lon="2.66718"><ele></ele><time>2023-8-15T11:41:50Z</time></trkpt>
<trkpt lat="48.427237" lon="2.667074"><ele></ele><time>2023-8-15T11:41:53Z</time></trkpt>
<trkpt lat="48.427338" lon="2.667008"><ele></ele><time>2023-8-15T11:41:56Z</time></trkpt>
<trkpt lat="48.427441" lon="2.666946"><ele></ele><time>2023-8-15T11:41:59Z</time></trkpt>
<trkpt lat="48.42756" lon="2.66687"><ele></ele><time>2023-8-15T11:42:2Z</time></trkpt>
<trkpt lat="48.427673" lon="2.666797"><ele></ele><time>2023-8-15T11:42:5Z</time></trkpt>
<trkpt lat="48.427777" lon="2.666723"><ele></ele><time>2023-8-15T11:42:8Z</time></trkpt>
<trkpt lat="48.427907" lon="2.666656"><ele></ele><time>2023-8-15T11:42:11Z</time></trkpt>
<trkpt lat="48.428018" lon="2.666581"><ele></ele><time>2023-8-15T11:42:14Z</time></trkpt>
<trkpt lat="48.428101" lon="2.666522"><ele></ele><time>2023-8-15T11:42:17Z</time></trkpt>
<trkpt lat="48.428196" lon="2.66646"><ele></ele><time>2023-8-15T11:42:20Z</time></trkpt>
<trkpt lat="48.428304" lon="2.666401"><ele></ele><time>2023-8-15T11:42:23Z</time></trkpt>
<trkpt lat="48.428409" lon="2.666336"><ele></ele><time>2023-8-15T11:42:26Z</time></trkpt>
<trkpt lat="48.428495" lon="2.666281"><ele></ele><time>2023-8-15T11:42:29Z</time></trkpt>
<trkpt lat="48.428581" lon="2.666239"><ele></ele><time>2023-8-15T11:42:32Z</time></trkpt>
<trkpt lat="48.428673" lon="2.66619"><ele></ele><time>2023-8-15T11:42:35Z</time></trkpt>
<trkpt lat="48.42877" lon="2.666111"><ele></ele><time>2023-8-15T11:42:38Z</time></trkpt>
<trkpt lat="48.428866" lon="2.666037"><ele></ele><time>2023-8-15T11:42:41Z</time></trkpt>
<trkpt lat="48.428962" lon="2.665972"><ele></ele><time>2023-8-15T11:42:44Z</time></trkpt>
<trkpt lat="48.429047" lon="2.665911"><ele></ele><time>2023-8-15T11:42:47Z</time></trkpt>
<trkpt lat="48.429172" lon="2.665826"><ele></ele><time>2023-8-15T11:42:50Z</time></trkpt>
<trkpt lat="48.429284" lon="2.665739"><ele></ele><time>2023-8-15T11:42:53Z</time></trkpt>
<trkpt lat="48.429368" lon="2.665677"><ele></ele><time>2023-8-15T11:42:56Z</time></trkpt>
<trkpt lat="48.429463" lon="2.665613"><ele></ele><time>2023-8-15T11:42:59Z</time></trkpt>
<trkpt lat="48.429555" lon="2.66557"><ele></ele><time>2023-8-15T11:43:2Z</time></trkpt>
<trkpt lat="48.429646" lon="2.665515"><ele></ele><time>2023-8-15T11:43:5Z</time></trkpt>
<trkpt lat="48.429739" lon="2.665448"><ele></ele><time>2023-8-15T11:43:8Z</time></trkpt>
<trkpt lat="48.42985" lon="2.665371"><ele></ele><time>2023-8-15T11:43:11Z</time></trkpt>
<trkpt lat="48.429947" lon="2.665306"><ele></ele><time>2023-8-15T11:43:14Z</time></trkpt>
<trkpt lat="48.430065" lon="2.665229"><ele></ele><time>2023-8-15T11:43:17Z</time></trkpt>
<trkpt lat="48.430182" lon="2.66516"><ele></ele><time>2023-8-15T11:43:20Z</time></trkpt>
<trkpt lat="48.430278" lon="2.665119"><ele></ele><time>2023-8-15T11:43:23Z</time></trkpt>
<trkpt lat="48.430383" lon="2.665068"><ele></ele><time>2023-8-15T11:43:26Z</time></trkpt>
<trkpt lat="48.430474" lon="2.665022"><ele></ele><time>2023-8-15T11:43:29Z</time></trkpt>
<trkpt lat="48.430542" lon="2.664973"><ele></ele><time>2023-8-15T11:43:32Z</time></trkpt>
<trkpt lat="48.430545" lon="2.664974"><ele></ele><time>2023-8-15T11:43:35Z</time></trkpt>
<trkpt lat="48.430648" lon="2.664983"><ele></ele><time>2023-8-15T11:43:38Z</time></trkpt>
<trkpt lat="48.430773" lon="2.665009"><ele></ele><time>2023-8-15T11:43:41Z</time></trkpt>
<trkpt lat="48.430902" lon="2.665041"><ele></ele><time>2023-8-15T11:43:44Z</time></trkpt>
<trkpt lat="48.431025" lon="2.665059"><ele></ele><time>2023-8-15T11:43:47Z</time></trkpt>
<trkpt lat="48.431129" lon="2.665073"><ele></ele><time>2023-8-15T11:43:50Z</time></trkpt>
<trkpt lat="48.431247" lon="2.665099"><ele></ele><time>2023-8-15T11:43:53Z</time></trkpt>
<trkpt lat="48.431358" lon="2.665133"><ele></ele><time>2023-8-15T11:43:56Z</time></trkpt>
<trkpt lat="48.431476" lon="2.665156"><ele></ele><time>2023-8-15T11:43:59Z</time></trkpt>
<trkpt lat="48.431568" lon="2.665163"><ele></ele><time>2023-8-15T11:44:2Z</time></trkpt>
<trkpt lat="48.431679" lon="2.665191"><ele></ele><time>2023-8-15T11:44:5Z</time></trkpt>
<trkpt lat="48.431801" lon="2.665217"><ele></ele><time>2023-8-15T11:44:8Z</time></trkpt>
<trkpt lat="48.431927" lon="2.665244"><ele></ele><time>2023-8-15T11:44:11Z</time></trkpt>
<trkpt lat="48.432058" lon="2.665256"><ele></ele><time>2023-8-15T11:44:14Z</time></trkpt>
<trkpt lat="48.432184" lon="2.665291"><ele></ele><time>2023-8-15T11:44:17Z</time></trkpt>
<trkpt lat="48.432313" lon="2.665326"><ele></ele><time>2023-8-15T11:44:20Z</time></trkpt>
<trkpt lat="48.432439" lon="2.665343"><ele></ele><time>2023-8-15T11:44:23Z</time></trkpt>
<trkpt lat="48.432567" lon="2.665371"><ele></ele><time>2023-8-15T11:44:26Z</time></trkpt>
<trkpt lat="48.4327" lon="2.665429"><ele></ele><time>2023-8-15T11:44:29Z</time></trkpt>
<trkpt lat="48.432816" lon="2.665434"><ele></ele><time>2023-8-15T11:44:32Z</time></trkpt>
<trkpt lat="48.432947" lon="2.665447"><ele></ele><time>2023-8-15T11:44:35Z</time></trkpt>
<trkpt lat="48.433037" lon="2.665481"><ele></ele><time>2023-8-15T11:44:38Z</time></trkpt>
<trkpt lat="48.433175" lon="2.665494"><ele></ele><time>2023-8-15T11:44:41Z</time></trkpt>
<trkpt lat="48.43332" lon="2.665534"><ele></ele><time>2023-8-15T11:44:44Z</time></trkpt>
<trkpt lat="48.433436" lon="2.665555"><ele></ele><time>2023-8-15T11:44:47Z</time></trkpt>
<trkpt lat="48.433545" lon="2.665585"><ele></ele><time>2023-8-15T11:44:50Z</time></trkpt>
<trkpt lat="48.43364" lon="2.665606"><ele></ele><time>2023-8-15T11:44:53Z</time></trkpt>
<trkpt lat="48.43373" lon="2.665654"><ele></ele><time>2023-8-15T11:44:56Z</time></trkpt>
<trkpt lat="48.433908" lon="2.665704"><ele></ele><time>2023-8-15T11:44:59Z</time></trkpt>
<trkpt lat="48.43402" lon="2.665732"><ele></ele><time>2023-8-15T11:45:2Z</time></trkpt>
<trkpt lat="48.434114" lon="2.665759"><ele></ele><time>2023-8-15T11:45:5Z</time></trkpt>
<trkpt lat="48.434247" lon="2.665803"><ele></ele><time>2023-8-15T11:45:8Z</time></trkpt>
<trkpt lat="48.434346" lon="2.665823"><ele></ele><time>2023-8-15T11:45:11Z</time></trkpt>
<trkpt lat="48.434459" lon="2.665853"><ele></ele><time>2023-8-15T11:45:14Z</time></trkpt>
<trkpt lat="48.434571" lon="2.665883"><ele></ele><time>2023-8-15T11:45:17Z</time></trkpt>
<trkpt lat="48.434667" lon="2.665913"><ele></ele><time>2023-8-15T11:45:20Z</time></trkpt>
<trkpt lat="48.434772" lon="2.665935"><ele></ele><time>2023-8-15T11:45:23Z</time></trkpt>
<trkpt lat="48.434886" lon="2.665967"><ele></ele><time>2023-8-15T11:45:26Z</time></trkpt>
<trkpt lat="48.434986" lon="2.665983"><ele></ele><time>2023-8-15T11:45:29Z</time></trkpt>
<trkpt lat="48.435097" lon="2.666019"><ele></ele><time>2023-8-15T11:45:32Z</time></trkpt>
<trkpt lat="48.435199" lon="2.666045"><ele></ele><time>2023-8-15T11:45:35Z</time></trkpt>
<trkpt lat="48.43531" lon="2.666086"><ele></ele><time>2023-8-15T11:45:38Z</time></trkpt>
<trkpt lat="48.435407" lon="2.666117"><ele></ele><time>2023-8-15T11:45:41Z</time></trkpt>
<trkpt lat="48.435506" lon="2.666128"><ele></ele><time>2023-8-15T11:45:44Z</time></trkpt>
<trkpt lat="48.435629" lon="2.666158"><ele></ele><time>2023-8-15T11:45:47Z</time></trkpt>
<trkpt lat="48.435742" lon="2.666187"><ele></ele><time>2023-8-15T11:45:50Z</time></trkpt>
<trkpt lat="48.435844" lon="2.666207"><ele></ele><time>2023-8-15T11:45:53Z</time></trkpt>
<trkpt lat="48.435948" lon="2.666229"><ele></ele><time>2023-8-15T11:45:56Z</time></trkpt>
<trkpt lat="48.436037" lon="2.666263"><ele></ele><time>2023-8-15T11:45:59Z</time></trkpt>
<trkpt lat="48.436142" lon="2.66629"><ele></ele><time>2023-8-15T11:46:2Z</time></trkpt>
<trkpt lat="48.436243" lon="2.666312"><ele></ele><time>2023-8-15T11:46:5Z</time></trkpt>
<trkpt lat="48.436337" lon="2.666334"><ele></ele><time>2023-8-15T11:46:8Z</time></trkpt>
<trkpt lat="48.436441" lon="2.66634"><ele></ele><time>2023-8-15T11:46:11Z</time></trkpt>
<trkpt lat="48.43653" lon="2.666388"><ele></ele><time>2023-8-15T11:46:14Z</time></trkpt>
<trkpt lat="48.436677" lon="2.666407"><ele></ele><time>2023-8-15T11:46:17Z</time></trkpt>
<trkpt lat="48.436783" lon="2.666445"><ele></ele><time>2023-8-15T11:46:20Z</time></trkpt>
<trkpt lat="48.436902" lon="2.666498"><ele></ele><time>2023-8-15T11:46:23Z</time></trkpt>
<trkpt lat="48.437001" lon="2.666528"><ele></ele><time>2023-8-15T11:46:26Z</time></trkpt>
<trkpt lat="48.437091" lon="2.666561"><ele></ele><time>2023-8-15T11:46:29Z</time></trkpt>
<trkpt lat="48.437205" lon="2.666614"><ele></ele><time>2023-8-15T11:46:32Z</time></trkpt>
<trkpt lat="48.437301" lon="2.666675"><ele></ele><time>2023-8-15T11:46:35Z</time></trkpt>
<trkpt lat="48.437443" lon="2.666722"><ele></ele><time>2023-8-15T11:46:38Z</time></trkpt>
<trkpt lat="48.437577" lon="2.666782"><ele></ele><time>2023-8-15T11:46:41Z</time></trkpt>
<trkpt lat="48.437673" lon="2.666838"><ele></ele><time>2023-8-15T11:46:44Z</time></trkpt>
<trkpt lat="48.437772" lon="2.666903"><ele></ele><time>2023-8-15T11:46:47Z</time></trkpt>
<trkpt lat="48.437898" lon="2.666942"><ele></ele><time>2023-8-15T11:46:50Z</time></trkpt>
<trkpt lat="48.437999" lon="2.666987"><ele></ele><time>2023-8-15T11:46:53Z</time></trkpt>
<trkpt lat="48.438108" lon="2.667045"><ele></ele><time>2023-8-15T11:46:56Z</time></trkpt>
<trkpt lat="48.438232" lon="2.667098"><ele></ele><time>2023-8-15T11:46:59Z</time></trkpt>
<trkpt lat="48.438321" lon="2.667137"><ele></ele><time>2023-8-15T11:47:2Z</time></trkpt>
<trkpt lat="48.438432" lon="2.667187"><ele></ele><time>2023-8-15T11:47:5Z</time></trkpt>
<trkpt lat="48.438537" lon="2.667218"><ele></ele><time>2023-8-15T11:47:8Z</time></trkpt>
<trkpt lat="48.438665" lon="2.66728"><ele></ele><time>2023-8-15T11:47:11Z</time></trkpt>
<trkpt lat="48.438778" lon="2.667326"><ele></ele><time>2023-8-15T11:47:14Z</time></trkpt>
<trkpt lat="48.438899" lon="2.66739"><ele></ele><time>2023-8-15T11:47:17Z</time></trkpt>
<trkpt lat="48.439018" lon="2.667471"><ele></ele><time>2023-8-15T11:47:20Z</time></trkpt>
<trkpt lat="48.439161" lon="2.667536"><ele></ele><time>2023-8-15T11:47:23Z</time></trkpt>
<trkpt lat="48.439253" lon="2.667571"><ele></ele><time>2023-8-15T11:47:26Z</time></trkpt>
<trkpt lat="48.43936" lon="2.667638"><ele></ele><time>2023-8-15T11:47:29Z</time></trkpt>
<trkpt lat="48.439496" lon="2.667722"><ele></ele><time>2023-8-15T11:47:32Z</time></trkpt>
<trkpt lat="48.43961" lon="2.667781"><ele></ele><time>2023-8-15T11:47:35Z</time></trkpt>
<trkpt lat="48.439723" lon="2.667839"><ele></ele><time>2023-8-15T11:47:38Z</time></trkpt>
<trkpt lat="48.439825" lon="2.667898"><ele></ele><time>2023-8-15T11:47:41Z</time></trkpt>
<trkpt lat="48.439941" lon="2.667975"><ele></ele><time>2023-8-15T11:47:44Z</time></trkpt>
<trkpt lat="48.440056" lon="2.668048"><ele></ele><time>2023-8-15T11:47:47Z</time></trkpt>
<trkpt lat="48.440163" lon="2.668099"><ele></ele><time>2023-8-15T11:47:50Z</time></trkpt>
<trkpt lat="48.440266" lon="2.668127"><ele></ele><time>2023-8-15T11:47:53Z</time></trkpt>
<trkpt lat="48.440356" lon="2.668172"><ele></ele><time>2023-8-15T11:47:56Z</time></trkpt>
<trkpt lat="48.440448" lon="2.66824"><ele></ele><time>2023-8-15T11:47:59Z</time></trkpt>
<trkpt lat="48.440537" lon="2.668297"><ele></ele><time>2023-8-15T11:48:2Z</time></trkpt>
<trkpt lat="48.44063" lon="2.668346"><ele></ele><time>2023-8-15T11:48:5Z</time></trkpt>
<trkpt lat="48.440728" lon="2.66839"><ele></ele><time>2023-8-15T11:48:8Z</time></trkpt>
<trkpt lat="48.440826" lon="2.668443"><ele></ele><time>2023-8-15T11:48:11Z</time></trkpt>
<trkpt lat="48.440917" lon="2.668506"><ele></ele><time>2023-8-15T11:48:14Z</time></trkpt>
<trkpt lat="48.441015" lon="2.668552"><ele></ele><time>2023-8-15T11:48:17Z</time></trkpt>
<trkpt lat="48.441119" lon="2.668584"><ele></ele><time>2023-8-15T11:48:20Z</time></trkpt>
<trkpt lat="48.441228" lon="2.66864"><ele></ele><time>2023-8-15T11:48:23Z</time></trkpt>
<trkpt lat="48.44132" lon="2.668705"><ele></ele><time>2023-8-15T11:48:26Z</time></trkpt>
<trkpt lat="48.441368" lon="2.668822"><ele></ele><time>2023-8-15T11:48:29Z</time></trkpt>
<trkpt lat="48.441475" lon="2.668914"><ele></ele><time>2023-8-15T11:48:32Z</time></trkpt>
<trkpt lat="48.441577" lon="2.66896"><ele></ele><time>2023-8-15T11:48:35Z</time></trkpt>
<trkpt lat="48.441679" lon="2.668986"><ele></ele><time>2023-8-15T11:48:38Z</time></trkpt>
<trkpt lat="48.441802" lon="2.669047"><ele></ele><time>2023-8-15T11:48:41Z</time></trkpt>
<trkpt lat="48.441915" lon="2.669109"><ele></ele><time>2023-8-15T11:48:44Z</time></trkpt>
<trkpt lat="48.441987" lon="2.669208"><ele></ele><time>2023-8-15T11:48:47Z</time></trkpt>
<trkpt lat="48.442119" lon="2.669289"><ele></ele><time>2023-8-15T11:48:50Z</time></trkpt>
<trkpt lat="48.442216" lon="2.669308"><ele></ele><time>2023-8-15T11:48:53Z</time></trkpt>
<trkpt lat="48.442345" lon="2.669298"><ele></ele><time>2023-8-15T11:48:56Z</time></trkpt>
<trkpt lat="48.442436" lon="2.669388"><ele></ele><time>2023-8-15T11:48:59Z</time></trkpt>
<trkpt lat="48.442541" lon="2.669451"><ele></ele><time>2023-8-15T11:49:2Z</time></trkpt>
<trkpt lat="48.442643" lon="2.669467"><ele></ele><time>2023-8-15T11:49:5Z</time></trkpt>
<trkpt lat="48.442635" lon="2.669455"><ele></ele><time>2023-8-15T11:49:8Z</time></trkpt>
<trkpt lat="48.442638" lon="2.669453"><ele></ele><time>2023-8-15T11:49:11Z</time></trkpt>
<trkpt lat="48.442638" lon="2.669453"><ele></ele><time>2023-8-15T11:49:14Z</time></trkpt>
<trkpt lat="48.442642" lon="2.669453"><ele></ele><time>2023-8-15T11:49:17Z</time></trkpt>
<trkpt lat="48.442732" lon="2.669447"><ele></ele><time>2023-8-15T11:49:20Z</time></trkpt>
<trkpt lat="48.442822" lon="2.669386"><ele></ele><time>2023-8-15T11:49:23Z</time></trkpt>
<trkpt lat="48.442909" lon="2.669349"><ele></ele><time>2023-8-15T11:49:26Z</time></trkpt>
<trkpt lat="48.443003" lon="2.669353"><ele></ele><time>2023-8-15T11:49:29Z</time></trkpt>
<trkpt lat="48.4431" lon="2.669404"><ele></ele><time>2023-8-15T11:49:32Z</time></trkpt>
<trkpt lat="48.443174" lon="2.669489"><ele></ele><time>2023-8-15T11:49:35Z</time></trkpt>
<trkpt lat="48.443276" lon="2.669539"><ele></ele><time>2023-8-15T11:49:38Z</time></trkpt>
<trkpt lat="48.44337" lon="2.669573"><ele></ele><time>2023-8-15T11:49:41Z</time></trkpt>
<trkpt lat="48.443466" lon="2.669609"><ele></ele><time>2023-8-15T11:49:44Z</time></trkpt>
<trkpt lat="48.443569" lon="2.669667"><ele></ele><time>2023-8-15T11:49:47Z</time></trkpt>
<trkpt lat="48.443645" lon="2.669768"><ele></ele><time>2023-8-15T11:49:50Z</time></trkpt>
<trkpt lat="48.44375" lon="2.669803"><ele></ele><time>2023-8-15T11:49:53Z</time></trkpt>
<trkpt lat="48.443808" lon="2.669673"><ele></ele><time>2023-8-15T11:49:56Z</time></trkpt>
<trkpt lat="48.443786" lon="2.669509"><ele></ele><time>2023-8-15T11:49:59Z</time></trkpt>
<trkpt lat="48.443799" lon="2.669372"><ele></ele><time>2023-8-15T11:50:2Z</time></trkpt>
<trkpt lat="48.443776" lon="2.669366"><ele></ele><time>2023-8-15T11:50:5Z</time></trkpt>
<trkpt lat="48.443777" lon="2.669359"><ele></ele><time>2023-8-15T11:50:8Z</time></trkpt>
<trkpt lat="48.443836" lon="2.66922"><ele></ele><time>2023-8-15T11:50:11Z</time></trkpt>
<trkpt lat="48.443932" lon="2.669093"><ele></ele><time>2023-8-15T11:50:14Z</time></trkpt>
<trkpt lat="48.444036" lon="2.669018"><ele></ele><time>2023-8-15T11:50:17Z</time></trkpt>
<trkpt lat="48.444135" lon="2.668929"><ele></ele><time>2023-8-15T11:50:20Z</time></trkpt>
<trkpt lat="48.444208" lon="2.668848"><ele></ele><time>2023-8-15T11:50:23Z</time></trkpt>
<trkpt lat="48.444282" lon="2.668758"><ele></ele><time>2023-8-15T11:50:26Z</time></trkpt>
<trkpt lat="48.444368" lon="2.668645"><ele></ele><time>2023-8-15T11:50:29Z</time></trkpt>
<trkpt lat="48.444479" lon="2.668515"><ele></ele><time>2023-8-15T11:50:32Z</time></trkpt>
<trkpt lat="48.444586" lon="2.668418"><ele></ele><time>2023-8-15T11:50:35Z</time></trkpt>
<trkpt lat="48.444673" lon="2.668336"><ele></ele><time>2023-8-15T11:50:38Z</time></trkpt>
<trkpt lat="48.444739" lon="2.668242"><ele></ele><time>2023-8-15T11:50:41Z</time></trkpt>
<trkpt lat="48.444808" lon="2.668139"><ele></ele><time>2023-8-15T11:50:44Z</time></trkpt>
<trkpt lat="48.444882" lon="2.668047"><ele></ele><time>2023-8-15T11:50:47Z</time></trkpt>
<trkpt lat="48.444964" lon="2.667928"><ele></ele><time>2023-8-15T11:50:50Z</time></trkpt>
<trkpt lat="48.445061" lon="2.667798"><ele></ele><time>2023-8-15T11:50:53Z</time></trkpt>
<trkpt lat="48.445165" lon="2.667692"><ele></ele><time>2023-8-15T11:50:56Z</time></trkpt>
<trkpt lat="48.445246" lon="2.667596"><ele></ele><time>2023-8-15T11:50:59Z</time></trkpt>
<trkpt lat="48.445341" lon="2.667483"><ele></ele><time>2023-8-15T11:51:2Z</time></trkpt>
<trkpt lat="48.44545" lon="2.667352"><ele></ele><time>2023-8-15T11:51:5Z</time></trkpt>
<trkpt lat="48.445516" lon="2.667255"><ele></ele><time>2023-8-15T11:51:8Z</time></trkpt>
<trkpt lat="48.445627" lon="2.667131"><ele></ele><time>2023-8-15T11:51:11Z</time></trkpt>
<trkpt lat="48.445708" lon="2.667045"><ele></ele><time>2023-8-15T11:51:14Z</time></trkpt>
<trkpt lat="48.445785" lon="2.666953"><ele></ele><time>2023-8-15T11:51:17Z</time></trkpt>
<trkpt lat="48.445892" lon="2.666836"><ele></ele><time>2023-8-15T11:51:20Z</time></trkpt>
<trkpt lat="48.446003" lon="2.666695"><ele></ele><time>2023-8-15T11:51:23Z</time></trkpt>
<trkpt lat="48.446082" lon="2.666549"><ele></ele><time>2023-8-15T11:51:26Z</time></trkpt>
<trkpt lat="48.446196" lon="2.666451"><ele></ele><time>2023-8-15T11:51:29Z</time></trkpt>
<trkpt lat="48.446278" lon="2.666331"><ele></ele><time>2023-8-15T11:51:32Z</time></trkpt>
<trkpt lat="48.446355" lon="2.666258"><ele></ele><time>2023-8-15T11:51:35Z</time></trkpt>
<trkpt lat="48.446471" lon="2.666127"><ele></ele><time>2023-8-15T11:51:38Z</time></trkpt>
<trkpt lat="48.44655" lon="2.666023"><ele></ele><time>2023-8-15T11:51:41Z</time></trkpt>
<trkpt lat="48.446639" lon="2.665927"><ele></ele><time>2023-8-15T11:51:44Z</time></trkpt>
<trkpt lat="48.446714" lon="2.665816"><ele></ele><time>2023-8-15T11:51:47Z</time></trkpt>
<trkpt lat="48.446784" lon="2.665728"><ele></ele><time>2023-8-15T11:51:50Z</time></trkpt>
<trkpt lat="48.446886" lon="2.665623"><ele></ele><time>2023-8-15T11:51:53Z</time></trkpt>
<trkpt lat="48.446984" lon="2.665518"><ele></ele><time>2023-8-15T11:51:56Z</time></trkpt>
<trkpt lat="48.447087" lon="2.665384"><ele></ele><time>2023-8-15T11:51:59Z</time></trkpt>
<trkpt lat="48.447176" lon="2.665252"><ele></ele><time>2023-8-15T11:52:2Z</time></trkpt>
<trkpt lat="48.447258" lon="2.665144"><ele></ele><time>2023-8-15T11:52:5Z</time></trkpt>
<trkpt lat="48.44736" lon="2.665017"><ele></ele><time>2023-8-15T11:52:8Z</time></trkpt>
<trkpt lat="48.447471" lon="2.664901"><ele></ele><time>2023-8-15T11:52:11Z</time></trkpt>
<trkpt lat="48.447565" lon="2.664784"><ele></ele><time>2023-8-15T11:52:14Z</time></trkpt>
<trkpt lat="48.447657" lon="2.66469"><ele></ele><time>2023-8-15T11:52:17Z</time></trkpt>
<trkpt lat="48.447745" lon="2.664579"><ele></ele><time>2023-8-15T11:52:20Z</time></trkpt>
<trkpt lat="48.447831" lon="2.664526"><ele></ele><time>2023-8-15T11:52:23Z</time></trkpt>
<trkpt lat="48.447899" lon="2.664423"><ele></ele><time>2023-8-15T11:52:26Z</time></trkpt>
<trkpt lat="48.447979" lon="2.664299"><ele></ele><time>2023-8-15T11:52:29Z</time></trkpt>
<trkpt lat="48.448044" lon="2.664193"><ele></ele><time>2023-8-15T11:52:32Z</time></trkpt>
<trkpt lat="48.448127" lon="2.664084"><ele></ele><time>2023-8-15T11:52:35Z</time></trkpt>
<trkpt lat="48.448218" lon="2.663986"><ele></ele><time>2023-8-15T11:52:38Z</time></trkpt>
<trkpt lat="48.448295" lon="2.663901"><ele></ele><time>2023-8-15T11:52:41Z</time></trkpt>
<trkpt lat="48.448369" lon="2.66382"><ele></ele><time>2023-8-15T11:52:44Z</time></trkpt>
<trkpt lat="48.448478" lon="2.663691"><ele></ele><time>2023-8-15T11:52:47Z</time></trkpt>
<trkpt lat="48.448571" lon="2.663562"><ele></ele><time>2023-8-15T11:52:50Z</time></trkpt>
<trkpt lat="48.448658" lon="2.663469"><ele></ele><time>2023-8-15T11:52:53Z</time></trkpt>
<trkpt lat="48.448738" lon="2.663383"><ele></ele><time>2023-8-15T11:52:56Z</time></trkpt>
<trkpt lat="48.448803" lon="2.663277"><ele></ele><time>2023-8-15T11:52:59Z</time></trkpt>
<trkpt lat="48.44889" lon="2.663197"><ele></ele><time>2023-8-15T11:53:2Z</time></trkpt>
<trkpt lat="48.448968" lon="2.663096"><ele></ele><time>2023-8-15T11:53:5Z</time></trkpt>
<trkpt lat="48.449059" lon="2.662979"><ele></ele><time>2023-8-15T11:53:8Z</time></trkpt>
<trkpt lat="48.44916" lon="2.66288"><ele></ele><time>2023-8-15T11:53:11Z</time></trkpt>
<trkpt lat="48.449267" lon="2.662767"><ele></ele><time>2023-8-15T11:53:14Z</time></trkpt>
<trkpt lat="48.449339" lon="2.662681"><ele></ele><time>2023-8-15T11:53:17Z</time></trkpt>
<trkpt lat="48.449426" lon="2.662578"><ele></ele><time>2023-8-15T11:53:20Z</time></trkpt>
<trkpt lat="48.449506" lon="2.662486"><ele></ele><time>2023-8-15T11:53:23Z</time></trkpt>
<trkpt lat="48.449613" lon="2.662371"><ele></ele><time>2023-8-15T11:53:26Z</time></trkpt>
<trkpt lat="48.449699" lon="2.662253"><ele></ele><time>2023-8-15T11:53:29Z</time></trkpt>
<trkpt lat="48.449786" lon="2.662129"><ele></ele><time>2023-8-15T11:53:32Z</time></trkpt>
<trkpt lat="48.449878" lon="2.661988"><ele></ele><time>2023-8-15T11:53:35Z</time></trkpt>
<trkpt lat="48.449994" lon="2.661856"><ele></ele><time>2023-8-15T11:53:38Z</time></trkpt>
<trkpt lat="48.450084" lon="2.661721"><ele></ele><time>2023-8-15T11:53:41Z</time></trkpt>
<trkpt lat="48.450169" lon="2.661632"><ele></ele><time>2023-8-15T11:53:44Z</time></trkpt>
<trkpt lat="48.450259" lon="2.661526"><ele></ele><time>2023-8-15T11:53:47Z</time></trkpt>
<trkpt lat="48.450332" lon="2.661438"><ele></ele><time>2023-8-15T11:53:50Z</time></trkpt>
<trkpt lat="48.450417" lon="2.661359"><ele></ele><time>2023-8-15T11:53:53Z</time></trkpt>
<trkpt lat="48.450503" lon="2.66124"><ele></ele><time>2023-8-15T11:53:56Z</time></trkpt>
<trkpt lat="48.450594" lon="2.661141"><ele></ele><time>2023-8-15T11:53:59Z</time></trkpt>
<trkpt lat="48.450671" lon="2.66107"><ele></ele><time>2023-8-15T11:54:2Z</time></trkpt>
<trkpt lat="48.450771" lon="2.660942"><ele></ele><time>2023-8-15T11:54:5Z</time></trkpt>
<trkpt lat="48.450846" lon="2.660846"><ele></ele><time>2023-8-15T11:54:8Z</time></trkpt>
<trkpt lat="48.450942" lon="2.66075"><ele></ele><time>2023-8-15T11:54:11Z</time></trkpt>
<trkpt lat="48.451013" lon="2.660643"><ele></ele><time>2023-8-15T11:54:14Z</time></trkpt>
<trkpt lat="48.451101" lon="2.660532"><ele></ele><time>2023-8-15T11:54:17Z</time></trkpt>
<trkpt lat="48.451194" lon="2.660428"><ele></ele><time>2023-8-15T11:54:20Z</time></trkpt>
<trkpt lat="48.451281" lon="2.660326"><ele></ele><time>2023-8-15T11:54:23Z</time></trkpt>
<trkpt lat="48.451364" lon="2.660235"><ele></ele><time>2023-8-15T11:54:26Z</time></trkpt>
<trkpt lat="48.451464" lon="2.660112"><ele></ele><time>2023-8-15T11:54:29Z</time></trkpt>
<trkpt lat="48.451541" lon="2.660029"><ele></ele><time>2023-8-15T11:54:32Z</time></trkpt>
<trkpt lat="48.45164" lon="2.65991"><ele></ele><time>2023-8-15T11:54:35Z</time></trkpt>
<trkpt lat="48.451754" lon="2.659771"><ele></ele><time>2023-8-15T11:54:38Z</time></trkpt>
<trkpt lat="48.451846" lon="2.659654"><ele></ele><time>2023-8-15T11:54:41Z</time></trkpt>
<trkpt lat="48.451913" lon="2.659561"><ele></ele><time>2023-8-15T11:54:44Z</time></trkpt>
<trkpt lat="48.452" lon="2.659478"><ele></ele><time>2023-8-15T11:54:47Z</time></trkpt>
<trkpt lat="48.452135" lon="2.65939"><ele></ele><time>2023-8-15T11:54:50Z</time></trkpt>
<trkpt lat="48.452263" lon="2.659419"><ele></ele><time>2023-8-15T11:54:53Z</time></trkpt>
<trkpt lat="48.452365" lon="2.659478"><ele></ele><time>2023-8-15T11:54:56Z</time></trkpt>
<trkpt lat="48.452459" lon="2.659505"><ele></ele><time>2023-8-15T11:54:59Z</time></trkpt>
<trkpt lat="48.452592" lon="2.659548"><ele></ele><time>2023-8-15T11:55:2Z</time></trkpt>
<trkpt lat="48.452733" lon="2.659564"><ele></ele><time>2023-8-15T11:55:5Z</time></trkpt>
<trkpt lat="48.452848" lon="2.659556"><ele></ele><time>2023-8-15T11:55:8Z</time></trkpt>
<trkpt lat="48.45297" lon="2.659567"><ele></ele><time>2023-8-15T11:55:11Z</time></trkpt>
<trkpt lat="48.453068" lon="2.659599"><ele></ele><time>2023-8-15T11:55:14Z</time></trkpt>
<trkpt lat="48.453167" lon="2.659619"><ele></ele><time>2023-8-15T11:55:17Z</time></trkpt>
<trkpt lat="48.453288" lon="2.65965"><ele></ele><time>2023-8-15T11:55:20Z</time></trkpt>
<trkpt lat="48.453407" lon="2.659676"><ele></ele><time>2023-8-15T11:55:23Z</time></trkpt>
<trkpt lat="48.453538" lon="2.659689"><ele></ele><time>2023-8-15T11:55:26Z</time></trkpt>
<trkpt lat="48.453686" lon="2.659707"><ele></ele><time>2023-8-15T11:55:29Z</time></trkpt>
<trkpt lat="48.45382" lon="2.65972"><ele></ele><time>2023-8-15T11:55:32Z</time></trkpt>
<trkpt lat="48.453935" lon="2.659736"><ele></ele><time>2023-8-15T11:55:35Z</time></trkpt>
<trkpt lat="48.454036" lon="2.659738"><ele></ele><time>2023-8-15T11:55:38Z</time></trkpt>
<trkpt lat="48.454164" lon="2.659774"><ele></ele><time>2023-8-15T11:55:41Z</time></trkpt>
<trkpt lat="48.454266" lon="2.659796"><ele></ele><time>2023-8-15T11:55:44Z</time></trkpt>
<trkpt lat="48.454392" lon="2.659803"><ele></ele><time>2023-8-15T11:55:47Z</time></trkpt>
<trkpt lat="48.45449" lon="2.659808"><ele></ele><time>2023-8-15T11:55:50Z</time></trkpt>
<trkpt lat="48.454593" lon="2.659836"><ele></ele><time>2023-8-15T11:55:53Z</time></trkpt>
<trkpt lat="48.454682" lon="2.65986"><ele></ele><time>2023-8-15T11:55:56Z</time></trkpt>
<trkpt lat="48.454782" lon="2.659874"><ele></ele><time>2023-8-15T11:55:59Z</time></trkpt>
<trkpt lat="48.454894" lon="2.65989"><ele></ele><time>2023-8-15T11:56:2Z</time></trkpt>
<trkpt lat="48.455003" lon="2.659912"><ele></ele><time>2023-8-15T11:56:5Z</time></trkpt>
<trkpt lat="48.455115" lon="2.659944"><ele></ele><time>2023-8-15T11:56:8Z</time></trkpt>
<trkpt lat="48.455223" lon="2.659967"><ele></ele><time>2023-8-15T11:56:11Z</time></trkpt>
<trkpt lat="48.455338" lon="2.659997"><ele></ele><time>2023-8-15T11:56:14Z</time></trkpt>
<trkpt lat="48.455446" lon="2.660021"><ele></ele><time>2023-8-15T11:56:17Z</time></trkpt>
<trkpt lat="48.455541" lon="2.660054"><ele></ele><time>2023-8-15T11:56:20Z</time></trkpt>
<trkpt lat="48.455664" lon="2.660063"><ele></ele><time>2023-8-15T11:56:23Z</time></trkpt>
<trkpt lat="48.45579" lon="2.660078"><ele></ele><time>2023-8-15T11:56:26Z</time></trkpt>
<trkpt lat="48.455909" lon="2.660087"><ele></ele><time>2023-8-15T11:56:29Z</time></trkpt>
<trkpt lat="48.456054" lon="2.660104"><ele></ele><time>2023-8-15T11:56:32Z</time></trkpt>
<trkpt lat="48.456152" lon="2.660144"><ele></ele><time>2023-8-15T11:56:35Z</time></trkpt>
<trkpt lat="48.456263" lon="2.660111"><ele></ele><time>2023-8-15T11:56:38Z</time></trkpt>
<trkpt lat="48.456288" lon="2.659961"><ele></ele><time>2023-8-15T11:56:41Z</time></trkpt>
<trkpt lat="48.456283" lon="2.659795"><ele></ele><time>2023-8-15T11:56:44Z</time></trkpt>
<trkpt lat="48.456308" lon="2.659659"><ele></ele><time>2023-8-15T11:56:47Z</time></trkpt>
<trkpt lat="48.456362" lon="2.659507"><ele></ele><time>2023-8-15T11:56:50Z</time></trkpt>
<trkpt lat="48.456403" lon="2.659339"><ele></ele><time>2023-8-15T11:56:53Z</time></trkpt>
<trkpt lat="48.45642" lon="2.659203"><ele></ele><time>2023-8-15T11:56:56Z</time></trkpt>
<trkpt lat="48.456454" lon="2.659052"><ele></ele><time>2023-8-15T11:56:59Z</time></trkpt>
<trkpt lat="48.456513" lon="2.658889"><ele></ele><time>2023-8-15T11:57:2Z</time></trkpt>
<trkpt lat="48.456556" lon="2.658721"><ele></ele><time>2023-8-15T11:57:5Z</time></trkpt>
<trkpt lat="48.456581" lon="2.658586"><ele></ele><time>2023-8-15T11:57:8Z</time></trkpt>
<trkpt lat="48.456655" lon="2.658447"><ele></ele><time>2023-8-15T11:57:11Z</time></trkpt>
<trkpt lat="48.456709" lon="2.658293"><ele></ele><time>2023-8-15T11:57:14Z</time></trkpt>
<trkpt lat="48.456774" lon="2.658162"><ele></ele><time>2023-8-15T11:57:17Z</time></trkpt>
<trkpt lat="48.456825" lon="2.658049"><ele></ele><time>2023-8-15T11:57:20Z</time></trkpt>
<trkpt lat="48.456894" lon="2.657897"><ele></ele><time>2023-8-15T11:57:23Z</time></trkpt>
<trkpt lat="48.456981" lon="2.657808"><ele></ele><time>2023-8-15T11:57:26Z</time></trkpt>
<trkpt lat="48.457089" lon="2.657764"><ele></ele><time>2023-8-15T11:57:29Z</time></trkpt>
<trkpt lat="48.457214" lon="2.657718"><ele></ele><time>2023-8-15T11:57:32Z</time></trkpt>
<trkpt lat="48.457304" lon="2.657666"><ele></ele><time>2023-8-15T11:57:35Z</time></trkpt>
<trkpt lat="48.457448" lon="2.657579"><ele></ele><time>2023-8-15T11:57:38Z</time></trkpt>
<trkpt lat="48.457519" lon="2.657663"><ele></ele><time>2023-8-15T11:57:41Z</time></trkpt>
<trkpt lat="48.457536" lon="2.657832"><ele></ele><time>2023-8-15T11:57:44Z</time></trkpt>
<trkpt lat="48.457572" lon="2.657986"><ele></ele><time>2023-8-15T11:57:47Z</time></trkpt>
<trkpt lat="48.457643" lon="2.658078"><ele></ele><time>2023-8-15T11:57:50Z</time></trkpt>
<trkpt lat="48.457737" lon="2.65812"><ele></ele><time>2023-8-15T11:57:53Z</time></trkpt>
<trkpt lat="48.457845" lon="2.658129"><ele></ele><time>2023-8-15T11:57:56Z</time></trkpt>
<trkpt lat="48.457958" lon="2.658226"><ele></ele><time>2023-8-15T11:57:59Z</time></trkpt>
<trkpt lat="48.458054" lon="2.658379"><ele></ele><time>2023-8-15T11:58:2Z</time></trkpt>
<trkpt lat="48.458112" lon="2.658547"><ele></ele><time>2023-8-15T11:58:5Z</time></trkpt>
<trkpt lat="48.458174" lon="2.658731"><ele></ele><time>2023-8-15T11:58:8Z</time></trkpt>
<trkpt lat="48.458273" lon="2.658897"><ele></ele><time>2023-8-15T11:58:11Z</time></trkpt>
<trkpt lat="48.458377" lon="2.659035"><ele></ele><time>2023-8-15T11:58:14Z</time></trkpt>
<trkpt lat="48.458465" lon="2.659184"><ele></ele><time>2023-8-15T11:58:17Z</time></trkpt>
<trkpt lat="48.458529" lon="2.659343"><ele></ele><time>2023-8-15T11:58:20Z</time></trkpt>
<trkpt lat="48.45855" lon="2.659519"><ele></ele><time>2023-8-15T11:58:23Z</time></trkpt>
<trkpt lat="48.458543" lon="2.659699"><ele></ele><time>2023-8-15T11:58:26Z</time></trkpt>
<trkpt lat="48.45855" lon="2.659895"><ele></ele><time>2023-8-15T11:58:29Z</time></trkpt>
<trkpt lat="48.458544" lon="2.660106"><ele></ele><time>2023-8-15T11:58:32Z</time></trkpt>
<trkpt lat="48.458545" lon="2.660296"><ele></ele><time>2023-8-15T11:58:35Z</time></trkpt>
<trkpt lat="48.458592" lon="2.660486"><ele></ele><time>2023-8-15T11:58:38Z</time></trkpt>
<trkpt lat="48.458654" lon="2.660684"><ele></ele><time>2023-8-15T11:58:41Z</time></trkpt>
<trkpt lat="48.458778" lon="2.660818"><ele></ele><time>2023-8-15T11:58:44Z</time></trkpt>
<trkpt lat="48.458908" lon="2.660869"><ele></ele><time>2023-8-15T11:58:47Z</time></trkpt>
<trkpt lat="48.459024" lon="2.660914"><ele></ele><time>2023-8-15T11:58:50Z</time></trkpt>
<trkpt lat="48.459162" lon="2.66099"><ele></ele><time>2023-8-15T11:58:53Z</time></trkpt>
<trkpt lat="48.459287" lon="2.661086"><ele></ele><time>2023-8-15T11:58:56Z</time></trkpt>
<trkpt lat="48.459389" lon="2.661159"><ele></ele><time>2023-8-15T11:58:59Z</time></trkpt>
<trkpt lat="48.459477" lon="2.661234"><ele></ele><time>2023-8-15T11:59:2Z</time></trkpt>
<trkpt lat="48.459599" lon="2.661302"><ele></ele><time>2023-8-15T11:59:5Z</time></trkpt>
<trkpt lat="48.459692" lon="2.661346"><ele></ele><time>2023-8-15T11:59:8Z</time></trkpt>
<trkpt lat="48.45982" lon="2.661376"><ele></ele><time>2023-8-15T11:59:11Z</time></trkpt>
<trkpt lat="48.459927" lon="2.661414"><ele></ele><time>2023-8-15T11:59:14Z</time></trkpt>
<trkpt lat="48.460022" lon="2.661387"><ele></ele><time>2023-8-15T11:59:17Z</time></trkpt>
<trkpt lat="48.460125" lon="2.661348"><ele></ele><time>2023-8-15T11:59:20Z</time></trkpt>
<trkpt lat="48.460219" lon="2.661277"><ele></ele><time>2023-8-15T11:59:23Z</time></trkpt>
<trkpt lat="48.460334" lon="2.661229"><ele></ele><time>2023-8-15T11:59:26Z</time></trkpt>
<trkpt lat="48.460436" lon="2.661167"><ele></ele><time>2023-8-15T11:59:29Z</time></trkpt>
<trkpt lat="48.460546" lon="2.66103"><ele></ele><time>2023-8-15T11:59:32Z</time></trkpt>
<trkpt lat="48.460601" lon="2.660868"><ele></ele><time>2023-8-15T11:59:35Z</time></trkpt>
<trkpt lat="48.460697" lon="2.660743"><ele></ele><time>2023-8-15T11:59:38Z</time></trkpt>
<trkpt lat="48.460768" lon="2.660624"><ele></ele><time>2023-8-15T11:59:41Z</time></trkpt>
<trkpt lat="48.460849" lon="2.660543"><ele></ele><time>2023-8-15T11:59:44Z</time></trkpt>
<trkpt lat="48.460951" lon="2.660499"><ele></ele><time>2023-8-15T11:59:47Z</time></trkpt>
<trkpt lat="48.461049" lon="2.660456"><ele></ele><time>2023-8-15T11:59:50Z</time></trkpt>
<trkpt lat="48.461172" lon="2.660397"><ele></ele><time>2023-8-15T11:59:53Z</time></trkpt>
<trkpt lat="48.461299" lon="2.660417"><ele></ele><time>2023-8-15T11:59:56Z</time></trkpt>
<trkpt lat="48.461395" lon="2.660468"><ele></ele><time>2023-8-15T11:59:59Z</time></trkpt>
<trkpt lat="48.461508" lon="2.660476"><ele></ele><time>2023-8-15T12:0:2Z</time></trkpt>
<trkpt lat="48.461643" lon="2.660446"><ele></ele><time>2023-8-15T12:0:5Z</time></trkpt>
<trkpt lat="48.461771" lon="2.660426"><ele></ele><time>2023-8-15T12:0:8Z</time></trkpt>
<trkpt lat="48.461915" lon="2.660382"><ele></ele><time>2023-8-15T12:0:11Z</time></trkpt>
<trkpt lat="48.462041" lon="2.660344"><ele></ele><time>2023-8-15T12:0:14Z</time></trkpt>
<trkpt lat="48.462152" lon="2.660324"><ele></ele><time>2023-8-15T12:0:17Z</time></trkpt>
<trkpt lat="48.462276" lon="2.66029"><ele></ele><time>2023-8-15T12:0:20Z</time></trkpt>
<trkpt lat="48.462404" lon="2.660188"><ele></ele><time>2023-8-15T12:0:23Z</time></trkpt>
<trkpt lat="48.462502" lon="2.660092"><ele></ele><time>2023-8-15T12:0:26Z</time></trkpt>
<trkpt lat="48.462616" lon="2.660002"><ele></ele><time>2023-8-15T12:0:29Z</time></trkpt>
<trkpt lat="48.462715" lon="2.659909"><ele></ele><time>2023-8-15T12:0:32Z</time></trkpt>
<trkpt lat="48.462807" lon="2.659837"><ele></ele><time>2023-8-15T12:0:35Z</time></trkpt>
<trkpt lat="48.462883" lon="2.659752"><ele></ele><time>2023-8-15T12:0:38Z</time></trkpt>
<trkpt lat="48.463021" lon="2.659673"><ele></ele><time>2023-8-15T12:0:41Z</time></trkpt>
<trkpt lat="48.463125" lon="2.659589"><ele></ele><time>2023-8-15T12:0:44Z</time></trkpt>
<trkpt lat="48.463223" lon="2.65953"><ele></ele><time>2023-8-15T12:0:47Z</time></trkpt>
<trkpt lat="48.463302" lon="2.659463"><ele></ele><time>2023-8-15T12:0:50Z</time></trkpt>
<trkpt lat="48.463423" lon="2.659368"><ele></ele><time>2023-8-15T12:0:53Z</time></trkpt>
<trkpt lat="48.463534" lon="2.659263"><ele></ele><time>2023-8-15T12:0:56Z</time></trkpt>
<trkpt lat="48.463624" lon="2.659195"><ele></ele><time>2023-8-15T12:0:59Z</time></trkpt>
<trkpt lat="48.463708" lon="2.65913"><ele></ele><time>2023-8-15T12:1:2Z</time></trkpt>
<trkpt lat="48.463813" lon="2.659074"><ele></ele><time>2023-8-15T12:1:5Z</time></trkpt>
<trkpt lat="48.463948" lon="2.658936"><ele></ele><time>2023-8-15T12:1:8Z</time></trkpt>
<trkpt lat="48.464041" lon="2.658853"><ele></ele><time>2023-8-15T12:1:11Z</time></trkpt>
<trkpt lat="48.464164" lon="2.658764"><ele></ele><time>2023-8-15T12:1:14Z</time></trkpt>
<trkpt lat="48.464245" lon="2.658685"><ele></ele><time>2023-8-15T12:1:17Z</time></trkpt>
<trkpt lat="48.464333" lon="2.658604"><ele></ele><time>2023-8-15T12:1:20Z</time></trkpt>
<trkpt lat="48.464441" lon="2.658517"><ele></ele><time>2023-8-15T12:1:23Z</time></trkpt>
<trkpt lat="48.464578" lon="2.658449"><ele></ele><time>2023-8-15T12:1:26Z</time></trkpt>
<trkpt lat="48.464678" lon="2.658426"><ele></ele><time>2023-8-15T12:1:29Z</time></trkpt>
<trkpt lat="48.46476" lon="2.658512"><ele></ele><time>2023-8-15T12:1:32Z</time></trkpt>
<trkpt lat="48.464883" lon="2.658494"><ele></ele><time>2023-8-15T12:1:35Z</time></trkpt>
<trkpt lat="48.46501" lon="2.658448"><ele></ele><time>2023-8-15T12:1:38Z</time></trkpt>
<trkpt lat="48.465103" lon="2.658435"><ele></ele><time>2023-8-15T12:1:41Z</time></trkpt>
<trkpt lat="48.465225" lon="2.658416"><ele></ele><time>2023-8-15T12:1:44Z</time></trkpt>
<trkpt lat="48.46534" lon="2.658369"><ele></ele><time>2023-8-15T12:1:47Z</time></trkpt>
<trkpt lat="48.465456" lon="2.658351"><ele></ele><time>2023-8-15T12:1:50Z</time></trkpt>
<trkpt lat="48.465578" lon="2.65842"><ele></ele><time>2023-8-15T12:1:53Z</time></trkpt>
<trkpt lat="48.465684" lon="2.658534"><ele></ele><time>2023-8-15T12:1:56Z</time></trkpt>
<trkpt lat="48.46578" lon="2.658492"><ele></ele><time>2023-8-15T12:1:59Z</time></trkpt>
<trkpt lat="48.465875" lon="2.658395"><ele></ele><time>2023-8-15T12:2:2Z</time></trkpt>
<trkpt lat="48.465995" lon="2.65835"><ele></ele><time>2023-8-15T12:2:5Z</time></trkpt>
<trkpt lat="48.466088" lon="2.658331"><ele></ele><time>2023-8-15T12:2:8Z</time></trkpt>
<trkpt lat="48.4662" lon="2.658347"><ele></ele><time>2023-8-15T12:2:11Z</time></trkpt>
<trkpt lat="48.466309" lon="2.658369"><ele></ele><time>2023-8-15T12:2:14Z</time></trkpt>
<trkpt lat="48.466461" lon="2.658383"><ele></ele><time>2023-8-15T12:2:17Z</time></trkpt>
<trkpt lat="48.466567" lon="2.658371"><ele></ele><time>2023-8-15T12:2:20Z</time></trkpt>
<trkpt lat="48.466674" lon="2.658411"><ele></ele><time>2023-8-15T12:2:23Z</time></trkpt>
<trkpt lat="48.466774" lon="2.658446"><ele></ele><time>2023-8-15T12:2:26Z</time></trkpt>
<trkpt lat="48.466866" lon="2.65844"><ele></ele><time>2023-8-15T12:2:29Z</time></trkpt>
<trkpt lat="48.467025" lon="2.658431"><ele></ele><time>2023-8-15T12:2:32Z</time></trkpt>
<trkpt lat="48.46714" lon="2.658441"><ele></ele><time>2023-8-15T12:2:35Z</time></trkpt>
<trkpt lat="48.467277" lon="2.658447"><ele></ele><time>2023-8-15T12:2:38Z</time></trkpt>
<trkpt lat="48.46742" lon="2.658487"><ele></ele><time>2023-8-15T12:2:41Z</time></trkpt>
<trkpt lat="48.467558" lon="2.658472"><ele></ele><time>2023-8-15T12:2:44Z</time></trkpt>
<trkpt lat="48.467681" lon="2.65849"><ele></ele><time>2023-8-15T12:2:47Z</time></trkpt>
<trkpt lat="48.467796" lon="2.658516"><ele></ele><time>2023-8-15T12:2:50Z</time></trkpt>
<trkpt lat="48.467914" lon="2.658506"><ele></ele><time>2023-8-15T12:2:53Z</time></trkpt>
<trkpt lat="48.468035" lon="2.658507"><ele></ele><time>2023-8-15T12:2:56Z</time></trkpt>
<trkpt lat="48.468141" lon="2.658496"><ele></ele><time>2023-8-15T12:2:59Z</time></trkpt>
<trkpt lat="48.468242" lon="2.658529"><ele></ele><time>2023-8-15T12:3:2Z</time></trkpt>
<trkpt lat="48.468342" lon="2.658561"><ele></ele><time>2023-8-15T12:3:5Z</time></trkpt>
<trkpt lat="48.468472" lon="2.658592"><ele></ele><time>2023-8-15T12:3:8Z</time></trkpt>
<trkpt lat="48.468614" lon="2.658619"><ele></ele><time>2023-8-15T12:3:11Z</time></trkpt>
<trkpt lat="48.468708" lon="2.65864"><ele></ele><time>2023-8-15T12:3:14Z</time></trkpt>
<trkpt lat="48.468841" lon="2.658655"><ele></ele><time>2023-8-15T12:3:17Z</time></trkpt>
<trkpt lat="48.468969" lon="2.658674"><ele></ele><time>2023-8-15T12:3:20Z</time></trkpt>
<trkpt lat="48.469119" lon="2.658672"><ele></ele><time>2023-8-15T12:3:23Z</time></trkpt>
<trkpt lat="48.469213" lon="2.658688"><ele></ele><time>2023-8-15T12:3:26Z</time></trkpt>
<trkpt lat="48.469308" lon="2.658702"><ele></ele><time>2023-8-15T12:3:29Z</time></trkpt>
<trkpt lat="48.469424" lon="2.658711"><ele></ele><time>2023-8-15T12:3:32Z</time></trkpt>
<trkpt lat="48.469532" lon="2.658721"><ele></ele><time>2023-8-15T12:3:35Z</time></trkpt>
<trkpt lat="48.46963" lon="2.658721"><ele></ele><time>2023-8-15T12:3:38Z</time></trkpt>
<trkpt lat="48.469753" lon="2.658736"><ele></ele><time>2023-8-15T12:3:41Z</time></trkpt>
<trkpt lat="48.469862" lon="2.658746"><ele></ele><time>2023-8-15T12:3:44Z</time></trkpt>
<trkpt lat="48.469981" lon="2.658763"><ele></ele><time>2023-8-15T12:3:47Z</time></trkpt>
<trkpt lat="48.470076" lon="2.658767"><ele></ele><time>2023-8-15T12:3:50Z</time></trkpt>
<trkpt lat="48.470185" lon="2.658787"><ele></ele><time>2023-8-15T12:3:53Z</time></trkpt>
<trkpt lat="48.470303" lon="2.658781"><ele></ele><time>2023-8-15T12:3:56Z</time></trkpt>
<trkpt lat="48.470409" lon="2.658806"><ele></ele><time>2023-8-15T12:3:59Z</time></trkpt>
<trkpt lat="48.470547" lon="2.658836"><ele></ele><time>2023-8-15T12:4:2Z</time></trkpt>
<trkpt lat="48.470702" lon="2.658819"><ele></ele><time>2023-8-15T12:4:5Z</time></trkpt>
<trkpt lat="48.470813" lon="2.658831"><ele></ele><time>2023-8-15T12:4:8Z</time></trkpt>
<trkpt lat="48.470921" lon="2.658848"><ele></ele><time>2023-8-15T12:4:11Z</time></trkpt>
<trkpt lat="48.471016" lon="2.658848"><ele></ele><time>2023-8-15T12:4:14Z</time></trkpt>
<trkpt lat="48.471126" lon="2.658823"><ele></ele><time>2023-8-15T12:4:17Z</time></trkpt>
<trkpt lat="48.471246" lon="2.658744"><ele></ele><time>2023-8-15T12:4:20Z</time></trkpt>
<trkpt lat="48.471339" lon="2.658643"><ele></ele><time>2023-8-15T12:4:23Z</time></trkpt>
<trkpt lat="48.471449" lon="2.658529"><ele></ele><time>2023-8-15T12:4:26Z</time></trkpt>
<trkpt lat="48.471567" lon="2.658475"><ele></ele><time>2023-8-15T12:4:29Z</time></trkpt>
<trkpt lat="48.47165" lon="2.658398"><ele></ele><time>2023-8-15T12:4:32Z</time></trkpt>
<trkpt lat="48.471747" lon="2.658286"><ele></ele><time>2023-8-15T12:4:35Z</time></trkpt>
<trkpt lat="48.471828" lon="2.658202"><ele></ele><time>2023-8-15T12:4:38Z</time></trkpt>
<trkpt lat="48.471943" lon="2.658097"><ele></ele><time>2023-8-15T12:4:41Z</time></trkpt>
<trkpt lat="48.47203" lon="2.65806"><ele></ele><time>2023-8-15T12:4:44Z</time></trkpt>
<trkpt lat="48.472148" lon="2.657968"><ele></ele><time>2023-8-15T12:4:47Z</time></trkpt>
<trkpt lat="48.472253" lon="2.657874"><ele></ele><time>2023-8-15T12:4:50Z</time></trkpt>
<trkpt lat="48.472351" lon="2.657797"><ele></ele><time>2023-8-15T12:4:53Z</time></trkpt>
<trkpt lat="48.47245" lon="2.657708"><ele></ele><time>2023-8-15T12:4:56Z</time></trkpt>
<trkpt lat="48.472561" lon="2.657611"><ele></ele><time>2023-8-15T12:4:59Z</time></trkpt>
<trkpt lat="48.472673" lon="2.657502"><ele></ele><time>2023-8-15T12:5:2Z</time></trkpt>
<trkpt lat="48.472762" lon="2.657446"><ele></ele><time>2023-8-15T12:5:5Z</time></trkpt>
<trkpt lat="48.47289" lon="2.657355"><ele></ele><time>2023-8-15T12:5:8Z</time></trkpt>
<trkpt lat="48.473004" lon="2.657256"><ele></ele><time>2023-8-15T12:5:11Z</time></trkpt>
<trkpt lat="48.47314" lon="2.657153"><ele></ele><time>2023-8-15T12:5:14Z</time></trkpt>
<trkpt lat="48.473224" lon="2.657069"><ele></ele><time>2023-8-15T12:5:17Z</time></trkpt>
<trkpt lat="48.473329" lon="2.656953"><ele></ele><time>2023-8-15T12:5:20Z</time></trkpt>
<trkpt lat="48.473416" lon="2.656873"><ele></ele><time>2023-8-15T12:5:23Z</time></trkpt>
<trkpt lat="48.473526" lon="2.656793"><ele></ele><time>2023-8-15T12:5:26Z</time></trkpt>
<trkpt lat="48.473616" lon="2.65674"><ele></ele><time>2023-8-15T12:5:29Z</time></trkpt>
<trkpt lat="48.473713" lon="2.656678"><ele></ele><time>2023-8-15T12:5:32Z</time></trkpt>
<trkpt lat="48.473808" lon="2.656617"><ele></ele><time>2023-8-15T12:5:35Z</time></trkpt>
<trkpt lat="48.473925" lon="2.656534"><ele></ele><time>2023-8-15T12:5:38Z</time></trkpt>
<trkpt lat="48.473996" lon="2.65644"><ele></ele><time>2023-8-15T12:5:41Z</time></trkpt>
<trkpt lat="48.474075" lon="2.65634"><ele></ele><time>2023-8-15T12:5:44Z</time></trkpt>
<trkpt lat="48.474179" lon="2.656275"><ele></ele><time>2023-8-15T12:5:47Z</time></trkpt>
<trkpt lat="48.474292" lon="2.656207"><ele></ele><time>2023-8-15T12:5:50Z</time></trkpt>
<trkpt lat="48.47438" lon="2.656128"><ele></ele><time>2023-8-15T12:5:53Z</time></trkpt>
<trkpt lat="48.474459" lon="2.656047"><ele></ele><time>2023-8-15T12:5:56Z</time></trkpt>
<trkpt lat="48.474552" lon="2.655952"><ele></ele><time>2023-8-15T12:5:59Z</time></trkpt>
<trkpt lat="48.474674" lon="2.655843"><ele></ele><time>2023-8-15T12:6:2Z</time></trkpt>
<trkpt lat="48.474766" lon="2.655761"><ele></ele><time>2023-8-15T12:6:5Z</time></trkpt>
<trkpt lat="48.474842" lon="2.655659"><ele></ele><time>2023-8-15T12:6:8Z</time></trkpt>
<trkpt lat="48.474937" lon="2.655578"><ele></ele><time>2023-8-15T12:6:11Z</time></trkpt>
<trkpt lat="48.475045" lon="2.655507"><ele></ele><time>2023-8-15T12:6:14Z</time></trkpt>
<trkpt lat="48.475133" lon="2.655437"><ele></ele><time>2023-8-15T12:6:17Z</time></trkpt>
<trkpt lat="48.475221" lon="2.655347"><ele></ele><time>2023-8-15T12:6:20Z</time></trkpt>
<trkpt lat="48.475306" lon="2.655297"><ele></ele><time>2023-8-15T12:6:23Z</time></trkpt>
<trkpt lat="48.475394" lon="2.65523"><ele></ele><time>2023-8-15T12:6:26Z</time></trkpt>
<trkpt lat="48.47549" lon="2.655148"><ele></ele><time>2023-8-15T12:6:29Z</time></trkpt>
<trkpt lat="48.475613" lon="2.65503"><ele></ele><time>2023-8-15T12:6:32Z</time></trkpt>
<trkpt lat="48.475702" lon="2.654941"><ele></ele><time>2023-8-15T12:6:35Z</time></trkpt>
<trkpt lat="48.475832" lon="2.654859"><ele></ele><time>2023-8-15T12:6:38Z</time></trkpt>
<trkpt lat="48.475943" lon="2.654748"><ele></ele><time>2023-8-15T12:6:41Z</time></trkpt>
<trkpt lat="48.476043" lon="2.654655"><ele></ele><time>2023-8-15T12:6:44Z</time></trkpt>
<trkpt lat="48.476161" lon="2.654559"><ele></ele><time>2023-8-15T12:6:47Z</time></trkpt>
<trkpt lat="48.476262" lon="2.654475"><ele></ele><time>2023-8-15T12:6:50Z</time></trkpt>
<trkpt lat="48.476356" lon="2.654406"><ele></ele><time>2023-8-15T12:6:53Z</time></trkpt>
<trkpt lat="48.476428" lon="2.654305"><ele></ele><time>2023-8-15T12:6:56Z</time></trkpt>
<trkpt lat="48.476561" lon="2.654193"><ele></ele><time>2023-8-15T12:6:59Z</time></trkpt>
<trkpt lat="48.47666" lon="2.654101"><ele></ele><time>2023-8-15T12:7:2Z</time></trkpt>
<trkpt lat="48.476752" lon="2.654052"><ele></ele><time>2023-8-15T12:7:5Z</time></trkpt>
<trkpt lat="48.476856" lon="2.653989"><ele></ele><time>2023-8-15T12:7:8Z</time></trkpt>
<trkpt lat="48.476966" lon="2.653898"><ele></ele><time>2023-8-15T12:7:11Z</time></trkpt>
<trkpt lat="48.477057" lon="2.653818"><ele></ele><time>2023-8-15T12:7:14Z</time></trkpt>
<trkpt lat="48.477171" lon="2.653727"><ele></ele><time>2023-8-15T12:7:17Z</time></trkpt>
<trkpt lat="48.477279" lon="2.65365"><ele></ele><time>2023-8-15T12:7:20Z</time></trkpt>
<trkpt lat="48.477391" lon="2.653554"><ele></ele><time>2023-8-15T12:7:23Z</time></trkpt>
<trkpt lat="48.477501" lon="2.653463"><ele></ele><time>2023-8-15T12:7:26Z</time></trkpt>
<trkpt lat="48.477601" lon="2.653391"><ele></ele><time>2023-8-15T12:7:29Z</time></trkpt>
<trkpt lat="48.477683" lon="2.653312"><ele></ele><time>2023-8-15T12:7:32Z</time></trkpt>
<trkpt lat="48.477775" lon="2.653203"><ele></ele><time>2023-8-15T12:7:35Z</time></trkpt>
<trkpt lat="48.477872" lon="2.653138"><ele></ele><time>2023-8-15T12:7:38Z</time></trkpt>
<trkpt lat="48.477988" lon="2.653051"><ele></ele><time>2023-8-15T12:7:41Z</time></trkpt>
<trkpt lat="48.478097" lon="2.652955"><ele></ele><time>2023-8-15T12:7:44Z</time></trkpt>
<trkpt lat="48.478195" lon="2.652865"><ele></ele><time>2023-8-15T12:7:47Z</time></trkpt>
<trkpt lat="48.478284" lon="2.652762"><ele></ele><time>2023-8-15T12:7:50Z</time></trkpt>
<trkpt lat="48.478391" lon="2.652676"><ele></ele><time>2023-8-15T12:7:53Z</time></trkpt>
<trkpt lat="48.478484" lon="2.652614"><ele></ele><time>2023-8-15T12:7:56Z</time></trkpt>
<trkpt lat="48.478595" lon="2.652523"><ele></ele><time>2023-8-15T12:7:59Z</time></trkpt>
<trkpt lat="48.478698" lon="2.652402"><ele></ele><time>2023-8-15T12:8:2Z</time></trkpt>
<trkpt lat="48.478796" lon="2.652304"><ele></ele><time>2023-8-15T12:8:5Z</time></trkpt>
<trkpt lat="48.478913" lon="2.652205"><ele></ele><time>2023-8-15T12:8:8Z</time></trkpt>
<trkpt lat="48.479023" lon="2.652104"><ele></ele><time>2023-8-15T12:8:11Z</time></trkpt>
<trkpt lat="48.479138" lon="2.652012"><ele></ele><time>2023-8-15T12:8:14Z</time></trkpt>
<trkpt lat="48.47923" lon="2.65197"><ele></ele><time>2023-8-15T12:8:17Z</time></trkpt>
<trkpt lat="48.479322" lon="2.651927"><ele></ele><time>2023-8-15T12:8:20Z</time></trkpt>
<trkpt lat="48.479419" lon="2.651847"><ele></ele><time>2023-8-15T12:8:23Z</time></trkpt>
<trkpt lat="48.4795" lon="2.651769"><ele></ele><time>2023-8-15T12:8:26Z</time></trkpt>
<trkpt lat="48.479606" lon="2.651652"><ele></ele><time>2023-8-15T12:8:29Z</time></trkpt>
<trkpt lat="48.479692" lon="2.651594"><ele></ele><time>2023-8-15T12:8:32Z</time></trkpt>
<trkpt lat="48.479777" lon="2.651526"><ele></ele><time>2023-8-15T12:8:35Z</time></trkpt>
<trkpt lat="48.479865" lon="2.651449"><ele></ele><time>2023-8-15T12:8:38Z</time></trkpt>
<trkpt lat="48.479956" lon="2.651359"><ele></ele><time>2023-8-15T12:8:41Z</time></trkpt>
<trkpt lat="48.480034" lon="2.651279"><ele></ele><time>2023-8-15T12:8:44Z</time></trkpt>
<trkpt lat="48.480115" lon="2.651197"><ele></ele><time>2023-8-15T12:8:47Z</time></trkpt>
<trkpt lat="48.480205" lon="2.651138"><ele></ele><time>2023-8-15T12:8:50Z</time></trkpt>
<trkpt lat="48.480305" lon="2.651046"><ele></ele><time>2023-8-15T12:8:53Z</time></trkpt>
<trkpt lat="48.480415" lon="2.650997"><ele></ele><time>2023-8-15T12:8:56Z</time></trkpt>
<trkpt lat="48.480502" lon="2.650934"><ele></ele><time>2023-8-15T12:8:59Z</time></trkpt>
<trkpt lat="48.480597" lon="2.650831"><ele></ele><time>2023-8-15T12:9:2Z</time></trkpt>
<trkpt lat="48.480677" lon="2.650766"><ele></ele><time>2023-8-15T12:9:5Z</time></trkpt>
<trkpt lat="48.480775" lon="2.650682"><ele></ele><time>2023-8-15T12:9:8Z</time></trkpt>
<trkpt lat="48.480857" lon="2.650601"><ele></ele><time>2023-8-15T12:9:11Z</time></trkpt>
<trkpt lat="48.480952" lon="2.650521"><ele></ele><time>2023-8-15T12:9:14Z</time></trkpt>
<trkpt lat="48.481053" lon="2.650441"><ele></ele><time>2023-8-15T12:9:17Z</time></trkpt>
<trkpt lat="48.481133" lon="2.650365"><ele></ele><time>2023-8-15T12:9:20Z</time></trkpt>
<trkpt lat="48.481223" lon="2.650292"><ele></ele><time>2023-8-15T12:9:23Z</time></trkpt>
<trkpt lat="48.481309" lon="2.650216"><ele></ele><time>2023-8-15T12:9:26Z</time></trkpt>
<trkpt lat="48.481393" lon="2.650128"><ele></ele><time>2023-8-15T12:9:29Z</time></trkpt>
<trkpt lat="48.481475" lon="2.650064"><ele></ele><time>2023-8-15T12:9:32Z</time></trkpt>
<trkpt lat="48.481568" lon="2.65"><ele></ele><time>2023-8-15T12:9:35Z</time></trkpt>
<trkpt lat="48.481649" lon="2.649919"><ele></ele><time>2023-8-15T12:9:38Z</time></trkpt>
<trkpt lat="48.481729" lon="2.649854"><ele></ele><time>2023-8-15T12:9:41Z</time></trkpt>
<trkpt lat="48.48182" lon="2.649794"><ele></ele><time>2023-8-15T12:9:44Z</time></trkpt>
<trkpt lat="48.481904" lon="2.649743"><ele></ele><time>2023-8-15T12:9:47Z</time></trkpt>
<trkpt lat="48.481979" lon="2.649651"><ele></ele><time>2023-8-15T12:9:50Z</time></trkpt>
<trkpt lat="48.482063" lon="2.649577"><ele></ele><time>2023-8-15T12:9:53Z</time></trkpt>
<trkpt lat="48.482151" lon="2.649508"><ele></ele><time>2023-8-15T12:9:56Z</time></trkpt>
<trkpt lat="48.482234" lon="2.649448"><ele></ele><time>2023-8-15T12:9:59Z</time></trkpt>
<trkpt lat="48.482318" lon="2.649355"><ele></ele><time>2023-8-15T12:10:2Z</time></trkpt>
<trkpt lat="48.482424" lon="2.649258"><ele></ele><time>2023-8-15T12:10:5Z</time></trkpt>
<trkpt lat="48.482524" lon="2.649182"><ele></ele><time>2023-8-15T12:10:8Z</time></trkpt>
<trkpt lat="48.482625" lon="2.649103"><ele></ele><time>2023-8-15T12:10:11Z</time></trkpt>
<trkpt lat="48.482721" lon="2.649006"><ele></ele><time>2023-8-15T12:10:14Z</time></trkpt>
<trkpt lat="48.482801" lon="2.648934"><ele></ele><time>2023-8-15T12:10:17Z</time></trkpt>
<trkpt lat="48.482891" lon="2.648843"><ele></ele><time>2023-8-15T12:10:20Z</time></trkpt>
<trkpt lat="48.482981" lon="2.648768"><ele></ele><time>2023-8-15T12:10:23Z</time></trkpt>
<trkpt lat="48.483087" lon="2.648682"><ele></ele><time>2023-8-15T12:10:26Z</time></trkpt>
<trkpt lat="48.483174" lon="2.648624"><ele></ele><time>2023-8-15T12:10:29Z</time></trkpt>
<trkpt lat="48.483274" lon="2.648561"><ele></ele><time>2023-8-15T12:10:32Z</time></trkpt>
<trkpt lat="48.483377" lon="2.648434"><ele></ele><time>2023-8-15T12:10:35Z</time></trkpt>
<trkpt lat="48.483488" lon="2.648362"><ele></ele><time>2023-8-15T12:10:38Z</time></trkpt>
<trkpt lat="48.4836" lon="2.648264"><ele></ele><time>2023-8-15T12:10:41Z</time></trkpt>
<trkpt lat="48.483681" lon="2.648176"><ele></ele><time>2023-8-15T12:10:44Z</time></trkpt>
<trkpt lat="48.483779" lon="2.648094"><ele></ele><time>2023-8-15T12:10:47Z</time></trkpt>
<trkpt lat="48.483903" lon="2.647966"><ele></ele><time>2023-8-15T12:10:50Z</time></trkpt>
<trkpt lat="48.483993" lon="2.647907"><ele></ele><time>2023-8-15T12:10:53Z</time></trkpt>
<trkpt lat="48.484114" lon="2.647835"><ele></ele><time>2023-8-15T12:10:56Z</time></trkpt>
<trkpt lat="48.484194" lon="2.647769"><ele></ele><time>2023-8-15T12:10:59Z</time></trkpt>
<trkpt lat="48.484309" lon="2.647667"><ele></ele><time>2023-8-15T12:11:2Z</time></trkpt>
<trkpt lat="48.484384" lon="2.647589"><ele></ele><time>2023-8-15T12:11:5Z</time></trkpt>
<trkpt lat="48.484492" lon="2.647476"><ele></ele><time>2023-8-15T12:11:8Z</time></trkpt>
<trkpt lat="48.484596" lon="2.647385"><ele></ele><time>2023-8-15T12:11:11Z</time></trkpt>
<trkpt lat="48.484717" lon="2.647297"><ele></ele><time>2023-8-15T12:11:14Z</time></trkpt>
<trkpt lat="48.484806" lon="2.647236"><ele></ele><time>2023-8-15T12:11:17Z</time></trkpt>
<trkpt lat="48.484903" lon="2.647157"><ele></ele><time>2023-8-15T12:11:20Z</time></trkpt>
<trkpt lat="48.485008" lon="2.647077"><ele></ele><time>2023-8-15T12:11:23Z</time></trkpt>
<trkpt lat="48.485099" lon="2.646993"><ele></ele><time>2023-8-15T12:11:26Z</time></trkpt>
<trkpt lat="48.485187" lon="2.646894"><ele></ele><time>2023-8-15T12:11:29Z</time></trkpt>
<trkpt lat="48.485286" lon="2.646821"><ele></ele><time>2023-8-15T12:11:32Z</time></trkpt>
<trkpt lat="48.485379" lon="2.646747"><ele></ele><time>2023-8-15T12:11:35Z</time></trkpt>
<trkpt lat="48.485479" lon="2.646647"><ele></ele><time>2023-8-15T12:11:38Z</time></trkpt>
<trkpt lat="48.48558" lon="2.646544"><ele></ele><time>2023-8-15T12:11:41Z</time></trkpt>
<trkpt lat="48.485692" lon="2.646447"><ele></ele><time>2023-8-15T12:11:44Z</time></trkpt>
<trkpt lat="48.485807" lon="2.646368"><ele></ele><time>2023-8-15T12:11:47Z</time></trkpt>
<trkpt lat="48.485932" lon="2.646278"><ele></ele><time>2023-8-15T12:11:50Z</time></trkpt>
<trkpt lat="48.486062" lon="2.646144"><ele></ele><time>2023-8-15T12:11:53Z</time></trkpt>
<trkpt lat="48.486167" lon="2.646054"><ele></ele><time>2023-8-15T12:11:56Z</time></trkpt>
<trkpt lat="48.486275" lon="2.645965"><ele></ele><time>2023-8-15T12:11:59Z</time></trkpt>
<trkpt lat="48.486379" lon="2.645869"><ele></ele><time>2023-8-15T12:12:2Z</time></trkpt>
<trkpt lat="48.486483" lon="2.645776"><ele></ele><time>2023-8-15T12:12:5Z</time></trkpt>
<trkpt lat="48.486622" lon="2.64567"><ele></ele><time>2023-8-15T12:12:8Z</time></trkpt>
<trkpt lat="48.486707" lon="2.645592"><ele></ele><time>2023-8-15T12:12:11Z</time></trkpt>
<trkpt lat="48.486845" lon="2.645502"><ele></ele><time>2023-8-15T12:12:14Z</time></trkpt>
<trkpt lat="48.486946" lon="2.645404"><ele></ele><time>2023-8-15T12:12:17Z</time></trkpt>
<trkpt lat="48.487032" lon="2.645342"><ele></ele><time>2023-8-15T12:12:20Z</time></trkpt>
<trkpt lat="48.487133" lon="2.645237"><ele></ele><time>2023-8-15T12:12:23Z</time></trkpt>
<trkpt lat="48.487214" lon="2.645138"><ele></ele><time>2023-8-15T12:12:26Z</time></trkpt>
<trkpt lat="48.48731" lon="2.645055"><ele></ele><time>2023-8-15T12:12:29Z</time></trkpt>
<trkpt lat="48.487435" lon="2.644959"><ele></ele><time>2023-8-15T12:12:32Z</time></trkpt>
<trkpt lat="48.487519" lon="2.644889"><ele></ele><time>2023-8-15T12:12:35Z</time></trkpt>
<trkpt lat="48.487614" lon="2.644811"><ele></ele><time>2023-8-15T12:12:38Z</time></trkpt>
<trkpt lat="48.487703" lon="2.64474"><ele></ele><time>2023-8-15T12:12:41Z</time></trkpt>
<trkpt lat="48.487798" lon="2.644667"><ele></ele><time>2023-8-15T12:12:44Z</time></trkpt>
<trkpt lat="48.48792" lon="2.644554"><ele></ele><time>2023-8-15T12:12:47Z</time></trkpt>
<trkpt lat="48.488011" lon="2.644462"><ele></ele><time>2023-8-15T12:12:50Z</time></trkpt>
<trkpt lat="48.488111" lon="2.644375"><ele></ele><time>2023-8-15T12:12:53Z</time></trkpt>
<trkpt lat="48.488223" lon="2.644291"><ele></ele><time>2023-8-15T12:12:56Z</time></trkpt>
<trkpt lat="48.488306" lon="2.64422"><ele></ele><time>2023-8-15T12:12:59Z</time></trkpt>
<trkpt lat="48.488402" lon="2.644123"><ele></ele><time>2023-8-15T12:13:2Z</time></trkpt>
<trkpt lat="48.488479" lon="2.644053"><ele></ele><time>2023-8-15T12:13:5Z</time></trkpt>
<trkpt lat="48.488559" lon="2.643978"><ele></ele><time>2023-8-15T12:13:8Z</time></trkpt>
<trkpt lat="48.488652" lon="2.643928"><ele></ele><time>2023-8-15T12:13:11Z</time></trkpt>
<trkpt lat="48.488775" lon="2.643884"><ele></ele><time>2023-8-15T12:13:14Z</time></trkpt>
<trkpt lat="48.488866" lon="2.643849"><ele></ele><time>2023-8-15T12:13:17Z</time></trkpt>
<trkpt lat="48.488982" lon="2.643806"><ele></ele><time>2023-8-15T12:13:20Z</time></trkpt>
<trkpt lat="48.489069" lon="2.643768"><ele></ele><time>2023-8-15T12:13:23Z</time></trkpt>
<trkpt lat="48.489211" lon="2.643706"><ele></ele><time>2023-8-15T12:13:26Z</time></trkpt>
<trkpt lat="48.489303" lon="2.643652"><ele></ele><time>2023-8-15T12:13:29Z</time></trkpt>
<trkpt lat="48.489391" lon="2.643618"><ele></ele><time>2023-8-15T12:13:32Z</time></trkpt>
<trkpt lat="48.489502" lon="2.643576"><ele></ele><time>2023-8-15T12:13:35Z</time></trkpt>
<trkpt lat="48.489597" lon="2.643541"><ele></ele><time>2023-8-15T12:13:38Z</time></trkpt>
<trkpt lat="48.489682" lon="2.643475"><ele></ele><time>2023-8-15T12:13:41Z</time></trkpt>
<trkpt lat="48.489768" lon="2.643389"><ele></ele><time>2023-8-15T12:13:44Z</time></trkpt>
<trkpt lat="48.489851" lon="2.643284"><ele></ele><time>2023-8-15T12:13:47Z</time></trkpt>
<trkpt lat="48.489938" lon="2.643151"><ele></ele><time>2023-8-15T12:13:50Z</time></trkpt>
<trkpt lat="48.490039" lon="2.643015"><ele></ele><time>2023-8-15T12:13:53Z</time></trkpt>
<trkpt lat="48.490124" lon="2.642874"><ele></ele><time>2023-8-15T12:13:56Z</time></trkpt>
<trkpt lat="48.490208" lon="2.642788"><ele></ele><time>2023-8-15T12:13:59Z</time></trkpt>
<trkpt lat="48.490318" lon="2.642657"><ele></ele><time>2023-8-15T12:14:2Z</time></trkpt>
<trkpt lat="48.490404" lon="2.642575"><ele></ele><time>2023-8-15T12:14:5Z</time></trkpt>
<trkpt lat="48.490518" lon="2.64248"><ele></ele><time>2023-8-15T12:14:8Z</time></trkpt>
<trkpt lat="48.490603" lon="2.642366"><ele></ele><time>2023-8-15T12:14:11Z</time></trkpt>
<trkpt lat="48.490675" lon="2.642274"><ele></ele><time>2023-8-15T12:14:14Z</time></trkpt>
<trkpt lat="48.490748" lon="2.642182"><ele></ele><time>2023-8-15T12:14:17Z</time></trkpt>
<trkpt lat="48.490839" lon="2.642079"><ele></ele><time>2023-8-15T12:14:20Z</time></trkpt>
<trkpt lat="48.490903" lon="2.641982"><ele></ele><time>2023-8-15T12:14:23Z</time></trkpt>
<trkpt lat="48.490991" lon="2.641864"><ele></ele><time>2023-8-15T12:14:26Z</time></trkpt>
<trkpt lat="48.49106" lon="2.641756"><ele></ele><time>2023-8-15T12:14:29Z</time></trkpt>
<trkpt lat="48.491144" lon="2.641638"><ele></ele><time>2023-8-15T12:14:32Z</time></trkpt>
<trkpt lat="48.491242" lon="2.641542"><ele></ele><time>2023-8-15T12:14:35Z</time></trkpt>
<trkpt lat="48.491352" lon="2.641408"><ele></ele><time>2023-8-15T12:14:38Z</time></trkpt>
<trkpt lat="48.491441" lon="2.641296"><ele></ele><time>2023-8-15T12:14:41Z</time></trkpt>
<trkpt lat="48.491529" lon="2.641148"><ele></ele><time>2023-8-15T12:14:44Z</time></trkpt>
<trkpt lat="48.49165" lon="2.641024"><ele></ele><time>2023-8-15T12:14:47Z</time></trkpt>
<trkpt lat="48.491733" lon="2.640909"><ele></ele><time>2023-8-15T12:14:50Z</time></trkpt>
<trkpt lat="48.49181" lon="2.640813"><ele></ele><time>2023-8-15T12:14:53Z</time></trkpt>
<trkpt lat="48.49189" lon="2.640701"><ele></ele><time>2023-8-15T12:14:56Z</time></trkpt>
<trkpt lat="48.491973" lon="2.640631"><ele></ele><time>2023-8-15T12:14:59Z</time></trkpt>
<trkpt lat="48.492055" lon="2.640525"><ele></ele><time>2023-8-15T12:15:2Z</time></trkpt>
<trkpt lat="48.492118" lon="2.640419"><ele></ele><time>2023-8-15T12:15:5Z</time></trkpt>
<trkpt lat="48.492219" lon="2.640307"><ele></ele><time>2023-8-15T12:15:8Z</time></trkpt>
<trkpt lat="48.492344" lon="2.640165"><ele></ele><time>2023-8-15T12:15:11Z</time></trkpt>
<trkpt lat="48.492409" lon="2.640071"><ele></ele><time>2023-8-15T12:15:14Z</time></trkpt>
<trkpt lat="48.492485" lon="2.639967"><ele></ele><time>2023-8-15T12:15:17Z</time></trkpt>
<trkpt lat="48.492574" lon="2.639853"><ele></ele><time>2023-8-15T12:15:20Z</time></trkpt>
<trkpt lat="48.492676" lon="2.63971"><ele></ele><time>2023-8-15T12:15:23Z</time></trkpt>
<trkpt lat="48.492781" lon="2.639622"><ele></ele><time>2023-8-15T12:15:26Z</time></trkpt>
<trkpt lat="48.492863" lon="2.639553"><ele></ele><time>2023-8-15T12:15:29Z</time></trkpt>
<trkpt lat="48.49295" lon="2.639463"><ele></ele><time>2023-8-15T12:15:32Z</time></trkpt>
<trkpt lat="48.493048" lon="2.639394"><ele></ele><time>2023-8-15T12:15:35Z</time></trkpt>
<trkpt lat="48.493126" lon="2.639326"><ele></ele><time>2023-8-15T12:15:38Z</time></trkpt>
<trkpt lat="48.4932" lon="2.639224"><ele></ele><time>2023-8-15T12:15:41Z</time></trkpt>
<trkpt lat="48.493286" lon="2.639078"><ele></ele><time>2023-8-15T12:15:44Z</time></trkpt>
<trkpt lat="48.493357" lon="2.638953"><ele></ele><time>2023-8-15T12:15:47Z</time></trkpt>
<trkpt lat="48.493444" lon="2.638846"><ele></ele><time>2023-8-15T12:15:50Z</time></trkpt>
<trkpt lat="48.493522" lon="2.638752"><ele></ele><time>2023-8-15T12:15:53Z</time></trkpt>
<trkpt lat="48.493616" lon="2.638637"><ele></ele><time>2023-8-15T12:15:56Z</time></trkpt>
<trkpt lat="48.493686" lon="2.638538"><ele></ele><time>2023-8-15T12:15:59Z</time></trkpt>
<trkpt lat="48.493762" lon="2.638444"><ele></ele><time>2023-8-15T12:16:2Z</time></trkpt>
<trkpt lat="48.493835" lon="2.638344"><ele></ele><time>2023-8-15T12:16:5Z</time></trkpt>
<trkpt lat="48.493907" lon="2.638257"><ele></ele><time>2023-8-15T12:16:8Z</time></trkpt>
<trkpt lat="48.494003" lon="2.638115"><ele></ele><time>2023-8-15T12:16:11Z</time></trkpt>
<trkpt lat="48.494078" lon="2.638007"><ele></ele><time>2023-8-15T12:16:14Z</time></trkpt>
<trkpt lat="48.494159" lon="2.63789"><ele></ele><time>2023-8-15T12:16:17Z</time></trkpt>
<trkpt lat="48.494255" lon="2.637782"><ele></ele><time>2023-8-15T12:16:20Z</time></trkpt>
<trkpt lat="48.494363" lon="2.637655"><ele></ele><time>2023-8-15T12:16:23Z</time></trkpt>
<trkpt lat="48.494446" lon="2.637562"><ele></ele><time>2023-8-15T12:16:26Z</time></trkpt>
<trkpt lat="48.494525" lon="2.637489"><ele></ele><time>2023-8-15T12:16:29Z</time></trkpt>
<trkpt lat="48.494633" lon="2.637351"><ele></ele><time>2023-8-15T12:16:32Z</time></trkpt>
<trkpt lat="48.494712" lon="2.637247"><ele></ele><time>2023-8-15T12:16:35Z</time></trkpt>
<trkpt lat="48.494787" lon="2.63715"><ele></ele><time>2023-8-15T12:16:38Z</time></trkpt>
<trkpt lat="48.494861" lon="2.637065"><ele></ele><time>2023-8-15T12:16:41Z</time></trkpt>
<trkpt lat="48.494937" lon="2.636968"><ele></ele><time>2023-8-15T12:16:44Z</time></trkpt>
<trkpt lat="48.495012" lon="2.636864"><ele></ele><time>2023-8-15T12:16:47Z</time></trkpt>
<trkpt lat="48.495093" lon="2.636766"><ele></ele><time>2023-8-15T12:16:50Z</time></trkpt>
<trkpt lat="48.49518" lon="2.63666"><ele></ele><time>2023-8-15T12:16:53Z</time></trkpt>
<trkpt lat="48.495251" lon="2.636562"><ele></ele><time>2023-8-15T12:16:56Z</time></trkpt>
<trkpt lat="48.495334" lon="2.636473"><ele></ele><time>2023-8-15T12:16:59Z</time></trkpt>
<trkpt lat="48.495426" lon="2.636365"><ele></ele><time>2023-8-15T12:17:2Z</time></trkpt>
<trkpt lat="48.495501" lon="2.636279"><ele></ele><time>2023-8-15T12:17:5Z</time></trkpt>
<trkpt lat="48.495572" lon="2.636188"><ele></ele><time>2023-8-15T12:17:8Z</time></trkpt>
<trkpt lat="48.49565" lon="2.636088"><ele></ele><time>2023-8-15T12:17:11Z</time></trkpt>
<trkpt lat="48.495729" lon="2.636001"><ele></ele><time>2023-8-15T12:17:14Z</time></trkpt>
<trkpt lat="48.495798" lon="2.635912"><ele></ele><time>2023-8-15T12:17:17Z</time></trkpt>
<trkpt lat="48.495903" lon="2.63577"><ele></ele><time>2023-8-15T12:17:20Z</time></trkpt>
<trkpt lat="48.495979" lon="2.635667"><ele></ele><time>2023-8-15T12:17:23Z</time></trkpt>
<trkpt lat="48.496054" lon="2.635572"><ele></ele><time>2023-8-15T12:17:26Z</time></trkpt>
<trkpt lat="48.496155" lon="2.635425"><ele></ele><time>2023-8-15T12:17:29Z</time></trkpt>
<trkpt lat="48.496227" lon="2.63534"><ele></ele><time>2023-8-15T12:17:32Z</time></trkpt>
<trkpt lat="48.496303" lon="2.635224"><ele></ele><time>2023-8-15T12:17:35Z</time></trkpt>
<trkpt lat="48.496401" lon="2.63511"><ele></ele><time>2023-8-15T12:17:38Z</time></trkpt>
<trkpt lat="48.496493" lon="2.635025"><ele></ele><time>2023-8-15T12:17:41Z</time></trkpt>
<trkpt lat="48.496586" lon="2.634928"><ele></ele><time>2023-8-15T12:17:44Z</time></trkpt>
<trkpt lat="48.496665" lon="2.6348"><ele></ele><time>2023-8-15T12:17:47Z</time></trkpt>
<trkpt lat="48.496673" lon="2.634697"><ele></ele><time>2023-8-15T12:17:50Z</time></trkpt>
<trkpt lat="48.496674" lon="2.634695"><ele></ele><time>2023-8-15T12:17:53Z</time></trkpt>
<trkpt lat="48.496674" lon="2.634693"><ele></ele><time>2023-8-15T12:17:56Z</time></trkpt>
<trkpt lat="48.496678" lon="2.634739"><ele></ele><time>2023-8-15T12:17:59Z</time></trkpt>
<trkpt lat="48.496679" lon="2.634739"><ele></ele><time>2023-8-15T12:18:2Z</time></trkpt>
<trkpt lat="48.496685" lon="2.634728"><ele></ele><time>2023-8-15T12:18:5Z</time></trkpt>
<trkpt lat="48.496686" lon="2.634727"><ele></ele><time>2023-8-15T12:18:8Z</time></trkpt>
<trkpt lat="48.496713" lon="2.63469"><ele></ele><time>2023-8-15T12:18:11Z</time></trkpt>
<trkpt lat="48.496712" lon="2.634692"><ele></ele><time>2023-8-15T12:18:14Z</time></trkpt>
<trkpt lat="48.496665" lon="2.634697"><ele></ele><time>2023-8-15T12:18:17Z</time></trkpt>
<trkpt lat="48.496661" lon="2.634694"><ele></ele><time>2023-8-15T12:18:20Z</time></trkpt>
<trkpt lat="48.49667" lon="2.63471"><ele></ele><time>2023-8-15T12:18:23Z</time></trkpt>
<trkpt lat="48.496673" lon="2.634711"><ele></ele><time>2023-8-15T12:18:26Z</time></trkpt>
<trkpt lat="48.496669" lon="2.634723"><ele></ele><time>2023-8-15T12:18:29Z</time></trkpt>
<trkpt lat="48.496669" lon="2.634725"><ele></ele><time>2023-8-15T12:18:32Z</time></trkpt>
<trkpt lat="48.496666" lon="2.634744"><ele></ele><time>2023-8-15T12:18:35Z</time></trkpt>
<trkpt lat="48.496666" lon="2.634742"><ele></ele><time>2023-8-15T12:18:38Z</time></trkpt>
<trkpt lat="48.496681" lon="2.634693"><ele></ele><time>2023-8-15T12:18:41Z</time></trkpt>
<trkpt lat="48.496679" lon="2.634697"><ele></ele><time>2023-8-15T12:18:44Z</time></trkpt>
<trkpt lat="48.496689" lon="2.634724"><ele></ele><time>2023-8-15T12:18:47Z</time></trkpt>
<trkpt lat="48.496693" lon="2.634723"><ele></ele><time>2023-8-15T12:18:50Z</time></trkpt>
<trkpt lat="48.496693" lon="2.634723"><ele></ele><time>2023-8-15T12:18:53Z</time></trkpt>
<trkpt lat="48.496692" lon="2.63472"><ele></ele><time>2023-8-15T12:18:56Z</time></trkpt>
<trkpt lat="48.496654" lon="2.634618"><ele></ele><time>2023-8-15T12:18:59Z</time></trkpt>
<trkpt lat="48.496654" lon="2.634622"><ele></ele><time>2023-8-15T12:19:2Z</time></trkpt>
<trkpt lat="48.496667" lon="2.634687"><ele></ele><time>2023-8-15T12:19:5Z</time></trkpt>
<trkpt lat="48.496667" lon="2.634685"><ele></ele><time>2023-8-15T12:19:8Z</time></trkpt>
<trkpt lat="48.496649" lon="2.634685"><ele></ele><time>2023-8-15T12:19:11Z</time></trkpt>
<trkpt lat="48.496653" lon="2.634677"><ele></ele><time>2023-8-15T12:19:14Z</time></trkpt>
</trkseg></trk></gpx>